<?xml version="1.0" encoding="UTF-8" standalone="no" ?>
<gpx xmlns="http://www.topografix.com/GPX/1/1" xmlns:xsi="http://www.w3.org/2001/XMLSchema-instance" xsi:schemaLocation="http://www.topografix.com/GPX/1/1 http://www.topografix.com/GPX/1/1/gpx.xsd" version="1.1" creator="VisuGPX - https://www.visugpx.com">
  <metadata>
    <name>25km annecy</name>
    <desc><![CDATA[Les 25 premiers kilometre de la marathon race d\'annecy. ]]></desc>
  </metadata>
  <trk>
    <name><![CDATA[Move]]></name>
    <trkseg>
      <trkpt lat="45.78941" lon="6.23322">
        <ele>280.3</ele>
        <time>2013-05-26T08:20:08.000Z</time>
      </trkpt>
      <trkpt lat="45.78941" lon="6.23322">
        <ele>280.3</ele>
        <time>2013-05-26T08:20:09.900Z</time>
      </trkpt>
      <trkpt lat="45.78798" lon="6.23252">
        <ele>463.1</ele>
        <time>2013-05-26T08:20:10.900Z</time>
      </trkpt>
      <trkpt lat="45.78802" lon="6.23238">
        <ele>458.3</ele>
        <time>2013-05-26T08:20:11.900Z</time>
      </trkpt>
      <trkpt lat="45.78805" lon="6.23239">
        <ele>458.8</ele>
        <time>2013-05-26T08:20:12.900Z</time>
      </trkpt>
      <trkpt lat="45.78805" lon="6.23239">
        <ele>458.8</ele>
        <time>2013-05-26T08:20:14.800Z</time>
      </trkpt>
      <trkpt lat="45.78805" lon="6.23239">
        <ele>458.8</ele>
        <time>2013-05-26T08:20:17.000Z</time>
      </trkpt>
      <trkpt lat="45.78794" lon="6.23245">
        <ele>445.1</ele>
        <time>2013-05-26T08:20:21.500Z</time>
      </trkpt>
      <trkpt lat="45.7879" lon="6.23246">
        <ele>441.4</ele>
        <time>2013-05-26T08:20:24.500Z</time>
      </trkpt>
      <trkpt lat="45.78788" lon="6.23246">
        <ele>441.7</ele>
        <time>2013-05-26T08:20:25.500Z</time>
      </trkpt>
      <trkpt lat="45.78786" lon="6.23246">
        <ele>443.6</ele>
        <time>2013-05-26T08:20:26.500Z</time>
      </trkpt>
      <trkpt lat="45.78784" lon="6.23247">
        <ele>446.5</ele>
        <time>2013-05-26T08:20:31.500Z</time>
      </trkpt>
      <trkpt lat="45.78776" lon="6.23247">
        <ele>447.4</ele>
        <time>2013-05-26T08:20:38.500Z</time>
      </trkpt>
      <trkpt lat="45.78771" lon="6.23248">
        <ele>443.9</ele>
        <time>2013-05-26T08:20:42.500Z</time>
      </trkpt>
      <trkpt lat="45.78769" lon="6.23248">
        <ele>442.4</ele>
        <time>2013-05-26T08:20:43.500Z</time>
      </trkpt>
      <trkpt lat="45.78764" lon="6.2325">
        <ele>442.1</ele>
        <time>2013-05-26T08:20:47.500Z</time>
      </trkpt>
      <trkpt lat="45.78761" lon="6.23252">
        <ele>444.1</ele>
        <time>2013-05-26T08:20:49.500Z</time>
      </trkpt>
      <trkpt lat="45.7876" lon="6.23253">
        <ele>444.2</ele>
        <time>2013-05-26T08:20:50.500Z</time>
      </trkpt>
      <trkpt lat="45.78754" lon="6.23257">
        <ele>442.3</ele>
        <time>2013-05-26T08:20:54.500Z</time>
      </trkpt>
      <trkpt lat="45.78753" lon="6.23258">
        <ele>442.2</ele>
        <time>2013-05-26T08:20:55.500Z</time>
      </trkpt>
      <trkpt lat="45.78749" lon="6.2326">
        <ele>443.8</ele>
        <time>2013-05-26T08:20:59.500Z</time>
      </trkpt>
      <trkpt lat="45.78744" lon="6.23262">
        <ele>445.5</ele>
        <time>2013-05-26T08:21:04.500Z</time>
      </trkpt>
      <trkpt lat="45.78741" lon="6.23264">
        <ele>445.7</ele>
        <time>2013-05-26T08:21:08.500Z</time>
      </trkpt>
      <trkpt lat="45.78736" lon="6.23266">
        <ele>445.8</ele>
        <time>2013-05-26T08:21:13.500Z</time>
      </trkpt>
      <trkpt lat="45.7873" lon="6.23266">
        <ele>444.3</ele>
        <time>2013-05-26T08:21:18.500Z</time>
      </trkpt>
      <trkpt lat="45.78728" lon="6.23266">
        <ele>444.6</ele>
        <time>2013-05-26T08:21:19.500Z</time>
      </trkpt>
      <trkpt lat="45.78722" lon="6.23267">
        <ele>442.8</ele>
        <time>2013-05-26T08:21:24.500Z</time>
      </trkpt>
      <trkpt lat="45.78718" lon="6.23268">
        <ele>442.5</ele>
        <time>2013-05-26T08:21:29.500Z</time>
      </trkpt>
      <trkpt lat="45.78717" lon="6.23272">
        <ele>441.4</ele>
        <time>2013-05-26T08:21:34.500Z</time>
      </trkpt>
      <trkpt lat="45.78719" lon="6.23276">
        <ele>441</ele>
        <time>2013-05-26T08:21:38.500Z</time>
      </trkpt>
      <trkpt lat="45.7872" lon="6.23278">
        <ele>443.8</ele>
        <time>2013-05-26T08:21:42.500Z</time>
      </trkpt>
      <trkpt lat="45.78726" lon="6.23289">
        <ele>447.6</ele>
        <time>2013-05-26T08:21:49.500Z</time>
      </trkpt>
      <trkpt lat="45.78725" lon="6.23293">
        <ele>448.9</ele>
        <time>2013-05-26T08:21:52.500Z</time>
      </trkpt>
      <trkpt lat="45.78725" lon="6.23295">
        <ele>449.7</ele>
        <time>2013-05-26T08:21:54.500Z</time>
      </trkpt>
      <trkpt lat="45.78725" lon="6.23296">
        <ele>445</ele>
        <time>2013-05-26T08:21:55.500Z</time>
      </trkpt>
      <trkpt lat="45.78724" lon="6.23299">
        <ele>446.1</ele>
        <time>2013-05-26T08:21:57.500Z</time>
      </trkpt>
      <trkpt lat="45.78724" lon="6.23301">
        <ele>444.4</ele>
        <time>2013-05-26T08:21:58.500Z</time>
      </trkpt>
      <trkpt lat="45.78724" lon="6.23301">
        <ele>454.2</ele>
        <time>2013-05-26T08:22:02.500Z</time>
      </trkpt>
      <trkpt lat="45.78725" lon="6.23304">
        <ele>451.5</ele>
        <time>2013-05-26T08:22:05.500Z</time>
      </trkpt>
      <trkpt lat="45.78725" lon="6.23307">
        <ele>451.4</ele>
        <time>2013-05-26T08:22:07.500Z</time>
      </trkpt>
      <trkpt lat="45.78725" lon="6.23307">
        <ele>444.3</ele>
        <time>2013-05-26T08:22:12.500Z</time>
      </trkpt>
      <trkpt lat="45.78724" lon="6.23309">
        <ele>450.2</ele>
        <time>2013-05-26T08:22:17.500Z</time>
      </trkpt>
      <trkpt lat="45.78722" lon="6.23311">
        <ele>454.6</ele>
        <time>2013-05-26T08:22:19.500Z</time>
      </trkpt>
      <trkpt lat="45.78722" lon="6.23312">
        <ele>456.5</ele>
        <time>2013-05-26T08:22:20.500Z</time>
      </trkpt>
      <trkpt lat="45.78721" lon="6.23314">
        <ele>452.3</ele>
        <time>2013-05-26T08:22:21.500Z</time>
      </trkpt>
      <trkpt lat="45.7872" lon="6.23316">
        <ele>449.3</ele>
        <time>2013-05-26T08:22:23.500Z</time>
      </trkpt>
      <trkpt lat="45.7872" lon="6.23317">
        <ele>448</ele>
        <time>2013-05-26T08:22:24.500Z</time>
      </trkpt>
      <trkpt lat="45.78719" lon="6.23319">
        <ele>448.5</ele>
        <time>2013-05-26T08:22:28.500Z</time>
      </trkpt>
      <trkpt lat="45.7872" lon="6.23318">
        <ele>447.8</ele>
        <time>2013-05-26T08:22:33.500Z</time>
      </trkpt>
      <trkpt lat="45.78722" lon="6.23319">
        <ele>444.8</ele>
        <time>2013-05-26T08:22:37.500Z</time>
      </trkpt>
      <trkpt lat="45.7872" lon="6.23322">
        <ele>449</ele>
        <time>2013-05-26T08:22:39.500Z</time>
      </trkpt>
      <trkpt lat="45.78714" lon="6.23339">
        <ele>447.6</ele>
        <time>2013-05-26T08:22:43.500Z</time>
      </trkpt>
      <trkpt lat="45.78713" lon="6.23342">
        <ele>446.2</ele>
        <time>2013-05-26T08:22:44.500Z</time>
      </trkpt>
      <trkpt lat="45.78711" lon="6.23356">
        <ele>446.4</ele>
        <time>2013-05-26T08:22:50.500Z</time>
      </trkpt>
      <trkpt lat="45.78712" lon="6.23369">
        <ele>447</ele>
        <time>2013-05-26T08:22:54.500Z</time>
      </trkpt>
      <trkpt lat="45.78713" lon="6.23369">
        <ele>445.9</ele>
        <time>2013-05-26T08:22:59.500Z</time>
      </trkpt>
      <trkpt lat="45.78713" lon="6.23371">
        <ele>446.6</ele>
        <time>2013-05-26T08:23:00.500Z</time>
      </trkpt>
      <trkpt lat="45.78715" lon="6.23372">
        <ele>448.4</ele>
        <time>2013-05-26T08:23:02.500Z</time>
      </trkpt>
      <trkpt lat="45.78716" lon="6.23373">
        <ele>447.3</ele>
        <time>2013-05-26T08:23:03.500Z</time>
      </trkpt>
      <trkpt lat="45.78718" lon="6.23372">
        <ele>449.7</ele>
        <time>2013-05-26T08:23:07.500Z</time>
      </trkpt>
      <trkpt lat="45.7872" lon="6.23371">
        <ele>455.5</ele>
        <time>2013-05-26T08:23:09.500Z</time>
      </trkpt>
      <trkpt lat="45.78722" lon="6.23369">
        <ele>457</ele>
        <time>2013-05-26T08:23:11.500Z</time>
      </trkpt>
      <trkpt lat="45.78723" lon="6.23368">
        <ele>458</ele>
        <time>2013-05-26T08:23:12.500Z</time>
      </trkpt>
      <trkpt lat="45.78725" lon="6.23368">
        <ele>461.2</ele>
        <time>2013-05-26T08:23:13.500Z</time>
      </trkpt>
      <trkpt lat="45.7873" lon="6.23364">
        <ele>461</ele>
        <time>2013-05-26T08:23:17.500Z</time>
      </trkpt>
      <trkpt lat="45.78732" lon="6.23363">
        <ele>458.4</ele>
        <time>2013-05-26T08:23:18.500Z</time>
      </trkpt>
      <trkpt lat="45.78734" lon="6.23362">
        <ele>456.3</ele>
        <time>2013-05-26T08:23:19.500Z</time>
      </trkpt>
      <trkpt lat="45.78736" lon="6.23362">
        <ele>458.1</ele>
        <time>2013-05-26T08:23:20.500Z</time>
      </trkpt>
      <trkpt lat="45.78739" lon="6.23366">
        <ele>459.9</ele>
        <time>2013-05-26T08:23:23.500Z</time>
      </trkpt>
      <trkpt lat="45.7874" lon="6.23368">
        <ele>460.8</ele>
        <time>2013-05-26T08:23:24.500Z</time>
      </trkpt>
      <trkpt lat="45.78743" lon="6.23373">
        <ele>461.9</ele>
        <time>2013-05-26T08:23:28.500Z</time>
      </trkpt>
      <trkpt lat="45.78747" lon="6.23378">
        <ele>462.7</ele>
        <time>2013-05-26T08:23:32.500Z</time>
      </trkpt>
      <trkpt lat="45.7875" lon="6.23384">
        <ele>463.6</ele>
        <time>2013-05-26T08:23:37.500Z</time>
      </trkpt>
      <trkpt lat="45.78751" lon="6.23386">
        <ele>464.2</ele>
        <time>2013-05-26T08:23:38.500Z</time>
      </trkpt>
      <trkpt lat="45.78752" lon="6.23388">
        <ele>466.1</ele>
        <time>2013-05-26T08:23:39.500Z</time>
      </trkpt>
      <trkpt lat="45.78753" lon="6.2339">
        <ele>464.6</ele>
        <time>2013-05-26T08:23:40.500Z</time>
      </trkpt>
      <trkpt lat="45.78754" lon="6.23391">
        <ele>469</ele>
        <time>2013-05-26T08:23:41.500Z</time>
      </trkpt>
      <trkpt lat="45.78756" lon="6.23393">
        <ele>468.9</ele>
        <time>2013-05-26T08:23:42.500Z</time>
      </trkpt>
      <trkpt lat="45.78757" lon="6.23394">
        <ele>466.7</ele>
        <time>2013-05-26T08:23:43.500Z</time>
      </trkpt>
      <trkpt lat="45.78761" lon="6.23397">
        <ele>466.2</ele>
        <time>2013-05-26T08:23:46.500Z</time>
      </trkpt>
      <trkpt lat="45.78763" lon="6.23398">
        <ele>468.4</ele>
        <time>2013-05-26T08:23:47.500Z</time>
      </trkpt>
      <trkpt lat="45.78765" lon="6.234">
        <ele>462.9</ele>
        <time>2013-05-26T08:23:48.500Z</time>
      </trkpt>
      <trkpt lat="45.78771" lon="6.23404">
        <ele>461.3</ele>
        <time>2013-05-26T08:23:53.500Z</time>
      </trkpt>
      <trkpt lat="45.78773" lon="6.23406">
        <ele>461.6</ele>
        <time>2013-05-26T08:23:54.500Z</time>
      </trkpt>
      <trkpt lat="45.78777" lon="6.23408">
        <ele>465.1</ele>
        <time>2013-05-26T08:23:56.500Z</time>
      </trkpt>
      <trkpt lat="45.78779" lon="6.23409">
        <ele>463.4</ele>
        <time>2013-05-26T08:23:57.500Z</time>
      </trkpt>
      <trkpt lat="45.7878" lon="6.23411">
        <ele>461.7</ele>
        <time>2013-05-26T08:23:58.500Z</time>
      </trkpt>
      <trkpt lat="45.78781" lon="6.23412">
        <ele>462.7</ele>
        <time>2013-05-26T08:23:59.500Z</time>
      </trkpt>
      <trkpt lat="45.78783" lon="6.23414">
        <ele>465.1</ele>
        <time>2013-05-26T08:24:00.500Z</time>
      </trkpt>
      <trkpt lat="45.78785" lon="6.23416">
        <ele>465.3</ele>
        <time>2013-05-26T08:24:01.500Z</time>
      </trkpt>
      <trkpt lat="45.78787" lon="6.23417">
        <ele>467</ele>
        <time>2013-05-26T08:24:02.500Z</time>
      </trkpt>
      <trkpt lat="45.78792" lon="6.23423">
        <ele>465.8</ele>
        <time>2013-05-26T08:24:06.500Z</time>
      </trkpt>
      <trkpt lat="45.78796" lon="6.2343">
        <ele>468.1</ele>
        <time>2013-05-26T08:24:11.500Z</time>
      </trkpt>
      <trkpt lat="45.78799" lon="6.23432">
        <ele>471</ele>
        <time>2013-05-26T08:24:13.500Z</time>
      </trkpt>
      <trkpt lat="45.78805" lon="6.23434">
        <ele>476</ele>
        <time>2013-05-26T08:24:18.500Z</time>
      </trkpt>
      <trkpt lat="45.78807" lon="6.23434">
        <ele>478</ele>
        <time>2013-05-26T08:24:19.500Z</time>
      </trkpt>
      <trkpt lat="45.78812" lon="6.23435">
        <ele>475.7</ele>
        <time>2013-05-26T08:24:23.500Z</time>
      </trkpt>
      <trkpt lat="45.78817" lon="6.23436">
        <ele>478.3</ele>
        <time>2013-05-26T08:24:27.500Z</time>
      </trkpt>
      <trkpt lat="45.78819" lon="6.23437">
        <ele>481</ele>
        <time>2013-05-26T08:24:28.500Z</time>
      </trkpt>
      <trkpt lat="45.78821" lon="6.23437">
        <ele>478.8</ele>
        <time>2013-05-26T08:24:29.500Z</time>
      </trkpt>
      <trkpt lat="45.78827" lon="6.23436">
        <ele>484.1</ele>
        <time>2013-05-26T08:24:34.500Z</time>
      </trkpt>
      <trkpt lat="45.78835" lon="6.23436">
        <ele>485.8</ele>
        <time>2013-05-26T08:24:40.500Z</time>
      </trkpt>
      <trkpt lat="45.78846" lon="6.23438">
        <ele>483.4</ele>
        <time>2013-05-26T08:24:44.500Z</time>
      </trkpt>
      <trkpt lat="45.78855" lon="6.23441">
        <ele>480.7</ele>
        <time>2013-05-26T08:24:49.500Z</time>
      </trkpt>
      <trkpt lat="45.78866" lon="6.23441">
        <ele>478.1</ele>
        <time>2013-05-26T08:24:53.500Z</time>
      </trkpt>
      <trkpt lat="45.78877" lon="6.23443">
        <ele>485.5</ele>
        <time>2013-05-26T08:24:57.500Z</time>
      </trkpt>
      <trkpt lat="45.78882" lon="6.23445">
        <ele>480.4</ele>
        <time>2013-05-26T08:24:59.500Z</time>
      </trkpt>
      <trkpt lat="45.78884" lon="6.23446">
        <ele>476.7</ele>
        <time>2013-05-26T08:25:00.500Z</time>
      </trkpt>
      <trkpt lat="45.78886" lon="6.23447">
        <ele>477.9</ele>
        <time>2013-05-26T08:25:01.500Z</time>
      </trkpt>
      <trkpt lat="45.78895" lon="6.23448">
        <ele>477.4</ele>
        <time>2013-05-26T08:25:04.500Z</time>
      </trkpt>
      <trkpt lat="45.78897" lon="6.23449">
        <ele>477.3</ele>
        <time>2013-05-26T08:25:05.500Z</time>
      </trkpt>
      <trkpt lat="45.789" lon="6.23449">
        <ele>478.3</ele>
        <time>2013-05-26T08:25:06.500Z</time>
      </trkpt>
      <trkpt lat="45.78902" lon="6.23449">
        <ele>479.9</ele>
        <time>2013-05-26T08:25:07.500Z</time>
      </trkpt>
      <trkpt lat="45.78905" lon="6.23449">
        <ele>482.8</ele>
        <time>2013-05-26T08:25:09.500Z</time>
      </trkpt>
      <trkpt lat="45.78908" lon="6.23449">
        <ele>481.6</ele>
        <time>2013-05-26T08:25:10.500Z</time>
      </trkpt>
      <trkpt lat="45.7891" lon="6.23448">
        <ele>481.9</ele>
        <time>2013-05-26T08:25:11.500Z</time>
      </trkpt>
      <trkpt lat="45.78912" lon="6.23448">
        <ele>482.1</ele>
        <time>2013-05-26T08:25:12.500Z</time>
      </trkpt>
      <trkpt lat="45.78928" lon="6.23446">
        <ele>481.7</ele>
        <time>2013-05-26T08:25:19.500Z</time>
      </trkpt>
      <trkpt lat="45.78931" lon="6.23447">
        <ele>481</ele>
        <time>2013-05-26T08:25:20.500Z</time>
      </trkpt>
      <trkpt lat="45.78933" lon="6.23448">
        <ele>485.6</ele>
        <time>2013-05-26T08:25:21.500Z</time>
      </trkpt>
      <trkpt lat="45.78936" lon="6.2345">
        <ele>486.2</ele>
        <time>2013-05-26T08:25:22.500Z</time>
      </trkpt>
      <trkpt lat="45.78939" lon="6.23452">
        <ele>484.5</ele>
        <time>2013-05-26T08:25:23.500Z</time>
      </trkpt>
      <trkpt lat="45.78941" lon="6.23454">
        <ele>486.5</ele>
        <time>2013-05-26T08:25:24.500Z</time>
      </trkpt>
      <trkpt lat="45.78943" lon="6.23456">
        <ele>486.8</ele>
        <time>2013-05-26T08:25:25.500Z</time>
      </trkpt>
      <trkpt lat="45.78945" lon="6.23457">
        <ele>484.7</ele>
        <time>2013-05-26T08:25:26.500Z</time>
      </trkpt>
      <trkpt lat="45.78947" lon="6.23459">
        <ele>482.8</ele>
        <time>2013-05-26T08:25:27.500Z</time>
      </trkpt>
      <trkpt lat="45.7895" lon="6.23461">
        <ele>481.4</ele>
        <time>2013-05-26T08:25:28.500Z</time>
      </trkpt>
      <trkpt lat="45.78951" lon="6.23463">
        <ele>481.4</ele>
        <time>2013-05-26T08:25:29.500Z</time>
      </trkpt>
      <trkpt lat="45.78954" lon="6.23466">
        <ele>482.7</ele>
        <time>2013-05-26T08:25:31.500Z</time>
      </trkpt>
      <trkpt lat="45.7896" lon="6.23471">
        <ele>480.9</ele>
        <time>2013-05-26T08:25:35.500Z</time>
      </trkpt>
      <trkpt lat="45.78963" lon="6.23474">
        <ele>483.3</ele>
        <time>2013-05-26T08:25:37.500Z</time>
      </trkpt>
      <trkpt lat="45.78964" lon="6.23477">
        <ele>484.1</ele>
        <time>2013-05-26T08:25:38.500Z</time>
      </trkpt>
      <trkpt lat="45.78965" lon="6.23479">
        <ele>484.4</ele>
        <time>2013-05-26T08:25:39.500Z</time>
      </trkpt>
      <trkpt lat="45.78971" lon="6.23487">
        <ele>489.4</ele>
        <time>2013-05-26T08:25:44.500Z</time>
      </trkpt>
      <trkpt lat="45.78976" lon="6.23491">
        <ele>487.9</ele>
        <time>2013-05-26T08:25:47.500Z</time>
      </trkpt>
      <trkpt lat="45.78977" lon="6.23493">
        <ele>488.2</ele>
        <time>2013-05-26T08:25:48.500Z</time>
      </trkpt>
      <trkpt lat="45.78979" lon="6.23495">
        <ele>490.6</ele>
        <time>2013-05-26T08:25:49.500Z</time>
      </trkpt>
      <trkpt lat="45.78982" lon="6.23497">
        <ele>491.6</ele>
        <time>2013-05-26T08:25:51.500Z</time>
      </trkpt>
      <trkpt lat="45.78984" lon="6.23498">
        <ele>489.7</ele>
        <time>2013-05-26T08:25:52.500Z</time>
      </trkpt>
      <trkpt lat="45.78989" lon="6.23503">
        <ele>492.6</ele>
        <time>2013-05-26T08:25:56.500Z</time>
      </trkpt>
      <trkpt lat="45.78995" lon="6.23507">
        <ele>492.3</ele>
        <time>2013-05-26T08:26:01.500Z</time>
      </trkpt>
      <trkpt lat="45.78998" lon="6.23509">
        <ele>493.6</ele>
        <time>2013-05-26T08:26:03.500Z</time>
      </trkpt>
      <trkpt lat="45.78999" lon="6.23511">
        <ele>494.5</ele>
        <time>2013-05-26T08:26:04.500Z</time>
      </trkpt>
      <trkpt lat="45.79001" lon="6.23513">
        <ele>496.1</ele>
        <time>2013-05-26T08:26:05.500Z</time>
      </trkpt>
      <trkpt lat="45.79002" lon="6.23514">
        <ele>498.4</ele>
        <time>2013-05-26T08:26:06.500Z</time>
      </trkpt>
      <trkpt lat="45.79005" lon="6.23516">
        <ele>496.7</ele>
        <time>2013-05-26T08:26:08.500Z</time>
      </trkpt>
      <trkpt lat="45.79008" lon="6.23518">
        <ele>499.3</ele>
        <time>2013-05-26T08:26:10.500Z</time>
      </trkpt>
      <trkpt lat="45.7901" lon="6.23519">
        <ele>499.2</ele>
        <time>2013-05-26T08:26:11.500Z</time>
      </trkpt>
      <trkpt lat="45.79013" lon="6.23521">
        <ele>500.5</ele>
        <time>2013-05-26T08:26:13.500Z</time>
      </trkpt>
      <trkpt lat="45.79015" lon="6.23523">
        <ele>496.9</ele>
        <time>2013-05-26T08:26:14.500Z</time>
      </trkpt>
      <trkpt lat="45.79017" lon="6.23524">
        <ele>494.9</ele>
        <time>2013-05-26T08:26:15.500Z</time>
      </trkpt>
      <trkpt lat="45.79018" lon="6.23525">
        <ele>495.4</ele>
        <time>2013-05-26T08:26:16.500Z</time>
      </trkpt>
      <trkpt lat="45.79021" lon="6.23526">
        <ele>495.1</ele>
        <time>2013-05-26T08:26:18.500Z</time>
      </trkpt>
      <trkpt lat="45.79026" lon="6.23529">
        <ele>493.6</ele>
        <time>2013-05-26T08:26:22.500Z</time>
      </trkpt>
      <trkpt lat="45.79029" lon="6.23533">
        <ele>501.4</ele>
        <time>2013-05-26T08:26:24.500Z</time>
      </trkpt>
      <trkpt lat="45.79034" lon="6.23539">
        <ele>496.9</ele>
        <time>2013-05-26T08:26:28.500Z</time>
      </trkpt>
      <trkpt lat="45.79035" lon="6.2354">
        <ele>498.5</ele>
        <time>2013-05-26T08:26:29.500Z</time>
      </trkpt>
      <trkpt lat="45.79041" lon="6.23545">
        <ele>501.5</ele>
        <time>2013-05-26T08:26:34.500Z</time>
      </trkpt>
      <trkpt lat="45.79043" lon="6.23547">
        <ele>501.7</ele>
        <time>2013-05-26T08:26:35.500Z</time>
      </trkpt>
      <trkpt lat="45.79047" lon="6.23552">
        <ele>501.5</ele>
        <time>2013-05-26T08:26:39.500Z</time>
      </trkpt>
      <trkpt lat="45.79048" lon="6.23553">
        <ele>505.7</ele>
        <time>2013-05-26T08:26:40.500Z</time>
      </trkpt>
      <trkpt lat="45.79054" lon="6.2356">
        <ele>500</ele>
        <time>2013-05-26T08:26:45.500Z</time>
      </trkpt>
      <trkpt lat="45.79057" lon="6.23562">
        <ele>505.5</ele>
        <time>2013-05-26T08:26:47.500Z</time>
      </trkpt>
      <trkpt lat="45.79059" lon="6.23563">
        <ele>510.2</ele>
        <time>2013-05-26T08:26:49.500Z</time>
      </trkpt>
      <trkpt lat="45.7906" lon="6.23565">
        <ele>508.6</ele>
        <time>2013-05-26T08:26:50.500Z</time>
      </trkpt>
      <trkpt lat="45.79061" lon="6.23567">
        <ele>506.2</ele>
        <time>2013-05-26T08:26:51.500Z</time>
      </trkpt>
      <trkpt lat="45.79067" lon="6.23572">
        <ele>511.5</ele>
        <time>2013-05-26T08:26:55.500Z</time>
      </trkpt>
      <trkpt lat="45.79072" lon="6.23576">
        <ele>512</ele>
        <time>2013-05-26T08:26:58.500Z</time>
      </trkpt>
      <trkpt lat="45.79073" lon="6.23577">
        <ele>507.9</ele>
        <time>2013-05-26T08:26:59.500Z</time>
      </trkpt>
      <trkpt lat="45.79082" lon="6.23585">
        <ele>511.4</ele>
        <time>2013-05-26T08:27:03.500Z</time>
      </trkpt>
      <trkpt lat="45.79091" lon="6.23593">
        <ele>514.4</ele>
        <time>2013-05-26T08:27:07.500Z</time>
      </trkpt>
      <trkpt lat="45.79098" lon="6.236">
        <ele>513.7</ele>
        <time>2013-05-26T08:27:12.500Z</time>
      </trkpt>
      <trkpt lat="45.79101" lon="6.23604">
        <ele>517.7</ele>
        <time>2013-05-26T08:27:14.500Z</time>
      </trkpt>
      <trkpt lat="45.79101" lon="6.23606">
        <ele>518.9</ele>
        <time>2013-05-26T08:27:15.500Z</time>
      </trkpt>
      <trkpt lat="45.79103" lon="6.23608">
        <ele>515</ele>
        <time>2013-05-26T08:27:20.500Z</time>
      </trkpt>
      <trkpt lat="45.79103" lon="6.23608">
        <ele>510.5</ele>
        <time>2013-05-26T08:27:25.500Z</time>
      </trkpt>
      <trkpt lat="45.79103" lon="6.23608">
        <ele>507.8</ele>
        <time>2013-05-26T08:27:29.500Z</time>
      </trkpt>
      <trkpt lat="45.79108" lon="6.23618">
        <ele>511.8</ele>
        <time>2013-05-26T08:27:33.500Z</time>
      </trkpt>
      <trkpt lat="45.79108" lon="6.23618">
        <ele>513.4</ele>
        <time>2013-05-26T08:27:38.500Z</time>
      </trkpt>
      <trkpt lat="45.79108" lon="6.23618">
        <ele>517.7</ele>
        <time>2013-05-26T08:27:43.500Z</time>
      </trkpt>
      <trkpt lat="45.79107" lon="6.23622">
        <ele>517.6</ele>
        <time>2013-05-26T08:27:46.500Z</time>
      </trkpt>
      <trkpt lat="45.79107" lon="6.23622">
        <ele>512.6</ele>
        <time>2013-05-26T08:27:50.500Z</time>
      </trkpt>
      <trkpt lat="45.79107" lon="6.23622">
        <ele>517.6</ele>
        <time>2013-05-26T08:27:54.500Z</time>
      </trkpt>
      <trkpt lat="45.79107" lon="6.23622">
        <ele>519.8</ele>
        <time>2013-05-26T08:27:58.500Z</time>
      </trkpt>
      <trkpt lat="45.79106" lon="6.23623">
        <ele>523</ele>
        <time>2013-05-26T08:28:00.500Z</time>
      </trkpt>
      <trkpt lat="45.79105" lon="6.23626">
        <ele>526.7</ele>
        <time>2013-05-26T08:28:04.500Z</time>
      </trkpt>
      <trkpt lat="45.79105" lon="6.23626">
        <ele>531.8</ele>
        <time>2013-05-26T08:28:09.500Z</time>
      </trkpt>
      <trkpt lat="45.79104" lon="6.23627">
        <ele>526.7</ele>
        <time>2013-05-26T08:28:14.500Z</time>
      </trkpt>
      <trkpt lat="45.79104" lon="6.23628">
        <ele>527.9</ele>
        <time>2013-05-26T08:28:18.500Z</time>
      </trkpt>
      <trkpt lat="45.79106" lon="6.23627">
        <ele>523.8</ele>
        <time>2013-05-26T08:28:20.500Z</time>
      </trkpt>
      <trkpt lat="45.7911" lon="6.23625">
        <ele>520.2</ele>
        <time>2013-05-26T08:28:23.500Z</time>
      </trkpt>
      <trkpt lat="45.79111" lon="6.23624">
        <ele>518.9</ele>
        <time>2013-05-26T08:28:24.500Z</time>
      </trkpt>
      <trkpt lat="45.79113" lon="6.23618">
        <ele>517.5</ele>
        <time>2013-05-26T08:28:29.500Z</time>
      </trkpt>
      <trkpt lat="45.79114" lon="6.23616">
        <ele>519.5</ele>
        <time>2013-05-26T08:28:30.500Z</time>
      </trkpt>
      <trkpt lat="45.79115" lon="6.23615">
        <ele>520</ele>
        <time>2013-05-26T08:28:31.500Z</time>
      </trkpt>
      <trkpt lat="45.79121" lon="6.23614">
        <ele>527.4</ele>
        <time>2013-05-26T08:28:36.500Z</time>
      </trkpt>
      <trkpt lat="45.79123" lon="6.23614">
        <ele>525.2</ele>
        <time>2013-05-26T08:28:41.500Z</time>
      </trkpt>
      <trkpt lat="45.79125" lon="6.23615">
        <ele>519.1</ele>
        <time>2013-05-26T08:28:44.500Z</time>
      </trkpt>
      <trkpt lat="45.79127" lon="6.23616">
        <ele>522.5</ele>
        <time>2013-05-26T08:28:47.500Z</time>
      </trkpt>
      <trkpt lat="45.79134" lon="6.23619">
        <ele>518.3</ele>
        <time>2013-05-26T08:28:53.500Z</time>
      </trkpt>
      <trkpt lat="45.79149" lon="6.23623">
        <ele>519.7</ele>
        <time>2013-05-26T08:28:58.500Z</time>
      </trkpt>
      <trkpt lat="45.7915" lon="6.23624">
        <ele>519.2</ele>
        <time>2013-05-26T08:28:59.500Z</time>
      </trkpt>
      <trkpt lat="45.79152" lon="6.23625">
        <ele>521.7</ele>
        <time>2013-05-26T08:29:00.500Z</time>
      </trkpt>
      <trkpt lat="45.79157" lon="6.23624">
        <ele>524.6</ele>
        <time>2013-05-26T08:29:05.500Z</time>
      </trkpt>
      <trkpt lat="45.79161" lon="6.23622">
        <ele>526.7</ele>
        <time>2013-05-26T08:29:08.500Z</time>
      </trkpt>
      <trkpt lat="45.79167" lon="6.23619">
        <ele>523.6</ele>
        <time>2013-05-26T08:29:12.500Z</time>
      </trkpt>
      <trkpt lat="45.7917" lon="6.2362">
        <ele>526.5</ele>
        <time>2013-05-26T08:29:17.500Z</time>
      </trkpt>
      <trkpt lat="45.79179" lon="6.2362">
        <ele>531</ele>
        <time>2013-05-26T08:29:22.500Z</time>
      </trkpt>
      <trkpt lat="45.79188" lon="6.2362">
        <ele>541.3</ele>
        <time>2013-05-26T08:29:27.500Z</time>
      </trkpt>
      <trkpt lat="45.79193" lon="6.23618">
        <ele>548.8</ele>
        <time>2013-05-26T08:29:31.500Z</time>
      </trkpt>
      <trkpt lat="45.79197" lon="6.23619">
        <ele>547.7</ele>
        <time>2013-05-26T08:29:34.500Z</time>
      </trkpt>
      <trkpt lat="45.79209" lon="6.23619">
        <ele>557.6</ele>
        <time>2013-05-26T08:29:39.500Z</time>
      </trkpt>
      <trkpt lat="45.7921" lon="6.23618">
        <ele>556.2</ele>
        <time>2013-05-26T08:29:41.500Z</time>
      </trkpt>
      <trkpt lat="45.79224" lon="6.23614">
        <ele>559</ele>
        <time>2013-05-26T08:29:45.500Z</time>
      </trkpt>
      <trkpt lat="45.79228" lon="6.23611">
        <ele>565.2</ele>
        <time>2013-05-26T08:29:48.500Z</time>
      </trkpt>
      <trkpt lat="45.79229" lon="6.2361">
        <ele>563.1</ele>
        <time>2013-05-26T08:29:49.500Z</time>
      </trkpt>
      <trkpt lat="45.79235" lon="6.23603">
        <ele>561.8</ele>
        <time>2013-05-26T08:29:55.500Z</time>
      </trkpt>
      <trkpt lat="45.79235" lon="6.23603">
        <ele>564.5</ele>
        <time>2013-05-26T08:29:59.500Z</time>
      </trkpt>
      <trkpt lat="45.79242" lon="6.23596">
        <ele>561</ele>
        <time>2013-05-26T08:30:04.500Z</time>
      </trkpt>
      <trkpt lat="45.79243" lon="6.23595">
        <ele>562.8</ele>
        <time>2013-05-26T08:30:05.500Z</time>
      </trkpt>
      <trkpt lat="45.79244" lon="6.23595">
        <ele>564.6</ele>
        <time>2013-05-26T08:30:06.500Z</time>
      </trkpt>
      <trkpt lat="45.7925" lon="6.23591">
        <ele>567.7</ele>
        <time>2013-05-26T08:30:10.500Z</time>
      </trkpt>
      <trkpt lat="45.79251" lon="6.2359">
        <ele>566</ele>
        <time>2013-05-26T08:30:11.500Z</time>
      </trkpt>
      <trkpt lat="45.79254" lon="6.23586">
        <ele>573.6</ele>
        <time>2013-05-26T08:30:16.500Z</time>
      </trkpt>
      <trkpt lat="45.79261" lon="6.23586">
        <ele>579.5</ele>
        <time>2013-05-26T08:30:24.500Z</time>
      </trkpt>
      <trkpt lat="45.79265" lon="6.23585">
        <ele>575.4</ele>
        <time>2013-05-26T08:30:29.500Z</time>
      </trkpt>
      <trkpt lat="45.79268" lon="6.23583">
        <ele>575.5</ele>
        <time>2013-05-26T08:30:32.500Z</time>
      </trkpt>
      <trkpt lat="45.79271" lon="6.23583">
        <ele>582.2</ele>
        <time>2013-05-26T08:30:35.500Z</time>
      </trkpt>
      <trkpt lat="45.79276" lon="6.23583">
        <ele>573.8</ele>
        <time>2013-05-26T08:30:41.500Z</time>
      </trkpt>
      <trkpt lat="45.7928" lon="6.2359">
        <ele>575</ele>
        <time>2013-05-26T08:30:46.500Z</time>
      </trkpt>
      <trkpt lat="45.79282" lon="6.23595">
        <ele>570.8</ele>
        <time>2013-05-26T08:30:50.500Z</time>
      </trkpt>
      <trkpt lat="45.79289" lon="6.23596">
        <ele>574.2</ele>
        <time>2013-05-26T08:30:54.500Z</time>
      </trkpt>
      <trkpt lat="45.79292" lon="6.23597">
        <ele>574</ele>
        <time>2013-05-26T08:30:56.500Z</time>
      </trkpt>
      <trkpt lat="45.79293" lon="6.23598">
        <ele>575.3</ele>
        <time>2013-05-26T08:30:57.500Z</time>
      </trkpt>
      <trkpt lat="45.79305" lon="6.23608">
        <ele>576</ele>
        <time>2013-05-26T08:31:04.500Z</time>
      </trkpt>
      <trkpt lat="45.79307" lon="6.2361">
        <ele>578.2</ele>
        <time>2013-05-26T08:31:06.500Z</time>
      </trkpt>
      <trkpt lat="45.79311" lon="6.23618">
        <ele>584.8</ele>
        <time>2013-05-26T08:31:11.500Z</time>
      </trkpt>
      <trkpt lat="45.79313" lon="6.23619">
        <ele>588.5</ele>
        <time>2013-05-26T08:31:12.600Z</time>
      </trkpt>
      <trkpt lat="45.79315" lon="6.23623">
        <ele>583.6</ele>
        <time>2013-05-26T08:31:14.500Z</time>
      </trkpt>
      <trkpt lat="45.79316" lon="6.23625">
        <ele>584</ele>
        <time>2013-05-26T08:31:15.500Z</time>
      </trkpt>
      <trkpt lat="45.79318" lon="6.23626">
        <ele>584.4</ele>
        <time>2013-05-26T08:31:16.500Z</time>
      </trkpt>
      <trkpt lat="45.7932" lon="6.23625">
        <ele>586.8</ele>
        <time>2013-05-26T08:31:18.500Z</time>
      </trkpt>
      <trkpt lat="45.79325" lon="6.23625">
        <ele>587.6</ele>
        <time>2013-05-26T08:31:22.500Z</time>
      </trkpt>
      <trkpt lat="45.7933" lon="6.23631">
        <ele>587</ele>
        <time>2013-05-26T08:31:26.500Z</time>
      </trkpt>
      <trkpt lat="45.79334" lon="6.23633">
        <ele>586.9</ele>
        <time>2013-05-26T08:31:29.500Z</time>
      </trkpt>
      <trkpt lat="45.79334" lon="6.23633">
        <ele>583.5</ele>
        <time>2013-05-26T08:31:33.600Z</time>
      </trkpt>
      <trkpt lat="45.79338" lon="6.23636">
        <ele>583.6</ele>
        <time>2013-05-26T08:31:37.500Z</time>
      </trkpt>
      <trkpt lat="45.79344" lon="6.23639">
        <ele>583.4</ele>
        <time>2013-05-26T08:31:42.500Z</time>
      </trkpt>
      <trkpt lat="45.79347" lon="6.23639">
        <ele>577.3</ele>
        <time>2013-05-26T08:31:44.500Z</time>
      </trkpt>
      <trkpt lat="45.79353" lon="6.23644">
        <ele>583.9</ele>
        <time>2013-05-26T08:31:49.500Z</time>
      </trkpt>
      <trkpt lat="45.79364" lon="6.23646">
        <ele>580.8</ele>
        <time>2013-05-26T08:31:54.500Z</time>
      </trkpt>
      <trkpt lat="45.79365" lon="6.23651">
        <ele>582.5</ele>
        <time>2013-05-26T08:31:57.500Z</time>
      </trkpt>
      <trkpt lat="45.79369" lon="6.23652">
        <ele>589.3</ele>
        <time>2013-05-26T08:32:01.500Z</time>
      </trkpt>
      <trkpt lat="45.79375" lon="6.23653">
        <ele>593.3</ele>
        <time>2013-05-26T08:32:05.500Z</time>
      </trkpt>
      <trkpt lat="45.79382" lon="6.23658">
        <ele>591.1</ele>
        <time>2013-05-26T08:32:10.500Z</time>
      </trkpt>
      <trkpt lat="45.79385" lon="6.23659">
        <ele>603.6</ele>
        <time>2013-05-26T08:32:15.500Z</time>
      </trkpt>
      <trkpt lat="45.79385" lon="6.23659">
        <ele>603.7</ele>
        <time>2013-05-26T08:32:19.500Z</time>
      </trkpt>
      <trkpt lat="45.79387" lon="6.23664">
        <ele>608.3</ele>
        <time>2013-05-26T08:32:23.500Z</time>
      </trkpt>
      <trkpt lat="45.79388" lon="6.23667">
        <ele>612.6</ele>
        <time>2013-05-26T08:32:25.500Z</time>
      </trkpt>
      <trkpt lat="45.7939" lon="6.2367">
        <ele>606.6</ele>
        <time>2013-05-26T08:32:28.500Z</time>
      </trkpt>
      <trkpt lat="45.79393" lon="6.23671">
        <ele>610.3</ele>
        <time>2013-05-26T08:32:32.500Z</time>
      </trkpt>
      <trkpt lat="45.79393" lon="6.23676">
        <ele>612.7</ele>
        <time>2013-05-26T08:32:36.500Z</time>
      </trkpt>
      <trkpt lat="45.79393" lon="6.2368">
        <ele>612.2</ele>
        <time>2013-05-26T08:32:39.500Z</time>
      </trkpt>
      <trkpt lat="45.79394" lon="6.23685">
        <ele>619.4</ele>
        <time>2013-05-26T08:32:42.500Z</time>
      </trkpt>
      <trkpt lat="45.79395" lon="6.23701">
        <ele>618.1</ele>
        <time>2013-05-26T08:32:47.500Z</time>
      </trkpt>
      <trkpt lat="45.79394" lon="6.23705">
        <ele>618.1</ele>
        <time>2013-05-26T08:32:51.500Z</time>
      </trkpt>
      <trkpt lat="45.79394" lon="6.23708">
        <ele>617</ele>
        <time>2013-05-26T08:32:53.500Z</time>
      </trkpt>
      <trkpt lat="45.79392" lon="6.23712">
        <ele>619.9</ele>
        <time>2013-05-26T08:32:57.500Z</time>
      </trkpt>
      <trkpt lat="45.79392" lon="6.23713">
        <ele>616.1</ele>
        <time>2013-05-26T08:32:58.500Z</time>
      </trkpt>
      <trkpt lat="45.79391" lon="6.23716">
        <ele>618.2</ele>
        <time>2013-05-26T08:33:00.500Z</time>
      </trkpt>
      <trkpt lat="45.7939" lon="6.23717">
        <ele>615.7</ele>
        <time>2013-05-26T08:33:01.500Z</time>
      </trkpt>
      <trkpt lat="45.7939" lon="6.23718">
        <ele>620</ele>
        <time>2013-05-26T08:33:02.500Z</time>
      </trkpt>
      <trkpt lat="45.79389" lon="6.23721">
        <ele>621.9</ele>
        <time>2013-05-26T08:33:04.500Z</time>
      </trkpt>
      <trkpt lat="45.79388" lon="6.23723">
        <ele>619.7</ele>
        <time>2013-05-26T08:33:05.500Z</time>
      </trkpt>
      <trkpt lat="45.79386" lon="6.23725">
        <ele>619.9</ele>
        <time>2013-05-26T08:33:06.700Z</time>
      </trkpt>
      <trkpt lat="45.79385" lon="6.23728">
        <ele>620.4</ele>
        <time>2013-05-26T08:33:08.500Z</time>
      </trkpt>
      <trkpt lat="45.79383" lon="6.2373">
        <ele>621.3</ele>
        <time>2013-05-26T08:33:12.500Z</time>
      </trkpt>
      <trkpt lat="45.79382" lon="6.23733">
        <ele>616</ele>
        <time>2013-05-26T08:33:15.500Z</time>
      </trkpt>
      <trkpt lat="45.79382" lon="6.23735">
        <ele>616.6</ele>
        <time>2013-05-26T08:33:16.500Z</time>
      </trkpt>
      <trkpt lat="45.79381" lon="6.23738">
        <ele>615.9</ele>
        <time>2013-05-26T08:33:18.500Z</time>
      </trkpt>
      <trkpt lat="45.79381" lon="6.23739">
        <ele>616.4</ele>
        <time>2013-05-26T08:33:19.500Z</time>
      </trkpt>
      <trkpt lat="45.79381" lon="6.23741">
        <ele>614.9</ele>
        <time>2013-05-26T08:33:20.500Z</time>
      </trkpt>
      <trkpt lat="45.79381" lon="6.23743">
        <ele>615.2</ele>
        <time>2013-05-26T08:33:21.500Z</time>
      </trkpt>
      <trkpt lat="45.79381" lon="6.23744">
        <ele>615.3</ele>
        <time>2013-05-26T08:33:22.500Z</time>
      </trkpt>
      <trkpt lat="45.79382" lon="6.23746">
        <ele>614.9</ele>
        <time>2013-05-26T08:33:23.500Z</time>
      </trkpt>
      <trkpt lat="45.79381" lon="6.23748">
        <ele>613.8</ele>
        <time>2013-05-26T08:33:25.500Z</time>
      </trkpt>
      <trkpt lat="45.7938" lon="6.2375">
        <ele>617.7</ele>
        <time>2013-05-26T08:33:26.500Z</time>
      </trkpt>
      <trkpt lat="45.79379" lon="6.23757">
        <ele>619.4</ele>
        <time>2013-05-26T08:33:30.500Z</time>
      </trkpt>
      <trkpt lat="45.79379" lon="6.23758">
        <ele>620.9</ele>
        <time>2013-05-26T08:33:31.500Z</time>
      </trkpt>
      <trkpt lat="45.79378" lon="6.23761">
        <ele>621.5</ele>
        <time>2013-05-26T08:33:33.500Z</time>
      </trkpt>
      <trkpt lat="45.79378" lon="6.23763">
        <ele>621.3</ele>
        <time>2013-05-26T08:33:34.500Z</time>
      </trkpt>
      <trkpt lat="45.79378" lon="6.23764">
        <ele>625.5</ele>
        <time>2013-05-26T08:33:35.500Z</time>
      </trkpt>
      <trkpt lat="45.79377" lon="6.23769">
        <ele>623.9</ele>
        <time>2013-05-26T08:33:39.500Z</time>
      </trkpt>
      <trkpt lat="45.79376" lon="6.23773">
        <ele>621.3</ele>
        <time>2013-05-26T08:33:41.500Z</time>
      </trkpt>
      <trkpt lat="45.79376" lon="6.23775">
        <ele>625.2</ele>
        <time>2013-05-26T08:33:43.500Z</time>
      </trkpt>
      <trkpt lat="45.79374" lon="6.23777">
        <ele>626.4</ele>
        <time>2013-05-26T08:33:45.500Z</time>
      </trkpt>
      <trkpt lat="45.79372" lon="6.23779">
        <ele>629.6</ele>
        <time>2013-05-26T08:33:46.500Z</time>
      </trkpt>
      <trkpt lat="45.79364" lon="6.23784">
        <ele>625.9</ele>
        <time>2013-05-26T08:33:51.500Z</time>
      </trkpt>
      <trkpt lat="45.79362" lon="6.23785">
        <ele>627.7</ele>
        <time>2013-05-26T08:33:52.500Z</time>
      </trkpt>
      <trkpt lat="45.79361" lon="6.23785">
        <ele>623.4</ele>
        <time>2013-05-26T08:33:53.500Z</time>
      </trkpt>
      <trkpt lat="45.79359" lon="6.23785">
        <ele>622.5</ele>
        <time>2013-05-26T08:33:54.500Z</time>
      </trkpt>
      <trkpt lat="45.79357" lon="6.23785">
        <ele>621.3</ele>
        <time>2013-05-26T08:33:55.500Z</time>
      </trkpt>
      <trkpt lat="45.79353" lon="6.23785">
        <ele>617</ele>
        <time>2013-05-26T08:33:58.500Z</time>
      </trkpt>
      <trkpt lat="45.7935" lon="6.23785">
        <ele>617.1</ele>
        <time>2013-05-26T08:34:00.500Z</time>
      </trkpt>
      <trkpt lat="45.79348" lon="6.23784">
        <ele>615.9</ele>
        <time>2013-05-26T08:34:01.500Z</time>
      </trkpt>
      <trkpt lat="45.79347" lon="6.23783">
        <ele>618.7</ele>
        <time>2013-05-26T08:34:02.500Z</time>
      </trkpt>
      <trkpt lat="45.79345" lon="6.23783">
        <ele>616.9</ele>
        <time>2013-05-26T08:34:03.500Z</time>
      </trkpt>
      <trkpt lat="45.79342" lon="6.23783">
        <ele>616.3</ele>
        <time>2013-05-26T08:34:04.500Z</time>
      </trkpt>
      <trkpt lat="45.7934" lon="6.23782">
        <ele>616.8</ele>
        <time>2013-05-26T08:34:05.500Z</time>
      </trkpt>
      <trkpt lat="45.79339" lon="6.23781">
        <ele>618.3</ele>
        <time>2013-05-26T08:34:06.500Z</time>
      </trkpt>
      <trkpt lat="45.79336" lon="6.23781">
        <ele>623</ele>
        <time>2013-05-26T08:34:08.500Z</time>
      </trkpt>
      <trkpt lat="45.79334" lon="6.2378">
        <ele>625.9</ele>
        <time>2013-05-26T08:34:09.500Z</time>
      </trkpt>
      <trkpt lat="45.79332" lon="6.23779">
        <ele>623.7</ele>
        <time>2013-05-26T08:34:10.500Z</time>
      </trkpt>
      <trkpt lat="45.7933" lon="6.23778">
        <ele>625.8</ele>
        <time>2013-05-26T08:34:11.500Z</time>
      </trkpt>
      <trkpt lat="45.79328" lon="6.23778">
        <ele>622.1</ele>
        <time>2013-05-26T08:34:12.500Z</time>
      </trkpt>
      <trkpt lat="45.79327" lon="6.23777">
        <ele>620.2</ele>
        <time>2013-05-26T08:34:13.500Z</time>
      </trkpt>
      <trkpt lat="45.79325" lon="6.23776">
        <ele>618.7</ele>
        <time>2013-05-26T08:34:14.500Z</time>
      </trkpt>
      <trkpt lat="45.79323" lon="6.23776">
        <ele>621.5</ele>
        <time>2013-05-26T08:34:15.500Z</time>
      </trkpt>
      <trkpt lat="45.79319" lon="6.23774">
        <ele>619.6</ele>
        <time>2013-05-26T08:34:18.500Z</time>
      </trkpt>
      <trkpt lat="45.79317" lon="6.23774">
        <ele>621.8</ele>
        <time>2013-05-26T08:34:19.500Z</time>
      </trkpt>
      <trkpt lat="45.79316" lon="6.23774">
        <ele>626</ele>
        <time>2013-05-26T08:34:20.500Z</time>
      </trkpt>
      <trkpt lat="45.79314" lon="6.23774">
        <ele>625.7</ele>
        <time>2013-05-26T08:34:21.500Z</time>
      </trkpt>
      <trkpt lat="45.79311" lon="6.23775">
        <ele>626.4</ele>
        <time>2013-05-26T08:34:23.500Z</time>
      </trkpt>
      <trkpt lat="45.7931" lon="6.23776">
        <ele>625.6</ele>
        <time>2013-05-26T08:34:24.500Z</time>
      </trkpt>
      <trkpt lat="45.79308" lon="6.23777">
        <ele>625</ele>
        <time>2013-05-26T08:34:25.500Z</time>
      </trkpt>
      <trkpt lat="45.79307" lon="6.23778">
        <ele>622.2</ele>
        <time>2013-05-26T08:34:26.500Z</time>
      </trkpt>
      <trkpt lat="45.79306" lon="6.2378">
        <ele>625.1</ele>
        <time>2013-05-26T08:34:27.500Z</time>
      </trkpt>
      <trkpt lat="45.79303" lon="6.23782">
        <ele>622.9</ele>
        <time>2013-05-26T08:34:28.500Z</time>
      </trkpt>
      <trkpt lat="45.79302" lon="6.23784">
        <ele>620.9</ele>
        <time>2013-05-26T08:34:29.500Z</time>
      </trkpt>
      <trkpt lat="45.793" lon="6.23785">
        <ele>619.4</ele>
        <time>2013-05-26T08:34:30.500Z</time>
      </trkpt>
      <trkpt lat="45.79298" lon="6.23785">
        <ele>619.7</ele>
        <time>2013-05-26T08:34:31.500Z</time>
      </trkpt>
      <trkpt lat="45.79296" lon="6.23787">
        <ele>620</ele>
        <time>2013-05-26T08:34:33.500Z</time>
      </trkpt>
      <trkpt lat="45.79291" lon="6.23788">
        <ele>621.8</ele>
        <time>2013-05-26T08:34:38.500Z</time>
      </trkpt>
      <trkpt lat="45.79287" lon="6.23788">
        <ele>620.7</ele>
        <time>2013-05-26T08:34:42.500Z</time>
      </trkpt>
      <trkpt lat="45.79282" lon="6.2379">
        <ele>619.8</ele>
        <time>2013-05-26T08:34:47.500Z</time>
      </trkpt>
      <trkpt lat="45.79277" lon="6.2379">
        <ele>622.2</ele>
        <time>2013-05-26T08:34:51.500Z</time>
      </trkpt>
      <trkpt lat="45.79274" lon="6.23791">
        <ele>618.4</ele>
        <time>2013-05-26T08:34:53.500Z</time>
      </trkpt>
      <trkpt lat="45.79273" lon="6.23792">
        <ele>618.8</ele>
        <time>2013-05-26T08:34:54.500Z</time>
      </trkpt>
      <trkpt lat="45.7927" lon="6.23794">
        <ele>618.6</ele>
        <time>2013-05-26T08:34:56.500Z</time>
      </trkpt>
      <trkpt lat="45.79268" lon="6.23797">
        <ele>620.5</ele>
        <time>2013-05-26T08:34:58.500Z</time>
      </trkpt>
      <trkpt lat="45.79267" lon="6.23798">
        <ele>620.9</ele>
        <time>2013-05-26T08:34:59.500Z</time>
      </trkpt>
      <trkpt lat="45.79265" lon="6.238">
        <ele>618.5</ele>
        <time>2013-05-26T08:35:00.500Z</time>
      </trkpt>
      <trkpt lat="45.79264" lon="6.23801">
        <ele>614.9</ele>
        <time>2013-05-26T08:35:01.500Z</time>
      </trkpt>
      <trkpt lat="45.79263" lon="6.23803">
        <ele>612.7</ele>
        <time>2013-05-26T08:35:02.500Z</time>
      </trkpt>
      <trkpt lat="45.79261" lon="6.23804">
        <ele>611</ele>
        <time>2013-05-26T08:35:03.500Z</time>
      </trkpt>
      <trkpt lat="45.7926" lon="6.23806">
        <ele>609.2</ele>
        <time>2013-05-26T08:35:04.500Z</time>
      </trkpt>
      <trkpt lat="45.79258" lon="6.2381">
        <ele>611.3</ele>
        <time>2013-05-26T08:35:06.500Z</time>
      </trkpt>
      <trkpt lat="45.79257" lon="6.23811">
        <ele>613.3</ele>
        <time>2013-05-26T08:35:07.500Z</time>
      </trkpt>
      <trkpt lat="45.79255" lon="6.23813">
        <ele>613.7</ele>
        <time>2013-05-26T08:35:08.500Z</time>
      </trkpt>
      <trkpt lat="45.79254" lon="6.23814">
        <ele>614.9</ele>
        <time>2013-05-26T08:35:09.500Z</time>
      </trkpt>
      <trkpt lat="45.79251" lon="6.23817">
        <ele>615.1</ele>
        <time>2013-05-26T08:35:11.500Z</time>
      </trkpt>
      <trkpt lat="45.79251" lon="6.23819">
        <ele>620.2</ele>
        <time>2013-05-26T08:35:12.500Z</time>
      </trkpt>
      <trkpt lat="45.79249" lon="6.23822">
        <ele>619.9</ele>
        <time>2013-05-26T08:35:14.500Z</time>
      </trkpt>
      <trkpt lat="45.79248" lon="6.23823">
        <ele>620.2</ele>
        <time>2013-05-26T08:35:15.500Z</time>
      </trkpt>
      <trkpt lat="45.79246" lon="6.23826">
        <ele>623.1</ele>
        <time>2013-05-26T08:35:17.500Z</time>
      </trkpt>
      <trkpt lat="45.79245" lon="6.23828">
        <ele>626.6</ele>
        <time>2013-05-26T08:35:18.500Z</time>
      </trkpt>
      <trkpt lat="45.79243" lon="6.23829">
        <ele>624.8</ele>
        <time>2013-05-26T08:35:19.500Z</time>
      </trkpt>
      <trkpt lat="45.79243" lon="6.23831">
        <ele>625.3</ele>
        <time>2013-05-26T08:35:20.500Z</time>
      </trkpt>
      <trkpt lat="45.79238" lon="6.23835">
        <ele>621.5</ele>
        <time>2013-05-26T08:35:25.500Z</time>
      </trkpt>
      <trkpt lat="45.79234" lon="6.23837">
        <ele>622</ele>
        <time>2013-05-26T08:35:29.500Z</time>
      </trkpt>
      <trkpt lat="45.79232" lon="6.2384">
        <ele>620.5</ele>
        <time>2013-05-26T08:35:31.500Z</time>
      </trkpt>
      <trkpt lat="45.7923" lon="6.23841">
        <ele>620.9</ele>
        <time>2013-05-26T08:35:32.500Z</time>
      </trkpt>
      <trkpt lat="45.79229" lon="6.23843">
        <ele>620.8</ele>
        <time>2013-05-26T08:35:33.500Z</time>
      </trkpt>
      <trkpt lat="45.79227" lon="6.23846">
        <ele>624</ele>
        <time>2013-05-26T08:35:34.500Z</time>
      </trkpt>
      <trkpt lat="45.79227" lon="6.23849">
        <ele>623.3</ele>
        <time>2013-05-26T08:35:35.500Z</time>
      </trkpt>
      <trkpt lat="45.79223" lon="6.23857">
        <ele>621.4</ele>
        <time>2013-05-26T08:35:40.500Z</time>
      </trkpt>
      <trkpt lat="45.79222" lon="6.23859">
        <ele>623.1</ele>
        <time>2013-05-26T08:35:41.500Z</time>
      </trkpt>
      <trkpt lat="45.79219" lon="6.23864">
        <ele>620.1</ele>
        <time>2013-05-26T08:35:44.500Z</time>
      </trkpt>
      <trkpt lat="45.79219" lon="6.23867">
        <ele>620.9</ele>
        <time>2013-05-26T08:35:45.500Z</time>
      </trkpt>
      <trkpt lat="45.79219" lon="6.2387">
        <ele>618.8</ele>
        <time>2013-05-26T08:35:46.500Z</time>
      </trkpt>
      <trkpt lat="45.79218" lon="6.23872">
        <ele>623.5</ele>
        <time>2013-05-26T08:35:47.500Z</time>
      </trkpt>
      <trkpt lat="45.79217" lon="6.23874">
        <ele>621</ele>
        <time>2013-05-26T08:35:48.500Z</time>
      </trkpt>
      <trkpt lat="45.79216" lon="6.23876">
        <ele>618.9</ele>
        <time>2013-05-26T08:35:49.500Z</time>
      </trkpt>
      <trkpt lat="45.79214" lon="6.23888">
        <ele>625.7</ele>
        <time>2013-05-26T08:35:53.500Z</time>
      </trkpt>
      <trkpt lat="45.7921" lon="6.23897">
        <ele>619.8</ele>
        <time>2013-05-26T08:35:57.500Z</time>
      </trkpt>
      <trkpt lat="45.79207" lon="6.23902">
        <ele>619</ele>
        <time>2013-05-26T08:35:59.500Z</time>
      </trkpt>
      <trkpt lat="45.79205" lon="6.23904">
        <ele>624.1</ele>
        <time>2013-05-26T08:36:00.500Z</time>
      </trkpt>
      <trkpt lat="45.79204" lon="6.23907">
        <ele>624.3</ele>
        <time>2013-05-26T08:36:01.500Z</time>
      </trkpt>
      <trkpt lat="45.79203" lon="6.23909">
        <ele>621.3</ele>
        <time>2013-05-26T08:36:02.500Z</time>
      </trkpt>
      <trkpt lat="45.79201" lon="6.23912">
        <ele>620.3</ele>
        <time>2013-05-26T08:36:03.500Z</time>
      </trkpt>
      <trkpt lat="45.79199" lon="6.23913">
        <ele>618.5</ele>
        <time>2013-05-26T08:36:04.500Z</time>
      </trkpt>
      <trkpt lat="45.79199" lon="6.23915">
        <ele>619.3</ele>
        <time>2013-05-26T08:36:05.500Z</time>
      </trkpt>
      <trkpt lat="45.79197" lon="6.23917">
        <ele>622</ele>
        <time>2013-05-26T08:36:06.500Z</time>
      </trkpt>
      <trkpt lat="45.79186" lon="6.2393">
        <ele>629.8</ele>
        <time>2013-05-26T08:36:11.500Z</time>
      </trkpt>
      <trkpt lat="45.79184" lon="6.23933">
        <ele>646.5</ele>
        <time>2013-05-26T08:36:16.500Z</time>
      </trkpt>
      <trkpt lat="45.79184" lon="6.23933">
        <ele>643</ele>
        <time>2013-05-26T08:36:20.500Z</time>
      </trkpt>
      <trkpt lat="45.79184" lon="6.23933">
        <ele>645.3</ele>
        <time>2013-05-26T08:36:24.500Z</time>
      </trkpt>
      <trkpt lat="45.79185" lon="6.23922">
        <ele>651.5</ele>
        <time>2013-05-26T08:36:29.500Z</time>
      </trkpt>
      <trkpt lat="45.79189" lon="6.2391">
        <ele>657</ele>
        <time>2013-05-26T08:36:35.500Z</time>
      </trkpt>
      <trkpt lat="45.79191" lon="6.23908">
        <ele>659.1</ele>
        <time>2013-05-26T08:36:37.500Z</time>
      </trkpt>
      <trkpt lat="45.79192" lon="6.23906">
        <ele>656.9</ele>
        <time>2013-05-26T08:36:38.500Z</time>
      </trkpt>
      <trkpt lat="45.79194" lon="6.23906">
        <ele>653.9</ele>
        <time>2013-05-26T08:36:40.500Z</time>
      </trkpt>
      <trkpt lat="45.79196" lon="6.23902">
        <ele>657.6</ele>
        <time>2013-05-26T08:36:42.500Z</time>
      </trkpt>
      <trkpt lat="45.792" lon="6.239">
        <ele>661</ele>
        <time>2013-05-26T08:36:44.500Z</time>
      </trkpt>
      <trkpt lat="45.79201" lon="6.23898">
        <ele>663.1</ele>
        <time>2013-05-26T08:36:45.500Z</time>
      </trkpt>
      <trkpt lat="45.79202" lon="6.23896">
        <ele>660</ele>
        <time>2013-05-26T08:36:47.500Z</time>
      </trkpt>
      <trkpt lat="45.79206" lon="6.23895">
        <ele>657.1</ele>
        <time>2013-05-26T08:36:50.500Z</time>
      </trkpt>
      <trkpt lat="45.79208" lon="6.23893">
        <ele>662.1</ele>
        <time>2013-05-26T08:36:52.500Z</time>
      </trkpt>
      <trkpt lat="45.79211" lon="6.2389">
        <ele>665.6</ele>
        <time>2013-05-26T08:36:57.500Z</time>
      </trkpt>
      <trkpt lat="45.79211" lon="6.2389">
        <ele>663.4</ele>
        <time>2013-05-26T08:37:01.500Z</time>
      </trkpt>
      <trkpt lat="45.79212" lon="6.23889">
        <ele>669.6</ele>
        <time>2013-05-26T08:37:03.500Z</time>
      </trkpt>
      <trkpt lat="45.79213" lon="6.23887">
        <ele>669.6</ele>
        <time>2013-05-26T08:37:05.500Z</time>
      </trkpt>
      <trkpt lat="45.79216" lon="6.23884">
        <ele>657.4</ele>
        <time>2013-05-26T08:37:09.500Z</time>
      </trkpt>
      <trkpt lat="45.79221" lon="6.23884">
        <ele>657.5</ele>
        <time>2013-05-26T08:37:13.500Z</time>
      </trkpt>
      <trkpt lat="45.79231" lon="6.23885">
        <ele>650.3</ele>
        <time>2013-05-26T08:37:18.500Z</time>
      </trkpt>
      <trkpt lat="45.79232" lon="6.23886">
        <ele>654.9</ele>
        <time>2013-05-26T08:37:19.500Z</time>
      </trkpt>
      <trkpt lat="45.79232" lon="6.23888">
        <ele>658</ele>
        <time>2013-05-26T08:37:20.500Z</time>
      </trkpt>
      <trkpt lat="45.79239" lon="6.23892">
        <ele>652.3</ele>
        <time>2013-05-26T08:37:26.500Z</time>
      </trkpt>
      <trkpt lat="45.79246" lon="6.23893">
        <ele>661.4</ele>
        <time>2013-05-26T08:37:31.500Z</time>
      </trkpt>
      <trkpt lat="45.79247" lon="6.23893">
        <ele>662.4</ele>
        <time>2013-05-26T08:37:32.500Z</time>
      </trkpt>
      <trkpt lat="45.79248" lon="6.23895">
        <ele>664.9</ele>
        <time>2013-05-26T08:37:33.500Z</time>
      </trkpt>
      <trkpt lat="45.7926" lon="6.23902">
        <ele>664</ele>
        <time>2013-05-26T08:37:39.500Z</time>
      </trkpt>
      <trkpt lat="45.7926" lon="6.23902">
        <ele>664.1</ele>
        <time>2013-05-26T08:37:43.500Z</time>
      </trkpt>
      <trkpt lat="45.79273" lon="6.23903">
        <ele>661.2</ele>
        <time>2013-05-26T08:37:49.500Z</time>
      </trkpt>
      <trkpt lat="45.79273" lon="6.23904">
        <ele>664.1</ele>
        <time>2013-05-26T08:37:50.500Z</time>
      </trkpt>
      <trkpt lat="45.79281" lon="6.23909">
        <ele>658.1</ele>
        <time>2013-05-26T08:37:55.500Z</time>
      </trkpt>
      <trkpt lat="45.79295" lon="6.23918">
        <ele>665.3</ele>
        <time>2013-05-26T08:37:59.500Z</time>
      </trkpt>
      <trkpt lat="45.79302" lon="6.23923">
        <ele>662.2</ele>
        <time>2013-05-26T08:38:05.500Z</time>
      </trkpt>
      <trkpt lat="45.79308" lon="6.23926">
        <ele>638.2</ele>
        <time>2013-05-26T08:38:09.500Z</time>
      </trkpt>
      <trkpt lat="45.7931" lon="6.23936">
        <ele>630.8</ele>
        <time>2013-05-26T08:38:14.500Z</time>
      </trkpt>
      <trkpt lat="45.79311" lon="6.23939">
        <ele>628.7</ele>
        <time>2013-05-26T08:38:18.500Z</time>
      </trkpt>
      <trkpt lat="45.79312" lon="6.23942">
        <ele>626.9</ele>
        <time>2013-05-26T08:38:20.500Z</time>
      </trkpt>
      <trkpt lat="45.79322" lon="6.23946">
        <ele>623.7</ele>
        <time>2013-05-26T08:38:25.500Z</time>
      </trkpt>
      <trkpt lat="45.79325" lon="6.23948">
        <ele>626.9</ele>
        <time>2013-05-26T08:38:27.500Z</time>
      </trkpt>
      <trkpt lat="45.79327" lon="6.23948">
        <ele>624.8</ele>
        <time>2013-05-26T08:38:28.500Z</time>
      </trkpt>
      <trkpt lat="45.79329" lon="6.2395">
        <ele>626</ele>
        <time>2013-05-26T08:38:29.500Z</time>
      </trkpt>
      <trkpt lat="45.79339" lon="6.23956">
        <ele>627.4</ele>
        <time>2013-05-26T08:38:36.500Z</time>
      </trkpt>
      <trkpt lat="45.79338" lon="6.23956">
        <ele>629.1</ele>
        <time>2013-05-26T08:38:41.500Z</time>
      </trkpt>
      <trkpt lat="45.79338" lon="6.23956">
        <ele>633</ele>
        <time>2013-05-26T08:38:45.500Z</time>
      </trkpt>
      <trkpt lat="45.7935" lon="6.2396">
        <ele>646.5</ele>
        <time>2013-05-26T08:38:51.500Z</time>
      </trkpt>
      <trkpt lat="45.79357" lon="6.23966">
        <ele>664.9</ele>
        <time>2013-05-26T08:38:56.500Z</time>
      </trkpt>
      <trkpt lat="45.79368" lon="6.23968">
        <ele>670.2</ele>
        <time>2013-05-26T08:39:00.500Z</time>
      </trkpt>
      <trkpt lat="45.7937" lon="6.23967">
        <ele>670</ele>
        <time>2013-05-26T08:39:02.500Z</time>
      </trkpt>
      <trkpt lat="45.79378" lon="6.23963">
        <ele>693.1</ele>
        <time>2013-05-26T08:39:08.500Z</time>
      </trkpt>
      <trkpt lat="45.79384" lon="6.23964">
        <ele>701.4</ele>
        <time>2013-05-26T08:39:12.500Z</time>
      </trkpt>
      <trkpt lat="45.79397" lon="6.23965">
        <ele>699.3</ele>
        <time>2013-05-26T08:39:18.500Z</time>
      </trkpt>
      <trkpt lat="45.79409" lon="6.23968">
        <ele>697.1</ele>
        <time>2013-05-26T08:39:23.500Z</time>
      </trkpt>
      <trkpt lat="45.79412" lon="6.23967">
        <ele>693.9</ele>
        <time>2013-05-26T08:39:25.500Z</time>
      </trkpt>
      <trkpt lat="45.79416" lon="6.23967">
        <ele>696.3</ele>
        <time>2013-05-26T08:39:29.500Z</time>
      </trkpt>
      <trkpt lat="45.7943" lon="6.23965">
        <ele>703.4</ele>
        <time>2013-05-26T08:39:35.500Z</time>
      </trkpt>
      <trkpt lat="45.79431" lon="6.23965">
        <ele>703.6</ele>
        <time>2013-05-26T08:39:40.500Z</time>
      </trkpt>
      <trkpt lat="45.79437" lon="6.23964">
        <ele>707</ele>
        <time>2013-05-26T08:39:45.500Z</time>
      </trkpt>
      <trkpt lat="45.79451" lon="6.23972">
        <ele>701.3</ele>
        <time>2013-05-26T08:39:52.500Z</time>
      </trkpt>
      <trkpt lat="45.79462" lon="6.23978">
        <ele>695.2</ele>
        <time>2013-05-26T08:39:56.500Z</time>
      </trkpt>
      <trkpt lat="45.79468" lon="6.23981">
        <ele>687.6</ele>
        <time>2013-05-26T08:40:02.500Z</time>
      </trkpt>
      <trkpt lat="45.79468" lon="6.23981">
        <ele>691.1</ele>
        <time>2013-05-26T08:40:06.500Z</time>
      </trkpt>
      <trkpt lat="45.7949" lon="6.23979">
        <ele>703.7</ele>
        <time>2013-05-26T08:40:12.500Z</time>
      </trkpt>
      <trkpt lat="45.79503" lon="6.23977">
        <ele>713.6</ele>
        <time>2013-05-26T08:40:20.500Z</time>
      </trkpt>
      <trkpt lat="45.79507" lon="6.23976">
        <ele>714.2</ele>
        <time>2013-05-26T08:40:23.500Z</time>
      </trkpt>
      <trkpt lat="45.79508" lon="6.23976">
        <ele>715.6</ele>
        <time>2013-05-26T08:40:25.500Z</time>
      </trkpt>
      <trkpt lat="45.7952" lon="6.23974">
        <ele>709.8</ele>
        <time>2013-05-26T08:40:30.500Z</time>
      </trkpt>
      <trkpt lat="45.7954" lon="6.2397">
        <ele>709.1</ele>
        <time>2013-05-26T08:40:35.500Z</time>
      </trkpt>
      <trkpt lat="45.79545" lon="6.23971">
        <ele>709.7</ele>
        <time>2013-05-26T08:40:38.500Z</time>
      </trkpt>
      <trkpt lat="45.79552" lon="6.23969">
        <ele>715.9</ele>
        <time>2013-05-26T08:40:43.500Z</time>
      </trkpt>
      <trkpt lat="45.79558" lon="6.23966">
        <ele>718.8</ele>
        <time>2013-05-26T08:40:48.500Z</time>
      </trkpt>
      <trkpt lat="45.79568" lon="6.23971">
        <ele>716.7</ele>
        <time>2013-05-26T08:40:52.500Z</time>
      </trkpt>
      <trkpt lat="45.79575" lon="6.23969">
        <ele>716.3</ele>
        <time>2013-05-26T08:40:57.500Z</time>
      </trkpt>
      <trkpt lat="45.79595" lon="6.23962">
        <ele>724.3</ele>
        <time>2013-05-26T08:41:04.500Z</time>
      </trkpt>
      <trkpt lat="45.79604" lon="6.23964">
        <ele>725.3</ele>
        <time>2013-05-26T08:41:08.500Z</time>
      </trkpt>
      <trkpt lat="45.79615" lon="6.23955">
        <ele>734.9</ele>
        <time>2013-05-26T08:41:14.500Z</time>
      </trkpt>
      <trkpt lat="45.79615" lon="6.23955">
        <ele>734</ele>
        <time>2013-05-26T08:41:18.500Z</time>
      </trkpt>
      <trkpt lat="45.79619" lon="6.23954">
        <ele>735.3</ele>
        <time>2013-05-26T08:41:22.500Z</time>
      </trkpt>
      <trkpt lat="45.79622" lon="6.23954">
        <ele>734.1</ele>
        <time>2013-05-26T08:41:27.500Z</time>
      </trkpt>
      <trkpt lat="45.79624" lon="6.23954">
        <ele>733.3</ele>
        <time>2013-05-26T08:41:29.500Z</time>
      </trkpt>
      <trkpt lat="45.79624" lon="6.23954">
        <ele>730.7</ele>
        <time>2013-05-26T08:41:33.500Z</time>
      </trkpt>
      <trkpt lat="45.79626" lon="6.23954">
        <ele>729.1</ele>
        <time>2013-05-26T08:41:35.500Z</time>
      </trkpt>
      <trkpt lat="45.79634" lon="6.23959">
        <ele>736.3</ele>
        <time>2013-05-26T08:41:40.500Z</time>
      </trkpt>
      <trkpt lat="45.79645" lon="6.23957">
        <ele>740.3</ele>
        <time>2013-05-26T08:41:45.500Z</time>
      </trkpt>
      <trkpt lat="45.79653" lon="6.23954">
        <ele>743.6</ele>
        <time>2013-05-26T08:41:50.500Z</time>
      </trkpt>
      <trkpt lat="45.79658" lon="6.23956">
        <ele>738.2</ele>
        <time>2013-05-26T08:41:55.500Z</time>
      </trkpt>
      <trkpt lat="45.79659" lon="6.23956">
        <ele>744.9</ele>
        <time>2013-05-26T08:42:00.500Z</time>
      </trkpt>
      <trkpt lat="45.79659" lon="6.23956">
        <ele>735.7</ele>
        <time>2013-05-26T08:42:04.500Z</time>
      </trkpt>
      <trkpt lat="45.79664" lon="6.23959">
        <ele>734.9</ele>
        <time>2013-05-26T08:42:09.500Z</time>
      </trkpt>
      <trkpt lat="45.79664" lon="6.23959">
        <ele>734</ele>
        <time>2013-05-26T08:42:14.500Z</time>
      </trkpt>
      <trkpt lat="45.7968" lon="6.23961">
        <ele>740.4</ele>
        <time>2013-05-26T08:42:19.500Z</time>
      </trkpt>
      <trkpt lat="45.79687" lon="6.23966">
        <ele>734.5</ele>
        <time>2013-05-26T08:42:23.500Z</time>
      </trkpt>
      <trkpt lat="45.79688" lon="6.23966">
        <ele>732.8</ele>
        <time>2013-05-26T08:42:24.500Z</time>
      </trkpt>
      <trkpt lat="45.79689" lon="6.23966">
        <ele>738.2</ele>
        <time>2013-05-26T08:42:26.500Z</time>
      </trkpt>
      <trkpt lat="45.79713" lon="6.23974">
        <ele>754.7</ele>
        <time>2013-05-26T08:42:35.500Z</time>
      </trkpt>
      <trkpt lat="45.79725" lon="6.23977">
        <ele>756.1</ele>
        <time>2013-05-26T08:42:42.500Z</time>
      </trkpt>
      <trkpt lat="45.79734" lon="6.23982">
        <ele>755.1</ele>
        <time>2013-05-26T08:42:47.500Z</time>
      </trkpt>
      <trkpt lat="45.79745" lon="6.23989">
        <ele>756.9</ele>
        <time>2013-05-26T08:42:52.500Z</time>
      </trkpt>
      <trkpt lat="45.79754" lon="6.24">
        <ele>757.2</ele>
        <time>2013-05-26T08:42:57.500Z</time>
      </trkpt>
      <trkpt lat="45.79756" lon="6.24003">
        <ele>734.6</ele>
        <time>2013-05-26T08:42:59.500Z</time>
      </trkpt>
      <trkpt lat="45.79757" lon="6.24003">
        <ele>732</ele>
        <time>2013-05-26T08:43:00.500Z</time>
      </trkpt>
      <trkpt lat="45.79757" lon="6.2401">
        <ele>733.5</ele>
        <time>2013-05-26T08:43:06.500Z</time>
      </trkpt>
      <trkpt lat="45.7976" lon="6.2401">
        <ele>731.6</ele>
        <time>2013-05-26T08:43:09.500Z</time>
      </trkpt>
      <trkpt lat="45.7976" lon="6.2401">
        <ele>736.3</ele>
        <time>2013-05-26T08:43:13.500Z</time>
      </trkpt>
      <trkpt lat="45.79766" lon="6.24011">
        <ele>732.7</ele>
        <time>2013-05-26T08:43:18.500Z</time>
      </trkpt>
      <trkpt lat="45.7977" lon="6.24015">
        <ele>731.9</ele>
        <time>2013-05-26T08:43:22.500Z</time>
      </trkpt>
      <trkpt lat="45.79775" lon="6.24016">
        <ele>737.2</ele>
        <time>2013-05-26T08:43:26.500Z</time>
      </trkpt>
      <trkpt lat="45.79785" lon="6.24017">
        <ele>745.3</ele>
        <time>2013-05-26T08:43:32.500Z</time>
      </trkpt>
      <trkpt lat="45.79789" lon="6.24019">
        <ele>748.7</ele>
        <time>2013-05-26T08:43:36.500Z</time>
      </trkpt>
      <trkpt lat="45.79798" lon="6.2402">
        <ele>754.3</ele>
        <time>2013-05-26T08:43:41.500Z</time>
      </trkpt>
      <trkpt lat="45.79799" lon="6.24019">
        <ele>753.7</ele>
        <time>2013-05-26T08:43:42.500Z</time>
      </trkpt>
      <trkpt lat="45.7981" lon="6.24022">
        <ele>756.8</ele>
        <time>2013-05-26T08:43:48.500Z</time>
      </trkpt>
      <trkpt lat="45.79817" lon="6.24023">
        <ele>758.8</ele>
        <time>2013-05-26T08:43:54.500Z</time>
      </trkpt>
      <trkpt lat="45.79822" lon="6.24024">
        <ele>762.8</ele>
        <time>2013-05-26T08:43:59.500Z</time>
      </trkpt>
      <trkpt lat="45.79822" lon="6.24024">
        <ele>771.5</ele>
        <time>2013-05-26T08:44:04.500Z</time>
      </trkpt>
      <trkpt lat="45.79828" lon="6.24028">
        <ele>776.7</ele>
        <time>2013-05-26T08:44:09.500Z</time>
      </trkpt>
      <trkpt lat="45.79834" lon="6.24031">
        <ele>772.1</ele>
        <time>2013-05-26T08:44:14.500Z</time>
      </trkpt>
      <trkpt lat="45.79834" lon="6.24031">
        <ele>767.8</ele>
        <time>2013-05-26T08:44:18.500Z</time>
      </trkpt>
      <trkpt lat="45.7984" lon="6.24033">
        <ele>777.9</ele>
        <time>2013-05-26T08:44:22.500Z</time>
      </trkpt>
      <trkpt lat="45.7984" lon="6.2404">
        <ele>781.9</ele>
        <time>2013-05-26T08:44:27.500Z</time>
      </trkpt>
      <trkpt lat="45.79843" lon="6.24046">
        <ele>788</ele>
        <time>2013-05-26T08:44:31.500Z</time>
      </trkpt>
      <trkpt lat="45.79845" lon="6.24048">
        <ele>778.6</ele>
        <time>2013-05-26T08:44:34.500Z</time>
      </trkpt>
      <trkpt lat="45.79852" lon="6.24046">
        <ele>773.3</ele>
        <time>2013-05-26T08:44:39.500Z</time>
      </trkpt>
      <trkpt lat="45.79857" lon="6.24044">
        <ele>769.2</ele>
        <time>2013-05-26T08:44:43.500Z</time>
      </trkpt>
      <trkpt lat="45.79862" lon="6.24044">
        <ele>769.3</ele>
        <time>2013-05-26T08:44:49.500Z</time>
      </trkpt>
      <trkpt lat="45.79869" lon="6.24051">
        <ele>768.2</ele>
        <time>2013-05-26T08:44:54.500Z</time>
      </trkpt>
      <trkpt lat="45.79873" lon="6.24055">
        <ele>771.8</ele>
        <time>2013-05-26T08:44:59.500Z</time>
      </trkpt>
      <trkpt lat="45.79873" lon="6.24055">
        <ele>775.9</ele>
        <time>2013-05-26T08:45:03.600Z</time>
      </trkpt>
      <trkpt lat="45.79879" lon="6.24059">
        <ele>780.4</ele>
        <time>2013-05-26T08:45:08.500Z</time>
      </trkpt>
      <trkpt lat="45.79886" lon="6.24062">
        <ele>782.1</ele>
        <time>2013-05-26T08:45:13.500Z</time>
      </trkpt>
      <trkpt lat="45.79888" lon="6.24067">
        <ele>788.1</ele>
        <time>2013-05-26T08:45:17.500Z</time>
      </trkpt>
      <trkpt lat="45.79891" lon="6.2407">
        <ele>784.8</ele>
        <time>2013-05-26T08:45:21.500Z</time>
      </trkpt>
      <trkpt lat="45.79894" lon="6.2407">
        <ele>786.4</ele>
        <time>2013-05-26T08:45:24.500Z</time>
      </trkpt>
      <trkpt lat="45.79898" lon="6.24068">
        <ele>784.4</ele>
        <time>2013-05-26T08:45:28.500Z</time>
      </trkpt>
      <trkpt lat="45.79903" lon="6.24069">
        <ele>783.9</ele>
        <time>2013-05-26T08:45:33.500Z</time>
      </trkpt>
      <trkpt lat="45.79908" lon="6.2407">
        <ele>793.4</ele>
        <time>2013-05-26T08:45:37.500Z</time>
      </trkpt>
      <trkpt lat="45.79913" lon="6.2407">
        <ele>792.4</ele>
        <time>2013-05-26T08:45:42.500Z</time>
      </trkpt>
      <trkpt lat="45.79918" lon="6.2407">
        <ele>795.6</ele>
        <time>2013-05-26T08:45:48.500Z</time>
      </trkpt>
      <trkpt lat="45.79921" lon="6.24071">
        <ele>800</ele>
        <time>2013-05-26T08:45:51.500Z</time>
      </trkpt>
      <trkpt lat="45.79922" lon="6.24073">
        <ele>796.1</ele>
        <time>2013-05-26T08:45:53.500Z</time>
      </trkpt>
      <trkpt lat="45.79922" lon="6.24073">
        <ele>794.3</ele>
        <time>2013-05-26T08:45:57.500Z</time>
      </trkpt>
      <trkpt lat="45.79928" lon="6.24075">
        <ele>797.4</ele>
        <time>2013-05-26T08:46:01.500Z</time>
      </trkpt>
      <trkpt lat="45.79932" lon="6.24078">
        <ele>797.3</ele>
        <time>2013-05-26T08:46:06.500Z</time>
      </trkpt>
      <trkpt lat="45.79939" lon="6.24077">
        <ele>790.2</ele>
        <time>2013-05-26T08:46:10.500Z</time>
      </trkpt>
      <trkpt lat="45.79949" lon="6.2408">
        <ele>791.6</ele>
        <time>2013-05-26T08:46:17.500Z</time>
      </trkpt>
      <trkpt lat="45.79955" lon="6.24087">
        <ele>790.1</ele>
        <time>2013-05-26T08:46:21.500Z</time>
      </trkpt>
      <trkpt lat="45.79963" lon="6.24095">
        <ele>795.5</ele>
        <time>2013-05-26T08:46:26.500Z</time>
      </trkpt>
      <trkpt lat="45.79972" lon="6.24102">
        <ele>797</ele>
        <time>2013-05-26T08:46:30.500Z</time>
      </trkpt>
      <trkpt lat="45.79974" lon="6.24104">
        <ele>797.2</ele>
        <time>2013-05-26T08:46:32.500Z</time>
      </trkpt>
      <trkpt lat="45.79976" lon="6.24104">
        <ele>797.2</ele>
        <time>2013-05-26T08:46:36.500Z</time>
      </trkpt>
      <trkpt lat="45.79976" lon="6.24104">
        <ele>801.9</ele>
        <time>2013-05-26T08:46:41.500Z</time>
      </trkpt>
      <trkpt lat="45.79976" lon="6.24104">
        <ele>800.5</ele>
        <time>2013-05-26T08:46:45.500Z</time>
      </trkpt>
      <trkpt lat="45.7998" lon="6.241">
        <ele>804.3</ele>
        <time>2013-05-26T08:46:49.500Z</time>
      </trkpt>
      <trkpt lat="45.79985" lon="6.24099">
        <ele>803.1</ele>
        <time>2013-05-26T08:46:53.500Z</time>
      </trkpt>
      <trkpt lat="45.7999" lon="6.24093">
        <ele>806</ele>
        <time>2013-05-26T08:46:57.500Z</time>
      </trkpt>
      <trkpt lat="45.80001" lon="6.24086">
        <ele>807.3</ele>
        <time>2013-05-26T08:47:03.500Z</time>
      </trkpt>
      <trkpt lat="45.80007" lon="6.24082">
        <ele>809.1</ele>
        <time>2013-05-26T08:47:09.500Z</time>
      </trkpt>
      <trkpt lat="45.80007" lon="6.24082">
        <ele>810.2</ele>
        <time>2013-05-26T08:47:14.500Z</time>
      </trkpt>
      <trkpt lat="45.80018" lon="6.2408">
        <ele>817</ele>
        <time>2013-05-26T08:47:21.500Z</time>
      </trkpt>
      <trkpt lat="45.80022" lon="6.24082">
        <ele>815.5</ele>
        <time>2013-05-26T08:47:25.500Z</time>
      </trkpt>
      <trkpt lat="45.80022" lon="6.24082">
        <ele>808.5</ele>
        <time>2013-05-26T08:47:29.500Z</time>
      </trkpt>
      <trkpt lat="45.80024" lon="6.24081">
        <ele>808.9</ele>
        <time>2013-05-26T08:47:32.500Z</time>
      </trkpt>
      <trkpt lat="45.80032" lon="6.24081">
        <ele>811.7</ele>
        <time>2013-05-26T08:47:36.500Z</time>
      </trkpt>
      <trkpt lat="45.80032" lon="6.24081">
        <ele>810.9</ele>
        <time>2013-05-26T08:47:40.500Z</time>
      </trkpt>
      <trkpt lat="45.80037" lon="6.24081">
        <ele>823.6</ele>
        <time>2013-05-26T08:47:45.500Z</time>
      </trkpt>
      <trkpt lat="45.80043" lon="6.24082">
        <ele>819.1</ele>
        <time>2013-05-26T08:47:50.500Z</time>
      </trkpt>
      <trkpt lat="45.80047" lon="6.2408">
        <ele>825.5</ele>
        <time>2013-05-26T08:47:54.500Z</time>
      </trkpt>
      <trkpt lat="45.80053" lon="6.24085">
        <ele>823.8</ele>
        <time>2013-05-26T08:47:58.500Z</time>
      </trkpt>
      <trkpt lat="45.80053" lon="6.24085">
        <ele>831.9</ele>
        <time>2013-05-26T08:48:02.500Z</time>
      </trkpt>
      <trkpt lat="45.80065" lon="6.24088">
        <ele>817.2</ele>
        <time>2013-05-26T08:48:09.500Z</time>
      </trkpt>
      <trkpt lat="45.80065" lon="6.24088">
        <ele>822.7</ele>
        <time>2013-05-26T08:48:13.500Z</time>
      </trkpt>
      <trkpt lat="45.80065" lon="6.24088">
        <ele>833.4</ele>
        <time>2013-05-26T08:48:18.500Z</time>
      </trkpt>
      <trkpt lat="45.80074" lon="6.24088">
        <ele>835.9</ele>
        <time>2013-05-26T08:48:23.500Z</time>
      </trkpt>
      <trkpt lat="45.80088" lon="6.24084">
        <ele>831.7</ele>
        <time>2013-05-26T08:48:29.500Z</time>
      </trkpt>
      <trkpt lat="45.80088" lon="6.24084">
        <ele>835.6</ele>
        <time>2013-05-26T08:48:34.500Z</time>
      </trkpt>
      <trkpt lat="45.80088" lon="6.24084">
        <ele>831.8</ele>
        <time>2013-05-26T08:48:38.500Z</time>
      </trkpt>
      <trkpt lat="45.80096" lon="6.24086">
        <ele>825.7</ele>
        <time>2013-05-26T08:48:42.500Z</time>
      </trkpt>
      <trkpt lat="45.80101" lon="6.24086">
        <ele>829.6</ele>
        <time>2013-05-26T08:48:47.500Z</time>
      </trkpt>
      <trkpt lat="45.80101" lon="6.24086">
        <ele>826.7</ele>
        <time>2013-05-26T08:48:51.500Z</time>
      </trkpt>
      <trkpt lat="45.80106" lon="6.24086">
        <ele>824.8</ele>
        <time>2013-05-26T08:48:55.500Z</time>
      </trkpt>
      <trkpt lat="45.80109" lon="6.24084">
        <ele>826.3</ele>
        <time>2013-05-26T08:48:58.500Z</time>
      </trkpt>
      <trkpt lat="45.80109" lon="6.24084">
        <ele>825.4</ele>
        <time>2013-05-26T08:49:02.500Z</time>
      </trkpt>
      <trkpt lat="45.80114" lon="6.24083">
        <ele>830.4</ele>
        <time>2013-05-26T08:49:06.500Z</time>
      </trkpt>
      <trkpt lat="45.80114" lon="6.24083">
        <ele>827.6</ele>
        <time>2013-05-26T08:49:10.500Z</time>
      </trkpt>
      <trkpt lat="45.8013" lon="6.24094">
        <ele>831.3</ele>
        <time>2013-05-26T08:49:15.500Z</time>
      </trkpt>
      <trkpt lat="45.8013" lon="6.24094">
        <ele>837.8</ele>
        <time>2013-05-26T08:49:19.500Z</time>
      </trkpt>
      <trkpt lat="45.80131" lon="6.24096">
        <ele>842.2</ele>
        <time>2013-05-26T08:49:21.500Z</time>
      </trkpt>
      <trkpt lat="45.80131" lon="6.24099">
        <ele>836.7</ele>
        <time>2013-05-26T08:49:25.500Z</time>
      </trkpt>
      <trkpt lat="45.8013" lon="6.24103">
        <ele>834.3</ele>
        <time>2013-05-26T08:49:30.500Z</time>
      </trkpt>
      <trkpt lat="45.80128" lon="6.24107">
        <ele>835</ele>
        <time>2013-05-26T08:49:35.500Z</time>
      </trkpt>
      <trkpt lat="45.80127" lon="6.24111">
        <ele>836.1</ele>
        <time>2013-05-26T08:49:40.500Z</time>
      </trkpt>
      <trkpt lat="45.80127" lon="6.24112">
        <ele>835.2</ele>
        <time>2013-05-26T08:49:44.500Z</time>
      </trkpt>
      <trkpt lat="45.80127" lon="6.24112">
        <ele>833.8</ele>
        <time>2013-05-26T08:49:49.500Z</time>
      </trkpt>
      <trkpt lat="45.80122" lon="6.24117">
        <ele>834</ele>
        <time>2013-05-26T08:49:54.500Z</time>
      </trkpt>
      <trkpt lat="45.80121" lon="6.2412">
        <ele>837.7</ele>
        <time>2013-05-26T08:49:59.500Z</time>
      </trkpt>
      <trkpt lat="45.80119" lon="6.24122">
        <ele>841.5</ele>
        <time>2013-05-26T08:50:02.500Z</time>
      </trkpt>
      <trkpt lat="45.80115" lon="6.24126">
        <ele>837.3</ele>
        <time>2013-05-26T08:50:06.500Z</time>
      </trkpt>
      <trkpt lat="45.80115" lon="6.24127">
        <ele>836.3</ele>
        <time>2013-05-26T08:50:07.500Z</time>
      </trkpt>
      <trkpt lat="45.80112" lon="6.24135">
        <ele>832.9</ele>
        <time>2013-05-26T08:50:11.500Z</time>
      </trkpt>
      <trkpt lat="45.80111" lon="6.24136">
        <ele>832.4</ele>
        <time>2013-05-26T08:50:12.500Z</time>
      </trkpt>
      <trkpt lat="45.8011" lon="6.24138">
        <ele>832.7</ele>
        <time>2013-05-26T08:50:13.500Z</time>
      </trkpt>
      <trkpt lat="45.80109" lon="6.2414">
        <ele>831.6</ele>
        <time>2013-05-26T08:50:14.500Z</time>
      </trkpt>
      <trkpt lat="45.80108" lon="6.24141">
        <ele>831.3</ele>
        <time>2013-05-26T08:50:15.500Z</time>
      </trkpt>
      <trkpt lat="45.80101" lon="6.24143">
        <ele>836.2</ele>
        <time>2013-05-26T08:50:19.500Z</time>
      </trkpt>
      <trkpt lat="45.80099" lon="6.24145">
        <ele>841.3</ele>
        <time>2013-05-26T08:50:21.500Z</time>
      </trkpt>
      <trkpt lat="45.80098" lon="6.24146">
        <ele>843.7</ele>
        <time>2013-05-26T08:50:23.500Z</time>
      </trkpt>
      <trkpt lat="45.80097" lon="6.24147">
        <ele>846.3</ele>
        <time>2013-05-26T08:50:24.500Z</time>
      </trkpt>
      <trkpt lat="45.80092" lon="6.24153">
        <ele>845</ele>
        <time>2013-05-26T08:50:28.500Z</time>
      </trkpt>
      <trkpt lat="45.80091" lon="6.24153">
        <ele>844.1</ele>
        <time>2013-05-26T08:50:33.500Z</time>
      </trkpt>
      <trkpt lat="45.80091" lon="6.24153">
        <ele>836.6</ele>
        <time>2013-05-26T08:50:38.500Z</time>
      </trkpt>
      <trkpt lat="45.80088" lon="6.24155">
        <ele>840.1</ele>
        <time>2013-05-26T08:50:41.500Z</time>
      </trkpt>
      <trkpt lat="45.80084" lon="6.24159">
        <ele>843.3</ele>
        <time>2013-05-26T08:50:45.500Z</time>
      </trkpt>
      <trkpt lat="45.8008" lon="6.24164">
        <ele>839.5</ele>
        <time>2013-05-26T08:50:49.500Z</time>
      </trkpt>
      <trkpt lat="45.80078" lon="6.24166">
        <ele>841.4</ele>
        <time>2013-05-26T08:50:51.500Z</time>
      </trkpt>
      <trkpt lat="45.80073" lon="6.24176">
        <ele>844.4</ele>
        <time>2013-05-26T08:50:56.500Z</time>
      </trkpt>
      <trkpt lat="45.80071" lon="6.2418">
        <ele>841.4</ele>
        <time>2013-05-26T08:50:58.500Z</time>
      </trkpt>
      <trkpt lat="45.80066" lon="6.24184">
        <ele>844.8</ele>
        <time>2013-05-26T08:51:03.500Z</time>
      </trkpt>
      <trkpt lat="45.80061" lon="6.24191">
        <ele>850.6</ele>
        <time>2013-05-26T08:51:07.500Z</time>
      </trkpt>
      <trkpt lat="45.80059" lon="6.24194">
        <ele>847.6</ele>
        <time>2013-05-26T08:51:11.500Z</time>
      </trkpt>
      <trkpt lat="45.80058" lon="6.24195">
        <ele>850.6</ele>
        <time>2013-05-26T08:51:12.500Z</time>
      </trkpt>
      <trkpt lat="45.80055" lon="6.242">
        <ele>856.1</ele>
        <time>2013-05-26T08:51:17.500Z</time>
      </trkpt>
      <trkpt lat="45.80054" lon="6.24202">
        <ele>852.3</ele>
        <time>2013-05-26T08:51:18.500Z</time>
      </trkpt>
      <trkpt lat="45.80053" lon="6.24203">
        <ele>848.8</ele>
        <time>2013-05-26T08:51:19.500Z</time>
      </trkpt>
      <trkpt lat="45.80053" lon="6.24205">
        <ele>847.6</ele>
        <time>2013-05-26T08:51:20.500Z</time>
      </trkpt>
      <trkpt lat="45.80051" lon="6.24208">
        <ele>850.4</ele>
        <time>2013-05-26T08:51:23.500Z</time>
      </trkpt>
      <trkpt lat="45.80049" lon="6.24211">
        <ele>843.2</ele>
        <time>2013-05-26T08:51:29.500Z</time>
      </trkpt>
      <trkpt lat="45.80049" lon="6.24211">
        <ele>840.8</ele>
        <time>2013-05-26T08:51:33.500Z</time>
      </trkpt>
      <trkpt lat="45.80049" lon="6.24211">
        <ele>846.2</ele>
        <time>2013-05-26T08:51:37.500Z</time>
      </trkpt>
      <trkpt lat="45.80046" lon="6.24217">
        <ele>843.4</ele>
        <time>2013-05-26T08:51:41.500Z</time>
      </trkpt>
      <trkpt lat="45.80046" lon="6.24224">
        <ele>847.9</ele>
        <time>2013-05-26T08:51:46.500Z</time>
      </trkpt>
      <trkpt lat="45.80046" lon="6.24228">
        <ele>853</ele>
        <time>2013-05-26T08:51:49.500Z</time>
      </trkpt>
      <trkpt lat="45.80041" lon="6.24231">
        <ele>848.5</ele>
        <time>2013-05-26T08:51:54.500Z</time>
      </trkpt>
      <trkpt lat="45.8003" lon="6.24232">
        <ele>850</ele>
        <time>2013-05-26T08:51:58.500Z</time>
      </trkpt>
      <trkpt lat="45.80025" lon="6.24231">
        <ele>862.4</ele>
        <time>2013-05-26T08:52:04.500Z</time>
      </trkpt>
      <trkpt lat="45.80014" lon="6.24237">
        <ele>846.6</ele>
        <time>2013-05-26T08:52:09.500Z</time>
      </trkpt>
      <trkpt lat="45.80008" lon="6.24239">
        <ele>849</ele>
        <time>2013-05-26T08:52:14.500Z</time>
      </trkpt>
      <trkpt lat="45.80004" lon="6.24246">
        <ele>853</ele>
        <time>2013-05-26T08:52:21.500Z</time>
      </trkpt>
      <trkpt lat="45.80003" lon="6.2425">
        <ele>852.4</ele>
        <time>2013-05-26T08:52:24.500Z</time>
      </trkpt>
      <trkpt lat="45.80003" lon="6.2425">
        <ele>853.7</ele>
        <time>2013-05-26T08:52:28.500Z</time>
      </trkpt>
      <trkpt lat="45.80003" lon="6.2425">
        <ele>857.7</ele>
        <time>2013-05-26T08:52:33.600Z</time>
      </trkpt>
      <trkpt lat="45.79999" lon="6.24253">
        <ele>865.2</ele>
        <time>2013-05-26T08:52:37.500Z</time>
      </trkpt>
      <trkpt lat="45.79986" lon="6.24254">
        <ele>872.9</ele>
        <time>2013-05-26T08:52:41.500Z</time>
      </trkpt>
      <trkpt lat="45.79985" lon="6.24254">
        <ele>873.5</ele>
        <time>2013-05-26T08:52:42.500Z</time>
      </trkpt>
      <trkpt lat="45.79982" lon="6.24254">
        <ele>873.1</ele>
        <time>2013-05-26T08:52:43.900Z</time>
      </trkpt>
      <trkpt lat="45.79977" lon="6.24253">
        <ele>875.4</ele>
        <time>2013-05-26T08:52:48.500Z</time>
      </trkpt>
      <trkpt lat="45.7997" lon="6.24253">
        <ele>872.4</ele>
        <time>2013-05-26T08:52:53.500Z</time>
      </trkpt>
      <trkpt lat="45.79964" lon="6.24258">
        <ele>879.1</ele>
        <time>2013-05-26T08:52:58.500Z</time>
      </trkpt>
      <trkpt lat="45.7996" lon="6.24262">
        <ele>883.1</ele>
        <time>2013-05-26T08:53:03.500Z</time>
      </trkpt>
      <trkpt lat="45.7995" lon="6.24266">
        <ele>882.7</ele>
        <time>2013-05-26T08:53:08.500Z</time>
      </trkpt>
      <trkpt lat="45.79945" lon="6.24265">
        <ele>892.4</ele>
        <time>2013-05-26T08:53:14.500Z</time>
      </trkpt>
      <trkpt lat="45.7994" lon="6.24268">
        <ele>884.1</ele>
        <time>2013-05-26T08:53:20.500Z</time>
      </trkpt>
      <trkpt lat="45.79934" lon="6.24265">
        <ele>891.8</ele>
        <time>2013-05-26T08:53:24.500Z</time>
      </trkpt>
      <trkpt lat="45.79927" lon="6.24264">
        <ele>890</ele>
        <time>2013-05-26T08:53:29.500Z</time>
      </trkpt>
      <trkpt lat="45.79926" lon="6.24266">
        <ele>889.2</ele>
        <time>2013-05-26T08:53:33.500Z</time>
      </trkpt>
      <trkpt lat="45.79925" lon="6.24267">
        <ele>886.8</ele>
        <time>2013-05-26T08:53:34.500Z</time>
      </trkpt>
      <trkpt lat="45.79923" lon="6.24271">
        <ele>884.1</ele>
        <time>2013-05-26T08:53:38.500Z</time>
      </trkpt>
      <trkpt lat="45.79922" lon="6.24273">
        <ele>879.8</ele>
        <time>2013-05-26T08:53:42.500Z</time>
      </trkpt>
      <trkpt lat="45.79915" lon="6.2428">
        <ele>881.9</ele>
        <time>2013-05-26T08:53:47.500Z</time>
      </trkpt>
      <trkpt lat="45.79914" lon="6.24282">
        <ele>882.7</ele>
        <time>2013-05-26T08:53:48.500Z</time>
      </trkpt>
      <trkpt lat="45.79912" lon="6.24285">
        <ele>882.1</ele>
        <time>2013-05-26T08:53:51.500Z</time>
      </trkpt>
      <trkpt lat="45.79911" lon="6.24286">
        <ele>882.5</ele>
        <time>2013-05-26T08:53:52.500Z</time>
      </trkpt>
      <trkpt lat="45.7991" lon="6.24288">
        <ele>878.8</ele>
        <time>2013-05-26T08:53:56.600Z</time>
      </trkpt>
      <trkpt lat="45.79907" lon="6.24295">
        <ele>878.9</ele>
        <time>2013-05-26T08:54:01.500Z</time>
      </trkpt>
      <trkpt lat="45.79906" lon="6.24296">
        <ele>881.2</ele>
        <time>2013-05-26T08:54:02.500Z</time>
      </trkpt>
      <trkpt lat="45.79906" lon="6.24297">
        <ele>883.1</ele>
        <time>2013-05-26T08:54:03.500Z</time>
      </trkpt>
      <trkpt lat="45.79905" lon="6.24298">
        <ele>884.4</ele>
        <time>2013-05-26T08:54:04.500Z</time>
      </trkpt>
      <trkpt lat="45.799" lon="6.24301">
        <ele>882.8</ele>
        <time>2013-05-26T08:54:09.500Z</time>
      </trkpt>
      <trkpt lat="45.79899" lon="6.24304">
        <ele>878.6</ele>
        <time>2013-05-26T08:54:13.500Z</time>
      </trkpt>
      <trkpt lat="45.79899" lon="6.24306">
        <ele>878.2</ele>
        <time>2013-05-26T08:54:15.500Z</time>
      </trkpt>
      <trkpt lat="45.79899" lon="6.24308">
        <ele>874.7</ele>
        <time>2013-05-26T08:54:20.500Z</time>
      </trkpt>
      <trkpt lat="45.79894" lon="6.24308">
        <ele>875.8</ele>
        <time>2013-05-26T08:54:24.500Z</time>
      </trkpt>
      <trkpt lat="45.79893" lon="6.24308">
        <ele>871.6</ele>
        <time>2013-05-26T08:54:25.500Z</time>
      </trkpt>
      <trkpt lat="45.7989" lon="6.24307">
        <ele>876.2</ele>
        <time>2013-05-26T08:54:27.500Z</time>
      </trkpt>
      <trkpt lat="45.79887" lon="6.24307">
        <ele>880.2</ele>
        <time>2013-05-26T08:54:29.500Z</time>
      </trkpt>
      <trkpt lat="45.79886" lon="6.24308">
        <ele>879.4</ele>
        <time>2013-05-26T08:54:30.600Z</time>
      </trkpt>
      <trkpt lat="45.79882" lon="6.2431">
        <ele>880.8</ele>
        <time>2013-05-26T08:54:32.500Z</time>
      </trkpt>
      <trkpt lat="45.79881" lon="6.2431">
        <ele>883.2</ele>
        <time>2013-05-26T08:54:33.500Z</time>
      </trkpt>
      <trkpt lat="45.79874" lon="6.24314">
        <ele>882.2</ele>
        <time>2013-05-26T08:54:39.500Z</time>
      </trkpt>
      <trkpt lat="45.79873" lon="6.24316">
        <ele>882.5</ele>
        <time>2013-05-26T08:54:40.500Z</time>
      </trkpt>
      <trkpt lat="45.79872" lon="6.24317">
        <ele>882.1</ele>
        <time>2013-05-26T08:54:41.500Z</time>
      </trkpt>
      <trkpt lat="45.79869" lon="6.24319">
        <ele>882.7</ele>
        <time>2013-05-26T08:54:43.600Z</time>
      </trkpt>
      <trkpt lat="45.79868" lon="6.24322">
        <ele>886.9</ele>
        <time>2013-05-26T08:54:45.500Z</time>
      </trkpt>
      <trkpt lat="45.79867" lon="6.24324">
        <ele>887.8</ele>
        <time>2013-05-26T08:54:50.500Z</time>
      </trkpt>
      <trkpt lat="45.79857" lon="6.24328">
        <ele>897.5</ele>
        <time>2013-05-26T08:54:54.500Z</time>
      </trkpt>
      <trkpt lat="45.79841" lon="6.24327">
        <ele>917.5</ele>
        <time>2013-05-26T08:54:58.500Z</time>
      </trkpt>
      <trkpt lat="45.79831" lon="6.24325">
        <ele>915.1</ele>
        <time>2013-05-26T08:55:02.500Z</time>
      </trkpt>
      <trkpt lat="45.79821" lon="6.24331">
        <ele>924.1</ele>
        <time>2013-05-26T08:55:08.500Z</time>
      </trkpt>
      <trkpt lat="45.79818" lon="6.24334">
        <ele>919.7</ele>
        <time>2013-05-26T08:55:11.500Z</time>
      </trkpt>
      <trkpt lat="45.79814" lon="6.24336">
        <ele>923.6</ele>
        <time>2013-05-26T08:55:15.500Z</time>
      </trkpt>
      <trkpt lat="45.79812" lon="6.24335">
        <ele>922.7</ele>
        <time>2013-05-26T08:55:16.600Z</time>
      </trkpt>
      <trkpt lat="45.7981" lon="6.24336">
        <ele>922.5</ele>
        <time>2013-05-26T08:55:18.500Z</time>
      </trkpt>
      <trkpt lat="45.79809" lon="6.24337">
        <ele>922.2</ele>
        <time>2013-05-26T08:55:19.500Z</time>
      </trkpt>
      <trkpt lat="45.79806" lon="6.24338">
        <ele>924.8</ele>
        <time>2013-05-26T08:55:21.500Z</time>
      </trkpt>
      <trkpt lat="45.79805" lon="6.24338">
        <ele>924.8</ele>
        <time>2013-05-26T08:55:22.500Z</time>
      </trkpt>
      <trkpt lat="45.79799" lon="6.24344">
        <ele>921.4</ele>
        <time>2013-05-26T08:55:29.500Z</time>
      </trkpt>
      <trkpt lat="45.79797" lon="6.24346">
        <ele>922.4</ele>
        <time>2013-05-26T08:55:31.500Z</time>
      </trkpt>
      <trkpt lat="45.79796" lon="6.24348">
        <ele>928.1</ele>
        <time>2013-05-26T08:55:33.500Z</time>
      </trkpt>
      <trkpt lat="45.79791" lon="6.24353">
        <ele>927.3</ele>
        <time>2013-05-26T08:55:37.500Z</time>
      </trkpt>
      <trkpt lat="45.79789" lon="6.24357">
        <ele>925.5</ele>
        <time>2013-05-26T08:55:39.500Z</time>
      </trkpt>
      <trkpt lat="45.79786" lon="6.24359">
        <ele>925.3</ele>
        <time>2013-05-26T08:55:43.500Z</time>
      </trkpt>
      <trkpt lat="45.7978" lon="6.24364">
        <ele>924.3</ele>
        <time>2013-05-26T08:55:48.500Z</time>
      </trkpt>
      <trkpt lat="45.79776" lon="6.24365">
        <ele>927.1</ele>
        <time>2013-05-26T08:55:53.500Z</time>
      </trkpt>
      <trkpt lat="45.79771" lon="6.24366">
        <ele>934.9</ele>
        <time>2013-05-26T08:55:58.500Z</time>
      </trkpt>
      <trkpt lat="45.79767" lon="6.24372">
        <ele>929.9</ele>
        <time>2013-05-26T08:56:03.500Z</time>
      </trkpt>
      <trkpt lat="45.79768" lon="6.24377">
        <ele>926.8</ele>
        <time>2013-05-26T08:56:06.500Z</time>
      </trkpt>
      <trkpt lat="45.79768" lon="6.2438">
        <ele>925.5</ele>
        <time>2013-05-26T08:56:07.500Z</time>
      </trkpt>
      <trkpt lat="45.79768" lon="6.24382">
        <ele>926.2</ele>
        <time>2013-05-26T08:56:08.500Z</time>
      </trkpt>
      <trkpt lat="45.79767" lon="6.24384">
        <ele>928</ele>
        <time>2013-05-26T08:56:13.500Z</time>
      </trkpt>
      <trkpt lat="45.79761" lon="6.24392">
        <ele>930.6</ele>
        <time>2013-05-26T08:56:18.500Z</time>
      </trkpt>
      <trkpt lat="45.79757" lon="6.24394">
        <ele>933</ele>
        <time>2013-05-26T08:56:22.500Z</time>
      </trkpt>
      <trkpt lat="45.79753" lon="6.24397">
        <ele>935.9</ele>
        <time>2013-05-26T08:56:27.500Z</time>
      </trkpt>
      <trkpt lat="45.79745" lon="6.244">
        <ele>931.9</ele>
        <time>2013-05-26T08:56:31.600Z</time>
      </trkpt>
      <trkpt lat="45.79739" lon="6.24401">
        <ele>932.1</ele>
        <time>2013-05-26T08:56:34.600Z</time>
      </trkpt>
      <trkpt lat="45.79737" lon="6.24403">
        <ele>940.9</ele>
        <time>2013-05-26T08:56:36.500Z</time>
      </trkpt>
      <trkpt lat="45.79733" lon="6.24404">
        <ele>940.7</ele>
        <time>2013-05-26T08:56:40.500Z</time>
      </trkpt>
      <trkpt lat="45.79729" lon="6.24407">
        <ele>935.1</ele>
        <time>2013-05-26T08:56:45.500Z</time>
      </trkpt>
      <trkpt lat="45.79728" lon="6.24408">
        <ele>933.7</ele>
        <time>2013-05-26T08:56:46.500Z</time>
      </trkpt>
      <trkpt lat="45.79723" lon="6.2441">
        <ele>932.9</ele>
        <time>2013-05-26T08:56:51.500Z</time>
      </trkpt>
      <trkpt lat="45.79719" lon="6.24413">
        <ele>935.8</ele>
        <time>2013-05-26T08:56:55.500Z</time>
      </trkpt>
      <trkpt lat="45.79713" lon="6.24417">
        <ele>936.1</ele>
        <time>2013-05-26T08:57:00.500Z</time>
      </trkpt>
      <trkpt lat="45.7971" lon="6.24421">
        <ele>938.4</ele>
        <time>2013-05-26T08:57:04.600Z</time>
      </trkpt>
      <trkpt lat="45.79706" lon="6.24424">
        <ele>937.5</ele>
        <time>2013-05-26T08:57:07.600Z</time>
      </trkpt>
      <trkpt lat="45.79701" lon="6.24429">
        <ele>939.1</ele>
        <time>2013-05-26T08:57:13.500Z</time>
      </trkpt>
      <trkpt lat="45.797" lon="6.2443">
        <ele>941.1</ele>
        <time>2013-05-26T08:57:14.500Z</time>
      </trkpt>
      <trkpt lat="45.797" lon="6.2443">
        <ele>940.6</ele>
        <time>2013-05-26T08:57:15.500Z</time>
      </trkpt>
      <trkpt lat="45.79698" lon="6.24433">
        <ele>944.1</ele>
        <time>2013-05-26T08:57:20.600Z</time>
      </trkpt>
      <trkpt lat="45.79694" lon="6.24437">
        <ele>941</ele>
        <time>2013-05-26T08:57:24.500Z</time>
      </trkpt>
      <trkpt lat="45.79694" lon="6.24437">
        <ele>940.3</ele>
        <time>2013-05-26T08:57:28.500Z</time>
      </trkpt>
      <trkpt lat="45.79691" lon="6.24448">
        <ele>932.9</ele>
        <time>2013-05-26T08:57:33.500Z</time>
      </trkpt>
      <trkpt lat="45.79687" lon="6.24451">
        <ele>940.3</ele>
        <time>2013-05-26T08:57:38.500Z</time>
      </trkpt>
      <trkpt lat="45.79685" lon="6.24452">
        <ele>940.3</ele>
        <time>2013-05-26T08:57:40.500Z</time>
      </trkpt>
      <trkpt lat="45.79681" lon="6.24456">
        <ele>938.9</ele>
        <time>2013-05-26T08:57:46.500Z</time>
      </trkpt>
      <trkpt lat="45.79678" lon="6.2446">
        <ele>941.8</ele>
        <time>2013-05-26T08:57:51.600Z</time>
      </trkpt>
      <trkpt lat="45.79678" lon="6.24461">
        <ele>945</ele>
        <time>2013-05-26T08:57:52.500Z</time>
      </trkpt>
      <trkpt lat="45.79678" lon="6.2446">
        <ele>946.7</ele>
        <time>2013-05-26T08:57:56.700Z</time>
      </trkpt>
      <trkpt lat="45.79678" lon="6.24461">
        <ele>950.3</ele>
        <time>2013-05-26T08:58:01.600Z</time>
      </trkpt>
      <trkpt lat="45.7968" lon="6.24464">
        <ele>951.4</ele>
        <time>2013-05-26T08:58:04.500Z</time>
      </trkpt>
      <trkpt lat="45.79686" lon="6.24463">
        <ele>942.1</ele>
        <time>2013-05-26T08:58:11.600Z</time>
      </trkpt>
      <trkpt lat="45.79687" lon="6.24462">
        <ele>944.9</ele>
        <time>2013-05-26T08:58:12.500Z</time>
      </trkpt>
      <trkpt lat="45.79687" lon="6.24462">
        <ele>944.8</ele>
        <time>2013-05-26T08:58:16.500Z</time>
      </trkpt>
      <trkpt lat="45.79702" lon="6.2446">
        <ele>942.1</ele>
        <time>2013-05-26T08:58:22.500Z</time>
      </trkpt>
      <trkpt lat="45.79702" lon="6.2446">
        <ele>939.5</ele>
        <time>2013-05-26T08:58:26.500Z</time>
      </trkpt>
      <trkpt lat="45.79705" lon="6.24458">
        <ele>933.8</ele>
        <time>2013-05-26T08:58:30.500Z</time>
      </trkpt>
      <trkpt lat="45.79711" lon="6.24459">
        <ele>938</ele>
        <time>2013-05-26T08:58:35.600Z</time>
      </trkpt>
      <trkpt lat="45.79733" lon="6.24459">
        <ele>937.7</ele>
        <time>2013-05-26T08:58:40.600Z</time>
      </trkpt>
      <trkpt lat="45.79741" lon="6.24457">
        <ele>940.3</ele>
        <time>2013-05-26T08:58:45.500Z</time>
      </trkpt>
      <trkpt lat="45.79748" lon="6.24452">
        <ele>931.8</ele>
        <time>2013-05-26T08:58:50.500Z</time>
      </trkpt>
      <trkpt lat="45.79752" lon="6.24447">
        <ele>929.6</ele>
        <time>2013-05-26T08:58:54.500Z</time>
      </trkpt>
      <trkpt lat="45.79763" lon="6.24443">
        <ele>933.8</ele>
        <time>2013-05-26T08:58:58.500Z</time>
      </trkpt>
      <trkpt lat="45.79766" lon="6.24441">
        <ele>939.5</ele>
        <time>2013-05-26T08:59:00.500Z</time>
      </trkpt>
      <trkpt lat="45.79771" lon="6.24439">
        <ele>931.3</ele>
        <time>2013-05-26T08:59:04.500Z</time>
      </trkpt>
      <trkpt lat="45.79775" lon="6.24439">
        <ele>932</ele>
        <time>2013-05-26T08:59:07.500Z</time>
      </trkpt>
      <trkpt lat="45.79783" lon="6.24439">
        <ele>930.6</ele>
        <time>2013-05-26T08:59:11.600Z</time>
      </trkpt>
      <trkpt lat="45.79805" lon="6.24441">
        <ele>938.7</ele>
        <time>2013-05-26T08:59:17.500Z</time>
      </trkpt>
      <trkpt lat="45.79815" lon="6.24443">
        <ele>935.6</ele>
        <time>2013-05-26T08:59:22.600Z</time>
      </trkpt>
      <trkpt lat="45.7983" lon="6.2445">
        <ele>942.7</ele>
        <time>2013-05-26T08:59:27.600Z</time>
      </trkpt>
      <trkpt lat="45.79832" lon="6.24452">
        <ele>937.6</ele>
        <time>2013-05-26T08:59:29.600Z</time>
      </trkpt>
      <trkpt lat="45.79851" lon="6.24446">
        <ele>929.2</ele>
        <time>2013-05-26T08:59:35.500Z</time>
      </trkpt>
      <trkpt lat="45.79863" lon="6.24442">
        <ele>937.4</ele>
        <time>2013-05-26T08:59:41.600Z</time>
      </trkpt>
      <trkpt lat="45.79868" lon="6.24439">
        <ele>926.3</ele>
        <time>2013-05-26T08:59:45.600Z</time>
      </trkpt>
      <trkpt lat="45.79885" lon="6.24432">
        <ele>924.2</ele>
        <time>2013-05-26T08:59:51.600Z</time>
      </trkpt>
      <trkpt lat="45.79895" lon="6.2443">
        <ele>929.2</ele>
        <time>2013-05-26T08:59:56.600Z</time>
      </trkpt>
      <trkpt lat="45.79916" lon="6.2443">
        <ele>925.8</ele>
        <time>2013-05-26T09:00:03.600Z</time>
      </trkpt>
      <trkpt lat="45.79927" lon="6.24437">
        <ele>927</ele>
        <time>2013-05-26T09:00:08.500Z</time>
      </trkpt>
      <trkpt lat="45.79933" lon="6.24437">
        <ele>924.1</ele>
        <time>2013-05-26T09:00:12.600Z</time>
      </trkpt>
      <trkpt lat="45.79934" lon="6.24437">
        <ele>930</ele>
        <time>2013-05-26T09:00:14.600Z</time>
      </trkpt>
      <trkpt lat="45.79939" lon="6.24437">
        <ele>935.7</ele>
        <time>2013-05-26T09:00:18.500Z</time>
      </trkpt>
      <trkpt lat="45.79945" lon="6.24439">
        <ele>937.1</ele>
        <time>2013-05-26T09:00:22.600Z</time>
      </trkpt>
      <trkpt lat="45.79963" lon="6.24451">
        <ele>936.7</ele>
        <time>2013-05-26T09:00:27.500Z</time>
      </trkpt>
      <trkpt lat="45.79967" lon="6.2445">
        <ele>941.8</ele>
        <time>2013-05-26T09:00:29.500Z</time>
      </trkpt>
      <trkpt lat="45.79979" lon="6.24444">
        <ele>937</ele>
        <time>2013-05-26T09:00:35.500Z</time>
      </trkpt>
      <trkpt lat="45.79983" lon="6.24443">
        <ele>937.6</ele>
        <time>2013-05-26T09:00:39.500Z</time>
      </trkpt>
      <trkpt lat="45.79999" lon="6.24428">
        <ele>943.9</ele>
        <time>2013-05-26T09:00:44.600Z</time>
      </trkpt>
      <trkpt lat="45.80006" lon="6.24419">
        <ele>941.3</ele>
        <time>2013-05-26T09:00:49.600Z</time>
      </trkpt>
      <trkpt lat="45.80021" lon="6.24408">
        <ele>946.5</ele>
        <time>2013-05-26T09:00:54.700Z</time>
      </trkpt>
      <trkpt lat="45.80028" lon="6.2441">
        <ele>954</ele>
        <time>2013-05-26T09:00:57.500Z</time>
      </trkpt>
      <trkpt lat="45.80028" lon="6.24409">
        <ele>951.5</ele>
        <time>2013-05-26T09:00:58.600Z</time>
      </trkpt>
      <trkpt lat="45.80036" lon="6.24404">
        <ele>954.3</ele>
        <time>2013-05-26T09:01:03.600Z</time>
      </trkpt>
      <trkpt lat="45.80047" lon="6.2439">
        <ele>950.3</ele>
        <time>2013-05-26T09:01:08.700Z</time>
      </trkpt>
      <trkpt lat="45.80072" lon="6.24393">
        <ele>953.2</ele>
        <time>2013-05-26T09:01:15.600Z</time>
      </trkpt>
      <trkpt lat="45.80076" lon="6.24395">
        <ele>948.7</ele>
        <time>2013-05-26T09:01:19.500Z</time>
      </trkpt>
      <trkpt lat="45.80083" lon="6.24397">
        <ele>944.9</ele>
        <time>2013-05-26T09:01:24.600Z</time>
      </trkpt>
      <trkpt lat="45.80098" lon="6.24398">
        <ele>942.9</ele>
        <time>2013-05-26T09:01:29.500Z</time>
      </trkpt>
      <trkpt lat="45.80099" lon="6.24402">
        <ele>945.9</ele>
        <time>2013-05-26T09:01:31.600Z</time>
      </trkpt>
      <trkpt lat="45.80106" lon="6.24403">
        <ele>948.4</ele>
        <time>2013-05-26T09:01:37.600Z</time>
      </trkpt>
      <trkpt lat="45.80107" lon="6.24404">
        <ele>943.7</ele>
        <time>2013-05-26T09:01:42.600Z</time>
      </trkpt>
      <trkpt lat="45.80115" lon="6.24407">
        <ele>946.4</ele>
        <time>2013-05-26T09:01:47.600Z</time>
      </trkpt>
      <trkpt lat="45.80123" lon="6.2441">
        <ele>944.3</ele>
        <time>2013-05-26T09:01:51.600Z</time>
      </trkpt>
      <trkpt lat="45.80134" lon="6.24415">
        <ele>940.4</ele>
        <time>2013-05-26T09:01:58.600Z</time>
      </trkpt>
      <trkpt lat="45.80138" lon="6.24417">
        <ele>943</ele>
        <time>2013-05-26T09:02:02.500Z</time>
      </trkpt>
      <trkpt lat="45.80147" lon="6.24425">
        <ele>943</ele>
        <time>2013-05-26T09:02:07.600Z</time>
      </trkpt>
      <trkpt lat="45.80154" lon="6.24435">
        <ele>947.2</ele>
        <time>2013-05-26T09:02:11.600Z</time>
      </trkpt>
      <trkpt lat="45.8016" lon="6.24436">
        <ele>946.8</ele>
        <time>2013-05-26T09:02:15.500Z</time>
      </trkpt>
      <trkpt lat="45.80164" lon="6.24438">
        <ele>943.6</ele>
        <time>2013-05-26T09:02:18.600Z</time>
      </trkpt>
      <trkpt lat="45.80164" lon="6.24438">
        <ele>935.1</ele>
        <time>2013-05-26T09:02:23.600Z</time>
      </trkpt>
      <trkpt lat="45.80169" lon="6.24432">
        <ele>946.1</ele>
        <time>2013-05-26T09:02:28.600Z</time>
      </trkpt>
      <trkpt lat="45.80192" lon="6.24427">
        <ele>941.8</ele>
        <time>2013-05-26T09:02:33.600Z</time>
      </trkpt>
      <trkpt lat="45.8021" lon="6.24421">
        <ele>939.9</ele>
        <time>2013-05-26T09:02:37.600Z</time>
      </trkpt>
      <trkpt lat="45.8022" lon="6.24426">
        <ele>946.5</ele>
        <time>2013-05-26T09:02:43.600Z</time>
      </trkpt>
      <trkpt lat="45.80228" lon="6.24427">
        <ele>947.6</ele>
        <time>2013-05-26T09:02:47.600Z</time>
      </trkpt>
      <trkpt lat="45.80241" lon="6.24426">
        <ele>951.2</ele>
        <time>2013-05-26T09:02:51.600Z</time>
      </trkpt>
      <trkpt lat="45.8025" lon="6.24429">
        <ele>953.1</ele>
        <time>2013-05-26T09:02:56.600Z</time>
      </trkpt>
      <trkpt lat="45.80262" lon="6.24426">
        <ele>951.7</ele>
        <time>2013-05-26T09:03:01.500Z</time>
      </trkpt>
      <trkpt lat="45.80266" lon="6.24426">
        <ele>949.9</ele>
        <time>2013-05-26T09:03:03.600Z</time>
      </trkpt>
      <trkpt lat="45.8027" lon="6.24425">
        <ele>951.5</ele>
        <time>2013-05-26T09:03:05.500Z</time>
      </trkpt>
      <trkpt lat="45.80271" lon="6.24425">
        <ele>953.9</ele>
        <time>2013-05-26T09:03:06.600Z</time>
      </trkpt>
      <trkpt lat="45.80288" lon="6.24417">
        <ele>966.2</ele>
        <time>2013-05-26T09:03:12.600Z</time>
      </trkpt>
      <trkpt lat="45.80291" lon="6.24416">
        <ele>966.1</ele>
        <time>2013-05-26T09:03:13.600Z</time>
      </trkpt>
      <trkpt lat="45.80294" lon="6.24417">
        <ele>965.3</ele>
        <time>2013-05-26T09:03:14.600Z</time>
      </trkpt>
      <trkpt lat="45.80296" lon="6.24417">
        <ele>963.3</ele>
        <time>2013-05-26T09:03:15.600Z</time>
      </trkpt>
      <trkpt lat="45.80304" lon="6.24415">
        <ele>970.2</ele>
        <time>2013-05-26T09:03:20.500Z</time>
      </trkpt>
      <trkpt lat="45.80307" lon="6.24412">
        <ele>986</ele>
        <time>2013-05-26T09:03:24.600Z</time>
      </trkpt>
      <trkpt lat="45.80314" lon="6.24413">
        <ele>985.4</ele>
        <time>2013-05-26T09:03:28.600Z</time>
      </trkpt>
      <trkpt lat="45.80314" lon="6.24413">
        <ele>981.2</ele>
        <time>2013-05-26T09:03:33.600Z</time>
      </trkpt>
      <trkpt lat="45.80326" lon="6.24406">
        <ele>985.5</ele>
        <time>2013-05-26T09:03:39.500Z</time>
      </trkpt>
      <trkpt lat="45.8033" lon="6.24405">
        <ele>991.4</ele>
        <time>2013-05-26T09:03:42.600Z</time>
      </trkpt>
      <trkpt lat="45.80334" lon="6.24406">
        <ele>988.4</ele>
        <time>2013-05-26T09:03:46.500Z</time>
      </trkpt>
      <trkpt lat="45.80336" lon="6.24405">
        <ele>989.5</ele>
        <time>2013-05-26T09:03:48.600Z</time>
      </trkpt>
      <trkpt lat="45.80337" lon="6.24405">
        <ele>986.9</ele>
        <time>2013-05-26T09:03:49.600Z</time>
      </trkpt>
      <trkpt lat="45.8034" lon="6.24405">
        <ele>987.5</ele>
        <time>2013-05-26T09:03:53.600Z</time>
      </trkpt>
      <trkpt lat="45.80358" lon="6.24374">
        <ele>994.2</ele>
        <time>2013-05-26T09:04:00.500Z</time>
      </trkpt>
      <trkpt lat="45.80363" lon="6.24369">
        <ele>997.5</ele>
        <time>2013-05-26T09:04:03.600Z</time>
      </trkpt>
      <trkpt lat="45.80372" lon="6.24364">
        <ele>998.7</ele>
        <time>2013-05-26T09:04:10.600Z</time>
      </trkpt>
      <trkpt lat="45.80387" lon="6.2435">
        <ele>1010</ele>
        <time>2013-05-26T09:04:16.500Z</time>
      </trkpt>
      <trkpt lat="45.80395" lon="6.2434">
        <ele>1021</ele>
        <time>2013-05-26T09:04:22.600Z</time>
      </trkpt>
      <trkpt lat="45.804" lon="6.24337">
        <ele>1017.4</ele>
        <time>2013-05-26T09:04:27.600Z</time>
      </trkpt>
      <trkpt lat="45.80406" lon="6.24335">
        <ele>1020</ele>
        <time>2013-05-26T09:04:33.600Z</time>
      </trkpt>
      <trkpt lat="45.80411" lon="6.24332">
        <ele>1028.2</ele>
        <time>2013-05-26T09:04:39.600Z</time>
      </trkpt>
      <trkpt lat="45.80416" lon="6.24328">
        <ele>1026.5</ele>
        <time>2013-05-26T09:04:44.500Z</time>
      </trkpt>
      <trkpt lat="45.80426" lon="6.24321">
        <ele>1027.4</ele>
        <time>2013-05-26T09:04:48.500Z</time>
      </trkpt>
      <trkpt lat="45.80429" lon="6.24319">
        <ele>1030.6</ele>
        <time>2013-05-26T09:04:53.600Z</time>
      </trkpt>
      <trkpt lat="45.80436" lon="6.24314">
        <ele>1032.2</ele>
        <time>2013-05-26T09:04:58.500Z</time>
      </trkpt>
      <trkpt lat="45.80438" lon="6.24313">
        <ele>1033.1</ele>
        <time>2013-05-26T09:05:00.600Z</time>
      </trkpt>
      <trkpt lat="45.8044" lon="6.24313">
        <ele>1031.5</ele>
        <time>2013-05-26T09:05:01.700Z</time>
      </trkpt>
      <trkpt lat="45.80442" lon="6.24312">
        <ele>1031.8</ele>
        <time>2013-05-26T09:05:03.600Z</time>
      </trkpt>
      <trkpt lat="45.80442" lon="6.24312">
        <ele>1037.1</ele>
        <time>2013-05-26T09:05:08.500Z</time>
      </trkpt>
      <trkpt lat="45.80445" lon="6.24308">
        <ele>1033.8</ele>
        <time>2013-05-26T09:05:11.600Z</time>
      </trkpt>
      <trkpt lat="45.80446" lon="6.24306">
        <ele>1034.6</ele>
        <time>2013-05-26T09:05:13.600Z</time>
      </trkpt>
      <trkpt lat="45.80451" lon="6.24297">
        <ele>1039.8</ele>
        <time>2013-05-26T09:05:20.500Z</time>
      </trkpt>
      <trkpt lat="45.80453" lon="6.24294">
        <ele>1037.5</ele>
        <time>2013-05-26T09:05:22.500Z</time>
      </trkpt>
      <trkpt lat="45.80453" lon="6.24294">
        <ele>1038.6</ele>
        <time>2013-05-26T09:05:26.600Z</time>
      </trkpt>
      <trkpt lat="45.80456" lon="6.24292">
        <ele>1032.7</ele>
        <time>2013-05-26T09:05:30.600Z</time>
      </trkpt>
      <trkpt lat="45.80464" lon="6.24288">
        <ele>1032.9</ele>
        <time>2013-05-26T09:05:35.500Z</time>
      </trkpt>
      <trkpt lat="45.80465" lon="6.24283">
        <ele>1039.2</ele>
        <time>2013-05-26T09:05:38.500Z</time>
      </trkpt>
      <trkpt lat="45.80467" lon="6.24279">
        <ele>1041.1</ele>
        <time>2013-05-26T09:05:41.500Z</time>
      </trkpt>
      <trkpt lat="45.80467" lon="6.24268">
        <ele>1043.1</ele>
        <time>2013-05-26T09:05:45.600Z</time>
      </trkpt>
      <trkpt lat="45.80467" lon="6.24265">
        <ele>1040.3</ele>
        <time>2013-05-26T09:05:47.600Z</time>
      </trkpt>
      <trkpt lat="45.8047" lon="6.24256">
        <ele>1039.3</ele>
        <time>2013-05-26T09:05:52.600Z</time>
      </trkpt>
      <trkpt lat="45.80471" lon="6.24253">
        <ele>1037.9</ele>
        <time>2013-05-26T09:05:54.600Z</time>
      </trkpt>
      <trkpt lat="45.80472" lon="6.24252">
        <ele>1040.3</ele>
        <time>2013-05-26T09:05:55.600Z</time>
      </trkpt>
      <trkpt lat="45.80474" lon="6.24249">
        <ele>1040.9</ele>
        <time>2013-05-26T09:05:59.600Z</time>
      </trkpt>
      <trkpt lat="45.80477" lon="6.24248">
        <ele>1037.4</ele>
        <time>2013-05-26T09:06:04.500Z</time>
      </trkpt>
      <trkpt lat="45.8048" lon="6.2425">
        <ele>1037.6</ele>
        <time>2013-05-26T09:06:08.600Z</time>
      </trkpt>
      <trkpt lat="45.80485" lon="6.24252">
        <ele>1039.3</ele>
        <time>2013-05-26T09:06:12.600Z</time>
      </trkpt>
      <trkpt lat="45.8049" lon="6.24249">
        <ele>1024.3</ele>
        <time>2013-05-26T09:06:17.500Z</time>
      </trkpt>
      <trkpt lat="45.80491" lon="6.24246">
        <ele>1028.7</ele>
        <time>2013-05-26T09:06:19.600Z</time>
      </trkpt>
      <trkpt lat="45.80493" lon="6.24243">
        <ele>1025.4</ele>
        <time>2013-05-26T09:06:22.600Z</time>
      </trkpt>
      <trkpt lat="45.80496" lon="6.24241">
        <ele>1029.4</ele>
        <time>2013-05-26T09:06:26.600Z</time>
      </trkpt>
      <trkpt lat="45.805" lon="6.24233">
        <ele>1032.9</ele>
        <time>2013-05-26T09:06:30.600Z</time>
      </trkpt>
      <trkpt lat="45.80501" lon="6.24227">
        <ele>1029.5</ele>
        <time>2013-05-26T09:06:35.600Z</time>
      </trkpt>
      <trkpt lat="45.80502" lon="6.24226">
        <ele>1032.6</ele>
        <time>2013-05-26T09:06:36.600Z</time>
      </trkpt>
      <trkpt lat="45.80504" lon="6.24224">
        <ele>1033.8</ele>
        <time>2013-05-26T09:06:40.600Z</time>
      </trkpt>
      <trkpt lat="45.80504" lon="6.24224">
        <ele>1022.6</ele>
        <time>2013-05-26T09:06:45.600Z</time>
      </trkpt>
      <trkpt lat="45.80505" lon="6.24225">
        <ele>1030.2</ele>
        <time>2013-05-26T09:06:50.600Z</time>
      </trkpt>
      <trkpt lat="45.80508" lon="6.24221">
        <ele>1037.9</ele>
        <time>2013-05-26T09:06:54.500Z</time>
      </trkpt>
      <trkpt lat="45.80508" lon="6.24221">
        <ele>1037.8</ele>
        <time>2013-05-26T09:06:58.500Z</time>
      </trkpt>
      <trkpt lat="45.80512" lon="6.24221">
        <ele>1042.1</ele>
        <time>2013-05-26T09:07:01.600Z</time>
      </trkpt>
      <trkpt lat="45.80514" lon="6.24222">
        <ele>1042.2</ele>
        <time>2013-05-26T09:07:03.600Z</time>
      </trkpt>
      <trkpt lat="45.8052" lon="6.24219">
        <ele>1050.1</ele>
        <time>2013-05-26T09:07:08.600Z</time>
      </trkpt>
      <trkpt lat="45.80523" lon="6.24221">
        <ele>1041.9</ele>
        <time>2013-05-26T09:07:10.600Z</time>
      </trkpt>
      <trkpt lat="45.80527" lon="6.24223">
        <ele>1041</ele>
        <time>2013-05-26T09:07:15.600Z</time>
      </trkpt>
      <trkpt lat="45.80532" lon="6.24225">
        <ele>1037.5</ele>
        <time>2013-05-26T09:07:19.600Z</time>
      </trkpt>
      <trkpt lat="45.80533" lon="6.24225">
        <ele>1038.6</ele>
        <time>2013-05-26T09:07:24.600Z</time>
      </trkpt>
      <trkpt lat="45.80535" lon="6.24226">
        <ele>1040.4</ele>
        <time>2013-05-26T09:07:27.600Z</time>
      </trkpt>
      <trkpt lat="45.80538" lon="6.24226">
        <ele>1036.1</ele>
        <time>2013-05-26T09:07:31.600Z</time>
      </trkpt>
      <trkpt lat="45.80543" lon="6.24225">
        <ele>1040.2</ele>
        <time>2013-05-26T09:07:35.600Z</time>
      </trkpt>
      <trkpt lat="45.80546" lon="6.24225">
        <ele>1043.8</ele>
        <time>2013-05-26T09:07:40.600Z</time>
      </trkpt>
      <trkpt lat="45.8055" lon="6.24227">
        <ele>1046.6</ele>
        <time>2013-05-26T09:07:44.600Z</time>
      </trkpt>
      <trkpt lat="45.8055" lon="6.24227">
        <ele>1045.4</ele>
        <time>2013-05-26T09:07:49.600Z</time>
      </trkpt>
      <trkpt lat="45.80555" lon="6.24228">
        <ele>1052.2</ele>
        <time>2013-05-26T09:07:54.600Z</time>
      </trkpt>
      <trkpt lat="45.80559" lon="6.24228">
        <ele>1055.5</ele>
        <time>2013-05-26T09:07:57.600Z</time>
      </trkpt>
      <trkpt lat="45.80569" lon="6.24229">
        <ele>1050.2</ele>
        <time>2013-05-26T09:08:01.600Z</time>
      </trkpt>
      <trkpt lat="45.80569" lon="6.24229">
        <ele>1045.7</ele>
        <time>2013-05-26T09:08:05.600Z</time>
      </trkpt>
      <trkpt lat="45.8057" lon="6.24231">
        <ele>1041.9</ele>
        <time>2013-05-26T09:08:09.600Z</time>
      </trkpt>
      <trkpt lat="45.80575" lon="6.2423">
        <ele>1045.9</ele>
        <time>2013-05-26T09:08:13.600Z</time>
      </trkpt>
      <trkpt lat="45.80579" lon="6.24234">
        <ele>1050.4</ele>
        <time>2013-05-26T09:08:18.600Z</time>
      </trkpt>
      <trkpt lat="45.80583" lon="6.24243">
        <ele>1050.8</ele>
        <time>2013-05-26T09:08:23.600Z</time>
      </trkpt>
      <trkpt lat="45.80583" lon="6.24243">
        <ele>1050.8</ele>
        <time>2013-05-26T09:08:27.600Z</time>
      </trkpt>
      <trkpt lat="45.80593" lon="6.2425">
        <ele>1050.7</ele>
        <time>2013-05-26T09:08:32.600Z</time>
      </trkpt>
      <trkpt lat="45.80597" lon="6.24252">
        <ele>1046.3</ele>
        <time>2013-05-26T09:08:36.600Z</time>
      </trkpt>
      <trkpt lat="45.80597" lon="6.24252">
        <ele>1049.4</ele>
        <time>2013-05-26T09:08:40.600Z</time>
      </trkpt>
      <trkpt lat="45.80602" lon="6.24256">
        <ele>1052</ele>
        <time>2013-05-26T09:08:45.600Z</time>
      </trkpt>
      <trkpt lat="45.80602" lon="6.24256">
        <ele>1047.1</ele>
        <time>2013-05-26T09:08:49.600Z</time>
      </trkpt>
      <trkpt lat="45.80609" lon="6.24259">
        <ele>1057.2</ele>
        <time>2013-05-26T09:08:55.600Z</time>
      </trkpt>
      <trkpt lat="45.80616" lon="6.24272">
        <ele>1049.8</ele>
        <time>2013-05-26T09:09:01.600Z</time>
      </trkpt>
      <trkpt lat="45.80622" lon="6.24273">
        <ele>1051.1</ele>
        <time>2013-05-26T09:09:05.600Z</time>
      </trkpt>
      <trkpt lat="45.80622" lon="6.24273">
        <ele>1066.7</ele>
        <time>2013-05-26T09:09:10.600Z</time>
      </trkpt>
      <trkpt lat="45.80626" lon="6.24278">
        <ele>1068.7</ele>
        <time>2013-05-26T09:09:15.600Z</time>
      </trkpt>
      <trkpt lat="45.80626" lon="6.24278">
        <ele>1066.9</ele>
        <time>2013-05-26T09:09:19.600Z</time>
      </trkpt>
      <trkpt lat="45.80631" lon="6.24279">
        <ele>1076.3</ele>
        <time>2013-05-26T09:09:23.600Z</time>
      </trkpt>
      <trkpt lat="45.80631" lon="6.24279">
        <ele>1079.9</ele>
        <time>2013-05-26T09:09:27.600Z</time>
      </trkpt>
      <trkpt lat="45.8065" lon="6.24284">
        <ele>1080.5</ele>
        <time>2013-05-26T09:09:33.500Z</time>
      </trkpt>
      <trkpt lat="45.8065" lon="6.24284">
        <ele>1075.4</ele>
        <time>2013-05-26T09:09:37.600Z</time>
      </trkpt>
      <trkpt lat="45.8065" lon="6.24284">
        <ele>1085.2</ele>
        <time>2013-05-26T09:09:41.600Z</time>
      </trkpt>
      <trkpt lat="45.80654" lon="6.24287">
        <ele>1081</ele>
        <time>2013-05-26T09:09:44.500Z</time>
      </trkpt>
      <trkpt lat="45.80654" lon="6.24287">
        <ele>1080</ele>
        <time>2013-05-26T09:09:48.600Z</time>
      </trkpt>
      <trkpt lat="45.80674" lon="6.24291">
        <ele>1081</ele>
        <time>2013-05-26T09:09:54.600Z</time>
      </trkpt>
      <trkpt lat="45.80677" lon="6.24289">
        <ele>1077</ele>
        <time>2013-05-26T09:09:57.600Z</time>
      </trkpt>
      <trkpt lat="45.80694" lon="6.24293">
        <ele>1085.9</ele>
        <time>2013-05-26T09:10:02.600Z</time>
      </trkpt>
      <trkpt lat="45.807" lon="6.24294">
        <ele>1074.6</ele>
        <time>2013-05-26T09:10:06.500Z</time>
      </trkpt>
      <trkpt lat="45.80712" lon="6.24299">
        <ele>1077.5</ele>
        <time>2013-05-26T09:10:11.600Z</time>
      </trkpt>
      <trkpt lat="45.80718" lon="6.24302">
        <ele>1056.4</ele>
        <time>2013-05-26T09:10:16.600Z</time>
      </trkpt>
      <trkpt lat="45.8072" lon="6.24303">
        <ele>1052.1</ele>
        <time>2013-05-26T09:10:21.600Z</time>
      </trkpt>
      <trkpt lat="45.8072" lon="6.2431">
        <ele>1052.5</ele>
        <time>2013-05-26T09:10:27.600Z</time>
      </trkpt>
      <trkpt lat="45.80724" lon="6.24317">
        <ele>1055</ele>
        <time>2013-05-26T09:10:32.600Z</time>
      </trkpt>
      <trkpt lat="45.80725" lon="6.24318">
        <ele>1052.9</ele>
        <time>2013-05-26T09:10:36.600Z</time>
      </trkpt>
      <trkpt lat="45.8073" lon="6.24323">
        <ele>1050.2</ele>
        <time>2013-05-26T09:10:41.600Z</time>
      </trkpt>
      <trkpt lat="45.80731" lon="6.24324">
        <ele>1047.7</ele>
        <time>2013-05-26T09:10:42.600Z</time>
      </trkpt>
      <trkpt lat="45.80732" lon="6.24325">
        <ele>1045.6</ele>
        <time>2013-05-26T09:10:47.500Z</time>
      </trkpt>
      <trkpt lat="45.80737" lon="6.24329">
        <ele>1045.4</ele>
        <time>2013-05-26T09:10:52.600Z</time>
      </trkpt>
      <trkpt lat="45.80744" lon="6.24336">
        <ele>1052.6</ele>
        <time>2013-05-26T09:10:57.600Z</time>
      </trkpt>
      <trkpt lat="45.80744" lon="6.24338">
        <ele>1055.3</ele>
        <time>2013-05-26T09:10:58.600Z</time>
      </trkpt>
      <trkpt lat="45.80752" lon="6.24344">
        <ele>1055</ele>
        <time>2013-05-26T09:11:03.600Z</time>
      </trkpt>
      <trkpt lat="45.80755" lon="6.24346">
        <ele>1058.1</ele>
        <time>2013-05-26T09:11:05.500Z</time>
      </trkpt>
      <trkpt lat="45.80757" lon="6.24348">
        <ele>1056.5</ele>
        <time>2013-05-26T09:11:09.600Z</time>
      </trkpt>
      <trkpt lat="45.80758" lon="6.24351">
        <ele>1061.4</ele>
        <time>2013-05-26T09:11:11.600Z</time>
      </trkpt>
      <trkpt lat="45.80762" lon="6.24351">
        <ele>1068.2</ele>
        <time>2013-05-26T09:11:18.600Z</time>
      </trkpt>
      <trkpt lat="45.80766" lon="6.24352">
        <ele>1073.9</ele>
        <time>2013-05-26T09:11:20.600Z</time>
      </trkpt>
      <trkpt lat="45.80772" lon="6.24352">
        <ele>1083.3</ele>
        <time>2013-05-26T09:11:24.600Z</time>
      </trkpt>
      <trkpt lat="45.80774" lon="6.24353">
        <ele>1084.5</ele>
        <time>2013-05-26T09:11:26.500Z</time>
      </trkpt>
      <trkpt lat="45.80785" lon="6.24355">
        <ele>1088</ele>
        <time>2013-05-26T09:11:30.600Z</time>
      </trkpt>
      <trkpt lat="45.80787" lon="6.24357">
        <ele>1089.6</ele>
        <time>2013-05-26T09:11:32.600Z</time>
      </trkpt>
      <trkpt lat="45.80789" lon="6.24357">
        <ele>1089.7</ele>
        <time>2013-05-26T09:11:33.600Z</time>
      </trkpt>
      <trkpt lat="45.80795" lon="6.24359">
        <ele>1088.5</ele>
        <time>2013-05-26T09:11:37.600Z</time>
      </trkpt>
      <trkpt lat="45.80796" lon="6.2436">
        <ele>1094.4</ele>
        <time>2013-05-26T09:11:41.600Z</time>
      </trkpt>
      <trkpt lat="45.80799" lon="6.24362">
        <ele>1094.5</ele>
        <time>2013-05-26T09:11:44.500Z</time>
      </trkpt>
      <trkpt lat="45.80798" lon="6.24363">
        <ele>1100.5</ele>
        <time>2013-05-26T09:11:46.600Z</time>
      </trkpt>
      <trkpt lat="45.80796" lon="6.24366">
        <ele>1097.2</ele>
        <time>2013-05-26T09:11:48.600Z</time>
      </trkpt>
      <trkpt lat="45.80795" lon="6.24367">
        <ele>1102.1</ele>
        <time>2013-05-26T09:11:53.600Z</time>
      </trkpt>
      <trkpt lat="45.80792" lon="6.24371">
        <ele>1099.6</ele>
        <time>2013-05-26T09:11:57.600Z</time>
      </trkpt>
      <trkpt lat="45.80792" lon="6.2437">
        <ele>1109.2</ele>
        <time>2013-05-26T09:12:01.600Z</time>
      </trkpt>
      <trkpt lat="45.80792" lon="6.24374">
        <ele>1108.7</ele>
        <time>2013-05-26T09:12:06.600Z</time>
      </trkpt>
      <trkpt lat="45.80794" lon="6.24376">
        <ele>1110.3</ele>
        <time>2013-05-26T09:12:10.600Z</time>
      </trkpt>
      <trkpt lat="45.80794" lon="6.24376">
        <ele>1112.3</ele>
        <time>2013-05-26T09:12:11.600Z</time>
      </trkpt>
      <trkpt lat="45.80796" lon="6.24378">
        <ele>1112.7</ele>
        <time>2013-05-26T09:12:14.600Z</time>
      </trkpt>
      <trkpt lat="45.80798" lon="6.24378">
        <ele>1113.5</ele>
        <time>2013-05-26T09:12:15.600Z</time>
      </trkpt>
      <trkpt lat="45.80799" lon="6.24379">
        <ele>1114.6</ele>
        <time>2013-05-26T09:12:16.600Z</time>
      </trkpt>
      <trkpt lat="45.80801" lon="6.2438">
        <ele>1113.2</ele>
        <time>2013-05-26T09:12:18.600Z</time>
      </trkpt>
      <trkpt lat="45.80803" lon="6.24385">
        <ele>1110.7</ele>
        <time>2013-05-26T09:12:22.600Z</time>
      </trkpt>
      <trkpt lat="45.80806" lon="6.24389">
        <ele>1114.6</ele>
        <time>2013-05-26T09:12:27.600Z</time>
      </trkpt>
      <trkpt lat="45.80807" lon="6.24389">
        <ele>1116.5</ele>
        <time>2013-05-26T09:12:28.600Z</time>
      </trkpt>
      <trkpt lat="45.80809" lon="6.24389">
        <ele>1117.5</ele>
        <time>2013-05-26T09:12:29.600Z</time>
      </trkpt>
      <trkpt lat="45.80811" lon="6.24391">
        <ele>1120.3</ele>
        <time>2013-05-26T09:12:33.600Z</time>
      </trkpt>
      <trkpt lat="45.80811" lon="6.24394">
        <ele>1115.9</ele>
        <time>2013-05-26T09:12:36.600Z</time>
      </trkpt>
      <trkpt lat="45.80811" lon="6.24396">
        <ele>1112.6</ele>
        <time>2013-05-26T09:12:37.600Z</time>
      </trkpt>
      <trkpt lat="45.80814" lon="6.24399">
        <ele>1116.3</ele>
        <time>2013-05-26T09:12:42.500Z</time>
      </trkpt>
      <trkpt lat="45.80815" lon="6.244">
        <ele>1115.8</ele>
        <time>2013-05-26T09:12:43.600Z</time>
      </trkpt>
      <trkpt lat="45.80817" lon="6.24404">
        <ele>1117.1</ele>
        <time>2013-05-26T09:12:46.500Z</time>
      </trkpt>
      <trkpt lat="45.80818" lon="6.24404">
        <ele>1119.8</ele>
        <time>2013-05-26T09:12:47.600Z</time>
      </trkpt>
      <trkpt lat="45.80819" lon="6.24406">
        <ele>1114.9</ele>
        <time>2013-05-26T09:12:49.500Z</time>
      </trkpt>
      <trkpt lat="45.8082" lon="6.24407">
        <ele>1117.7</ele>
        <time>2013-05-26T09:12:50.600Z</time>
      </trkpt>
      <trkpt lat="45.80821" lon="6.24407">
        <ele>1119.6</ele>
        <time>2013-05-26T09:12:51.600Z</time>
      </trkpt>
      <trkpt lat="45.80824" lon="6.24409">
        <ele>1117.4</ele>
        <time>2013-05-26T09:12:56.600Z</time>
      </trkpt>
      <trkpt lat="45.80827" lon="6.24411">
        <ele>1119.7</ele>
        <time>2013-05-26T09:12:59.600Z</time>
      </trkpt>
      <trkpt lat="45.80829" lon="6.24413">
        <ele>1121.9</ele>
        <time>2013-05-26T09:13:03.600Z</time>
      </trkpt>
      <trkpt lat="45.80829" lon="6.24414">
        <ele>1118.7</ele>
        <time>2013-05-26T09:13:04.600Z</time>
      </trkpt>
      <trkpt lat="45.80831" lon="6.24419">
        <ele>1120.6</ele>
        <time>2013-05-26T09:13:06.600Z</time>
      </trkpt>
      <trkpt lat="45.80833" lon="6.24422">
        <ele>1119.9</ele>
        <time>2013-05-26T09:13:08.600Z</time>
      </trkpt>
      <trkpt lat="45.80835" lon="6.24425">
        <ele>1122.9</ele>
        <time>2013-05-26T09:13:11.500Z</time>
      </trkpt>
      <trkpt lat="45.80836" lon="6.24426">
        <ele>1124.1</ele>
        <time>2013-05-26T09:13:12.600Z</time>
      </trkpt>
      <trkpt lat="45.80838" lon="6.24428">
        <ele>1124.6</ele>
        <time>2013-05-26T09:13:14.500Z</time>
      </trkpt>
      <trkpt lat="45.8084" lon="6.24428">
        <ele>1125.3</ele>
        <time>2013-05-26T09:13:15.600Z</time>
      </trkpt>
      <trkpt lat="45.8084" lon="6.24429">
        <ele>1133.6</ele>
        <time>2013-05-26T09:13:19.600Z</time>
      </trkpt>
      <trkpt lat="45.80838" lon="6.2443">
        <ele>1138.8</ele>
        <time>2013-05-26T09:13:24.500Z</time>
      </trkpt>
      <trkpt lat="45.80839" lon="6.24431">
        <ele>1139.7</ele>
        <time>2013-05-26T09:13:25.500Z</time>
      </trkpt>
      <trkpt lat="45.80839" lon="6.24432">
        <ele>1139.9</ele>
        <time>2013-05-26T09:13:26.600Z</time>
      </trkpt>
      <trkpt lat="45.80843" lon="6.24437">
        <ele>1138.8</ele>
        <time>2013-05-26T09:13:29.500Z</time>
      </trkpt>
      <trkpt lat="45.80845" lon="6.24438">
        <ele>1137.3</ele>
        <time>2013-05-26T09:13:30.500Z</time>
      </trkpt>
      <trkpt lat="45.80847" lon="6.24442">
        <ele>1137.7</ele>
        <time>2013-05-26T09:13:32.600Z</time>
      </trkpt>
      <trkpt lat="45.80848" lon="6.24443">
        <ele>1139.1</ele>
        <time>2013-05-26T09:13:33.600Z</time>
      </trkpt>
      <trkpt lat="45.80849" lon="6.24443">
        <ele>1143.1</ele>
        <time>2013-05-26T09:13:34.600Z</time>
      </trkpt>
      <trkpt lat="45.80852" lon="6.24447">
        <ele>1142.3</ele>
        <time>2013-05-26T09:13:39.500Z</time>
      </trkpt>
      <trkpt lat="45.80852" lon="6.24447">
        <ele>1142</ele>
        <time>2013-05-26T09:13:43.600Z</time>
      </trkpt>
      <trkpt lat="45.80852" lon="6.24447">
        <ele>1142.7</ele>
        <time>2013-05-26T09:13:48.600Z</time>
      </trkpt>
      <trkpt lat="45.80852" lon="6.24447">
        <ele>1149.6</ele>
        <time>2013-05-26T09:13:53.600Z</time>
      </trkpt>
      <trkpt lat="45.80853" lon="6.24447">
        <ele>1152.5</ele>
        <time>2013-05-26T09:13:58.600Z</time>
      </trkpt>
      <trkpt lat="45.80853" lon="6.24447">
        <ele>1149.3</ele>
        <time>2013-05-26T09:14:02.600Z</time>
      </trkpt>
      <trkpt lat="45.80854" lon="6.24448">
        <ele>1149.5</ele>
        <time>2013-05-26T09:14:07.600Z</time>
      </trkpt>
      <trkpt lat="45.80854" lon="6.24449">
        <ele>1150.2</ele>
        <time>2013-05-26T09:14:11.600Z</time>
      </trkpt>
      <trkpt lat="45.80854" lon="6.24448">
        <ele>1149.8</ele>
        <time>2013-05-26T09:14:16.600Z</time>
      </trkpt>
      <trkpt lat="45.80854" lon="6.24448">
        <ele>1151.2</ele>
        <time>2013-05-26T09:14:21.600Z</time>
      </trkpt>
      <trkpt lat="45.80854" lon="6.24448">
        <ele>1154.4</ele>
        <time>2013-05-26T09:14:26.600Z</time>
      </trkpt>
      <trkpt lat="45.80854" lon="6.24448">
        <ele>1149</ele>
        <time>2013-05-26T09:14:30.600Z</time>
      </trkpt>
      <trkpt lat="45.80854" lon="6.24448">
        <ele>1150</ele>
        <time>2013-05-26T09:14:34.600Z</time>
      </trkpt>
      <trkpt lat="45.80855" lon="6.24447">
        <ele>1152.9</ele>
        <time>2013-05-26T09:14:38.600Z</time>
      </trkpt>
      <trkpt lat="45.80856" lon="6.24447">
        <ele>1153.1</ele>
        <time>2013-05-26T09:14:39.600Z</time>
      </trkpt>
      <trkpt lat="45.80856" lon="6.24447">
        <ele>1144.7</ele>
        <time>2013-05-26T09:14:43.600Z</time>
      </trkpt>
      <trkpt lat="45.80856" lon="6.24447">
        <ele>1146.2</ele>
        <time>2013-05-26T09:14:48.600Z</time>
      </trkpt>
      <trkpt lat="45.80856" lon="6.24447">
        <ele>1150.3</ele>
        <time>2013-05-26T09:14:53.600Z</time>
      </trkpt>
      <trkpt lat="45.80856" lon="6.24447">
        <ele>1153.4</ele>
        <time>2013-05-26T09:14:57.600Z</time>
      </trkpt>
      <trkpt lat="45.80858" lon="6.24447">
        <ele>1153.5</ele>
        <time>2013-05-26T09:15:02.600Z</time>
      </trkpt>
      <trkpt lat="45.80859" lon="6.24447">
        <ele>1152</ele>
        <time>2013-05-26T09:15:03.600Z</time>
      </trkpt>
      <trkpt lat="45.80859" lon="6.24447">
        <ele>1150.5</ele>
        <time>2013-05-26T09:15:08.600Z</time>
      </trkpt>
      <trkpt lat="45.80859" lon="6.24447">
        <ele>1146.2</ele>
        <time>2013-05-26T09:15:12.600Z</time>
      </trkpt>
      <trkpt lat="45.80859" lon="6.24447">
        <ele>1145.3</ele>
        <time>2013-05-26T09:15:17.500Z</time>
      </trkpt>
      <trkpt lat="45.80859" lon="6.24447">
        <ele>1146</ele>
        <time>2013-05-26T09:15:21.600Z</time>
      </trkpt>
      <trkpt lat="45.80859" lon="6.24447">
        <ele>1145.4</ele>
        <time>2013-05-26T09:15:25.600Z</time>
      </trkpt>
      <trkpt lat="45.80859" lon="6.24447">
        <ele>1149.9</ele>
        <time>2013-05-26T09:15:29.600Z</time>
      </trkpt>
      <trkpt lat="45.80859" lon="6.24447">
        <ele>1154.4</ele>
        <time>2013-05-26T09:15:33.600Z</time>
      </trkpt>
      <trkpt lat="45.80859" lon="6.24447">
        <ele>1148.6</ele>
        <time>2013-05-26T09:15:38.600Z</time>
      </trkpt>
      <trkpt lat="45.80859" lon="6.24447">
        <ele>1150.6</ele>
        <time>2013-05-26T09:15:42.600Z</time>
      </trkpt>
      <trkpt lat="45.80858" lon="6.24447">
        <ele>1150.1</ele>
        <time>2013-05-26T09:15:47.600Z</time>
      </trkpt>
      <trkpt lat="45.80858" lon="6.24446">
        <ele>1148.5</ele>
        <time>2013-05-26T09:15:51.600Z</time>
      </trkpt>
      <trkpt lat="45.80858" lon="6.24446">
        <ele>1151.6</ele>
        <time>2013-05-26T09:15:55.600Z</time>
      </trkpt>
      <trkpt lat="45.80858" lon="6.24446">
        <ele>1151.3</ele>
        <time>2013-05-26T09:16:00.600Z</time>
      </trkpt>
      <trkpt lat="45.80857" lon="6.24446">
        <ele>1149</ele>
        <time>2013-05-26T09:16:05.600Z</time>
      </trkpt>
      <trkpt lat="45.80857" lon="6.24446">
        <ele>1148.9</ele>
        <time>2013-05-26T09:16:09.600Z</time>
      </trkpt>
      <trkpt lat="45.80857" lon="6.24445">
        <ele>1149.6</ele>
        <time>2013-05-26T09:16:13.600Z</time>
      </trkpt>
      <trkpt lat="45.80857" lon="6.24445">
        <ele>1147.5</ele>
        <time>2013-05-26T09:16:18.600Z</time>
      </trkpt>
      <trkpt lat="45.80857" lon="6.24445">
        <ele>1144.1</ele>
        <time>2013-05-26T09:16:22.600Z</time>
      </trkpt>
      <trkpt lat="45.80857" lon="6.24445">
        <ele>1140.9</ele>
        <time>2013-05-26T09:16:27.600Z</time>
      </trkpt>
      <trkpt lat="45.80856" lon="6.24442">
        <ele>1145.3</ele>
        <time>2013-05-26T09:16:31.600Z</time>
      </trkpt>
      <trkpt lat="45.80856" lon="6.24442">
        <ele>1146.6</ele>
        <time>2013-05-26T09:16:36.600Z</time>
      </trkpt>
      <trkpt lat="45.80856" lon="6.24442">
        <ele>1148</ele>
        <time>2013-05-26T09:16:41.600Z</time>
      </trkpt>
      <trkpt lat="45.80856" lon="6.24444">
        <ele>1150.4</ele>
        <time>2013-05-26T09:16:45.600Z</time>
      </trkpt>
      <trkpt lat="45.80856" lon="6.24444">
        <ele>1149</ele>
        <time>2013-05-26T09:16:49.700Z</time>
      </trkpt>
      <trkpt lat="45.80856" lon="6.24444">
        <ele>1148.2</ele>
        <time>2013-05-26T09:16:54.500Z</time>
      </trkpt>
      <trkpt lat="45.80857" lon="6.24445">
        <ele>1143.8</ele>
        <time>2013-05-26T09:16:59.500Z</time>
      </trkpt>
      <trkpt lat="45.80858" lon="6.24448">
        <ele>1144.7</ele>
        <time>2013-05-26T09:17:04.500Z</time>
      </trkpt>
      <trkpt lat="45.80858" lon="6.24452">
        <ele>1150.8</ele>
        <time>2013-05-26T09:17:09.500Z</time>
      </trkpt>
      <trkpt lat="45.80857" lon="6.24453">
        <ele>1150.9</ele>
        <time>2013-05-26T09:17:10.500Z</time>
      </trkpt>
      <trkpt lat="45.80857" lon="6.24457">
        <ele>1151.6</ele>
        <time>2013-05-26T09:17:13.500Z</time>
      </trkpt>
      <trkpt lat="45.80856" lon="6.24458">
        <ele>1150.1</ele>
        <time>2013-05-26T09:17:14.500Z</time>
      </trkpt>
      <trkpt lat="45.80855" lon="6.24463">
        <ele>1147.2</ele>
        <time>2013-05-26T09:17:18.500Z</time>
      </trkpt>
      <trkpt lat="45.80855" lon="6.24466">
        <ele>1147.2</ele>
        <time>2013-05-26T09:17:20.500Z</time>
      </trkpt>
      <trkpt lat="45.80856" lon="6.24471">
        <ele>1142.4</ele>
        <time>2013-05-26T09:17:25.500Z</time>
      </trkpt>
      <trkpt lat="45.80859" lon="6.24481">
        <ele>1143.6</ele>
        <time>2013-05-26T09:17:29.600Z</time>
      </trkpt>
      <trkpt lat="45.8086" lon="6.24482">
        <ele>1142.1</ele>
        <time>2013-05-26T09:17:30.600Z</time>
      </trkpt>
      <trkpt lat="45.8086" lon="6.24483">
        <ele>1140.4</ele>
        <time>2013-05-26T09:17:31.600Z</time>
      </trkpt>
      <trkpt lat="45.80862" lon="6.24485">
        <ele>1141.3</ele>
        <time>2013-05-26T09:17:35.600Z</time>
      </trkpt>
      <trkpt lat="45.80865" lon="6.24487">
        <ele>1141.6</ele>
        <time>2013-05-26T09:17:40.600Z</time>
      </trkpt>
      <trkpt lat="45.80868" lon="6.24488">
        <ele>1138.5</ele>
        <time>2013-05-26T09:17:42.600Z</time>
      </trkpt>
      <trkpt lat="45.8087" lon="6.24489">
        <ele>1139.3</ele>
        <time>2013-05-26T09:17:44.600Z</time>
      </trkpt>
      <trkpt lat="45.80873" lon="6.2449">
        <ele>1137.3</ele>
        <time>2013-05-26T09:17:48.600Z</time>
      </trkpt>
      <trkpt lat="45.80875" lon="6.24491">
        <ele>1140.9</ele>
        <time>2013-05-26T09:17:49.600Z</time>
      </trkpt>
      <trkpt lat="45.80876" lon="6.24491">
        <ele>1142.8</ele>
        <time>2013-05-26T09:17:50.600Z</time>
      </trkpt>
      <trkpt lat="45.80877" lon="6.24491">
        <ele>1138.8</ele>
        <time>2013-05-26T09:17:51.600Z</time>
      </trkpt>
      <trkpt lat="45.80882" lon="6.24492">
        <ele>1145.9</ele>
        <time>2013-05-26T09:17:55.600Z</time>
      </trkpt>
      <trkpt lat="45.80888" lon="6.24493">
        <ele>1143.4</ele>
        <time>2013-05-26T09:18:00.600Z</time>
      </trkpt>
      <trkpt lat="45.80889" lon="6.24493">
        <ele>1145.8</ele>
        <time>2013-05-26T09:18:01.600Z</time>
      </trkpt>
      <trkpt lat="45.80892" lon="6.24493">
        <ele>1151.2</ele>
        <time>2013-05-26T09:18:03.600Z</time>
      </trkpt>
      <trkpt lat="45.80895" lon="6.24493">
        <ele>1150.3</ele>
        <time>2013-05-26T09:18:05.500Z</time>
      </trkpt>
      <trkpt lat="45.80897" lon="6.24493">
        <ele>1148.2</ele>
        <time>2013-05-26T09:18:06.600Z</time>
      </trkpt>
      <trkpt lat="45.809" lon="6.24494">
        <ele>1144.2</ele>
        <time>2013-05-26T09:18:08.600Z</time>
      </trkpt>
      <trkpt lat="45.80903" lon="6.24494">
        <ele>1147.1</ele>
        <time>2013-05-26T09:18:10.500Z</time>
      </trkpt>
      <trkpt lat="45.80905" lon="6.24494">
        <ele>1149.6</ele>
        <time>2013-05-26T09:18:11.500Z</time>
      </trkpt>
      <trkpt lat="45.80909" lon="6.24495">
        <ele>1148.6</ele>
        <time>2013-05-26T09:18:14.500Z</time>
      </trkpt>
      <trkpt lat="45.8091" lon="6.24495">
        <ele>1148.6</ele>
        <time>2013-05-26T09:18:15.500Z</time>
      </trkpt>
      <trkpt lat="45.80912" lon="6.24495">
        <ele>1150.5</ele>
        <time>2013-05-26T09:18:16.500Z</time>
      </trkpt>
      <trkpt lat="45.80917" lon="6.24494">
        <ele>1153.7</ele>
        <time>2013-05-26T09:18:20.500Z</time>
      </trkpt>
      <trkpt lat="45.8092" lon="6.24488">
        <ele>1149.3</ele>
        <time>2013-05-26T09:18:24.500Z</time>
      </trkpt>
      <trkpt lat="45.8092" lon="6.24486">
        <ele>1150</ele>
        <time>2013-05-26T09:18:25.500Z</time>
      </trkpt>
      <trkpt lat="45.80922" lon="6.24478">
        <ele>1152.3</ele>
        <time>2013-05-26T09:18:30.500Z</time>
      </trkpt>
      <trkpt lat="45.80925" lon="6.24474">
        <ele>1153</ele>
        <time>2013-05-26T09:18:34.500Z</time>
      </trkpt>
      <trkpt lat="45.80928" lon="6.24468">
        <ele>1154.6</ele>
        <time>2013-05-26T09:18:38.500Z</time>
      </trkpt>
      <trkpt lat="45.80932" lon="6.24464">
        <ele>1154.5</ele>
        <time>2013-05-26T09:18:42.500Z</time>
      </trkpt>
      <trkpt lat="45.80937" lon="6.24466">
        <ele>1155.1</ele>
        <time>2013-05-26T09:18:47.500Z</time>
      </trkpt>
      <trkpt lat="45.80941" lon="6.24473">
        <ele>1155.7</ele>
        <time>2013-05-26T09:18:51.500Z</time>
      </trkpt>
      <trkpt lat="45.80945" lon="6.2448">
        <ele>1153.9</ele>
        <time>2013-05-26T09:18:56.500Z</time>
      </trkpt>
      <trkpt lat="45.80946" lon="6.24482">
        <ele>1150.5</ele>
        <time>2013-05-26T09:18:57.500Z</time>
      </trkpt>
      <trkpt lat="45.8095" lon="6.24487">
        <ele>1155.6</ele>
        <time>2013-05-26T09:19:02.500Z</time>
      </trkpt>
      <trkpt lat="45.80954" lon="6.24486">
        <ele>1163.3</ele>
        <time>2013-05-26T09:19:07.500Z</time>
      </trkpt>
      <trkpt lat="45.80959" lon="6.24488">
        <ele>1162.8</ele>
        <time>2013-05-26T09:19:12.500Z</time>
      </trkpt>
      <trkpt lat="45.80963" lon="6.24491">
        <ele>1166.8</ele>
        <time>2013-05-26T09:19:17.500Z</time>
      </trkpt>
      <trkpt lat="45.80966" lon="6.24492">
        <ele>1161</ele>
        <time>2013-05-26T09:19:21.500Z</time>
      </trkpt>
      <trkpt lat="45.80968" lon="6.24491">
        <ele>1166.9</ele>
        <time>2013-05-26T09:19:25.500Z</time>
      </trkpt>
      <trkpt lat="45.80968" lon="6.24491">
        <ele>1165.5</ele>
        <time>2013-05-26T09:19:26.500Z</time>
      </trkpt>
      <trkpt lat="45.80969" lon="6.2449">
        <ele>1165.1</ele>
        <time>2013-05-26T09:19:27.500Z</time>
      </trkpt>
      <trkpt lat="45.8097" lon="6.2449">
        <ele>1166.8</ele>
        <time>2013-05-26T09:19:28.500Z</time>
      </trkpt>
      <trkpt lat="45.80971" lon="6.24489">
        <ele>1167.8</ele>
        <time>2013-05-26T09:19:29.500Z</time>
      </trkpt>
      <trkpt lat="45.80972" lon="6.24487">
        <ele>1167.7</ele>
        <time>2013-05-26T09:19:31.500Z</time>
      </trkpt>
      <trkpt lat="45.80973" lon="6.24485">
        <ele>1166.9</ele>
        <time>2013-05-26T09:19:32.500Z</time>
      </trkpt>
      <trkpt lat="45.80977" lon="6.24474">
        <ele>1165.9</ele>
        <time>2013-05-26T09:19:36.500Z</time>
      </trkpt>
      <trkpt lat="45.80978" lon="6.24472">
        <ele>1167.2</ele>
        <time>2013-05-26T09:19:37.600Z</time>
      </trkpt>
      <trkpt lat="45.80979" lon="6.24471">
        <ele>1166.8</ele>
        <time>2013-05-26T09:19:38.500Z</time>
      </trkpt>
      <trkpt lat="45.80981" lon="6.24471">
        <ele>1166.7</ele>
        <time>2013-05-26T09:19:39.500Z</time>
      </trkpt>
      <trkpt lat="45.80987" lon="6.2447">
        <ele>1164.6</ele>
        <time>2013-05-26T09:19:44.500Z</time>
      </trkpt>
      <trkpt lat="45.80989" lon="6.24469">
        <ele>1166.2</ele>
        <time>2013-05-26T09:19:45.500Z</time>
      </trkpt>
      <trkpt lat="45.80991" lon="6.24469">
        <ele>1165.1</ele>
        <time>2013-05-26T09:19:46.500Z</time>
      </trkpt>
      <trkpt lat="45.80992" lon="6.24469">
        <ele>1166.3</ele>
        <time>2013-05-26T09:19:47.500Z</time>
      </trkpt>
      <trkpt lat="45.80994" lon="6.24469">
        <ele>1166.6</ele>
        <time>2013-05-26T09:19:48.500Z</time>
      </trkpt>
      <trkpt lat="45.80995" lon="6.2447">
        <ele>1166</ele>
        <time>2013-05-26T09:19:49.500Z</time>
      </trkpt>
      <trkpt lat="45.80997" lon="6.2447">
        <ele>1165.4</ele>
        <time>2013-05-26T09:19:50.600Z</time>
      </trkpt>
      <trkpt lat="45.81001" lon="6.24469">
        <ele>1165.2</ele>
        <time>2013-05-26T09:19:53.600Z</time>
      </trkpt>
      <trkpt lat="45.81002" lon="6.24469">
        <ele>1163.4</ele>
        <time>2013-05-26T09:19:54.600Z</time>
      </trkpt>
      <trkpt lat="45.81005" lon="6.2447">
        <ele>1163.5</ele>
        <time>2013-05-26T09:19:59.500Z</time>
      </trkpt>
      <trkpt lat="45.81007" lon="6.24472">
        <ele>1166.3</ele>
        <time>2013-05-26T09:20:02.500Z</time>
      </trkpt>
      <trkpt lat="45.8101" lon="6.24473">
        <ele>1168.2</ele>
        <time>2013-05-26T09:20:04.500Z</time>
      </trkpt>
      <trkpt lat="45.81011" lon="6.24473">
        <ele>1169.1</ele>
        <time>2013-05-26T09:20:05.600Z</time>
      </trkpt>
      <trkpt lat="45.81014" lon="6.24473">
        <ele>1169.4</ele>
        <time>2013-05-26T09:20:07.500Z</time>
      </trkpt>
      <trkpt lat="45.81015" lon="6.24473">
        <ele>1171.9</ele>
        <time>2013-05-26T09:20:08.500Z</time>
      </trkpt>
      <trkpt lat="45.81017" lon="6.24473">
        <ele>1169.5</ele>
        <time>2013-05-26T09:20:09.500Z</time>
      </trkpt>
      <trkpt lat="45.8102" lon="6.24474">
        <ele>1170.2</ele>
        <time>2013-05-26T09:20:11.500Z</time>
      </trkpt>
      <trkpt lat="45.81021" lon="6.24474">
        <ele>1171.8</ele>
        <time>2013-05-26T09:20:12.500Z</time>
      </trkpt>
      <trkpt lat="45.81024" lon="6.24474">
        <ele>1173.3</ele>
        <time>2013-05-26T09:20:13.500Z</time>
      </trkpt>
      <trkpt lat="45.81025" lon="6.24474">
        <ele>1173</ele>
        <time>2013-05-26T09:20:14.500Z</time>
      </trkpt>
      <trkpt lat="45.81027" lon="6.24473">
        <ele>1169.8</ele>
        <time>2013-05-26T09:20:15.500Z</time>
      </trkpt>
      <trkpt lat="45.81029" lon="6.24472">
        <ele>1172.1</ele>
        <time>2013-05-26T09:20:16.500Z</time>
      </trkpt>
      <trkpt lat="45.81032" lon="6.24472">
        <ele>1174.6</ele>
        <time>2013-05-26T09:20:18.500Z</time>
      </trkpt>
      <trkpt lat="45.81037" lon="6.2447">
        <ele>1178.6</ele>
        <time>2013-05-26T09:20:22.500Z</time>
      </trkpt>
      <trkpt lat="45.81043" lon="6.24471">
        <ele>1186</ele>
        <time>2013-05-26T09:20:27.500Z</time>
      </trkpt>
      <trkpt lat="45.81048" lon="6.2447">
        <ele>1188.7</ele>
        <time>2013-05-26T09:20:31.500Z</time>
      </trkpt>
      <trkpt lat="45.81053" lon="6.2447">
        <ele>1189.6</ele>
        <time>2013-05-26T09:20:35.500Z</time>
      </trkpt>
      <trkpt lat="45.81057" lon="6.24469">
        <ele>1188</ele>
        <time>2013-05-26T09:20:39.500Z</time>
      </trkpt>
      <trkpt lat="45.81063" lon="6.24468">
        <ele>1186</ele>
        <time>2013-05-26T09:20:44.500Z</time>
      </trkpt>
      <trkpt lat="45.81067" lon="6.24466">
        <ele>1190.8</ele>
        <time>2013-05-26T09:20:49.500Z</time>
      </trkpt>
      <trkpt lat="45.81073" lon="6.24466">
        <ele>1189.7</ele>
        <time>2013-05-26T09:20:54.500Z</time>
      </trkpt>
      <trkpt lat="45.81078" lon="6.24465">
        <ele>1186.9</ele>
        <time>2013-05-26T09:20:58.500Z</time>
      </trkpt>
      <trkpt lat="45.81084" lon="6.24465">
        <ele>1189.5</ele>
        <time>2013-05-26T09:21:01.500Z</time>
      </trkpt>
      <trkpt lat="45.81086" lon="6.24467">
        <ele>1190.5</ele>
        <time>2013-05-26T09:21:02.500Z</time>
      </trkpt>
      <trkpt lat="45.81089" lon="6.24469">
        <ele>1192.3</ele>
        <time>2013-05-26T09:21:04.500Z</time>
      </trkpt>
      <trkpt lat="45.8109" lon="6.24472">
        <ele>1195.9</ele>
        <time>2013-05-26T09:21:08.500Z</time>
      </trkpt>
      <trkpt lat="45.8109" lon="6.24474">
        <ele>1189.8</ele>
        <time>2013-05-26T09:21:13.500Z</time>
      </trkpt>
      <trkpt lat="45.81093" lon="6.24474">
        <ele>1187.8</ele>
        <time>2013-05-26T09:21:18.500Z</time>
      </trkpt>
      <trkpt lat="45.81095" lon="6.24473">
        <ele>1188.9</ele>
        <time>2013-05-26T09:21:20.500Z</time>
      </trkpt>
      <trkpt lat="45.81096" lon="6.24472">
        <ele>1187.7</ele>
        <time>2013-05-26T09:21:21.500Z</time>
      </trkpt>
      <trkpt lat="45.81099" lon="6.2447">
        <ele>1187.7</ele>
        <time>2013-05-26T09:21:25.600Z</time>
      </trkpt>
      <trkpt lat="45.81102" lon="6.24467">
        <ele>1189.8</ele>
        <time>2013-05-26T09:21:28.600Z</time>
      </trkpt>
      <trkpt lat="45.81104" lon="6.24465">
        <ele>1189</ele>
        <time>2013-05-26T09:21:30.500Z</time>
      </trkpt>
      <trkpt lat="45.81108" lon="6.24463">
        <ele>1188.7</ele>
        <time>2013-05-26T09:21:33.500Z</time>
      </trkpt>
      <trkpt lat="45.81109" lon="6.24463">
        <ele>1190.9</ele>
        <time>2013-05-26T09:21:34.500Z</time>
      </trkpt>
      <trkpt lat="45.81112" lon="6.24462">
        <ele>1187.8</ele>
        <time>2013-05-26T09:21:36.500Z</time>
      </trkpt>
      <trkpt lat="45.81116" lon="6.24462">
        <ele>1189.3</ele>
        <time>2013-05-26T09:21:40.600Z</time>
      </trkpt>
      <trkpt lat="45.81119" lon="6.24462">
        <ele>1188.7</ele>
        <time>2013-05-26T09:21:42.600Z</time>
      </trkpt>
      <trkpt lat="45.8112" lon="6.24462">
        <ele>1191.8</ele>
        <time>2013-05-26T09:21:43.600Z</time>
      </trkpt>
      <trkpt lat="45.81124" lon="6.24463">
        <ele>1195.3</ele>
        <time>2013-05-26T09:21:48.600Z</time>
      </trkpt>
      <trkpt lat="45.81126" lon="6.24464">
        <ele>1192.2</ele>
        <time>2013-05-26T09:21:52.600Z</time>
      </trkpt>
      <trkpt lat="45.81128" lon="6.24464">
        <ele>1190.7</ele>
        <time>2013-05-26T09:21:54.600Z</time>
      </trkpt>
      <trkpt lat="45.8113" lon="6.24462">
        <ele>1190.3</ele>
        <time>2013-05-26T09:21:57.600Z</time>
      </trkpt>
      <trkpt lat="45.81131" lon="6.24462">
        <ele>1191.7</ele>
        <time>2013-05-26T09:21:58.600Z</time>
      </trkpt>
      <trkpt lat="45.81132" lon="6.24461">
        <ele>1192.2</ele>
        <time>2013-05-26T09:21:59.600Z</time>
      </trkpt>
      <trkpt lat="45.81134" lon="6.24462">
        <ele>1190.8</ele>
        <time>2013-05-26T09:22:00.600Z</time>
      </trkpt>
      <trkpt lat="45.81137" lon="6.24462">
        <ele>1195.1</ele>
        <time>2013-05-26T09:22:03.600Z</time>
      </trkpt>
      <trkpt lat="45.81139" lon="6.24463">
        <ele>1194</ele>
        <time>2013-05-26T09:22:05.600Z</time>
      </trkpt>
      <trkpt lat="45.81141" lon="6.24463">
        <ele>1195.2</ele>
        <time>2013-05-26T09:22:06.600Z</time>
      </trkpt>
      <trkpt lat="45.81142" lon="6.24463">
        <ele>1191.1</ele>
        <time>2013-05-26T09:22:07.600Z</time>
      </trkpt>
      <trkpt lat="45.81146" lon="6.24464">
        <ele>1193.3</ele>
        <time>2013-05-26T09:22:12.600Z</time>
      </trkpt>
      <trkpt lat="45.81148" lon="6.24467">
        <ele>1201.9</ele>
        <time>2013-05-26T09:22:17.500Z</time>
      </trkpt>
      <trkpt lat="45.8115" lon="6.24471">
        <ele>1202.3</ele>
        <time>2013-05-26T09:22:22.600Z</time>
      </trkpt>
      <trkpt lat="45.81152" lon="6.24474">
        <ele>1201.8</ele>
        <time>2013-05-26T09:22:24.500Z</time>
      </trkpt>
      <trkpt lat="45.81153" lon="6.24476">
        <ele>1206</ele>
        <time>2013-05-26T09:22:25.600Z</time>
      </trkpt>
      <trkpt lat="45.81154" lon="6.24479">
        <ele>1209.9</ele>
        <time>2013-05-26T09:22:28.500Z</time>
      </trkpt>
      <trkpt lat="45.81156" lon="6.24483">
        <ele>1205.6</ele>
        <time>2013-05-26T09:22:31.500Z</time>
      </trkpt>
      <trkpt lat="45.81157" lon="6.24487">
        <ele>1205.1</ele>
        <time>2013-05-26T09:22:35.600Z</time>
      </trkpt>
      <trkpt lat="45.81156" lon="6.24491">
        <ele>1207.3</ele>
        <time>2013-05-26T09:22:40.600Z</time>
      </trkpt>
      <trkpt lat="45.81158" lon="6.24495">
        <ele>1200.4</ele>
        <time>2013-05-26T09:22:45.500Z</time>
      </trkpt>
      <trkpt lat="45.81159" lon="6.24496">
        <ele>1202.2</ele>
        <time>2013-05-26T09:22:46.500Z</time>
      </trkpt>
      <trkpt lat="45.8116" lon="6.24497">
        <ele>1203.5</ele>
        <time>2013-05-26T09:22:47.500Z</time>
      </trkpt>
      <trkpt lat="45.8116" lon="6.24499">
        <ele>1204.7</ele>
        <time>2013-05-26T09:22:48.500Z</time>
      </trkpt>
      <trkpt lat="45.81161" lon="6.24501">
        <ele>1207.8</ele>
        <time>2013-05-26T09:22:49.500Z</time>
      </trkpt>
      <trkpt lat="45.81162" lon="6.24503">
        <ele>1209.2</ele>
        <time>2013-05-26T09:22:50.600Z</time>
      </trkpt>
      <trkpt lat="45.81163" lon="6.24504">
        <ele>1209.7</ele>
        <time>2013-05-26T09:22:51.500Z</time>
      </trkpt>
      <trkpt lat="45.81164" lon="6.24508">
        <ele>1211.1</ele>
        <time>2013-05-26T09:22:56.500Z</time>
      </trkpt>
      <trkpt lat="45.81165" lon="6.2451">
        <ele>1210.9</ele>
        <time>2013-05-26T09:22:57.500Z</time>
      </trkpt>
      <trkpt lat="45.81168" lon="6.24514">
        <ele>1211.2</ele>
        <time>2013-05-26T09:23:02.500Z</time>
      </trkpt>
      <trkpt lat="45.81171" lon="6.24516">
        <ele>1210.2</ele>
        <time>2013-05-26T09:23:07.500Z</time>
      </trkpt>
      <trkpt lat="45.81172" lon="6.24517">
        <ele>1212.8</ele>
        <time>2013-05-26T09:23:08.500Z</time>
      </trkpt>
      <trkpt lat="45.81177" lon="6.24519">
        <ele>1213.7</ele>
        <time>2013-05-26T09:23:13.500Z</time>
      </trkpt>
      <trkpt lat="45.81182" lon="6.24521">
        <ele>1215</ele>
        <time>2013-05-26T09:23:18.500Z</time>
      </trkpt>
      <trkpt lat="45.81185" lon="6.24522">
        <ele>1216.8</ele>
        <time>2013-05-26T09:23:22.500Z</time>
      </trkpt>
      <trkpt lat="45.81188" lon="6.24525">
        <ele>1217.5</ele>
        <time>2013-05-26T09:23:27.500Z</time>
      </trkpt>
      <trkpt lat="45.81192" lon="6.24524">
        <ele>1216.8</ele>
        <time>2013-05-26T09:23:32.500Z</time>
      </trkpt>
      <trkpt lat="45.81194" lon="6.24523">
        <ele>1214.8</ele>
        <time>2013-05-26T09:23:36.500Z</time>
      </trkpt>
      <trkpt lat="45.81195" lon="6.24524">
        <ele>1217.1</ele>
        <time>2013-05-26T09:23:38.500Z</time>
      </trkpt>
      <trkpt lat="45.81197" lon="6.24525">
        <ele>1216.4</ele>
        <time>2013-05-26T09:23:40.600Z</time>
      </trkpt>
      <trkpt lat="45.81202" lon="6.24524">
        <ele>1214.1</ele>
        <time>2013-05-26T09:23:43.500Z</time>
      </trkpt>
      <trkpt lat="45.81203" lon="6.24524">
        <ele>1215.7</ele>
        <time>2013-05-26T09:23:44.600Z</time>
      </trkpt>
      <trkpt lat="45.81207" lon="6.24521">
        <ele>1216</ele>
        <time>2013-05-26T09:23:48.500Z</time>
      </trkpt>
      <trkpt lat="45.81209" lon="6.24521">
        <ele>1217</ele>
        <time>2013-05-26T09:23:50.500Z</time>
      </trkpt>
      <trkpt lat="45.8121" lon="6.24521">
        <ele>1219.9</ele>
        <time>2013-05-26T09:23:51.500Z</time>
      </trkpt>
      <trkpt lat="45.81213" lon="6.2452">
        <ele>1219.6</ele>
        <time>2013-05-26T09:23:55.500Z</time>
      </trkpt>
      <trkpt lat="45.81216" lon="6.24519">
        <ele>1218.1</ele>
        <time>2013-05-26T09:23:59.500Z</time>
      </trkpt>
      <trkpt lat="45.81218" lon="6.24518">
        <ele>1223.3</ele>
        <time>2013-05-26T09:24:03.600Z</time>
      </trkpt>
      <trkpt lat="45.81219" lon="6.24518">
        <ele>1224.5</ele>
        <time>2013-05-26T09:24:04.600Z</time>
      </trkpt>
      <trkpt lat="45.81221" lon="6.24517">
        <ele>1225.9</ele>
        <time>2013-05-26T09:24:06.500Z</time>
      </trkpt>
      <trkpt lat="45.81224" lon="6.24517">
        <ele>1227.3</ele>
        <time>2013-05-26T09:24:10.500Z</time>
      </trkpt>
      <trkpt lat="45.81225" lon="6.24517">
        <ele>1226.1</ele>
        <time>2013-05-26T09:24:11.500Z</time>
      </trkpt>
      <trkpt lat="45.81226" lon="6.24518">
        <ele>1227.4</ele>
        <time>2013-05-26T09:24:12.500Z</time>
      </trkpt>
      <trkpt lat="45.81228" lon="6.24518">
        <ele>1225</ele>
        <time>2013-05-26T09:24:14.500Z</time>
      </trkpt>
      <trkpt lat="45.81232" lon="6.24516">
        <ele>1227.9</ele>
        <time>2013-05-26T09:24:16.500Z</time>
      </trkpt>
      <trkpt lat="45.81233" lon="6.24516">
        <ele>1228.7</ele>
        <time>2013-05-26T09:24:17.500Z</time>
      </trkpt>
      <trkpt lat="45.81236" lon="6.24515">
        <ele>1227.7</ele>
        <time>2013-05-26T09:24:19.500Z</time>
      </trkpt>
      <trkpt lat="45.8124" lon="6.24514">
        <ele>1230.2</ele>
        <time>2013-05-26T09:24:23.500Z</time>
      </trkpt>
      <trkpt lat="45.81242" lon="6.24515">
        <ele>1230.1</ele>
        <time>2013-05-26T09:24:25.500Z</time>
      </trkpt>
      <trkpt lat="45.81245" lon="6.24516">
        <ele>1228.6</ele>
        <time>2013-05-26T09:24:27.500Z</time>
      </trkpt>
      <trkpt lat="45.81246" lon="6.24517">
        <ele>1230.1</ele>
        <time>2013-05-26T09:24:28.500Z</time>
      </trkpt>
      <trkpt lat="45.81248" lon="6.24518">
        <ele>1229.9</ele>
        <time>2013-05-26T09:24:30.500Z</time>
      </trkpt>
      <trkpt lat="45.81253" lon="6.2452">
        <ele>1227.9</ele>
        <time>2013-05-26T09:24:33.500Z</time>
      </trkpt>
      <trkpt lat="45.81254" lon="6.24525">
        <ele>1229.4</ele>
        <time>2013-05-26T09:24:38.500Z</time>
      </trkpt>
      <trkpt lat="45.81255" lon="6.24528">
        <ele>1232.7</ele>
        <time>2013-05-26T09:24:40.500Z</time>
      </trkpt>
      <trkpt lat="45.81256" lon="6.2453">
        <ele>1234.3</ele>
        <time>2013-05-26T09:24:41.500Z</time>
      </trkpt>
      <trkpt lat="45.81258" lon="6.24535">
        <ele>1236</ele>
        <time>2013-05-26T09:24:46.500Z</time>
      </trkpt>
      <trkpt lat="45.8126" lon="6.24538">
        <ele>1234.5</ele>
        <time>2013-05-26T09:24:49.500Z</time>
      </trkpt>
      <trkpt lat="45.8126" lon="6.24539">
        <ele>1233.6</ele>
        <time>2013-05-26T09:24:50.500Z</time>
      </trkpt>
      <trkpt lat="45.8126" lon="6.24541">
        <ele>1234.3</ele>
        <time>2013-05-26T09:24:51.500Z</time>
      </trkpt>
      <trkpt lat="45.8126" lon="6.24542">
        <ele>1234.5</ele>
        <time>2013-05-26T09:24:52.500Z</time>
      </trkpt>
      <trkpt lat="45.81262" lon="6.24545">
        <ele>1235.8</ele>
        <time>2013-05-26T09:24:54.500Z</time>
      </trkpt>
      <trkpt lat="45.81264" lon="6.24549">
        <ele>1241.8</ele>
        <time>2013-05-26T09:24:59.500Z</time>
      </trkpt>
      <trkpt lat="45.81266" lon="6.24554">
        <ele>1238.8</ele>
        <time>2013-05-26T09:25:04.500Z</time>
      </trkpt>
      <trkpt lat="45.81268" lon="6.24557">
        <ele>1243.1</ele>
        <time>2013-05-26T09:25:07.600Z</time>
      </trkpt>
      <trkpt lat="45.81269" lon="6.24559">
        <ele>1242.4</ele>
        <time>2013-05-26T09:25:08.600Z</time>
      </trkpt>
      <trkpt lat="45.81271" lon="6.24562">
        <ele>1243</ele>
        <time>2013-05-26T09:25:10.500Z</time>
      </trkpt>
      <trkpt lat="45.81272" lon="6.24566">
        <ele>1243.5</ele>
        <time>2013-05-26T09:25:13.500Z</time>
      </trkpt>
      <trkpt lat="45.81272" lon="6.24568">
        <ele>1246.8</ele>
        <time>2013-05-26T09:25:14.500Z</time>
      </trkpt>
      <trkpt lat="45.81274" lon="6.24574">
        <ele>1245.5</ele>
        <time>2013-05-26T09:25:18.500Z</time>
      </trkpt>
      <trkpt lat="45.81274" lon="6.24576">
        <ele>1246.4</ele>
        <time>2013-05-26T09:25:19.500Z</time>
      </trkpt>
      <trkpt lat="45.81274" lon="6.24578">
        <ele>1245.8</ele>
        <time>2013-05-26T09:25:20.500Z</time>
      </trkpt>
      <trkpt lat="45.81276" lon="6.24584">
        <ele>1241.4</ele>
        <time>2013-05-26T09:25:25.500Z</time>
      </trkpt>
      <trkpt lat="45.81277" lon="6.2459">
        <ele>1243.5</ele>
        <time>2013-05-26T09:25:30.500Z</time>
      </trkpt>
      <trkpt lat="45.81277" lon="6.24592">
        <ele>1241.9</ele>
        <time>2013-05-26T09:25:31.600Z</time>
      </trkpt>
      <trkpt lat="45.8128" lon="6.24598">
        <ele>1241.9</ele>
        <time>2013-05-26T09:25:36.500Z</time>
      </trkpt>
      <trkpt lat="45.81281" lon="6.24599">
        <ele>1243.5</ele>
        <time>2013-05-26T09:25:37.500Z</time>
      </trkpt>
      <trkpt lat="45.81283" lon="6.246">
        <ele>1243.4</ele>
        <time>2013-05-26T09:25:38.500Z</time>
      </trkpt>
      <trkpt lat="45.81286" lon="6.24603">
        <ele>1243.3</ele>
        <time>2013-05-26T09:25:41.500Z</time>
      </trkpt>
      <trkpt lat="45.81287" lon="6.24604">
        <ele>1243.5</ele>
        <time>2013-05-26T09:25:42.500Z</time>
      </trkpt>
      <trkpt lat="45.8129" lon="6.24605">
        <ele>1245.7</ele>
        <time>2013-05-26T09:25:44.500Z</time>
      </trkpt>
      <trkpt lat="45.81292" lon="6.24606">
        <ele>1249.9</ele>
        <time>2013-05-26T09:25:45.500Z</time>
      </trkpt>
      <trkpt lat="45.81293" lon="6.24606">
        <ele>1249.7</ele>
        <time>2013-05-26T09:25:46.500Z</time>
      </trkpt>
      <trkpt lat="45.81296" lon="6.24607">
        <ele>1248.6</ele>
        <time>2013-05-26T09:25:48.500Z</time>
      </trkpt>
      <trkpt lat="45.813" lon="6.24609">
        <ele>1246.2</ele>
        <time>2013-05-26T09:25:52.600Z</time>
      </trkpt>
      <trkpt lat="45.81304" lon="6.2461">
        <ele>1249.9</ele>
        <time>2013-05-26T09:25:55.600Z</time>
      </trkpt>
      <trkpt lat="45.81306" lon="6.2461">
        <ele>1247.1</ele>
        <time>2013-05-26T09:25:56.600Z</time>
      </trkpt>
      <trkpt lat="45.81307" lon="6.24611">
        <ele>1245.6</ele>
        <time>2013-05-26T09:25:57.600Z</time>
      </trkpt>
      <trkpt lat="45.81311" lon="6.24616">
        <ele>1248.2</ele>
        <time>2013-05-26T09:26:01.600Z</time>
      </trkpt>
      <trkpt lat="45.81315" lon="6.24619">
        <ele>1249.9</ele>
        <time>2013-05-26T09:26:06.600Z</time>
      </trkpt>
      <trkpt lat="45.81319" lon="6.24623">
        <ele>1257.6</ele>
        <time>2013-05-26T09:26:10.600Z</time>
      </trkpt>
      <trkpt lat="45.81324" lon="6.24626">
        <ele>1252.5</ele>
        <time>2013-05-26T09:26:15.600Z</time>
      </trkpt>
      <trkpt lat="45.81329" lon="6.2463">
        <ele>1256.6</ele>
        <time>2013-05-26T09:26:20.600Z</time>
      </trkpt>
      <trkpt lat="45.81333" lon="6.24634">
        <ele>1261.7</ele>
        <time>2013-05-26T09:26:25.500Z</time>
      </trkpt>
      <trkpt lat="45.81334" lon="6.24635">
        <ele>1262.6</ele>
        <time>2013-05-26T09:26:26.600Z</time>
      </trkpt>
      <trkpt lat="45.81337" lon="6.24638">
        <ele>1260.8</ele>
        <time>2013-05-26T09:26:29.500Z</time>
      </trkpt>
      <trkpt lat="45.81341" lon="6.24642">
        <ele>1260.3</ele>
        <time>2013-05-26T09:26:33.500Z</time>
      </trkpt>
      <trkpt lat="45.81345" lon="6.24644">
        <ele>1263.9</ele>
        <time>2013-05-26T09:26:37.500Z</time>
      </trkpt>
      <trkpt lat="45.81349" lon="6.24648">
        <ele>1261.6</ele>
        <time>2013-05-26T09:26:41.500Z</time>
      </trkpt>
      <trkpt lat="45.8135" lon="6.24649">
        <ele>1261.6</ele>
        <time>2013-05-26T09:26:42.500Z</time>
      </trkpt>
      <trkpt lat="45.81351" lon="6.24651">
        <ele>1261.7</ele>
        <time>2013-05-26T09:26:43.500Z</time>
      </trkpt>
      <trkpt lat="45.81356" lon="6.24655">
        <ele>1267.9</ele>
        <time>2013-05-26T09:26:48.500Z</time>
      </trkpt>
      <trkpt lat="45.8136" lon="6.2466">
        <ele>1267.6</ele>
        <time>2013-05-26T09:26:53.500Z</time>
      </trkpt>
      <trkpt lat="45.81361" lon="6.24661">
        <ele>1267.5</ele>
        <time>2013-05-26T09:26:54.500Z</time>
      </trkpt>
      <trkpt lat="45.81363" lon="6.24663">
        <ele>1265.1</ele>
        <time>2013-05-26T09:26:56.500Z</time>
      </trkpt>
      <trkpt lat="45.81367" lon="6.24666">
        <ele>1265.3</ele>
        <time>2013-05-26T09:27:00.500Z</time>
      </trkpt>
      <trkpt lat="45.81368" lon="6.24668">
        <ele>1266.3</ele>
        <time>2013-05-26T09:27:01.500Z</time>
      </trkpt>
      <trkpt lat="45.81369" lon="6.24669">
        <ele>1266</ele>
        <time>2013-05-26T09:27:02.500Z</time>
      </trkpt>
      <trkpt lat="45.81371" lon="6.24671">
        <ele>1268.7</ele>
        <time>2013-05-26T09:27:03.500Z</time>
      </trkpt>
      <trkpt lat="45.81376" lon="6.24675">
        <ele>1267.9</ele>
        <time>2013-05-26T09:27:08.500Z</time>
      </trkpt>
      <trkpt lat="45.81378" lon="6.24678">
        <ele>1266.8</ele>
        <time>2013-05-26T09:27:10.500Z</time>
      </trkpt>
      <trkpt lat="45.81379" lon="6.2468">
        <ele>1266.9</ele>
        <time>2013-05-26T09:27:11.500Z</time>
      </trkpt>
      <trkpt lat="45.8138" lon="6.24682">
        <ele>1269.4</ele>
        <time>2013-05-26T09:27:12.500Z</time>
      </trkpt>
      <trkpt lat="45.81381" lon="6.24683">
        <ele>1270</ele>
        <time>2013-05-26T09:27:13.500Z</time>
      </trkpt>
      <trkpt lat="45.81385" lon="6.24689">
        <ele>1274.5</ele>
        <time>2013-05-26T09:27:18.500Z</time>
      </trkpt>
      <trkpt lat="45.81386" lon="6.24696">
        <ele>1274</ele>
        <time>2013-05-26T09:27:22.500Z</time>
      </trkpt>
      <trkpt lat="45.81386" lon="6.24701">
        <ele>1278.5</ele>
        <time>2013-05-26T09:27:26.500Z</time>
      </trkpt>
      <trkpt lat="45.81386" lon="6.24708">
        <ele>1277.2</ele>
        <time>2013-05-26T09:27:31.500Z</time>
      </trkpt>
      <trkpt lat="45.81387" lon="6.24711">
        <ele>1273.5</ele>
        <time>2013-05-26T09:27:33.600Z</time>
      </trkpt>
      <trkpt lat="45.81389" lon="6.24715">
        <ele>1274.3</ele>
        <time>2013-05-26T09:27:35.500Z</time>
      </trkpt>
      <trkpt lat="45.81389" lon="6.24717">
        <ele>1275.6</ele>
        <time>2013-05-26T09:27:36.600Z</time>
      </trkpt>
      <trkpt lat="45.81392" lon="6.24721">
        <ele>1275.3</ele>
        <time>2013-05-26T09:27:41.500Z</time>
      </trkpt>
      <trkpt lat="45.81393" lon="6.24722">
        <ele>1275.7</ele>
        <time>2013-05-26T09:27:42.600Z</time>
      </trkpt>
      <trkpt lat="45.81393" lon="6.24722">
        <ele>1277.1</ele>
        <time>2013-05-26T09:27:47.500Z</time>
      </trkpt>
      <trkpt lat="45.81393" lon="6.24723">
        <ele>1276</ele>
        <time>2013-05-26T09:27:48.600Z</time>
      </trkpt>
      <trkpt lat="45.81393" lon="6.24724">
        <ele>1275.2</ele>
        <time>2013-05-26T09:27:49.600Z</time>
      </trkpt>
      <trkpt lat="45.81392" lon="6.24725">
        <ele>1276.8</ele>
        <time>2013-05-26T09:27:50.600Z</time>
      </trkpt>
      <trkpt lat="45.81393" lon="6.24727">
        <ele>1280.9</ele>
        <time>2013-05-26T09:27:55.600Z</time>
      </trkpt>
      <trkpt lat="45.81392" lon="6.24728">
        <ele>1275.8</ele>
        <time>2013-05-26T09:27:56.600Z</time>
      </trkpt>
      <trkpt lat="45.81396" lon="6.24731">
        <ele>1275.3</ele>
        <time>2013-05-26T09:28:01.700Z</time>
      </trkpt>
      <trkpt lat="45.814" lon="6.24733">
        <ele>1282.7</ele>
        <time>2013-05-26T09:28:06.600Z</time>
      </trkpt>
      <trkpt lat="45.81401" lon="6.24733">
        <ele>1280.6</ele>
        <time>2013-05-26T09:28:07.600Z</time>
      </trkpt>
      <trkpt lat="45.81402" lon="6.24734">
        <ele>1278.3</ele>
        <time>2013-05-26T09:28:08.600Z</time>
      </trkpt>
      <trkpt lat="45.81407" lon="6.24738">
        <ele>1279.7</ele>
        <time>2013-05-26T09:28:13.500Z</time>
      </trkpt>
      <trkpt lat="45.81408" lon="6.24738">
        <ele>1277.7</ele>
        <time>2013-05-26T09:28:14.500Z</time>
      </trkpt>
      <trkpt lat="45.8141" lon="6.24739">
        <ele>1273.7</ele>
        <time>2013-05-26T09:28:16.600Z</time>
      </trkpt>
      <trkpt lat="45.81411" lon="6.24741">
        <ele>1277</ele>
        <time>2013-05-26T09:28:18.600Z</time>
      </trkpt>
      <trkpt lat="45.81412" lon="6.24742">
        <ele>1275.5</ele>
        <time>2013-05-26T09:28:19.600Z</time>
      </trkpt>
      <trkpt lat="45.81414" lon="6.24744">
        <ele>1274.7</ele>
        <time>2013-05-26T09:28:21.500Z</time>
      </trkpt>
      <trkpt lat="45.81416" lon="6.24747">
        <ele>1277.8</ele>
        <time>2013-05-26T09:28:24.500Z</time>
      </trkpt>
      <trkpt lat="45.81417" lon="6.24748">
        <ele>1280.4</ele>
        <time>2013-05-26T09:28:25.500Z</time>
      </trkpt>
      <trkpt lat="45.81417" lon="6.24749">
        <ele>1278.9</ele>
        <time>2013-05-26T09:28:26.500Z</time>
      </trkpt>
      <trkpt lat="45.81418" lon="6.2475">
        <ele>1279.3</ele>
        <time>2013-05-26T09:28:27.500Z</time>
      </trkpt>
      <trkpt lat="45.81419" lon="6.24751">
        <ele>1282.8</ele>
        <time>2013-05-26T09:28:28.500Z</time>
      </trkpt>
      <trkpt lat="45.8142" lon="6.24752">
        <ele>1280.4</ele>
        <time>2013-05-26T09:28:29.500Z</time>
      </trkpt>
      <trkpt lat="45.81422" lon="6.24756">
        <ele>1281.3</ele>
        <time>2013-05-26T09:28:33.500Z</time>
      </trkpt>
      <trkpt lat="45.81424" lon="6.2476">
        <ele>1282.4</ele>
        <time>2013-05-26T09:28:35.600Z</time>
      </trkpt>
      <trkpt lat="45.81425" lon="6.24763">
        <ele>1286.3</ele>
        <time>2013-05-26T09:28:40.600Z</time>
      </trkpt>
      <trkpt lat="45.81428" lon="6.24769">
        <ele>1284</ele>
        <time>2013-05-26T09:28:44.600Z</time>
      </trkpt>
      <trkpt lat="45.81428" lon="6.24771">
        <ele>1284.5</ele>
        <time>2013-05-26T09:28:45.600Z</time>
      </trkpt>
      <trkpt lat="45.81429" lon="6.24777">
        <ele>1285.3</ele>
        <time>2013-05-26T09:28:50.600Z</time>
      </trkpt>
      <trkpt lat="45.81429" lon="6.24779">
        <ele>1287</ele>
        <time>2013-05-26T09:28:51.500Z</time>
      </trkpt>
      <trkpt lat="45.81427" lon="6.24784">
        <ele>1293.1</ele>
        <time>2013-05-26T09:28:53.600Z</time>
      </trkpt>
      <trkpt lat="45.81427" lon="6.24786">
        <ele>1289.8</ele>
        <time>2013-05-26T09:28:54.500Z</time>
      </trkpt>
      <trkpt lat="45.81428" lon="6.24788">
        <ele>1291.2</ele>
        <time>2013-05-26T09:28:55.500Z</time>
      </trkpt>
      <trkpt lat="45.81428" lon="6.2479">
        <ele>1291.1</ele>
        <time>2013-05-26T09:28:56.600Z</time>
      </trkpt>
      <trkpt lat="45.81428" lon="6.24792">
        <ele>1289.2</ele>
        <time>2013-05-26T09:28:57.600Z</time>
      </trkpt>
      <trkpt lat="45.81426" lon="6.24797">
        <ele>1286.7</ele>
        <time>2013-05-26T09:29:02.500Z</time>
      </trkpt>
      <trkpt lat="45.81427" lon="6.24803">
        <ele>1286.2</ele>
        <time>2013-05-26T09:29:05.500Z</time>
      </trkpt>
      <trkpt lat="45.81428" lon="6.24805">
        <ele>1287.1</ele>
        <time>2013-05-26T09:29:06.500Z</time>
      </trkpt>
      <trkpt lat="45.81429" lon="6.24806">
        <ele>1287.1</ele>
        <time>2013-05-26T09:29:07.500Z</time>
      </trkpt>
      <trkpt lat="45.81428" lon="6.24808">
        <ele>1280.6</ele>
        <time>2013-05-26T09:29:11.600Z</time>
      </trkpt>
      <trkpt lat="45.81428" lon="6.2482">
        <ele>1279.4</ele>
        <time>2013-05-26T09:29:16.600Z</time>
      </trkpt>
      <trkpt lat="45.81428" lon="6.24824">
        <ele>1288.5</ele>
        <time>2013-05-26T09:29:18.500Z</time>
      </trkpt>
      <trkpt lat="45.81428" lon="6.24825">
        <ele>1290</ele>
        <time>2013-05-26T09:29:19.500Z</time>
      </trkpt>
      <trkpt lat="45.81427" lon="6.24827">
        <ele>1296.5</ele>
        <time>2013-05-26T09:29:20.500Z</time>
      </trkpt>
      <trkpt lat="45.81427" lon="6.24829">
        <ele>1293.6</ele>
        <time>2013-05-26T09:29:21.500Z</time>
      </trkpt>
      <trkpt lat="45.81425" lon="6.24833">
        <ele>1300.7</ele>
        <time>2013-05-26T09:29:25.600Z</time>
      </trkpt>
      <trkpt lat="45.81421" lon="6.24836">
        <ele>1292.1</ele>
        <time>2013-05-26T09:29:30.600Z</time>
      </trkpt>
      <trkpt lat="45.8142" lon="6.24837">
        <ele>1288.9</ele>
        <time>2013-05-26T09:29:34.600Z</time>
      </trkpt>
      <trkpt lat="45.81414" lon="6.24841">
        <ele>1287.8</ele>
        <time>2013-05-26T09:29:39.600Z</time>
      </trkpt>
      <trkpt lat="45.81411" lon="6.2484">
        <ele>1294.6</ele>
        <time>2013-05-26T09:29:42.600Z</time>
      </trkpt>
      <trkpt lat="45.81406" lon="6.24838">
        <ele>1289.8</ele>
        <time>2013-05-26T09:29:46.600Z</time>
      </trkpt>
      <trkpt lat="45.81404" lon="6.24841">
        <ele>1294.4</ele>
        <time>2013-05-26T09:29:48.600Z</time>
      </trkpt>
      <trkpt lat="45.81403" lon="6.24841">
        <ele>1293.2</ele>
        <time>2013-05-26T09:29:49.600Z</time>
      </trkpt>
      <trkpt lat="45.81398" lon="6.24843">
        <ele>1293.3</ele>
        <time>2013-05-26T09:29:52.600Z</time>
      </trkpt>
      <trkpt lat="45.81398" lon="6.24845">
        <ele>1293.7</ele>
        <time>2013-05-26T09:29:53.600Z</time>
      </trkpt>
      <trkpt lat="45.81397" lon="6.24845">
        <ele>1294.3</ele>
        <time>2013-05-26T09:29:54.600Z</time>
      </trkpt>
      <trkpt lat="45.81396" lon="6.24845">
        <ele>1294.7</ele>
        <time>2013-05-26T09:29:55.600Z</time>
      </trkpt>
      <trkpt lat="45.81395" lon="6.24846">
        <ele>1291.1</ele>
        <time>2013-05-26T09:29:56.600Z</time>
      </trkpt>
      <trkpt lat="45.81393" lon="6.24847">
        <ele>1296.2</ele>
        <time>2013-05-26T09:29:57.600Z</time>
      </trkpt>
      <trkpt lat="45.81392" lon="6.24848">
        <ele>1296.4</ele>
        <time>2013-05-26T09:29:58.600Z</time>
      </trkpt>
      <trkpt lat="45.81391" lon="6.24849">
        <ele>1295.6</ele>
        <time>2013-05-26T09:29:59.600Z</time>
      </trkpt>
      <trkpt lat="45.81386" lon="6.2485">
        <ele>1303.6</ele>
        <time>2013-05-26T09:30:02.600Z</time>
      </trkpt>
      <trkpt lat="45.81384" lon="6.2485">
        <ele>1307.4</ele>
        <time>2013-05-26T09:30:03.600Z</time>
      </trkpt>
      <trkpt lat="45.81381" lon="6.24852">
        <ele>1307.5</ele>
        <time>2013-05-26T09:30:05.500Z</time>
      </trkpt>
      <trkpt lat="45.81379" lon="6.24853">
        <ele>1303.6</ele>
        <time>2013-05-26T09:30:07.500Z</time>
      </trkpt>
      <trkpt lat="45.81378" lon="6.24853">
        <ele>1304.7</ele>
        <time>2013-05-26T09:30:08.500Z</time>
      </trkpt>
      <trkpt lat="45.81377" lon="6.24854">
        <ele>1302.3</ele>
        <time>2013-05-26T09:30:09.500Z</time>
      </trkpt>
      <trkpt lat="45.81375" lon="6.24854">
        <ele>1304.6</ele>
        <time>2013-05-26T09:30:10.600Z</time>
      </trkpt>
      <trkpt lat="45.81373" lon="6.24855">
        <ele>1304.1</ele>
        <time>2013-05-26T09:30:12.500Z</time>
      </trkpt>
      <trkpt lat="45.81369" lon="6.24858">
        <ele>1305.5</ele>
        <time>2013-05-26T09:30:17.500Z</time>
      </trkpt>
      <trkpt lat="45.81366" lon="6.24862">
        <ele>1308.6</ele>
        <time>2013-05-26T09:30:21.600Z</time>
      </trkpt>
      <trkpt lat="45.81364" lon="6.24865">
        <ele>1310.9</ele>
        <time>2013-05-26T09:30:25.600Z</time>
      </trkpt>
      <trkpt lat="45.81363" lon="6.24866">
        <ele>1308.9</ele>
        <time>2013-05-26T09:30:26.600Z</time>
      </trkpt>
      <trkpt lat="45.81362" lon="6.24867">
        <ele>1309.9</ele>
        <time>2013-05-26T09:30:27.500Z</time>
      </trkpt>
      <trkpt lat="45.81362" lon="6.24868">
        <ele>1311.1</ele>
        <time>2013-05-26T09:30:28.500Z</time>
      </trkpt>
      <trkpt lat="45.8136" lon="6.24871">
        <ele>1303.7</ele>
        <time>2013-05-26T09:30:30.500Z</time>
      </trkpt>
      <trkpt lat="45.81358" lon="6.24873">
        <ele>1307.2</ele>
        <time>2013-05-26T09:30:32.500Z</time>
      </trkpt>
      <trkpt lat="45.81357" lon="6.24874">
        <ele>1310.5</ele>
        <time>2013-05-26T09:30:33.500Z</time>
      </trkpt>
      <trkpt lat="45.81352" lon="6.24874">
        <ele>1315</ele>
        <time>2013-05-26T09:30:36.600Z</time>
      </trkpt>
      <trkpt lat="45.8135" lon="6.24876">
        <ele>1313.4</ele>
        <time>2013-05-26T09:30:38.500Z</time>
      </trkpt>
      <trkpt lat="45.81348" lon="6.24881">
        <ele>1312.5</ele>
        <time>2013-05-26T09:30:43.500Z</time>
      </trkpt>
      <trkpt lat="45.81347" lon="6.24885">
        <ele>1315</ele>
        <time>2013-05-26T09:30:45.500Z</time>
      </trkpt>
      <trkpt lat="45.81345" lon="6.24889">
        <ele>1314.7</ele>
        <time>2013-05-26T09:30:47.500Z</time>
      </trkpt>
      <trkpt lat="45.81344" lon="6.2489">
        <ele>1316.2</ele>
        <time>2013-05-26T09:30:48.500Z</time>
      </trkpt>
      <trkpt lat="45.81339" lon="6.24895">
        <ele>1316.4</ele>
        <time>2013-05-26T09:30:52.500Z</time>
      </trkpt>
      <trkpt lat="45.81337" lon="6.24899">
        <ele>1321.4</ele>
        <time>2013-05-26T09:30:54.500Z</time>
      </trkpt>
      <trkpt lat="45.81337" lon="6.24901">
        <ele>1321.5</ele>
        <time>2013-05-26T09:30:55.500Z</time>
      </trkpt>
      <trkpt lat="45.81335" lon="6.24903">
        <ele>1320.1</ele>
        <time>2013-05-26T09:30:57.500Z</time>
      </trkpt>
      <trkpt lat="45.81334" lon="6.24906">
        <ele>1320</ele>
        <time>2013-05-26T09:31:01.500Z</time>
      </trkpt>
      <trkpt lat="45.81331" lon="6.24912">
        <ele>1325.8</ele>
        <time>2013-05-26T09:31:05.500Z</time>
      </trkpt>
      <trkpt lat="45.8133" lon="6.24916">
        <ele>1326</ele>
        <time>2013-05-26T09:31:09.500Z</time>
      </trkpt>
      <trkpt lat="45.81329" lon="6.24919">
        <ele>1325.2</ele>
        <time>2013-05-26T09:31:13.500Z</time>
      </trkpt>
      <trkpt lat="45.81327" lon="6.24923">
        <ele>1327.5</ele>
        <time>2013-05-26T09:31:18.500Z</time>
      </trkpt>
      <trkpt lat="45.81324" lon="6.24927">
        <ele>1329.9</ele>
        <time>2013-05-26T09:31:23.500Z</time>
      </trkpt>
      <trkpt lat="45.81322" lon="6.24935">
        <ele>1334.5</ele>
        <time>2013-05-26T09:31:28.500Z</time>
      </trkpt>
      <trkpt lat="45.81321" lon="6.24937">
        <ele>1326.9</ele>
        <time>2013-05-26T09:31:30.500Z</time>
      </trkpt>
      <trkpt lat="45.81321" lon="6.24939">
        <ele>1329.3</ele>
        <time>2013-05-26T09:31:31.500Z</time>
      </trkpt>
      <trkpt lat="45.8132" lon="6.2494">
        <ele>1328.8</ele>
        <time>2013-05-26T09:31:32.500Z</time>
      </trkpt>
      <trkpt lat="45.81317" lon="6.24942">
        <ele>1330.2</ele>
        <time>2013-05-26T09:31:34.500Z</time>
      </trkpt>
      <trkpt lat="45.81316" lon="6.24944">
        <ele>1330.3</ele>
        <time>2013-05-26T09:31:38.500Z</time>
      </trkpt>
      <trkpt lat="45.81316" lon="6.24945">
        <ele>1330.7</ele>
        <time>2013-05-26T09:31:39.500Z</time>
      </trkpt>
      <trkpt lat="45.81316" lon="6.24947">
        <ele>1334.1</ele>
        <time>2013-05-26T09:31:41.500Z</time>
      </trkpt>
      <trkpt lat="45.81315" lon="6.2495">
        <ele>1330.4</ele>
        <time>2013-05-26T09:31:44.500Z</time>
      </trkpt>
      <trkpt lat="45.81313" lon="6.24955">
        <ele>1331.5</ele>
        <time>2013-05-26T09:31:48.500Z</time>
      </trkpt>
      <trkpt lat="45.81313" lon="6.24956">
        <ele>1330.8</ele>
        <time>2013-05-26T09:31:49.500Z</time>
      </trkpt>
      <trkpt lat="45.81312" lon="6.24958">
        <ele>1330.5</ele>
        <time>2013-05-26T09:31:50.500Z</time>
      </trkpt>
      <trkpt lat="45.81311" lon="6.24961">
        <ele>1335</ele>
        <time>2013-05-26T09:31:52.500Z</time>
      </trkpt>
      <trkpt lat="45.8131" lon="6.24962">
        <ele>1335.9</ele>
        <time>2013-05-26T09:31:53.500Z</time>
      </trkpt>
      <trkpt lat="45.81309" lon="6.24965">
        <ele>1336.8</ele>
        <time>2013-05-26T09:31:55.600Z</time>
      </trkpt>
      <trkpt lat="45.81308" lon="6.24968">
        <ele>1334.8</ele>
        <time>2013-05-26T09:32:00.500Z</time>
      </trkpt>
      <trkpt lat="45.81307" lon="6.24969">
        <ele>1334.2</ele>
        <time>2013-05-26T09:32:01.500Z</time>
      </trkpt>
      <trkpt lat="45.81304" lon="6.24971">
        <ele>1335.2</ele>
        <time>2013-05-26T09:32:06.500Z</time>
      </trkpt>
      <trkpt lat="45.81303" lon="6.24972">
        <ele>1333.7</ele>
        <time>2013-05-26T09:32:07.500Z</time>
      </trkpt>
      <trkpt lat="45.81302" lon="6.24973">
        <ele>1333.8</ele>
        <time>2013-05-26T09:32:08.500Z</time>
      </trkpt>
      <trkpt lat="45.813" lon="6.24975">
        <ele>1333</ele>
        <time>2013-05-26T09:32:10.500Z</time>
      </trkpt>
      <trkpt lat="45.81299" lon="6.24976">
        <ele>1336.2</ele>
        <time>2013-05-26T09:32:11.500Z</time>
      </trkpt>
      <trkpt lat="45.81298" lon="6.24977">
        <ele>1337.1</ele>
        <time>2013-05-26T09:32:12.500Z</time>
      </trkpt>
      <trkpt lat="45.81294" lon="6.24981">
        <ele>1337.1</ele>
        <time>2013-05-26T09:32:18.500Z</time>
      </trkpt>
      <trkpt lat="45.81293" lon="6.24987">
        <ele>1342.6</ele>
        <time>2013-05-26T09:32:23.500Z</time>
      </trkpt>
      <trkpt lat="45.8129" lon="6.24991">
        <ele>1344.8</ele>
        <time>2013-05-26T09:32:27.500Z</time>
      </trkpt>
      <trkpt lat="45.81288" lon="6.24997">
        <ele>1352.2</ele>
        <time>2013-05-26T09:32:32.500Z</time>
      </trkpt>
      <trkpt lat="45.81287" lon="6.25002">
        <ele>1349</ele>
        <time>2013-05-26T09:32:36.500Z</time>
      </trkpt>
      <trkpt lat="45.81288" lon="6.25005">
        <ele>1347</ele>
        <time>2013-05-26T09:32:41.500Z</time>
      </trkpt>
      <trkpt lat="45.81286" lon="6.25008">
        <ele>1351.8</ele>
        <time>2013-05-26T09:32:46.500Z</time>
      </trkpt>
      <trkpt lat="45.81285" lon="6.25011">
        <ele>1357.5</ele>
        <time>2013-05-26T09:32:49.500Z</time>
      </trkpt>
      <trkpt lat="45.81285" lon="6.25013">
        <ele>1357.1</ele>
        <time>2013-05-26T09:32:50.500Z</time>
      </trkpt>
      <trkpt lat="45.81286" lon="6.25014">
        <ele>1358.8</ele>
        <time>2013-05-26T09:32:51.500Z</time>
      </trkpt>
      <trkpt lat="45.81283" lon="6.25016">
        <ele>1364.4</ele>
        <time>2013-05-26T09:32:56.500Z</time>
      </trkpt>
      <trkpt lat="45.81282" lon="6.25017">
        <ele>1360.8</ele>
        <time>2013-05-26T09:33:00.500Z</time>
      </trkpt>
      <trkpt lat="45.8128" lon="6.25024">
        <ele>1358.6</ele>
        <time>2013-05-26T09:33:04.500Z</time>
      </trkpt>
      <trkpt lat="45.8128" lon="6.25027">
        <ele>1354.9</ele>
        <time>2013-05-26T09:33:06.500Z</time>
      </trkpt>
      <trkpt lat="45.81279" lon="6.25032">
        <ele>1359.7</ele>
        <time>2013-05-26T09:33:11.700Z</time>
      </trkpt>
      <trkpt lat="45.81279" lon="6.25037">
        <ele>1362.2</ele>
        <time>2013-05-26T09:33:16.500Z</time>
      </trkpt>
      <trkpt lat="45.81279" lon="6.25041">
        <ele>1368.2</ele>
        <time>2013-05-26T09:33:19.500Z</time>
      </trkpt>
      <trkpt lat="45.81278" lon="6.25043">
        <ele>1370.9</ele>
        <time>2013-05-26T09:33:23.500Z</time>
      </trkpt>
      <trkpt lat="45.81278" lon="6.25043">
        <ele>1370</ele>
        <time>2013-05-26T09:33:27.500Z</time>
      </trkpt>
      <trkpt lat="45.81278" lon="6.25054">
        <ele>1372.8</ele>
        <time>2013-05-26T09:33:32.500Z</time>
      </trkpt>
      <trkpt lat="45.81278" lon="6.25055">
        <ele>1369.4</ele>
        <time>2013-05-26T09:33:33.500Z</time>
      </trkpt>
      <trkpt lat="45.81279" lon="6.25057">
        <ele>1370.3</ele>
        <time>2013-05-26T09:33:34.500Z</time>
      </trkpt>
      <trkpt lat="45.81278" lon="6.25061">
        <ele>1367.6</ele>
        <time>2013-05-26T09:33:36.500Z</time>
      </trkpt>
      <trkpt lat="45.81277" lon="6.2507">
        <ele>1369.6</ele>
        <time>2013-05-26T09:33:41.600Z</time>
      </trkpt>
      <trkpt lat="45.81278" lon="6.25071">
        <ele>1368.7</ele>
        <time>2013-05-26T09:33:42.600Z</time>
      </trkpt>
      <trkpt lat="45.81278" lon="6.25073">
        <ele>1367.8</ele>
        <time>2013-05-26T09:33:43.600Z</time>
      </trkpt>
      <trkpt lat="45.81279" lon="6.25076">
        <ele>1364.5</ele>
        <time>2013-05-26T09:33:45.600Z</time>
      </trkpt>
      <trkpt lat="45.81279" lon="6.25081">
        <ele>1367.1</ele>
        <time>2013-05-26T09:33:49.600Z</time>
      </trkpt>
      <trkpt lat="45.8128" lon="6.25087">
        <ele>1370</ele>
        <time>2013-05-26T09:33:54.600Z</time>
      </trkpt>
      <trkpt lat="45.8128" lon="6.25088">
        <ele>1371.5</ele>
        <time>2013-05-26T09:33:58.600Z</time>
      </trkpt>
      <trkpt lat="45.81281" lon="6.2509">
        <ele>1369.3</ele>
        <time>2013-05-26T09:33:59.600Z</time>
      </trkpt>
      <trkpt lat="45.81281" lon="6.25091">
        <ele>1369.3</ele>
        <time>2013-05-26T09:34:03.600Z</time>
      </trkpt>
      <trkpt lat="45.81281" lon="6.25091">
        <ele>1370.3</ele>
        <time>2013-05-26T09:34:07.600Z</time>
      </trkpt>
      <trkpt lat="45.81284" lon="6.25094">
        <ele>1365.2</ele>
        <time>2013-05-26T09:34:11.600Z</time>
      </trkpt>
      <trkpt lat="45.81283" lon="6.25096">
        <ele>1365</ele>
        <time>2013-05-26T09:34:12.600Z</time>
      </trkpt>
      <trkpt lat="45.8128" lon="6.25108">
        <ele>1369.4</ele>
        <time>2013-05-26T09:34:16.600Z</time>
      </trkpt>
      <trkpt lat="45.81279" lon="6.25113">
        <ele>1370.2</ele>
        <time>2013-05-26T09:34:18.500Z</time>
      </trkpt>
      <trkpt lat="45.81278" lon="6.25125">
        <ele>1373.9</ele>
        <time>2013-05-26T09:34:25.500Z</time>
      </trkpt>
      <trkpt lat="45.81277" lon="6.25127">
        <ele>1375.6</ele>
        <time>2013-05-26T09:34:26.500Z</time>
      </trkpt>
      <trkpt lat="45.81277" lon="6.25129">
        <ele>1379.3</ele>
        <time>2013-05-26T09:34:27.500Z</time>
      </trkpt>
      <trkpt lat="45.81276" lon="6.25133">
        <ele>1375.5</ele>
        <time>2013-05-26T09:34:32.500Z</time>
      </trkpt>
      <trkpt lat="45.81275" lon="6.25135">
        <ele>1378</ele>
        <time>2013-05-26T09:34:34.500Z</time>
      </trkpt>
      <trkpt lat="45.81275" lon="6.2514">
        <ele>1385.4</ele>
        <time>2013-05-26T09:34:39.500Z</time>
      </trkpt>
      <trkpt lat="45.81274" lon="6.25141">
        <ele>1388.3</ele>
        <time>2013-05-26T09:34:40.500Z</time>
      </trkpt>
      <trkpt lat="45.81275" lon="6.25143">
        <ele>1385.4</ele>
        <time>2013-05-26T09:34:44.500Z</time>
      </trkpt>
      <trkpt lat="45.81276" lon="6.25145">
        <ele>1384.3</ele>
        <time>2013-05-26T09:34:49.500Z</time>
      </trkpt>
      <trkpt lat="45.81276" lon="6.25145">
        <ele>1383.8</ele>
        <time>2013-05-26T09:34:50.500Z</time>
      </trkpt>
      <trkpt lat="45.81276" lon="6.25147">
        <ele>1379.8</ele>
        <time>2013-05-26T09:34:51.500Z</time>
      </trkpt>
      <trkpt lat="45.81276" lon="6.25149">
        <ele>1385.3</ele>
        <time>2013-05-26T09:34:55.500Z</time>
      </trkpt>
      <trkpt lat="45.81276" lon="6.25151">
        <ele>1392.3</ele>
        <time>2013-05-26T09:35:00.500Z</time>
      </trkpt>
      <trkpt lat="45.81276" lon="6.25152">
        <ele>1394.8</ele>
        <time>2013-05-26T09:35:01.500Z</time>
      </trkpt>
      <trkpt lat="45.81275" lon="6.25153">
        <ele>1397.4</ele>
        <time>2013-05-26T09:35:05.500Z</time>
      </trkpt>
      <trkpt lat="45.81276" lon="6.25168">
        <ele>1392.3</ele>
        <time>2013-05-26T09:35:10.500Z</time>
      </trkpt>
      <trkpt lat="45.81275" lon="6.2517">
        <ele>1392</ele>
        <time>2013-05-26T09:35:11.500Z</time>
      </trkpt>
      <trkpt lat="45.81275" lon="6.25172">
        <ele>1392.9</ele>
        <time>2013-05-26T09:35:12.500Z</time>
      </trkpt>
      <trkpt lat="45.81275" lon="6.25175">
        <ele>1390.7</ele>
        <time>2013-05-26T09:35:13.500Z</time>
      </trkpt>
      <trkpt lat="45.81274" lon="6.25176">
        <ele>1389.1</ele>
        <time>2013-05-26T09:35:14.500Z</time>
      </trkpt>
      <trkpt lat="45.81273" lon="6.25178">
        <ele>1390.2</ele>
        <time>2013-05-26T09:35:15.500Z</time>
      </trkpt>
      <trkpt lat="45.81273" lon="6.2518">
        <ele>1392.3</ele>
        <time>2013-05-26T09:35:19.500Z</time>
      </trkpt>
      <trkpt lat="45.81272" lon="6.25182">
        <ele>1390.6</ele>
        <time>2013-05-26T09:35:21.500Z</time>
      </trkpt>
      <trkpt lat="45.8127" lon="6.25183">
        <ele>1388.6</ele>
        <time>2013-05-26T09:35:23.500Z</time>
      </trkpt>
      <trkpt lat="45.81269" lon="6.25184">
        <ele>1389.8</ele>
        <time>2013-05-26T09:35:24.500Z</time>
      </trkpt>
      <trkpt lat="45.81268" lon="6.25185">
        <ele>1389.1</ele>
        <time>2013-05-26T09:35:25.500Z</time>
      </trkpt>
      <trkpt lat="45.81266" lon="6.25189">
        <ele>1390.8</ele>
        <time>2013-05-26T09:35:27.500Z</time>
      </trkpt>
      <trkpt lat="45.81266" lon="6.2519">
        <ele>1390.1</ele>
        <time>2013-05-26T09:35:28.500Z</time>
      </trkpt>
      <trkpt lat="45.81263" lon="6.252">
        <ele>1390.4</ele>
        <time>2013-05-26T09:35:34.500Z</time>
      </trkpt>
      <trkpt lat="45.81262" lon="6.25202">
        <ele>1389.5</ele>
        <time>2013-05-26T09:35:35.500Z</time>
      </trkpt>
      <trkpt lat="45.81262" lon="6.25204">
        <ele>1388.8</ele>
        <time>2013-05-26T09:35:36.600Z</time>
      </trkpt>
      <trkpt lat="45.81262" lon="6.25206">
        <ele>1387.3</ele>
        <time>2013-05-26T09:35:37.600Z</time>
      </trkpt>
      <trkpt lat="45.8126" lon="6.25208">
        <ele>1388.1</ele>
        <time>2013-05-26T09:35:38.600Z</time>
      </trkpt>
      <trkpt lat="45.8126" lon="6.25212">
        <ele>1386.8</ele>
        <time>2013-05-26T09:35:40.600Z</time>
      </trkpt>
      <trkpt lat="45.8126" lon="6.25214">
        <ele>1388.2</ele>
        <time>2013-05-26T09:35:41.600Z</time>
      </trkpt>
      <trkpt lat="45.8126" lon="6.25216">
        <ele>1388.5</ele>
        <time>2013-05-26T09:35:42.500Z</time>
      </trkpt>
      <trkpt lat="45.81257" lon="6.25223">
        <ele>1384.8</ele>
        <time>2013-05-26T09:35:46.600Z</time>
      </trkpt>
      <trkpt lat="45.81255" lon="6.25224">
        <ele>1383.4</ele>
        <time>2013-05-26T09:35:47.600Z</time>
      </trkpt>
      <trkpt lat="45.81254" lon="6.25225">
        <ele>1386</ele>
        <time>2013-05-26T09:35:48.600Z</time>
      </trkpt>
      <trkpt lat="45.81253" lon="6.25228">
        <ele>1384.6</ele>
        <time>2013-05-26T09:35:49.600Z</time>
      </trkpt>
      <trkpt lat="45.81252" lon="6.2523">
        <ele>1383.6</ele>
        <time>2013-05-26T09:35:50.600Z</time>
      </trkpt>
      <trkpt lat="45.81251" lon="6.25236">
        <ele>1380.9</ele>
        <time>2013-05-26T09:35:54.600Z</time>
      </trkpt>
      <trkpt lat="45.81251" lon="6.25239">
        <ele>1381.8</ele>
        <time>2013-05-26T09:35:55.500Z</time>
      </trkpt>
      <trkpt lat="45.81253" lon="6.25245">
        <ele>1384.1</ele>
        <time>2013-05-26T09:35:59.600Z</time>
      </trkpt>
      <trkpt lat="45.81255" lon="6.25248">
        <ele>1385.7</ele>
        <time>2013-05-26T09:36:04.500Z</time>
      </trkpt>
      <trkpt lat="45.81259" lon="6.25249">
        <ele>1393.1</ele>
        <time>2013-05-26T09:36:08.500Z</time>
      </trkpt>
      <trkpt lat="45.81262" lon="6.25247">
        <ele>1393.1</ele>
        <time>2013-05-26T09:36:10.500Z</time>
      </trkpt>
      <trkpt lat="45.81263" lon="6.25246">
        <ele>1394</ele>
        <time>2013-05-26T09:36:11.500Z</time>
      </trkpt>
      <trkpt lat="45.81267" lon="6.25243">
        <ele>1391.8</ele>
        <time>2013-05-26T09:36:13.500Z</time>
      </trkpt>
      <trkpt lat="45.81267" lon="6.25241">
        <ele>1394.3</ele>
        <time>2013-05-26T09:36:14.500Z</time>
      </trkpt>
      <trkpt lat="45.81271" lon="6.25236">
        <ele>1395.5</ele>
        <time>2013-05-26T09:36:18.500Z</time>
      </trkpt>
      <trkpt lat="45.81274" lon="6.25234">
        <ele>1394.8</ele>
        <time>2013-05-26T09:36:20.500Z</time>
      </trkpt>
      <trkpt lat="45.81278" lon="6.25234">
        <ele>1396.3</ele>
        <time>2013-05-26T09:36:25.500Z</time>
      </trkpt>
      <trkpt lat="45.81279" lon="6.25235">
        <ele>1398.9</ele>
        <time>2013-05-26T09:36:27.500Z</time>
      </trkpt>
      <trkpt lat="45.81281" lon="6.25236">
        <ele>1399</ele>
        <time>2013-05-26T09:36:28.500Z</time>
      </trkpt>
      <trkpt lat="45.81289" lon="6.25239">
        <ele>1399.4</ele>
        <time>2013-05-26T09:36:33.500Z</time>
      </trkpt>
      <trkpt lat="45.8129" lon="6.2524">
        <ele>1402</ele>
        <time>2013-05-26T09:36:34.500Z</time>
      </trkpt>
      <trkpt lat="45.81293" lon="6.25242">
        <ele>1404.4</ele>
        <time>2013-05-26T09:36:37.500Z</time>
      </trkpt>
      <trkpt lat="45.81294" lon="6.25243">
        <ele>1405.9</ele>
        <time>2013-05-26T09:36:38.500Z</time>
      </trkpt>
      <trkpt lat="45.81295" lon="6.25243">
        <ele>1408.1</ele>
        <time>2013-05-26T09:36:39.500Z</time>
      </trkpt>
      <trkpt lat="45.81296" lon="6.25244">
        <ele>1405.7</ele>
        <time>2013-05-26T09:36:40.500Z</time>
      </trkpt>
      <trkpt lat="45.81301" lon="6.25247">
        <ele>1402</ele>
        <time>2013-05-26T09:36:43.500Z</time>
      </trkpt>
      <trkpt lat="45.81304" lon="6.2525">
        <ele>1399</ele>
        <time>2013-05-26T09:36:48.500Z</time>
      </trkpt>
      <trkpt lat="45.81305" lon="6.25251">
        <ele>1399.8</ele>
        <time>2013-05-26T09:36:49.500Z</time>
      </trkpt>
      <trkpt lat="45.81307" lon="6.25251">
        <ele>1400.4</ele>
        <time>2013-05-26T09:36:51.500Z</time>
      </trkpt>
      <trkpt lat="45.81308" lon="6.25251">
        <ele>1404.7</ele>
        <time>2013-05-26T09:36:52.500Z</time>
      </trkpt>
      <trkpt lat="45.81309" lon="6.25251">
        <ele>1404.1</ele>
        <time>2013-05-26T09:36:53.500Z</time>
      </trkpt>
      <trkpt lat="45.8131" lon="6.25252">
        <ele>1399.5</ele>
        <time>2013-05-26T09:36:54.500Z</time>
      </trkpt>
      <trkpt lat="45.81312" lon="6.25255">
        <ele>1402.2</ele>
        <time>2013-05-26T09:36:58.500Z</time>
      </trkpt>
      <trkpt lat="45.81313" lon="6.25256">
        <ele>1400.3</ele>
        <time>2013-05-26T09:36:59.500Z</time>
      </trkpt>
      <trkpt lat="45.81315" lon="6.25256">
        <ele>1400.7</ele>
        <time>2013-05-26T09:37:00.500Z</time>
      </trkpt>
      <trkpt lat="45.81317" lon="6.25259">
        <ele>1402.9</ele>
        <time>2013-05-26T09:37:04.500Z</time>
      </trkpt>
      <trkpt lat="45.8132" lon="6.25262">
        <ele>1397.2</ele>
        <time>2013-05-26T09:37:09.500Z</time>
      </trkpt>
      <trkpt lat="45.81321" lon="6.25263">
        <ele>1402.8</ele>
        <time>2013-05-26T09:37:10.500Z</time>
      </trkpt>
      <trkpt lat="45.81322" lon="6.25264">
        <ele>1404.4</ele>
        <time>2013-05-26T09:37:11.500Z</time>
      </trkpt>
      <trkpt lat="45.81324" lon="6.25264">
        <ele>1402.2</ele>
        <time>2013-05-26T09:37:12.500Z</time>
      </trkpt>
      <trkpt lat="45.81325" lon="6.25265">
        <ele>1404.2</ele>
        <time>2013-05-26T09:37:13.500Z</time>
      </trkpt>
      <trkpt lat="45.81326" lon="6.25265">
        <ele>1405.3</ele>
        <time>2013-05-26T09:37:14.500Z</time>
      </trkpt>
      <trkpt lat="45.81329" lon="6.25266">
        <ele>1400.4</ele>
        <time>2013-05-26T09:37:16.500Z</time>
      </trkpt>
      <trkpt lat="45.8133" lon="6.25266">
        <ele>1398.1</ele>
        <time>2013-05-26T09:37:17.500Z</time>
      </trkpt>
      <trkpt lat="45.81334" lon="6.25267">
        <ele>1398.7</ele>
        <time>2013-05-26T09:37:21.600Z</time>
      </trkpt>
      <trkpt lat="45.81337" lon="6.25265">
        <ele>1399.4</ele>
        <time>2013-05-26T09:37:25.600Z</time>
      </trkpt>
      <trkpt lat="45.81338" lon="6.25265">
        <ele>1399.1</ele>
        <time>2013-05-26T09:37:26.600Z</time>
      </trkpt>
      <trkpt lat="45.81341" lon="6.25261">
        <ele>1396.4</ele>
        <time>2013-05-26T09:37:31.600Z</time>
      </trkpt>
      <trkpt lat="45.81344" lon="6.25257">
        <ele>1398.6</ele>
        <time>2013-05-26T09:37:34.600Z</time>
      </trkpt>
      <trkpt lat="45.81345" lon="6.25254">
        <ele>1399.9</ele>
        <time>2013-05-26T09:37:36.600Z</time>
      </trkpt>
      <trkpt lat="45.81352" lon="6.25248">
        <ele>1407.6</ele>
        <time>2013-05-26T09:37:40.600Z</time>
      </trkpt>
      <trkpt lat="45.81353" lon="6.25244">
        <ele>1410.7</ele>
        <time>2013-05-26T09:37:42.600Z</time>
      </trkpt>
      <trkpt lat="45.81353" lon="6.25239">
        <ele>1408.9</ele>
        <time>2013-05-26T09:37:46.600Z</time>
      </trkpt>
      <trkpt lat="45.81355" lon="6.25236">
        <ele>1408.9</ele>
        <time>2013-05-26T09:37:48.500Z</time>
      </trkpt>
      <trkpt lat="45.81356" lon="6.25235">
        <ele>1408.1</ele>
        <time>2013-05-26T09:37:49.600Z</time>
      </trkpt>
      <trkpt lat="45.81357" lon="6.25234">
        <ele>1409.3</ele>
        <time>2013-05-26T09:37:50.600Z</time>
      </trkpt>
      <trkpt lat="45.81364" lon="6.25227">
        <ele>1406.3</ele>
        <time>2013-05-26T09:37:54.600Z</time>
      </trkpt>
      <trkpt lat="45.81366" lon="6.25226">
        <ele>1410.1</ele>
        <time>2013-05-26T09:37:55.500Z</time>
      </trkpt>
      <trkpt lat="45.81374" lon="6.25221">
        <ele>1405.7</ele>
        <time>2013-05-26T09:37:59.500Z</time>
      </trkpt>
      <trkpt lat="45.81377" lon="6.25219">
        <ele>1411.4</ele>
        <time>2013-05-26T09:38:01.500Z</time>
      </trkpt>
      <trkpt lat="45.81386" lon="6.25215">
        <ele>1411.2</ele>
        <time>2013-05-26T09:38:06.500Z</time>
      </trkpt>
      <trkpt lat="45.81387" lon="6.25215">
        <ele>1412.9</ele>
        <time>2013-05-26T09:38:07.500Z</time>
      </trkpt>
      <trkpt lat="45.81391" lon="6.25214">
        <ele>1415.6</ele>
        <time>2013-05-26T09:38:09.500Z</time>
      </trkpt>
      <trkpt lat="45.81397" lon="6.25214">
        <ele>1408</ele>
        <time>2013-05-26T09:38:13.500Z</time>
      </trkpt>
      <trkpt lat="45.81409" lon="6.25214">
        <ele>1404.9</ele>
        <time>2013-05-26T09:38:18.500Z</time>
      </trkpt>
      <trkpt lat="45.81411" lon="6.25214">
        <ele>1407.1</ele>
        <time>2013-05-26T09:38:19.500Z</time>
      </trkpt>
      <trkpt lat="45.81414" lon="6.25214">
        <ele>1405.2</ele>
        <time>2013-05-26T09:38:21.500Z</time>
      </trkpt>
      <trkpt lat="45.81415" lon="6.25214">
        <ele>1402.8</ele>
        <time>2013-05-26T09:38:22.500Z</time>
      </trkpt>
      <trkpt lat="45.8142" lon="6.25216">
        <ele>1402.7</ele>
        <time>2013-05-26T09:38:26.500Z</time>
      </trkpt>
      <trkpt lat="45.81427" lon="6.25217">
        <ele>1414.2</ele>
        <time>2013-05-26T09:38:31.500Z</time>
      </trkpt>
      <trkpt lat="45.81435" lon="6.25219">
        <ele>1410.1</ele>
        <time>2013-05-26T09:38:35.500Z</time>
      </trkpt>
      <trkpt lat="45.81448" lon="6.25219">
        <ele>1413.3</ele>
        <time>2013-05-26T09:38:40.500Z</time>
      </trkpt>
      <trkpt lat="45.81449" lon="6.25219">
        <ele>1420.3</ele>
        <time>2013-05-26T09:38:44.500Z</time>
      </trkpt>
      <trkpt lat="45.81451" lon="6.25219">
        <ele>1427</ele>
        <time>2013-05-26T09:38:49.500Z</time>
      </trkpt>
      <trkpt lat="45.81477" lon="6.25213">
        <ele>1425.8</ele>
        <time>2013-05-26T09:38:53.600Z</time>
      </trkpt>
      <trkpt lat="45.8148" lon="6.25215">
        <ele>1429.5</ele>
        <time>2013-05-26T09:38:55.500Z</time>
      </trkpt>
      <trkpt lat="45.81481" lon="6.25216">
        <ele>1427.8</ele>
        <time>2013-05-26T09:38:56.500Z</time>
      </trkpt>
      <trkpt lat="45.81487" lon="6.25215">
        <ele>1424.8</ele>
        <time>2013-05-26T09:39:00.500Z</time>
      </trkpt>
      <trkpt lat="45.81496" lon="6.25215">
        <ele>1423.2</ele>
        <time>2013-05-26T09:39:05.500Z</time>
      </trkpt>
      <trkpt lat="45.81497" lon="6.25215">
        <ele>1421.2</ele>
        <time>2013-05-26T09:39:06.500Z</time>
      </trkpt>
      <trkpt lat="45.81498" lon="6.25215">
        <ele>1421.9</ele>
        <time>2013-05-26T09:39:07.500Z</time>
      </trkpt>
      <trkpt lat="45.815" lon="6.25215">
        <ele>1421.1</ele>
        <time>2013-05-26T09:39:08.500Z</time>
      </trkpt>
      <trkpt lat="45.81505" lon="6.25214">
        <ele>1422.9</ele>
        <time>2013-05-26T09:39:11.600Z</time>
      </trkpt>
      <trkpt lat="45.81508" lon="6.25214">
        <ele>1421.2</ele>
        <time>2013-05-26T09:39:16.500Z</time>
      </trkpt>
      <trkpt lat="45.81512" lon="6.25214">
        <ele>1425.9</ele>
        <time>2013-05-26T09:39:20.500Z</time>
      </trkpt>
      <trkpt lat="45.81514" lon="6.25214">
        <ele>1426.6</ele>
        <time>2013-05-26T09:39:21.500Z</time>
      </trkpt>
      <trkpt lat="45.81522" lon="6.25211">
        <ele>1430.8</ele>
        <time>2013-05-26T09:39:26.500Z</time>
      </trkpt>
      <trkpt lat="45.81523" lon="6.25211">
        <ele>1430.2</ele>
        <time>2013-05-26T09:39:30.500Z</time>
      </trkpt>
      <trkpt lat="45.81525" lon="6.25212">
        <ele>1431.5</ele>
        <time>2013-05-26T09:39:31.500Z</time>
      </trkpt>
      <trkpt lat="45.81526" lon="6.25212">
        <ele>1433.8</ele>
        <time>2013-05-26T09:39:32.500Z</time>
      </trkpt>
      <trkpt lat="45.81527" lon="6.25213">
        <ele>1433.8</ele>
        <time>2013-05-26T09:39:33.500Z</time>
      </trkpt>
      <trkpt lat="45.81534" lon="6.25211">
        <ele>1435.4</ele>
        <time>2013-05-26T09:39:40.500Z</time>
      </trkpt>
      <trkpt lat="45.81537" lon="6.25211">
        <ele>1439.1</ele>
        <time>2013-05-26T09:39:44.600Z</time>
      </trkpt>
      <trkpt lat="45.81541" lon="6.25209">
        <ele>1434.8</ele>
        <time>2013-05-26T09:39:47.600Z</time>
      </trkpt>
      <trkpt lat="45.81552" lon="6.25209">
        <ele>1438.9</ele>
        <time>2013-05-26T09:39:52.500Z</time>
      </trkpt>
      <trkpt lat="45.81552" lon="6.25209">
        <ele>1437.9</ele>
        <time>2013-05-26T09:39:53.500Z</time>
      </trkpt>
      <trkpt lat="45.81556" lon="6.2521">
        <ele>1439.9</ele>
        <time>2013-05-26T09:39:56.500Z</time>
      </trkpt>
      <trkpt lat="45.8156" lon="6.25211">
        <ele>1443.1</ele>
        <time>2013-05-26T09:39:59.500Z</time>
      </trkpt>
      <trkpt lat="45.81561" lon="6.25211">
        <ele>1445.1</ele>
        <time>2013-05-26T09:40:00.500Z</time>
      </trkpt>
      <trkpt lat="45.81563" lon="6.25212">
        <ele>1450</ele>
        <time>2013-05-26T09:40:02.500Z</time>
      </trkpt>
      <trkpt lat="45.81565" lon="6.25213">
        <ele>1447.5</ele>
        <time>2013-05-26T09:40:03.500Z</time>
      </trkpt>
      <trkpt lat="45.81568" lon="6.25213">
        <ele>1450.5</ele>
        <time>2013-05-26T09:40:05.500Z</time>
      </trkpt>
      <trkpt lat="45.8157" lon="6.25214">
        <ele>1448.4</ele>
        <time>2013-05-26T09:40:06.500Z</time>
      </trkpt>
      <trkpt lat="45.81572" lon="6.25214">
        <ele>1444.4</ele>
        <time>2013-05-26T09:40:11.500Z</time>
      </trkpt>
      <trkpt lat="45.81574" lon="6.25214">
        <ele>1444.7</ele>
        <time>2013-05-26T09:40:12.500Z</time>
      </trkpt>
      <trkpt lat="45.81575" lon="6.25214">
        <ele>1445.7</ele>
        <time>2013-05-26T09:40:13.500Z</time>
      </trkpt>
      <trkpt lat="45.81576" lon="6.25216">
        <ele>1445.4</ele>
        <time>2013-05-26T09:40:18.500Z</time>
      </trkpt>
      <trkpt lat="45.81578" lon="6.25217">
        <ele>1444.5</ele>
        <time>2013-05-26T09:40:20.500Z</time>
      </trkpt>
      <trkpt lat="45.8158" lon="6.25218">
        <ele>1440</ele>
        <time>2013-05-26T09:40:22.600Z</time>
      </trkpt>
      <trkpt lat="45.81583" lon="6.25219">
        <ele>1442.3</ele>
        <time>2013-05-26T09:40:26.600Z</time>
      </trkpt>
      <trkpt lat="45.81584" lon="6.2522">
        <ele>1439.1</ele>
        <time>2013-05-26T09:40:31.600Z</time>
      </trkpt>
      <trkpt lat="45.81591" lon="6.25225">
        <ele>1429.3</ele>
        <time>2013-05-26T09:40:37.600Z</time>
      </trkpt>
      <trkpt lat="45.81591" lon="6.25225">
        <ele>1429.1</ele>
        <time>2013-05-26T09:40:42.500Z</time>
      </trkpt>
      <trkpt lat="45.81596" lon="6.25226">
        <ele>1435.4</ele>
        <time>2013-05-26T09:40:46.600Z</time>
      </trkpt>
      <trkpt lat="45.816" lon="6.25226">
        <ele>1441.9</ele>
        <time>2013-05-26T09:40:50.600Z</time>
      </trkpt>
      <trkpt lat="45.81605" lon="6.25224">
        <ele>1439.9</ele>
        <time>2013-05-26T09:40:54.600Z</time>
      </trkpt>
      <trkpt lat="45.81606" lon="6.25224">
        <ele>1441.4</ele>
        <time>2013-05-26T09:40:56.600Z</time>
      </trkpt>
      <trkpt lat="45.81608" lon="6.25225">
        <ele>1444.6</ele>
        <time>2013-05-26T09:40:58.600Z</time>
      </trkpt>
      <trkpt lat="45.81609" lon="6.25226">
        <ele>1443.5</ele>
        <time>2013-05-26T09:40:59.600Z</time>
      </trkpt>
      <trkpt lat="45.81611" lon="6.25227">
        <ele>1444.2</ele>
        <time>2013-05-26T09:41:01.600Z</time>
      </trkpt>
      <trkpt lat="45.81617" lon="6.25227">
        <ele>1449.5</ele>
        <time>2013-05-26T09:41:06.600Z</time>
      </trkpt>
      <trkpt lat="45.81618" lon="6.25229">
        <ele>1448.6</ele>
        <time>2013-05-26T09:41:08.600Z</time>
      </trkpt>
      <trkpt lat="45.81626" lon="6.25241">
        <ele>1445.5</ele>
        <time>2013-05-26T09:41:12.600Z</time>
      </trkpt>
      <trkpt lat="45.81629" lon="6.25243">
        <ele>1446.1</ele>
        <time>2013-05-26T09:41:14.600Z</time>
      </trkpt>
      <trkpt lat="45.8163" lon="6.25244">
        <ele>1444.3</ele>
        <time>2013-05-26T09:41:15.600Z</time>
      </trkpt>
      <trkpt lat="45.81631" lon="6.25245">
        <ele>1439.7</ele>
        <time>2013-05-26T09:41:16.600Z</time>
      </trkpt>
      <trkpt lat="45.81636" lon="6.25247">
        <ele>1446</ele>
        <time>2013-05-26T09:41:19.600Z</time>
      </trkpt>
      <trkpt lat="45.81646" lon="6.25249">
        <ele>1436.4</ele>
        <time>2013-05-26T09:41:24.500Z</time>
      </trkpt>
      <trkpt lat="45.81647" lon="6.25249">
        <ele>1432.1</ele>
        <time>2013-05-26T09:41:25.500Z</time>
      </trkpt>
      <trkpt lat="45.81649" lon="6.25249">
        <ele>1436.5</ele>
        <time>2013-05-26T09:41:29.600Z</time>
      </trkpt>
      <trkpt lat="45.81649" lon="6.25255">
        <ele>1434.6</ele>
        <time>2013-05-26T09:41:33.600Z</time>
      </trkpt>
      <trkpt lat="45.81651" lon="6.25256">
        <ele>1442.5</ele>
        <time>2013-05-26T09:41:38.600Z</time>
      </trkpt>
      <trkpt lat="45.81656" lon="6.25257">
        <ele>1450</ele>
        <time>2013-05-26T09:41:42.500Z</time>
      </trkpt>
      <trkpt lat="45.81656" lon="6.25257">
        <ele>1446.6</ele>
        <time>2013-05-26T09:41:46.600Z</time>
      </trkpt>
      <trkpt lat="45.81684" lon="6.25255">
        <ele>1448</ele>
        <time>2013-05-26T09:41:52.600Z</time>
      </trkpt>
      <trkpt lat="45.81689" lon="6.25256">
        <ele>1456.7</ele>
        <time>2013-05-26T09:41:57.600Z</time>
      </trkpt>
      <trkpt lat="45.81692" lon="6.25256">
        <ele>1457.6</ele>
        <time>2013-05-26T09:42:00.600Z</time>
      </trkpt>
      <trkpt lat="45.81695" lon="6.25258">
        <ele>1460.2</ele>
        <time>2013-05-26T09:42:04.600Z</time>
      </trkpt>
      <trkpt lat="45.81698" lon="6.25258">
        <ele>1465.5</ele>
        <time>2013-05-26T09:42:07.600Z</time>
      </trkpt>
      <trkpt lat="45.81699" lon="6.25258">
        <ele>1462.4</ele>
        <time>2013-05-26T09:42:08.600Z</time>
      </trkpt>
      <trkpt lat="45.81705" lon="6.25258">
        <ele>1466.3</ele>
        <time>2013-05-26T09:42:12.600Z</time>
      </trkpt>
      <trkpt lat="45.81706" lon="6.25256">
        <ele>1464.3</ele>
        <time>2013-05-26T09:42:17.500Z</time>
      </trkpt>
      <trkpt lat="45.81712" lon="6.25255">
        <ele>1468.6</ele>
        <time>2013-05-26T09:42:21.500Z</time>
      </trkpt>
      <trkpt lat="45.81714" lon="6.25256">
        <ele>1458.5</ele>
        <time>2013-05-26T09:42:26.500Z</time>
      </trkpt>
      <trkpt lat="45.81721" lon="6.2526">
        <ele>1459.6</ele>
        <time>2013-05-26T09:42:30.800Z</time>
      </trkpt>
      <trkpt lat="45.81722" lon="6.2526">
        <ele>1456.6</ele>
        <time>2013-05-26T09:42:31.600Z</time>
      </trkpt>
      <trkpt lat="45.81725" lon="6.25262">
        <ele>1455.2</ele>
        <time>2013-05-26T09:42:33.500Z</time>
      </trkpt>
      <trkpt lat="45.81727" lon="6.25262">
        <ele>1457.2</ele>
        <time>2013-05-26T09:42:34.500Z</time>
      </trkpt>
      <trkpt lat="45.81731" lon="6.25262">
        <ele>1460.2</ele>
        <time>2013-05-26T09:42:39.500Z</time>
      </trkpt>
      <trkpt lat="45.81732" lon="6.25262">
        <ele>1460</ele>
        <time>2013-05-26T09:42:40.500Z</time>
      </trkpt>
      <trkpt lat="45.81733" lon="6.25263">
        <ele>1452.5</ele>
        <time>2013-05-26T09:42:41.600Z</time>
      </trkpt>
      <trkpt lat="45.81734" lon="6.25263">
        <ele>1453.1</ele>
        <time>2013-05-26T09:42:42.600Z</time>
      </trkpt>
      <trkpt lat="45.81747" lon="6.25262">
        <ele>1456.1</ele>
        <time>2013-05-26T09:42:47.500Z</time>
      </trkpt>
      <trkpt lat="45.81749" lon="6.25262">
        <ele>1459.6</ele>
        <time>2013-05-26T09:42:48.500Z</time>
      </trkpt>
      <trkpt lat="45.81751" lon="6.25263">
        <ele>1462.6</ele>
        <time>2013-05-26T09:42:49.600Z</time>
      </trkpt>
      <trkpt lat="45.81755" lon="6.25265">
        <ele>1457</ele>
        <time>2013-05-26T09:42:51.600Z</time>
      </trkpt>
      <trkpt lat="45.81757" lon="6.25265">
        <ele>1458.3</ele>
        <time>2013-05-26T09:42:52.500Z</time>
      </trkpt>
      <trkpt lat="45.8176" lon="6.25263">
        <ele>1460.2</ele>
        <time>2013-05-26T09:42:55.500Z</time>
      </trkpt>
      <trkpt lat="45.81768" lon="6.25263">
        <ele>1461.2</ele>
        <time>2013-05-26T09:42:59.600Z</time>
      </trkpt>
      <trkpt lat="45.81772" lon="6.25263">
        <ele>1463.9</ele>
        <time>2013-05-26T09:43:01.500Z</time>
      </trkpt>
      <trkpt lat="45.81774" lon="6.25266">
        <ele>1464.2</ele>
        <time>2013-05-26T09:43:03.500Z</time>
      </trkpt>
      <trkpt lat="45.81778" lon="6.25268">
        <ele>1464.3</ele>
        <time>2013-05-26T09:43:06.500Z</time>
      </trkpt>
      <trkpt lat="45.81789" lon="6.25266">
        <ele>1474.9</ele>
        <time>2013-05-26T09:43:10.600Z</time>
      </trkpt>
      <trkpt lat="45.81791" lon="6.25266">
        <ele>1473.4</ele>
        <time>2013-05-26T09:43:12.500Z</time>
      </trkpt>
      <trkpt lat="45.81793" lon="6.25266">
        <ele>1474</ele>
        <time>2013-05-26T09:43:13.500Z</time>
      </trkpt>
      <trkpt lat="45.81794" lon="6.25267">
        <ele>1473.8</ele>
        <time>2013-05-26T09:43:14.500Z</time>
      </trkpt>
      <trkpt lat="45.81795" lon="6.25267">
        <ele>1474.5</ele>
        <time>2013-05-26T09:43:15.500Z</time>
      </trkpt>
      <trkpt lat="45.81796" lon="6.25268">
        <ele>1474.8</ele>
        <time>2013-05-26T09:43:16.500Z</time>
      </trkpt>
      <trkpt lat="45.81799" lon="6.25267">
        <ele>1469.1</ele>
        <time>2013-05-26T09:43:20.500Z</time>
      </trkpt>
      <trkpt lat="45.81801" lon="6.25267">
        <ele>1470.1</ele>
        <time>2013-05-26T09:43:21.500Z</time>
      </trkpt>
      <trkpt lat="45.81802" lon="6.25267">
        <ele>1468.8</ele>
        <time>2013-05-26T09:43:22.500Z</time>
      </trkpt>
      <trkpt lat="45.81803" lon="6.25268">
        <ele>1465.7</ele>
        <time>2013-05-26T09:43:23.500Z</time>
      </trkpt>
      <trkpt lat="45.81804" lon="6.25268">
        <ele>1465.8</ele>
        <time>2013-05-26T09:43:24.500Z</time>
      </trkpt>
      <trkpt lat="45.81808" lon="6.25271">
        <ele>1463.7</ele>
        <time>2013-05-26T09:43:27.500Z</time>
      </trkpt>
      <trkpt lat="45.81809" lon="6.25272">
        <ele>1463.5</ele>
        <time>2013-05-26T09:43:28.500Z</time>
      </trkpt>
      <trkpt lat="45.81811" lon="6.25273">
        <ele>1462.8</ele>
        <time>2013-05-26T09:43:29.500Z</time>
      </trkpt>
      <trkpt lat="45.81812" lon="6.25274">
        <ele>1460.9</ele>
        <time>2013-05-26T09:43:30.500Z</time>
      </trkpt>
      <trkpt lat="45.81814" lon="6.25274">
        <ele>1462.1</ele>
        <time>2013-05-26T09:43:31.500Z</time>
      </trkpt>
      <trkpt lat="45.81824" lon="6.25275">
        <ele>1454.6</ele>
        <time>2013-05-26T09:43:35.500Z</time>
      </trkpt>
      <trkpt lat="45.81826" lon="6.25276">
        <ele>1454</ele>
        <time>2013-05-26T09:43:36.500Z</time>
      </trkpt>
      <trkpt lat="45.81843" lon="6.25285">
        <ele>1456.1</ele>
        <time>2013-05-26T09:43:40.600Z</time>
      </trkpt>
      <trkpt lat="45.81858" lon="6.25288">
        <ele>1456.9</ele>
        <time>2013-05-26T09:43:45.500Z</time>
      </trkpt>
      <trkpt lat="45.81879" lon="6.25296">
        <ele>1465.1</ele>
        <time>2013-05-26T09:43:50.600Z</time>
      </trkpt>
      <trkpt lat="45.81883" lon="6.25298">
        <ele>1466.1</ele>
        <time>2013-05-26T09:43:52.600Z</time>
      </trkpt>
      <trkpt lat="45.81896" lon="6.25305">
        <ele>1471.3</ele>
        <time>2013-05-26T09:43:57.600Z</time>
      </trkpt>
      <trkpt lat="45.81902" lon="6.25305">
        <ele>1466.8</ele>
        <time>2013-05-26T09:44:01.600Z</time>
      </trkpt>
      <trkpt lat="45.8191" lon="6.2531">
        <ele>1464.7</ele>
        <time>2013-05-26T09:44:06.600Z</time>
      </trkpt>
      <trkpt lat="45.81916" lon="6.25321">
        <ele>1474.2</ele>
        <time>2013-05-26T09:44:11.600Z</time>
      </trkpt>
      <trkpt lat="45.81924" lon="6.25328">
        <ele>1474.2</ele>
        <time>2013-05-26T09:44:15.600Z</time>
      </trkpt>
      <trkpt lat="45.81927" lon="6.25329">
        <ele>1473.1</ele>
        <time>2013-05-26T09:44:16.600Z</time>
      </trkpt>
      <trkpt lat="45.81929" lon="6.2533">
        <ele>1470.2</ele>
        <time>2013-05-26T09:44:17.700Z</time>
      </trkpt>
      <trkpt lat="45.81937" lon="6.25336">
        <ele>1461.7</ele>
        <time>2013-05-26T09:44:21.600Z</time>
      </trkpt>
      <trkpt lat="45.81939" lon="6.25337">
        <ele>1462.3</ele>
        <time>2013-05-26T09:44:22.600Z</time>
      </trkpt>
      <trkpt lat="45.81943" lon="6.25339">
        <ele>1457.1</ele>
        <time>2013-05-26T09:44:24.600Z</time>
      </trkpt>
      <trkpt lat="45.81946" lon="6.2534">
        <ele>1455</ele>
        <time>2013-05-26T09:44:25.600Z</time>
      </trkpt>
      <trkpt lat="45.81949" lon="6.2534">
        <ele>1453.5</ele>
        <time>2013-05-26T09:44:26.600Z</time>
      </trkpt>
      <trkpt lat="45.81961" lon="6.25346">
        <ele>1451.9</ele>
        <time>2013-05-26T09:44:31.600Z</time>
      </trkpt>
      <trkpt lat="45.81962" lon="6.25349">
        <ele>1440.1</ele>
        <time>2013-05-26T09:44:35.600Z</time>
      </trkpt>
      <trkpt lat="45.81961" lon="6.25352">
        <ele>1445.9</ele>
        <time>2013-05-26T09:44:37.600Z</time>
      </trkpt>
      <trkpt lat="45.81964" lon="6.25353">
        <ele>1445.2</ele>
        <time>2013-05-26T09:44:40.600Z</time>
      </trkpt>
      <trkpt lat="45.81982" lon="6.2536">
        <ele>1445.8</ele>
        <time>2013-05-26T09:44:48.600Z</time>
      </trkpt>
      <trkpt lat="45.81984" lon="6.25359">
        <ele>1447.9</ele>
        <time>2013-05-26T09:44:49.600Z</time>
      </trkpt>
      <trkpt lat="45.81987" lon="6.25358">
        <ele>1449</ele>
        <time>2013-05-26T09:44:51.600Z</time>
      </trkpt>
      <trkpt lat="45.81989" lon="6.25359">
        <ele>1450.4</ele>
        <time>2013-05-26T09:44:52.600Z</time>
      </trkpt>
      <trkpt lat="45.81997" lon="6.25363">
        <ele>1431.8</ele>
        <time>2013-05-26T09:44:58.600Z</time>
      </trkpt>
      <trkpt lat="45.81998" lon="6.25363">
        <ele>1429.6</ele>
        <time>2013-05-26T09:44:59.600Z</time>
      </trkpt>
      <trkpt lat="45.82" lon="6.25363">
        <ele>1433.2</ele>
        <time>2013-05-26T09:45:00.600Z</time>
      </trkpt>
      <trkpt lat="45.82002" lon="6.25364">
        <ele>1429.9</ele>
        <time>2013-05-26T09:45:01.600Z</time>
      </trkpt>
      <trkpt lat="45.82007" lon="6.25363">
        <ele>1431</ele>
        <time>2013-05-26T09:45:04.600Z</time>
      </trkpt>
      <trkpt lat="45.82025" lon="6.25367">
        <ele>1433.9</ele>
        <time>2013-05-26T09:45:09.600Z</time>
      </trkpt>
      <trkpt lat="45.82036" lon="6.25377">
        <ele>1430.2</ele>
        <time>2013-05-26T09:45:13.600Z</time>
      </trkpt>
      <trkpt lat="45.82039" lon="6.25379">
        <ele>1428.6</ele>
        <time>2013-05-26T09:45:14.500Z</time>
      </trkpt>
      <trkpt lat="45.8204" lon="6.25381">
        <ele>1431.2</ele>
        <time>2013-05-26T09:45:15.500Z</time>
      </trkpt>
      <trkpt lat="45.82042" lon="6.25384">
        <ele>1435.1</ele>
        <time>2013-05-26T09:45:16.600Z</time>
      </trkpt>
      <trkpt lat="45.8205" lon="6.25391">
        <ele>1437.8</ele>
        <time>2013-05-26T09:45:19.600Z</time>
      </trkpt>
      <trkpt lat="45.82051" lon="6.25392">
        <ele>1440</ele>
        <time>2013-05-26T09:45:20.600Z</time>
      </trkpt>
      <trkpt lat="45.82053" lon="6.25395">
        <ele>1439</ele>
        <time>2013-05-26T09:45:21.600Z</time>
      </trkpt>
      <trkpt lat="45.82055" lon="6.25396">
        <ele>1445.4</ele>
        <time>2013-05-26T09:45:22.600Z</time>
      </trkpt>
      <trkpt lat="45.82063" lon="6.25405">
        <ele>1442.8</ele>
        <time>2013-05-26T09:45:26.600Z</time>
      </trkpt>
      <trkpt lat="45.82076" lon="6.25411">
        <ele>1443.6</ele>
        <time>2013-05-26T09:45:30.600Z</time>
      </trkpt>
      <trkpt lat="45.82084" lon="6.25413">
        <ele>1444.6</ele>
        <time>2013-05-26T09:45:34.600Z</time>
      </trkpt>
      <trkpt lat="45.82087" lon="6.25413">
        <ele>1441.7</ele>
        <time>2013-05-26T09:45:38.600Z</time>
      </trkpt>
      <trkpt lat="45.82094" lon="6.25413">
        <ele>1438.4</ele>
        <time>2013-05-26T09:45:42.600Z</time>
      </trkpt>
      <trkpt lat="45.821" lon="6.25413">
        <ele>1443.7</ele>
        <time>2013-05-26T09:45:46.600Z</time>
      </trkpt>
      <trkpt lat="45.821" lon="6.25413">
        <ele>1452.4</ele>
        <time>2013-05-26T09:45:51.600Z</time>
      </trkpt>
      <trkpt lat="45.82107" lon="6.25414">
        <ele>1446.8</ele>
        <time>2013-05-26T09:45:56.600Z</time>
      </trkpt>
      <trkpt lat="45.82108" lon="6.25414">
        <ele>1442.9</ele>
        <time>2013-05-26T09:46:00.600Z</time>
      </trkpt>
      <trkpt lat="45.82109" lon="6.25415">
        <ele>1434.3</ele>
        <time>2013-05-26T09:46:06.600Z</time>
      </trkpt>
      <trkpt lat="45.82112" lon="6.25416">
        <ele>1433.8</ele>
        <time>2013-05-26T09:46:11.600Z</time>
      </trkpt>
      <trkpt lat="45.82113" lon="6.25416">
        <ele>1431.4</ele>
        <time>2013-05-26T09:46:12.600Z</time>
      </trkpt>
      <trkpt lat="45.82114" lon="6.25417">
        <ele>1433.1</ele>
        <time>2013-05-26T09:46:17.500Z</time>
      </trkpt>
      <trkpt lat="45.82115" lon="6.25417">
        <ele>1434.5</ele>
        <time>2013-05-26T09:46:21.600Z</time>
      </trkpt>
      <trkpt lat="45.82125" lon="6.25416">
        <ele>1441.9</ele>
        <time>2013-05-26T09:46:26.600Z</time>
      </trkpt>
      <trkpt lat="45.82125" lon="6.25416">
        <ele>1438</ele>
        <time>2013-05-26T09:46:31.600Z</time>
      </trkpt>
      <trkpt lat="45.82127" lon="6.25415">
        <ele>1441.2</ele>
        <time>2013-05-26T09:46:35.600Z</time>
      </trkpt>
      <trkpt lat="45.82129" lon="6.25416">
        <ele>1436.8</ele>
        <time>2013-05-26T09:46:37.600Z</time>
      </trkpt>
      <trkpt lat="45.82131" lon="6.25417">
        <ele>1436.2</ele>
        <time>2013-05-26T09:46:38.600Z</time>
      </trkpt>
      <trkpt lat="45.82132" lon="6.25417">
        <ele>1441.6</ele>
        <time>2013-05-26T09:46:39.600Z</time>
      </trkpt>
      <trkpt lat="45.82133" lon="6.25416">
        <ele>1440.1</ele>
        <time>2013-05-26T09:46:40.600Z</time>
      </trkpt>
      <trkpt lat="45.82135" lon="6.25416">
        <ele>1443.1</ele>
        <time>2013-05-26T09:46:41.600Z</time>
      </trkpt>
      <trkpt lat="45.82142" lon="6.25417">
        <ele>1437</ele>
        <time>2013-05-26T09:46:45.600Z</time>
      </trkpt>
      <trkpt lat="45.82152" lon="6.2542">
        <ele>1433.7</ele>
        <time>2013-05-26T09:46:49.600Z</time>
      </trkpt>
      <trkpt lat="45.82155" lon="6.25421">
        <ele>1431.5</ele>
        <time>2013-05-26T09:46:50.600Z</time>
      </trkpt>
      <trkpt lat="45.82158" lon="6.25422">
        <ele>1430.4</ele>
        <time>2013-05-26T09:46:51.600Z</time>
      </trkpt>
      <trkpt lat="45.82163" lon="6.25423">
        <ele>1432</ele>
        <time>2013-05-26T09:46:53.600Z</time>
      </trkpt>
      <trkpt lat="45.82169" lon="6.25424">
        <ele>1426.2</ele>
        <time>2013-05-26T09:46:55.600Z</time>
      </trkpt>
      <trkpt lat="45.82182" lon="6.25433">
        <ele>1419.2</ele>
        <time>2013-05-26T09:47:00.600Z</time>
      </trkpt>
      <trkpt lat="45.82183" lon="6.25436">
        <ele>1419.4</ele>
        <time>2013-05-26T09:47:01.600Z</time>
      </trkpt>
      <trkpt lat="45.82186" lon="6.2544">
        <ele>1418.4</ele>
        <time>2013-05-26T09:47:03.600Z</time>
      </trkpt>
      <trkpt lat="45.82188" lon="6.25443">
        <ele>1419.3</ele>
        <time>2013-05-26T09:47:04.600Z</time>
      </trkpt>
      <trkpt lat="45.82192" lon="6.25449">
        <ele>1422.9</ele>
        <time>2013-05-26T09:47:06.600Z</time>
      </trkpt>
      <trkpt lat="45.82193" lon="6.25452">
        <ele>1422.1</ele>
        <time>2013-05-26T09:47:07.600Z</time>
      </trkpt>
      <trkpt lat="45.82197" lon="6.25451">
        <ele>1427.8</ele>
        <time>2013-05-26T09:47:11.600Z</time>
      </trkpt>
      <trkpt lat="45.82211" lon="6.25465">
        <ele>1424.6</ele>
        <time>2013-05-26T09:47:16.600Z</time>
      </trkpt>
      <trkpt lat="45.82219" lon="6.25478">
        <ele>1419.4</ele>
        <time>2013-05-26T09:47:21.600Z</time>
      </trkpt>
      <trkpt lat="45.82221" lon="6.25481">
        <ele>1416.3</ele>
        <time>2013-05-26T09:47:23.600Z</time>
      </trkpt>
      <trkpt lat="45.82224" lon="6.25485">
        <ele>1416.3</ele>
        <time>2013-05-26T09:47:27.600Z</time>
      </trkpt>
      <trkpt lat="45.82226" lon="6.25487">
        <ele>1419.6</ele>
        <time>2013-05-26T09:47:29.600Z</time>
      </trkpt>
      <trkpt lat="45.82227" lon="6.25488">
        <ele>1425</ele>
        <time>2013-05-26T09:47:30.600Z</time>
      </trkpt>
      <trkpt lat="45.82228" lon="6.25489">
        <ele>1423.1</ele>
        <time>2013-05-26T09:47:31.600Z</time>
      </trkpt>
      <trkpt lat="45.82239" lon="6.25499">
        <ele>1422.7</ele>
        <time>2013-05-26T09:47:36.600Z</time>
      </trkpt>
      <trkpt lat="45.8224" lon="6.255">
        <ele>1422.3</ele>
        <time>2013-05-26T09:47:37.600Z</time>
      </trkpt>
      <trkpt lat="45.82242" lon="6.25502">
        <ele>1420.7</ele>
        <time>2013-05-26T09:47:38.600Z</time>
      </trkpt>
      <trkpt lat="45.82244" lon="6.25504">
        <ele>1421.2</ele>
        <time>2013-05-26T09:47:39.600Z</time>
      </trkpt>
      <trkpt lat="45.82247" lon="6.25509">
        <ele>1423.8</ele>
        <time>2013-05-26T09:47:41.600Z</time>
      </trkpt>
      <trkpt lat="45.82252" lon="6.25512">
        <ele>1424</ele>
        <time>2013-05-26T09:47:43.600Z</time>
      </trkpt>
      <trkpt lat="45.82254" lon="6.25514">
        <ele>1423.6</ele>
        <time>2013-05-26T09:47:44.600Z</time>
      </trkpt>
      <trkpt lat="45.82255" lon="6.25516">
        <ele>1424.3</ele>
        <time>2013-05-26T09:47:45.600Z</time>
      </trkpt>
      <trkpt lat="45.82258" lon="6.25518">
        <ele>1424.2</ele>
        <time>2013-05-26T09:47:46.600Z</time>
      </trkpt>
      <trkpt lat="45.82261" lon="6.25522">
        <ele>1421.3</ele>
        <time>2013-05-26T09:47:48.600Z</time>
      </trkpt>
      <trkpt lat="45.82263" lon="6.25524">
        <ele>1423.2</ele>
        <time>2013-05-26T09:47:49.600Z</time>
      </trkpt>
      <trkpt lat="45.82273" lon="6.25533">
        <ele>1420.2</ele>
        <time>2013-05-26T09:47:53.600Z</time>
      </trkpt>
      <trkpt lat="45.82276" lon="6.25538">
        <ele>1418.4</ele>
        <time>2013-05-26T09:47:55.700Z</time>
      </trkpt>
      <trkpt lat="45.8228" lon="6.25544">
        <ele>1420.7</ele>
        <time>2013-05-26T09:47:57.600Z</time>
      </trkpt>
      <trkpt lat="45.82287" lon="6.25559">
        <ele>1423.1</ele>
        <time>2013-05-26T09:48:01.600Z</time>
      </trkpt>
      <trkpt lat="45.82293" lon="6.25576">
        <ele>1437.3</ele>
        <time>2013-05-26T09:48:05.600Z</time>
      </trkpt>
      <trkpt lat="45.82293" lon="6.25583">
        <ele>1443.6</ele>
        <time>2013-05-26T09:48:07.600Z</time>
      </trkpt>
      <trkpt lat="45.82293" lon="6.25587">
        <ele>1448.7</ele>
        <time>2013-05-26T09:48:08.600Z</time>
      </trkpt>
      <trkpt lat="45.82294" lon="6.2559">
        <ele>1446.3</ele>
        <time>2013-05-26T09:48:09.500Z</time>
      </trkpt>
      <trkpt lat="45.82296" lon="6.25592">
        <ele>1444</ele>
        <time>2013-05-26T09:48:10.600Z</time>
      </trkpt>
      <trkpt lat="45.82297" lon="6.25594">
        <ele>1441.3</ele>
        <time>2013-05-26T09:48:11.600Z</time>
      </trkpt>
      <trkpt lat="45.82301" lon="6.25598">
        <ele>1434</ele>
        <time>2013-05-26T09:48:14.500Z</time>
      </trkpt>
      <trkpt lat="45.82302" lon="6.25601">
        <ele>1433</ele>
        <time>2013-05-26T09:48:15.600Z</time>
      </trkpt>
      <trkpt lat="45.82304" lon="6.25604">
        <ele>1430.9</ele>
        <time>2013-05-26T09:48:16.600Z</time>
      </trkpt>
      <trkpt lat="45.82308" lon="6.25609">
        <ele>1436.1</ele>
        <time>2013-05-26T09:48:20.600Z</time>
      </trkpt>
      <trkpt lat="45.82311" lon="6.25613">
        <ele>1432.9</ele>
        <time>2013-05-26T09:48:22.600Z</time>
      </trkpt>
      <trkpt lat="45.82312" lon="6.25615">
        <ele>1430.2</ele>
        <time>2013-05-26T09:48:23.600Z</time>
      </trkpt>
      <trkpt lat="45.82315" lon="6.25619">
        <ele>1429.2</ele>
        <time>2013-05-26T09:48:27.600Z</time>
      </trkpt>
      <trkpt lat="45.82319" lon="6.25621">
        <ele>1428.1</ele>
        <time>2013-05-26T09:48:31.600Z</time>
      </trkpt>
      <trkpt lat="45.82324" lon="6.25626">
        <ele>1426.9</ele>
        <time>2013-05-26T09:48:36.600Z</time>
      </trkpt>
      <trkpt lat="45.82327" lon="6.2563">
        <ele>1427.1</ele>
        <time>2013-05-26T09:48:38.600Z</time>
      </trkpt>
      <trkpt lat="45.82329" lon="6.2563">
        <ele>1424.6</ele>
        <time>2013-05-26T09:48:40.600Z</time>
      </trkpt>
      <trkpt lat="45.8233" lon="6.2563">
        <ele>1424.7</ele>
        <time>2013-05-26T09:48:41.600Z</time>
      </trkpt>
      <trkpt lat="45.82344" lon="6.25635">
        <ele>1418.9</ele>
        <time>2013-05-26T09:48:46.600Z</time>
      </trkpt>
      <trkpt lat="45.82355" lon="6.25647">
        <ele>1416.2</ele>
        <time>2013-05-26T09:48:51.600Z</time>
      </trkpt>
      <trkpt lat="45.82357" lon="6.2565">
        <ele>1415.7</ele>
        <time>2013-05-26T09:48:52.600Z</time>
      </trkpt>
      <trkpt lat="45.82358" lon="6.25653">
        <ele>1414.8</ele>
        <time>2013-05-26T09:48:53.600Z</time>
      </trkpt>
      <trkpt lat="45.8236" lon="6.25655">
        <ele>1413.2</ele>
        <time>2013-05-26T09:48:54.600Z</time>
      </trkpt>
      <trkpt lat="45.82364" lon="6.25659">
        <ele>1415.4</ele>
        <time>2013-05-26T09:48:56.600Z</time>
      </trkpt>
      <trkpt lat="45.82366" lon="6.25661">
        <ele>1413.3</ele>
        <time>2013-05-26T09:48:57.600Z</time>
      </trkpt>
      <trkpt lat="45.82368" lon="6.25662">
        <ele>1412.8</ele>
        <time>2013-05-26T09:48:58.600Z</time>
      </trkpt>
      <trkpt lat="45.82376" lon="6.25668">
        <ele>1424.3</ele>
        <time>2013-05-26T09:49:02.600Z</time>
      </trkpt>
      <trkpt lat="45.8238" lon="6.25672">
        <ele>1423.9</ele>
        <time>2013-05-26T09:49:04.600Z</time>
      </trkpt>
      <trkpt lat="45.82381" lon="6.25672">
        <ele>1425.9</ele>
        <time>2013-05-26T09:49:05.600Z</time>
      </trkpt>
      <trkpt lat="45.82385" lon="6.25671">
        <ele>1424.8</ele>
        <time>2013-05-26T09:49:07.600Z</time>
      </trkpt>
      <trkpt lat="45.82397" lon="6.25679">
        <ele>1424.7</ele>
        <time>2013-05-26T09:49:12.600Z</time>
      </trkpt>
      <trkpt lat="45.82408" lon="6.25692">
        <ele>1418</ele>
        <time>2013-05-26T09:49:16.600Z</time>
      </trkpt>
      <trkpt lat="45.8241" lon="6.25695">
        <ele>1418.8</ele>
        <time>2013-05-26T09:49:17.600Z</time>
      </trkpt>
      <trkpt lat="45.82414" lon="6.25701">
        <ele>1419</ele>
        <time>2013-05-26T09:49:19.600Z</time>
      </trkpt>
      <trkpt lat="45.8242" lon="6.257">
        <ele>1411.8</ele>
        <time>2013-05-26T09:49:23.600Z</time>
      </trkpt>
      <trkpt lat="45.82424" lon="6.25702">
        <ele>1415</ele>
        <time>2013-05-26T09:49:26.600Z</time>
      </trkpt>
      <trkpt lat="45.82425" lon="6.25705">
        <ele>1413.2</ele>
        <time>2013-05-26T09:49:29.600Z</time>
      </trkpt>
      <trkpt lat="45.82437" lon="6.25717">
        <ele>1411.5</ele>
        <time>2013-05-26T09:49:34.600Z</time>
      </trkpt>
      <trkpt lat="45.82438" lon="6.25718">
        <ele>1411.1</ele>
        <time>2013-05-26T09:49:35.600Z</time>
      </trkpt>
      <trkpt lat="45.82439" lon="6.25719">
        <ele>1411.6</ele>
        <time>2013-05-26T09:49:36.600Z</time>
      </trkpt>
      <trkpt lat="45.82443" lon="6.25721">
        <ele>1414.2</ele>
        <time>2013-05-26T09:49:41.600Z</time>
      </trkpt>
      <trkpt lat="45.82452" lon="6.25729">
        <ele>1416.1</ele>
        <time>2013-05-26T09:49:46.600Z</time>
      </trkpt>
      <trkpt lat="45.82454" lon="6.25731">
        <ele>1422.9</ele>
        <time>2013-05-26T09:49:48.600Z</time>
      </trkpt>
      <trkpt lat="45.82456" lon="6.25731">
        <ele>1419.3</ele>
        <time>2013-05-26T09:49:49.600Z</time>
      </trkpt>
      <trkpt lat="45.8246" lon="6.25731">
        <ele>1429</ele>
        <time>2013-05-26T09:49:53.600Z</time>
      </trkpt>
      <trkpt lat="45.8246" lon="6.25731">
        <ele>1429.7</ele>
        <time>2013-05-26T09:49:58.500Z</time>
      </trkpt>
      <trkpt lat="45.82465" lon="6.25731">
        <ele>1432.4</ele>
        <time>2013-05-26T09:50:02.600Z</time>
      </trkpt>
      <trkpt lat="45.82472" lon="6.25736">
        <ele>1421.9</ele>
        <time>2013-05-26T09:50:07.600Z</time>
      </trkpt>
      <trkpt lat="45.82473" lon="6.25737">
        <ele>1423.5</ele>
        <time>2013-05-26T09:50:08.600Z</time>
      </trkpt>
      <trkpt lat="45.82476" lon="6.25739">
        <ele>1423.8</ele>
        <time>2013-05-26T09:50:10.600Z</time>
      </trkpt>
      <trkpt lat="45.82477" lon="6.2574">
        <ele>1421.9</ele>
        <time>2013-05-26T09:50:11.600Z</time>
      </trkpt>
      <trkpt lat="45.8248" lon="6.25743">
        <ele>1415.8</ele>
        <time>2013-05-26T09:50:14.600Z</time>
      </trkpt>
      <trkpt lat="45.82482" lon="6.25744">
        <ele>1418.1</ele>
        <time>2013-05-26T09:50:18.600Z</time>
      </trkpt>
      <trkpt lat="45.82484" lon="6.25745">
        <ele>1416.8</ele>
        <time>2013-05-26T09:50:20.600Z</time>
      </trkpt>
      <trkpt lat="45.8249" lon="6.25748">
        <ele>1415.3</ele>
        <time>2013-05-26T09:50:24.600Z</time>
      </trkpt>
      <trkpt lat="45.82491" lon="6.25748">
        <ele>1412.9</ele>
        <time>2013-05-26T09:50:25.600Z</time>
      </trkpt>
      <trkpt lat="45.82493" lon="6.25749">
        <ele>1409.7</ele>
        <time>2013-05-26T09:50:26.600Z</time>
      </trkpt>
      <trkpt lat="45.82494" lon="6.25751">
        <ele>1409.6</ele>
        <time>2013-05-26T09:50:27.500Z</time>
      </trkpt>
      <trkpt lat="45.82495" lon="6.25753">
        <ele>1407.5</ele>
        <time>2013-05-26T09:50:28.500Z</time>
      </trkpt>
      <trkpt lat="45.82496" lon="6.25754">
        <ele>1404.5</ele>
        <time>2013-05-26T09:50:29.600Z</time>
      </trkpt>
      <trkpt lat="45.82498" lon="6.25755">
        <ele>1401.8</ele>
        <time>2013-05-26T09:50:30.500Z</time>
      </trkpt>
      <trkpt lat="45.825" lon="6.25756">
        <ele>1400.8</ele>
        <time>2013-05-26T09:50:32.600Z</time>
      </trkpt>
      <trkpt lat="45.82501" lon="6.25755">
        <ele>1399</ele>
        <time>2013-05-26T09:50:33.600Z</time>
      </trkpt>
      <trkpt lat="45.82504" lon="6.25754">
        <ele>1395.1</ele>
        <time>2013-05-26T09:50:37.600Z</time>
      </trkpt>
      <trkpt lat="45.82505" lon="6.25754">
        <ele>1392.1</ele>
        <time>2013-05-26T09:50:41.600Z</time>
      </trkpt>
      <trkpt lat="45.82509" lon="6.25752">
        <ele>1397.9</ele>
        <time>2013-05-26T09:50:45.600Z</time>
      </trkpt>
      <trkpt lat="45.8251" lon="6.25751">
        <ele>1393.8</ele>
        <time>2013-05-26T09:50:46.600Z</time>
      </trkpt>
      <trkpt lat="45.82523" lon="6.25747">
        <ele>1396.3</ele>
        <time>2013-05-26T09:50:52.600Z</time>
      </trkpt>
      <trkpt lat="45.82532" lon="6.25744">
        <ele>1387.8</ele>
        <time>2013-05-26T09:50:56.600Z</time>
      </trkpt>
      <trkpt lat="45.82551" lon="6.25749">
        <ele>1396.1</ele>
        <time>2013-05-26T09:51:01.600Z</time>
      </trkpt>
      <trkpt lat="45.82553" lon="6.2575">
        <ele>1393.5</ele>
        <time>2013-05-26T09:51:02.600Z</time>
      </trkpt>
      <trkpt lat="45.82565" lon="6.25755">
        <ele>1406.8</ele>
        <time>2013-05-26T09:51:06.600Z</time>
      </trkpt>
      <trkpt lat="45.82566" lon="6.25756">
        <ele>1412.6</ele>
        <time>2013-05-26T09:51:07.600Z</time>
      </trkpt>
      <trkpt lat="45.82569" lon="6.25757">
        <ele>1409.9</ele>
        <time>2013-05-26T09:51:09.500Z</time>
      </trkpt>
      <trkpt lat="45.82572" lon="6.25758">
        <ele>1415</ele>
        <time>2013-05-26T09:51:11.600Z</time>
      </trkpt>
      <trkpt lat="45.82573" lon="6.25759">
        <ele>1414.8</ele>
        <time>2013-05-26T09:51:12.600Z</time>
      </trkpt>
      <trkpt lat="45.82575" lon="6.2576">
        <ele>1414.6</ele>
        <time>2013-05-26T09:51:13.600Z</time>
      </trkpt>
      <trkpt lat="45.82577" lon="6.25762">
        <ele>1412</ele>
        <time>2013-05-26T09:51:15.600Z</time>
      </trkpt>
      <trkpt lat="45.82579" lon="6.25763">
        <ele>1411.4</ele>
        <time>2013-05-26T09:51:19.600Z</time>
      </trkpt>
      <trkpt lat="45.8258" lon="6.25764">
        <ele>1415.3</ele>
        <time>2013-05-26T09:51:24.600Z</time>
      </trkpt>
      <trkpt lat="45.82581" lon="6.25764">
        <ele>1417.9</ele>
        <time>2013-05-26T09:51:25.600Z</time>
      </trkpt>
      <trkpt lat="45.82583" lon="6.25764">
        <ele>1419.7</ele>
        <time>2013-05-26T09:51:27.600Z</time>
      </trkpt>
      <trkpt lat="45.82586" lon="6.25764">
        <ele>1426.3</ele>
        <time>2013-05-26T09:51:31.600Z</time>
      </trkpt>
      <trkpt lat="45.82586" lon="6.25764">
        <ele>1434.2</ele>
        <time>2013-05-26T09:51:36.600Z</time>
      </trkpt>
      <trkpt lat="45.82586" lon="6.25764">
        <ele>1433.3</ele>
        <time>2013-05-26T09:51:40.600Z</time>
      </trkpt>
      <trkpt lat="45.82589" lon="6.25766">
        <ele>1441.3</ele>
        <time>2013-05-26T09:51:45.600Z</time>
      </trkpt>
      <trkpt lat="45.82593" lon="6.25768">
        <ele>1440.4</ele>
        <time>2013-05-26T09:51:50.600Z</time>
      </trkpt>
      <trkpt lat="45.82602" lon="6.25769">
        <ele>1437.1</ele>
        <time>2013-05-26T09:51:55.600Z</time>
      </trkpt>
      <trkpt lat="45.82603" lon="6.2577">
        <ele>1436.3</ele>
        <time>2013-05-26T09:51:56.600Z</time>
      </trkpt>
      <trkpt lat="45.82612" lon="6.25775">
        <ele>1434.3</ele>
        <time>2013-05-26T09:52:01.600Z</time>
      </trkpt>
      <trkpt lat="45.82615" lon="6.25778">
        <ele>1433.7</ele>
        <time>2013-05-26T09:52:04.600Z</time>
      </trkpt>
      <trkpt lat="45.82617" lon="6.25778">
        <ele>1433.2</ele>
        <time>2013-05-26T09:52:05.600Z</time>
      </trkpt>
      <trkpt lat="45.82619" lon="6.25778">
        <ele>1430.5</ele>
        <time>2013-05-26T09:52:06.600Z</time>
      </trkpt>
      <trkpt lat="45.82626" lon="6.25779">
        <ele>1426.8</ele>
        <time>2013-05-26T09:52:09.600Z</time>
      </trkpt>
      <trkpt lat="45.82627" lon="6.2578">
        <ele>1430.9</ele>
        <time>2013-05-26T09:52:10.600Z</time>
      </trkpt>
      <trkpt lat="45.82634" lon="6.25786">
        <ele>1434.7</ele>
        <time>2013-05-26T09:52:13.600Z</time>
      </trkpt>
      <trkpt lat="45.82639" lon="6.2579">
        <ele>1434.2</ele>
        <time>2013-05-26T09:52:18.600Z</time>
      </trkpt>
      <trkpt lat="45.8264" lon="6.25791">
        <ele>1437.2</ele>
        <time>2013-05-26T09:52:19.600Z</time>
      </trkpt>
      <trkpt lat="45.82642" lon="6.25792">
        <ele>1434</ele>
        <time>2013-05-26T09:52:20.600Z</time>
      </trkpt>
      <trkpt lat="45.82643" lon="6.25793">
        <ele>1435.9</ele>
        <time>2013-05-26T09:52:21.600Z</time>
      </trkpt>
      <trkpt lat="45.82645" lon="6.25796">
        <ele>1433.3</ele>
        <time>2013-05-26T09:52:23.600Z</time>
      </trkpt>
      <trkpt lat="45.82646" lon="6.25796">
        <ele>1430.5</ele>
        <time>2013-05-26T09:52:24.600Z</time>
      </trkpt>
      <trkpt lat="45.82647" lon="6.25797">
        <ele>1429.2</ele>
        <time>2013-05-26T09:52:25.600Z</time>
      </trkpt>
      <trkpt lat="45.82649" lon="6.25801">
        <ele>1436.2</ele>
        <time>2013-05-26T09:52:30.600Z</time>
      </trkpt>
      <trkpt lat="45.8265" lon="6.25802">
        <ele>1435.7</ele>
        <time>2013-05-26T09:52:31.600Z</time>
      </trkpt>
      <trkpt lat="45.82651" lon="6.25802">
        <ele>1431.3</ele>
        <time>2013-05-26T09:52:32.500Z</time>
      </trkpt>
      <trkpt lat="45.82653" lon="6.25802">
        <ele>1434.8</ele>
        <time>2013-05-26T09:52:35.600Z</time>
      </trkpt>
      <trkpt lat="45.82655" lon="6.25801">
        <ele>1441.9</ele>
        <time>2013-05-26T09:52:40.600Z</time>
      </trkpt>
      <trkpt lat="45.82661" lon="6.25801">
        <ele>1435.6</ele>
        <time>2013-05-26T09:52:44.600Z</time>
      </trkpt>
      <trkpt lat="45.82676" lon="6.25812">
        <ele>1440.2</ele>
        <time>2013-05-26T09:52:51.600Z</time>
      </trkpt>
      <trkpt lat="45.82679" lon="6.25815">
        <ele>1440.2</ele>
        <time>2013-05-26T09:52:56.600Z</time>
      </trkpt>
      <trkpt lat="45.8268" lon="6.25816">
        <ele>1439.4</ele>
        <time>2013-05-26T09:52:57.600Z</time>
      </trkpt>
      <trkpt lat="45.82689" lon="6.25823">
        <ele>1438.9</ele>
        <time>2013-05-26T09:53:01.600Z</time>
      </trkpt>
      <trkpt lat="45.8269" lon="6.25824">
        <ele>1443.9</ele>
        <time>2013-05-26T09:53:02.600Z</time>
      </trkpt>
      <trkpt lat="45.82696" lon="6.25832">
        <ele>1439.3</ele>
        <time>2013-05-26T09:53:06.600Z</time>
      </trkpt>
      <trkpt lat="45.82698" lon="6.25833">
        <ele>1438</ele>
        <time>2013-05-26T09:53:07.600Z</time>
      </trkpt>
      <trkpt lat="45.82699" lon="6.25835">
        <ele>1434.5</ele>
        <time>2013-05-26T09:53:08.500Z</time>
      </trkpt>
      <trkpt lat="45.82699" lon="6.25837">
        <ele>1435.8</ele>
        <time>2013-05-26T09:53:09.600Z</time>
      </trkpt>
      <trkpt lat="45.82702" lon="6.25841">
        <ele>1436.7</ele>
        <time>2013-05-26T09:53:11.600Z</time>
      </trkpt>
      <trkpt lat="45.82709" lon="6.25849">
        <ele>1435.6</ele>
        <time>2013-05-26T09:53:15.600Z</time>
      </trkpt>
      <trkpt lat="45.8271" lon="6.25851">
        <ele>1436.9</ele>
        <time>2013-05-26T09:53:16.600Z</time>
      </trkpt>
      <trkpt lat="45.82713" lon="6.25854">
        <ele>1429.3</ele>
        <time>2013-05-26T09:53:18.600Z</time>
      </trkpt>
      <trkpt lat="45.82722" lon="6.25867">
        <ele>1437.7</ele>
        <time>2013-05-26T09:53:23.600Z</time>
      </trkpt>
      <trkpt lat="45.82726" lon="6.25873">
        <ele>1434.6</ele>
        <time>2013-05-26T09:53:25.600Z</time>
      </trkpt>
      <trkpt lat="45.82729" lon="6.25877">
        <ele>1432.9</ele>
        <time>2013-05-26T09:53:27.600Z</time>
      </trkpt>
      <trkpt lat="45.82731" lon="6.2588">
        <ele>1433.2</ele>
        <time>2013-05-26T09:53:28.600Z</time>
      </trkpt>
      <trkpt lat="45.82733" lon="6.25883">
        <ele>1436.8</ele>
        <time>2013-05-26T09:53:29.600Z</time>
      </trkpt>
      <trkpt lat="45.82734" lon="6.25885">
        <ele>1434.7</ele>
        <time>2013-05-26T09:53:30.600Z</time>
      </trkpt>
      <trkpt lat="45.82736" lon="6.25887">
        <ele>1435.2</ele>
        <time>2013-05-26T09:53:31.600Z</time>
      </trkpt>
      <trkpt lat="45.82738" lon="6.25889">
        <ele>1437.3</ele>
        <time>2013-05-26T09:53:32.600Z</time>
      </trkpt>
      <trkpt lat="45.82739" lon="6.25891">
        <ele>1434.3</ele>
        <time>2013-05-26T09:53:33.600Z</time>
      </trkpt>
      <trkpt lat="45.82742" lon="6.25894">
        <ele>1434</ele>
        <time>2013-05-26T09:53:37.600Z</time>
      </trkpt>
      <trkpt lat="45.82743" lon="6.25897">
        <ele>1435.9</ele>
        <time>2013-05-26T09:53:39.600Z</time>
      </trkpt>
      <trkpt lat="45.82743" lon="6.25898">
        <ele>1436.4</ele>
        <time>2013-05-26T09:53:40.600Z</time>
      </trkpt>
      <trkpt lat="45.82744" lon="6.25899">
        <ele>1438.4</ele>
        <time>2013-05-26T09:53:41.600Z</time>
      </trkpt>
      <trkpt lat="45.82745" lon="6.259">
        <ele>1435.1</ele>
        <time>2013-05-26T09:53:42.600Z</time>
      </trkpt>
      <trkpt lat="45.82748" lon="6.25903">
        <ele>1438.5</ele>
        <time>2013-05-26T09:53:44.600Z</time>
      </trkpt>
      <trkpt lat="45.82749" lon="6.25904">
        <ele>1435.3</ele>
        <time>2013-05-26T09:53:45.600Z</time>
      </trkpt>
      <trkpt lat="45.8275" lon="6.25906">
        <ele>1434.7</ele>
        <time>2013-05-26T09:53:46.600Z</time>
      </trkpt>
      <trkpt lat="45.82752" lon="6.25906">
        <ele>1438.1</ele>
        <time>2013-05-26T09:53:47.600Z</time>
      </trkpt>
      <trkpt lat="45.82753" lon="6.25907">
        <ele>1439</ele>
        <time>2013-05-26T09:53:48.600Z</time>
      </trkpt>
      <trkpt lat="45.82754" lon="6.25908">
        <ele>1440.7</ele>
        <time>2013-05-26T09:53:49.600Z</time>
      </trkpt>
      <trkpt lat="45.82755" lon="6.25909">
        <ele>1436.2</ele>
        <time>2013-05-26T09:53:50.600Z</time>
      </trkpt>
      <trkpt lat="45.82756" lon="6.25909">
        <ele>1437.3</ele>
        <time>2013-05-26T09:53:51.600Z</time>
      </trkpt>
      <trkpt lat="45.82758" lon="6.25911">
        <ele>1437.4</ele>
        <time>2013-05-26T09:53:52.600Z</time>
      </trkpt>
      <trkpt lat="45.82759" lon="6.25913">
        <ele>1437.2</ele>
        <time>2013-05-26T09:53:53.600Z</time>
      </trkpt>
      <trkpt lat="45.8276" lon="6.25914">
        <ele>1438</ele>
        <time>2013-05-26T09:53:54.600Z</time>
      </trkpt>
      <trkpt lat="45.82765" lon="6.25916">
        <ele>1439.2</ele>
        <time>2013-05-26T09:53:58.600Z</time>
      </trkpt>
      <trkpt lat="45.82767" lon="6.25917">
        <ele>1436.9</ele>
        <time>2013-05-26T09:53:59.500Z</time>
      </trkpt>
      <trkpt lat="45.82769" lon="6.25919">
        <ele>1435.4</ele>
        <time>2013-05-26T09:54:03.600Z</time>
      </trkpt>
      <trkpt lat="45.82777" lon="6.2593">
        <ele>1433</ele>
        <time>2013-05-26T09:54:07.600Z</time>
      </trkpt>
      <trkpt lat="45.82783" lon="6.25949">
        <ele>1431.8</ele>
        <time>2013-05-26T09:54:11.600Z</time>
      </trkpt>
      <trkpt lat="45.82786" lon="6.25958">
        <ele>1424</ele>
        <time>2013-05-26T09:54:15.600Z</time>
      </trkpt>
      <trkpt lat="45.82787" lon="6.25961">
        <ele>1426.3</ele>
        <time>2013-05-26T09:54:16.600Z</time>
      </trkpt>
      <trkpt lat="45.82787" lon="6.25965">
        <ele>1424.8</ele>
        <time>2013-05-26T09:54:18.600Z</time>
      </trkpt>
      <trkpt lat="45.82791" lon="6.2598">
        <ele>1422.7</ele>
        <time>2013-05-26T09:54:22.600Z</time>
      </trkpt>
      <trkpt lat="45.82794" lon="6.25993">
        <ele>1425.3</ele>
        <time>2013-05-26T09:54:26.600Z</time>
      </trkpt>
      <trkpt lat="45.82795" lon="6.25997">
        <ele>1427.2</ele>
        <time>2013-05-26T09:54:27.600Z</time>
      </trkpt>
      <trkpt lat="45.82797" lon="6.26005">
        <ele>1425.6</ele>
        <time>2013-05-26T09:54:29.600Z</time>
      </trkpt>
      <trkpt lat="45.82798" lon="6.26008">
        <ele>1426.4</ele>
        <time>2013-05-26T09:54:30.600Z</time>
      </trkpt>
      <trkpt lat="45.82799" lon="6.26011">
        <ele>1424.8</ele>
        <time>2013-05-26T09:54:31.600Z</time>
      </trkpt>
      <trkpt lat="45.828" lon="6.26014">
        <ele>1426</ele>
        <time>2013-05-26T09:54:32.600Z</time>
      </trkpt>
      <trkpt lat="45.828" lon="6.26024">
        <ele>1428.9</ele>
        <time>2013-05-26T09:54:37.600Z</time>
      </trkpt>
      <trkpt lat="45.82801" lon="6.26026">
        <ele>1428.3</ele>
        <time>2013-05-26T09:54:38.600Z</time>
      </trkpt>
      <trkpt lat="45.82801" lon="6.2603">
        <ele>1426.7</ele>
        <time>2013-05-26T09:54:39.600Z</time>
      </trkpt>
      <trkpt lat="45.82801" lon="6.26032">
        <ele>1426.5</ele>
        <time>2013-05-26T09:54:40.600Z</time>
      </trkpt>
      <trkpt lat="45.82801" lon="6.26034">
        <ele>1425.1</ele>
        <time>2013-05-26T09:54:41.600Z</time>
      </trkpt>
      <trkpt lat="45.82801" lon="6.26038">
        <ele>1429.9</ele>
        <time>2013-05-26T09:54:42.600Z</time>
      </trkpt>
      <trkpt lat="45.82801" lon="6.2604">
        <ele>1428.7</ele>
        <time>2013-05-26T09:54:43.500Z</time>
      </trkpt>
      <trkpt lat="45.82803" lon="6.26048">
        <ele>1427.3</ele>
        <time>2013-05-26T09:54:47.600Z</time>
      </trkpt>
      <trkpt lat="45.82803" lon="6.26052">
        <ele>1425.1</ele>
        <time>2013-05-26T09:54:49.600Z</time>
      </trkpt>
      <trkpt lat="45.82804" lon="6.26067">
        <ele>1430</ele>
        <time>2013-05-26T09:54:54.600Z</time>
      </trkpt>
      <trkpt lat="45.82804" lon="6.2607">
        <ele>1432.1</ele>
        <time>2013-05-26T09:54:55.600Z</time>
      </trkpt>
      <trkpt lat="45.82804" lon="6.26073">
        <ele>1432.4</ele>
        <time>2013-05-26T09:54:56.600Z</time>
      </trkpt>
      <trkpt lat="45.82804" lon="6.26076">
        <ele>1433.1</ele>
        <time>2013-05-26T09:54:57.600Z</time>
      </trkpt>
      <trkpt lat="45.82804" lon="6.26078">
        <ele>1433</ele>
        <time>2013-05-26T09:54:58.600Z</time>
      </trkpt>
      <trkpt lat="45.82807" lon="6.26084">
        <ele>1429.2</ele>
        <time>2013-05-26T09:55:02.600Z</time>
      </trkpt>
      <trkpt lat="45.82808" lon="6.26088">
        <ele>1430.4</ele>
        <time>2013-05-26T09:55:03.600Z</time>
      </trkpt>
      <trkpt lat="45.82808" lon="6.26091">
        <ele>1429.1</ele>
        <time>2013-05-26T09:55:04.600Z</time>
      </trkpt>
      <trkpt lat="45.82809" lon="6.26094">
        <ele>1429.7</ele>
        <time>2013-05-26T09:55:05.600Z</time>
      </trkpt>
      <trkpt lat="45.82809" lon="6.26098">
        <ele>1429.6</ele>
        <time>2013-05-26T09:55:06.600Z</time>
      </trkpt>
      <trkpt lat="45.82809" lon="6.26101">
        <ele>1428</ele>
        <time>2013-05-26T09:55:07.600Z</time>
      </trkpt>
      <trkpt lat="45.82809" lon="6.26104">
        <ele>1427.8</ele>
        <time>2013-05-26T09:55:08.600Z</time>
      </trkpt>
      <trkpt lat="45.82809" lon="6.26106">
        <ele>1426.9</ele>
        <time>2013-05-26T09:55:09.600Z</time>
      </trkpt>
      <trkpt lat="45.82812" lon="6.26113">
        <ele>1432.3</ele>
        <time>2013-05-26T09:55:12.600Z</time>
      </trkpt>
      <trkpt lat="45.82813" lon="6.26115">
        <ele>1432.1</ele>
        <time>2013-05-26T09:55:13.600Z</time>
      </trkpt>
      <trkpt lat="45.82814" lon="6.26118">
        <ele>1432.8</ele>
        <time>2013-05-26T09:55:14.600Z</time>
      </trkpt>
      <trkpt lat="45.82816" lon="6.26121">
        <ele>1435.2</ele>
        <time>2013-05-26T09:55:15.600Z</time>
      </trkpt>
      <trkpt lat="45.82817" lon="6.26124">
        <ele>1435.3</ele>
        <time>2013-05-26T09:55:16.600Z</time>
      </trkpt>
      <trkpt lat="45.8282" lon="6.26129">
        <ele>1434.4</ele>
        <time>2013-05-26T09:55:18.600Z</time>
      </trkpt>
      <trkpt lat="45.82822" lon="6.26131">
        <ele>1434.7</ele>
        <time>2013-05-26T09:55:19.600Z</time>
      </trkpt>
      <trkpt lat="45.82824" lon="6.26134">
        <ele>1433.5</ele>
        <time>2013-05-26T09:55:20.600Z</time>
      </trkpt>
      <trkpt lat="45.82825" lon="6.26136">
        <ele>1430.1</ele>
        <time>2013-05-26T09:55:21.600Z</time>
      </trkpt>
      <trkpt lat="45.82829" lon="6.26143">
        <ele>1433</ele>
        <time>2013-05-26T09:55:25.600Z</time>
      </trkpt>
      <trkpt lat="45.8283" lon="6.26146">
        <ele>1432</ele>
        <time>2013-05-26T09:55:26.600Z</time>
      </trkpt>
      <trkpt lat="45.82831" lon="6.26149">
        <ele>1432.9</ele>
        <time>2013-05-26T09:55:27.600Z</time>
      </trkpt>
      <trkpt lat="45.82833" lon="6.26153">
        <ele>1434.6</ele>
        <time>2013-05-26T09:55:29.600Z</time>
      </trkpt>
      <trkpt lat="45.82834" lon="6.26156">
        <ele>1435.4</ele>
        <time>2013-05-26T09:55:30.600Z</time>
      </trkpt>
      <trkpt lat="45.82835" lon="6.26159">
        <ele>1434.8</ele>
        <time>2013-05-26T09:55:31.600Z</time>
      </trkpt>
      <trkpt lat="45.82836" lon="6.26162">
        <ele>1433.6</ele>
        <time>2013-05-26T09:55:32.600Z</time>
      </trkpt>
      <trkpt lat="45.82838" lon="6.26164">
        <ele>1431.8</ele>
        <time>2013-05-26T09:55:33.600Z</time>
      </trkpt>
      <trkpt lat="45.82839" lon="6.26166">
        <ele>1431.1</ele>
        <time>2013-05-26T09:55:34.600Z</time>
      </trkpt>
      <trkpt lat="45.8284" lon="6.26168">
        <ele>1434.5</ele>
        <time>2013-05-26T09:55:35.600Z</time>
      </trkpt>
      <trkpt lat="45.82841" lon="6.2617">
        <ele>1431.8</ele>
        <time>2013-05-26T09:55:36.600Z</time>
      </trkpt>
      <trkpt lat="45.82845" lon="6.26178">
        <ele>1434.2</ele>
        <time>2013-05-26T09:55:40.600Z</time>
      </trkpt>
      <trkpt lat="45.82846" lon="6.2618">
        <ele>1436.1</ele>
        <time>2013-05-26T09:55:41.600Z</time>
      </trkpt>
      <trkpt lat="45.82847" lon="6.26183">
        <ele>1436.9</ele>
        <time>2013-05-26T09:55:42.600Z</time>
      </trkpt>
      <trkpt lat="45.82849" lon="6.26185">
        <ele>1436.2</ele>
        <time>2013-05-26T09:55:43.600Z</time>
      </trkpt>
      <trkpt lat="45.8285" lon="6.26187">
        <ele>1436.4</ele>
        <time>2013-05-26T09:55:44.600Z</time>
      </trkpt>
      <trkpt lat="45.82851" lon="6.26189">
        <ele>1435.4</ele>
        <time>2013-05-26T09:55:45.600Z</time>
      </trkpt>
      <trkpt lat="45.82853" lon="6.26191">
        <ele>1434.4</ele>
        <time>2013-05-26T09:55:46.600Z</time>
      </trkpt>
      <trkpt lat="45.82854" lon="6.26194">
        <ele>1431.9</ele>
        <time>2013-05-26T09:55:47.600Z</time>
      </trkpt>
      <trkpt lat="45.82856" lon="6.26196">
        <ele>1433.5</ele>
        <time>2013-05-26T09:55:48.600Z</time>
      </trkpt>
      <trkpt lat="45.82857" lon="6.26199">
        <ele>1433.8</ele>
        <time>2013-05-26T09:55:49.600Z</time>
      </trkpt>
      <trkpt lat="45.82859" lon="6.26201">
        <ele>1433.6</ele>
        <time>2013-05-26T09:55:50.600Z</time>
      </trkpt>
      <trkpt lat="45.82862" lon="6.26203">
        <ele>1437.6</ele>
        <time>2013-05-26T09:55:51.600Z</time>
      </trkpt>
      <trkpt lat="45.82863" lon="6.26204">
        <ele>1435.3</ele>
        <time>2013-05-26T09:55:52.600Z</time>
      </trkpt>
      <trkpt lat="45.82868" lon="6.2621">
        <ele>1437.3</ele>
        <time>2013-05-26T09:55:55.600Z</time>
      </trkpt>
      <trkpt lat="45.8287" lon="6.26212">
        <ele>1433.9</ele>
        <time>2013-05-26T09:55:56.600Z</time>
      </trkpt>
      <trkpt lat="45.82872" lon="6.2622">
        <ele>1433.2</ele>
        <time>2013-05-26T09:55:58.600Z</time>
      </trkpt>
      <trkpt lat="45.82873" lon="6.26223">
        <ele>1428.5</ele>
        <time>2013-05-26T09:55:59.600Z</time>
      </trkpt>
      <trkpt lat="45.82874" lon="6.26227">
        <ele>1427.7</ele>
        <time>2013-05-26T09:56:00.600Z</time>
      </trkpt>
      <trkpt lat="45.82876" lon="6.26231">
        <ele>1428.5</ele>
        <time>2013-05-26T09:56:01.600Z</time>
      </trkpt>
      <trkpt lat="45.82877" lon="6.26235">
        <ele>1425.6</ele>
        <time>2013-05-26T09:56:02.600Z</time>
      </trkpt>
      <trkpt lat="45.82878" lon="6.26238">
        <ele>1425.4</ele>
        <time>2013-05-26T09:56:03.600Z</time>
      </trkpt>
      <trkpt lat="45.82878" lon="6.26242">
        <ele>1426.2</ele>
        <time>2013-05-26T09:56:04.600Z</time>
      </trkpt>
      <trkpt lat="45.8288" lon="6.26245">
        <ele>1424.6</ele>
        <time>2013-05-26T09:56:05.600Z</time>
      </trkpt>
      <trkpt lat="45.82881" lon="6.26248">
        <ele>1426.8</ele>
        <time>2013-05-26T09:56:06.600Z</time>
      </trkpt>
      <trkpt lat="45.82882" lon="6.26251">
        <ele>1429.5</ele>
        <time>2013-05-26T09:56:07.600Z</time>
      </trkpt>
      <trkpt lat="45.82885" lon="6.26257">
        <ele>1431.3</ele>
        <time>2013-05-26T09:56:09.600Z</time>
      </trkpt>
      <trkpt lat="45.82888" lon="6.26263">
        <ele>1430.7</ele>
        <time>2013-05-26T09:56:11.600Z</time>
      </trkpt>
      <trkpt lat="45.82889" lon="6.26265">
        <ele>1433.3</ele>
        <time>2013-05-26T09:56:12.600Z</time>
      </trkpt>
      <trkpt lat="45.82891" lon="6.26268">
        <ele>1436.3</ele>
        <time>2013-05-26T09:56:13.600Z</time>
      </trkpt>
      <trkpt lat="45.82892" lon="6.26271">
        <ele>1436.8</ele>
        <time>2013-05-26T09:56:14.600Z</time>
      </trkpt>
      <trkpt lat="45.82893" lon="6.26273">
        <ele>1437</ele>
        <time>2013-05-26T09:56:15.600Z</time>
      </trkpt>
      <trkpt lat="45.82895" lon="6.26276">
        <ele>1435.9</ele>
        <time>2013-05-26T09:56:16.600Z</time>
      </trkpt>
      <trkpt lat="45.82898" lon="6.26284">
        <ele>1434.8</ele>
        <time>2013-05-26T09:56:18.500Z</time>
      </trkpt>
      <trkpt lat="45.829" lon="6.26287">
        <ele>1431.6</ele>
        <time>2013-05-26T09:56:19.600Z</time>
      </trkpt>
      <trkpt lat="45.82901" lon="6.26293">
        <ele>1430.2</ele>
        <time>2013-05-26T09:56:20.600Z</time>
      </trkpt>
      <trkpt lat="45.82903" lon="6.26298">
        <ele>1430.9</ele>
        <time>2013-05-26T09:56:21.600Z</time>
      </trkpt>
      <trkpt lat="45.82905" lon="6.26303">
        <ele>1428.4</ele>
        <time>2013-05-26T09:56:22.600Z</time>
      </trkpt>
      <trkpt lat="45.82907" lon="6.26307">
        <ele>1429.6</ele>
        <time>2013-05-26T09:56:23.600Z</time>
      </trkpt>
      <trkpt lat="45.8291" lon="6.26314">
        <ele>1426.4</ele>
        <time>2013-05-26T09:56:25.600Z</time>
      </trkpt>
      <trkpt lat="45.82913" lon="6.26325">
        <ele>1424.9</ele>
        <time>2013-05-26T09:56:30.600Z</time>
      </trkpt>
      <trkpt lat="45.82914" lon="6.26336">
        <ele>1434.2</ele>
        <time>2013-05-26T09:56:34.600Z</time>
      </trkpt>
      <trkpt lat="45.82917" lon="6.26344">
        <ele>1439.7</ele>
        <time>2013-05-26T09:56:38.600Z</time>
      </trkpt>
      <trkpt lat="45.82918" lon="6.26346">
        <ele>1440.9</ele>
        <time>2013-05-26T09:56:39.600Z</time>
      </trkpt>
      <trkpt lat="45.8292" lon="6.26351">
        <ele>1437.5</ele>
        <time>2013-05-26T09:56:41.600Z</time>
      </trkpt>
      <trkpt lat="45.82922" lon="6.26354">
        <ele>1435.9</ele>
        <time>2013-05-26T09:56:42.600Z</time>
      </trkpt>
      <trkpt lat="45.82923" lon="6.26356">
        <ele>1438.2</ele>
        <time>2013-05-26T09:56:43.600Z</time>
      </trkpt>
      <trkpt lat="45.82929" lon="6.26364">
        <ele>1436</ele>
        <time>2013-05-26T09:56:48.500Z</time>
      </trkpt>
      <trkpt lat="45.8293" lon="6.26366">
        <ele>1435</ele>
        <time>2013-05-26T09:56:49.600Z</time>
      </trkpt>
      <trkpt lat="45.82931" lon="6.26369">
        <ele>1434</ele>
        <time>2013-05-26T09:56:50.600Z</time>
      </trkpt>
      <trkpt lat="45.82932" lon="6.26371">
        <ele>1435.1</ele>
        <time>2013-05-26T09:56:51.600Z</time>
      </trkpt>
      <trkpt lat="45.82937" lon="6.26378">
        <ele>1434.1</ele>
        <time>2013-05-26T09:56:56.600Z</time>
      </trkpt>
      <trkpt lat="45.82938" lon="6.2638">
        <ele>1433.8</ele>
        <time>2013-05-26T09:56:57.600Z</time>
      </trkpt>
      <trkpt lat="45.82943" lon="6.26387">
        <ele>1440.6</ele>
        <time>2013-05-26T09:57:02.600Z</time>
      </trkpt>
      <trkpt lat="45.82945" lon="6.26394">
        <ele>1445</ele>
        <time>2013-05-26T09:57:05.600Z</time>
      </trkpt>
      <trkpt lat="45.82946" lon="6.26397">
        <ele>1444.2</ele>
        <time>2013-05-26T09:57:06.600Z</time>
      </trkpt>
      <trkpt lat="45.82948" lon="6.26405">
        <ele>1439.6</ele>
        <time>2013-05-26T09:57:09.600Z</time>
      </trkpt>
      <trkpt lat="45.82948" lon="6.26408">
        <ele>1438.6</ele>
        <time>2013-05-26T09:57:10.600Z</time>
      </trkpt>
      <trkpt lat="45.82948" lon="6.26412">
        <ele>1437.6</ele>
        <time>2013-05-26T09:57:11.600Z</time>
      </trkpt>
      <trkpt lat="45.82947" lon="6.26417">
        <ele>1428.3</ele>
        <time>2013-05-26T09:57:13.600Z</time>
      </trkpt>
      <trkpt lat="45.82949" lon="6.26428">
        <ele>1422</ele>
        <time>2013-05-26T09:57:18.600Z</time>
      </trkpt>
      <trkpt lat="45.82949" lon="6.26431">
        <ele>1430.4</ele>
        <time>2013-05-26T09:57:22.600Z</time>
      </trkpt>
      <trkpt lat="45.8295" lon="6.26435">
        <ele>1427.6</ele>
        <time>2013-05-26T09:57:26.600Z</time>
      </trkpt>
      <trkpt lat="45.8295" lon="6.26436">
        <ele>1430.7</ele>
        <time>2013-05-26T09:57:27.500Z</time>
      </trkpt>
      <trkpt lat="45.82952" lon="6.2644">
        <ele>1429.3</ele>
        <time>2013-05-26T09:57:29.600Z</time>
      </trkpt>
      <trkpt lat="45.82953" lon="6.26441">
        <ele>1429.1</ele>
        <time>2013-05-26T09:57:30.600Z</time>
      </trkpt>
      <trkpt lat="45.82955" lon="6.26445">
        <ele>1427.1</ele>
        <time>2013-05-26T09:57:32.600Z</time>
      </trkpt>
      <trkpt lat="45.82955" lon="6.26447">
        <ele>1426.5</ele>
        <time>2013-05-26T09:57:33.600Z</time>
      </trkpt>
      <trkpt lat="45.82956" lon="6.2645">
        <ele>1430.6</ele>
        <time>2013-05-26T09:57:38.600Z</time>
      </trkpt>
      <trkpt lat="45.82955" lon="6.26454">
        <ele>1428.2</ele>
        <time>2013-05-26T09:57:43.600Z</time>
      </trkpt>
      <trkpt lat="45.82955" lon="6.26455">
        <ele>1427.8</ele>
        <time>2013-05-26T09:57:44.600Z</time>
      </trkpt>
      <trkpt lat="45.82954" lon="6.26456">
        <ele>1431.4</ele>
        <time>2013-05-26T09:57:45.600Z</time>
      </trkpt>
      <trkpt lat="45.82954" lon="6.26457">
        <ele>1431.7</ele>
        <time>2013-05-26T09:57:50.600Z</time>
      </trkpt>
      <trkpt lat="45.82953" lon="6.26457">
        <ele>1434.9</ele>
        <time>2013-05-26T09:57:55.600Z</time>
      </trkpt>
      <trkpt lat="45.82952" lon="6.26458">
        <ele>1436.1</ele>
        <time>2013-05-26T09:57:56.600Z</time>
      </trkpt>
      <trkpt lat="45.8295" lon="6.2646">
        <ele>1433.8</ele>
        <time>2013-05-26T09:58:00.600Z</time>
      </trkpt>
      <trkpt lat="45.82949" lon="6.26461">
        <ele>1437</ele>
        <time>2013-05-26T09:58:04.600Z</time>
      </trkpt>
      <trkpt lat="45.8295" lon="6.26461">
        <ele>1434.2</ele>
        <time>2013-05-26T09:58:09.600Z</time>
      </trkpt>
      <trkpt lat="45.8295" lon="6.26461">
        <ele>1439.1</ele>
        <time>2013-05-26T09:58:13.600Z</time>
      </trkpt>
      <trkpt lat="45.8295" lon="6.26461">
        <ele>1450.4</ele>
        <time>2013-05-26T09:58:18.600Z</time>
      </trkpt>
      <trkpt lat="45.8295" lon="6.26461">
        <ele>1439.8</ele>
        <time>2013-05-26T09:58:22.600Z</time>
      </trkpt>
      <trkpt lat="45.8295" lon="6.26461">
        <ele>1437.3</ele>
        <time>2013-05-26T09:58:27.600Z</time>
      </trkpt>
      <trkpt lat="45.8295" lon="6.26461">
        <ele>1439.1</ele>
        <time>2013-05-26T09:58:31.600Z</time>
      </trkpt>
      <trkpt lat="45.8295" lon="6.2646">
        <ele>1433.2</ele>
        <time>2013-05-26T09:58:36.600Z</time>
      </trkpt>
      <trkpt lat="45.8295" lon="6.26457">
        <ele>1431.3</ele>
        <time>2013-05-26T09:58:40.600Z</time>
      </trkpt>
      <trkpt lat="45.8295" lon="6.26454">
        <ele>1429.5</ele>
        <time>2013-05-26T09:58:45.600Z</time>
      </trkpt>
      <trkpt lat="45.82953" lon="6.26451">
        <ele>1424.8</ele>
        <time>2013-05-26T09:58:50.600Z</time>
      </trkpt>
      <trkpt lat="45.82954" lon="6.26451">
        <ele>1427.4</ele>
        <time>2013-05-26T09:58:51.600Z</time>
      </trkpt>
      <trkpt lat="45.82956" lon="6.26451">
        <ele>1428.9</ele>
        <time>2013-05-26T09:58:52.600Z</time>
      </trkpt>
      <trkpt lat="45.82958" lon="6.26451">
        <ele>1425.4</ele>
        <time>2013-05-26T09:58:53.600Z</time>
      </trkpt>
      <trkpt lat="45.82959" lon="6.26451">
        <ele>1425.2</ele>
        <time>2013-05-26T09:58:54.600Z</time>
      </trkpt>
      <trkpt lat="45.82961" lon="6.26451">
        <ele>1425.7</ele>
        <time>2013-05-26T09:58:55.600Z</time>
      </trkpt>
      <trkpt lat="45.82963" lon="6.2645">
        <ele>1425.3</ele>
        <time>2013-05-26T09:58:56.500Z</time>
      </trkpt>
      <trkpt lat="45.82965" lon="6.26449">
        <ele>1426.5</ele>
        <time>2013-05-26T09:58:57.500Z</time>
      </trkpt>
      <trkpt lat="45.82967" lon="6.26449">
        <ele>1423.8</ele>
        <time>2013-05-26T09:58:58.600Z</time>
      </trkpt>
      <trkpt lat="45.82969" lon="6.26449">
        <ele>1427.3</ele>
        <time>2013-05-26T09:58:59.600Z</time>
      </trkpt>
      <trkpt lat="45.82971" lon="6.26449">
        <ele>1423.4</ele>
        <time>2013-05-26T09:59:00.600Z</time>
      </trkpt>
      <trkpt lat="45.82974" lon="6.26449">
        <ele>1422.6</ele>
        <time>2013-05-26T09:59:01.500Z</time>
      </trkpt>
      <trkpt lat="45.82976" lon="6.26449">
        <ele>1422.2</ele>
        <time>2013-05-26T09:59:02.600Z</time>
      </trkpt>
      <trkpt lat="45.82979" lon="6.2645">
        <ele>1422.1</ele>
        <time>2013-05-26T09:59:03.600Z</time>
      </trkpt>
      <trkpt lat="45.82985" lon="6.26451">
        <ele>1425.7</ele>
        <time>2013-05-26T09:59:05.600Z</time>
      </trkpt>
      <trkpt lat="45.82992" lon="6.26453">
        <ele>1423.4</ele>
        <time>2013-05-26T09:59:07.600Z</time>
      </trkpt>
      <trkpt lat="45.82995" lon="6.26453">
        <ele>1423.4</ele>
        <time>2013-05-26T09:59:08.600Z</time>
      </trkpt>
      <trkpt lat="45.83001" lon="6.26454">
        <ele>1425.7</ele>
        <time>2013-05-26T09:59:10.600Z</time>
      </trkpt>
      <trkpt lat="45.83004" lon="6.26454">
        <ele>1426.7</ele>
        <time>2013-05-26T09:59:11.600Z</time>
      </trkpt>
      <trkpt lat="45.83008" lon="6.26455">
        <ele>1424.5</ele>
        <time>2013-05-26T09:59:12.600Z</time>
      </trkpt>
      <trkpt lat="45.83014" lon="6.26455">
        <ele>1421.2</ele>
        <time>2013-05-26T09:59:14.600Z</time>
      </trkpt>
      <trkpt lat="45.83017" lon="6.26454">
        <ele>1419.8</ele>
        <time>2013-05-26T09:59:15.600Z</time>
      </trkpt>
      <trkpt lat="45.83022" lon="6.26453">
        <ele>1418.3</ele>
        <time>2013-05-26T09:59:17.600Z</time>
      </trkpt>
      <trkpt lat="45.83026" lon="6.26452">
        <ele>1420</ele>
        <time>2013-05-26T09:59:18.600Z</time>
      </trkpt>
      <trkpt lat="45.83031" lon="6.2645">
        <ele>1421</ele>
        <time>2013-05-26T09:59:20.600Z</time>
      </trkpt>
      <trkpt lat="45.83034" lon="6.26449">
        <ele>1421.3</ele>
        <time>2013-05-26T09:59:21.500Z</time>
      </trkpt>
      <trkpt lat="45.83037" lon="6.26448">
        <ele>1422.3</ele>
        <time>2013-05-26T09:59:22.600Z</time>
      </trkpt>
      <trkpt lat="45.8304" lon="6.26446">
        <ele>1420.8</ele>
        <time>2013-05-26T09:59:23.600Z</time>
      </trkpt>
      <trkpt lat="45.83042" lon="6.26445">
        <ele>1419.1</ele>
        <time>2013-05-26T09:59:24.600Z</time>
      </trkpt>
      <trkpt lat="45.83045" lon="6.26443">
        <ele>1420.8</ele>
        <time>2013-05-26T09:59:25.600Z</time>
      </trkpt>
      <trkpt lat="45.83048" lon="6.26442">
        <ele>1419.5</ele>
        <time>2013-05-26T09:59:26.600Z</time>
      </trkpt>
      <trkpt lat="45.8305" lon="6.2644">
        <ele>1420.6</ele>
        <time>2013-05-26T09:59:27.600Z</time>
      </trkpt>
      <trkpt lat="45.83053" lon="6.26439">
        <ele>1419.5</ele>
        <time>2013-05-26T09:59:28.600Z</time>
      </trkpt>
      <trkpt lat="45.83056" lon="6.26437">
        <ele>1420.9</ele>
        <time>2013-05-26T09:59:29.600Z</time>
      </trkpt>
      <trkpt lat="45.83058" lon="6.26434">
        <ele>1421.9</ele>
        <time>2013-05-26T09:59:30.600Z</time>
      </trkpt>
      <trkpt lat="45.83061" lon="6.26431">
        <ele>1421.3</ele>
        <time>2013-05-26T09:59:31.600Z</time>
      </trkpt>
      <trkpt lat="45.83063" lon="6.26428">
        <ele>1421</ele>
        <time>2013-05-26T09:59:32.600Z</time>
      </trkpt>
      <trkpt lat="45.83065" lon="6.26425">
        <ele>1422.8</ele>
        <time>2013-05-26T09:59:33.600Z</time>
      </trkpt>
      <trkpt lat="45.83068" lon="6.26422">
        <ele>1423.5</ele>
        <time>2013-05-26T09:59:34.600Z</time>
      </trkpt>
      <trkpt lat="45.8307" lon="6.26419">
        <ele>1422.3</ele>
        <time>2013-05-26T09:59:35.600Z</time>
      </trkpt>
      <trkpt lat="45.83073" lon="6.26416">
        <ele>1422.8</ele>
        <time>2013-05-26T09:59:36.600Z</time>
      </trkpt>
      <trkpt lat="45.83075" lon="6.26413">
        <ele>1421.6</ele>
        <time>2013-05-26T09:59:37.600Z</time>
      </trkpt>
      <trkpt lat="45.83077" lon="6.26411">
        <ele>1422.1</ele>
        <time>2013-05-26T09:59:38.600Z</time>
      </trkpt>
      <trkpt lat="45.8308" lon="6.26409">
        <ele>1421.5</ele>
        <time>2013-05-26T09:59:39.600Z</time>
      </trkpt>
      <trkpt lat="45.83082" lon="6.26406">
        <ele>1422.4</ele>
        <time>2013-05-26T09:59:40.600Z</time>
      </trkpt>
      <trkpt lat="45.83084" lon="6.26403">
        <ele>1421.1</ele>
        <time>2013-05-26T09:59:41.600Z</time>
      </trkpt>
      <trkpt lat="45.83087" lon="6.26401">
        <ele>1422.3</ele>
        <time>2013-05-26T09:59:42.600Z</time>
      </trkpt>
      <trkpt lat="45.83089" lon="6.26399">
        <ele>1424.4</ele>
        <time>2013-05-26T09:59:43.600Z</time>
      </trkpt>
      <trkpt lat="45.83091" lon="6.26397">
        <ele>1423.2</ele>
        <time>2013-05-26T09:59:44.600Z</time>
      </trkpt>
      <trkpt lat="45.83095" lon="6.26393">
        <ele>1421.8</ele>
        <time>2013-05-26T09:59:46.600Z</time>
      </trkpt>
      <trkpt lat="45.83097" lon="6.26391">
        <ele>1420</ele>
        <time>2013-05-26T09:59:47.600Z</time>
      </trkpt>
      <trkpt lat="45.83106" lon="6.26384">
        <ele>1422.1</ele>
        <time>2013-05-26T09:59:51.700Z</time>
      </trkpt>
      <trkpt lat="45.83113" lon="6.26383">
        <ele>1422.5</ele>
        <time>2013-05-26T09:59:53.600Z</time>
      </trkpt>
      <trkpt lat="45.8312" lon="6.26383">
        <ele>1422.6</ele>
        <time>2013-05-26T09:59:55.600Z</time>
      </trkpt>
      <trkpt lat="45.83123" lon="6.26383">
        <ele>1420.9</ele>
        <time>2013-05-26T09:59:56.600Z</time>
      </trkpt>
      <trkpt lat="45.83127" lon="6.26384">
        <ele>1418.2</ele>
        <time>2013-05-26T09:59:57.600Z</time>
      </trkpt>
      <trkpt lat="45.8313" lon="6.26385">
        <ele>1418.9</ele>
        <time>2013-05-26T09:59:58.600Z</time>
      </trkpt>
      <trkpt lat="45.83134" lon="6.26387">
        <ele>1418.5</ele>
        <time>2013-05-26T09:59:59.600Z</time>
      </trkpt>
      <trkpt lat="45.83137" lon="6.26389">
        <ele>1418.1</ele>
        <time>2013-05-26T10:00:00.600Z</time>
      </trkpt>
      <trkpt lat="45.8314" lon="6.26392">
        <ele>1415.9</ele>
        <time>2013-05-26T10:00:01.600Z</time>
      </trkpt>
      <trkpt lat="45.83143" lon="6.26394">
        <ele>1417.7</ele>
        <time>2013-05-26T10:00:02.600Z</time>
      </trkpt>
      <trkpt lat="45.83145" lon="6.26396">
        <ele>1417.5</ele>
        <time>2013-05-26T10:00:03.600Z</time>
      </trkpt>
      <trkpt lat="45.83148" lon="6.26397">
        <ele>1418.8</ele>
        <time>2013-05-26T10:00:04.600Z</time>
      </trkpt>
      <trkpt lat="45.83155" lon="6.26395">
        <ele>1419.5</ele>
        <time>2013-05-26T10:00:06.600Z</time>
      </trkpt>
      <trkpt lat="45.83159" lon="6.26392">
        <ele>1422.4</ele>
        <time>2013-05-26T10:00:08.600Z</time>
      </trkpt>
      <trkpt lat="45.83162" lon="6.2639">
        <ele>1419.4</ele>
        <time>2013-05-26T10:00:09.600Z</time>
      </trkpt>
      <trkpt lat="45.83165" lon="6.26387">
        <ele>1420.6</ele>
        <time>2013-05-26T10:00:10.600Z</time>
      </trkpt>
      <trkpt lat="45.83167" lon="6.26383">
        <ele>1419.8</ele>
        <time>2013-05-26T10:00:11.600Z</time>
      </trkpt>
      <trkpt lat="45.83171" lon="6.26378">
        <ele>1419.2</ele>
        <time>2013-05-26T10:00:13.600Z</time>
      </trkpt>
      <trkpt lat="45.8318" lon="6.26364">
        <ele>1417.9</ele>
        <time>2013-05-26T10:00:18.600Z</time>
      </trkpt>
      <trkpt lat="45.83182" lon="6.26361">
        <ele>1417.6</ele>
        <time>2013-05-26T10:00:19.500Z</time>
      </trkpt>
      <trkpt lat="45.83185" lon="6.26358">
        <ele>1416.1</ele>
        <time>2013-05-26T10:00:20.600Z</time>
      </trkpt>
      <trkpt lat="45.83187" lon="6.26355">
        <ele>1419</ele>
        <time>2013-05-26T10:00:21.600Z</time>
      </trkpt>
      <trkpt lat="45.83189" lon="6.26352">
        <ele>1420.4</ele>
        <time>2013-05-26T10:00:22.600Z</time>
      </trkpt>
      <trkpt lat="45.83193" lon="6.26345">
        <ele>1418.8</ele>
        <time>2013-05-26T10:00:24.600Z</time>
      </trkpt>
      <trkpt lat="45.83195" lon="6.26341">
        <ele>1419.3</ele>
        <time>2013-05-26T10:00:25.600Z</time>
      </trkpt>
      <trkpt lat="45.83196" lon="6.26338">
        <ele>1419.6</ele>
        <time>2013-05-26T10:00:26.600Z</time>
      </trkpt>
      <trkpt lat="45.83198" lon="6.26335">
        <ele>1420.4</ele>
        <time>2013-05-26T10:00:27.700Z</time>
      </trkpt>
      <trkpt lat="45.832" lon="6.26331">
        <ele>1419.2</ele>
        <time>2013-05-26T10:00:28.600Z</time>
      </trkpt>
      <trkpt lat="45.83201" lon="6.26327">
        <ele>1418.6</ele>
        <time>2013-05-26T10:00:29.500Z</time>
      </trkpt>
      <trkpt lat="45.83203" lon="6.26324">
        <ele>1415.9</ele>
        <time>2013-05-26T10:00:30.500Z</time>
      </trkpt>
      <trkpt lat="45.83205" lon="6.26321">
        <ele>1417.1</ele>
        <time>2013-05-26T10:00:31.600Z</time>
      </trkpt>
      <trkpt lat="45.83206" lon="6.26318">
        <ele>1416.9</ele>
        <time>2013-05-26T10:00:32.600Z</time>
      </trkpt>
      <trkpt lat="45.83208" lon="6.26314">
        <ele>1420.1</ele>
        <time>2013-05-26T10:00:33.600Z</time>
      </trkpt>
      <trkpt lat="45.83209" lon="6.26312">
        <ele>1421.6</ele>
        <time>2013-05-26T10:00:34.600Z</time>
      </trkpt>
      <trkpt lat="45.83211" lon="6.26309">
        <ele>1422.2</ele>
        <time>2013-05-26T10:00:35.600Z</time>
      </trkpt>
      <trkpt lat="45.83218" lon="6.26297">
        <ele>1423.5</ele>
        <time>2013-05-26T10:00:40.600Z</time>
      </trkpt>
      <trkpt lat="45.8322" lon="6.26295">
        <ele>1417</ele>
        <time>2013-05-26T10:00:44.600Z</time>
      </trkpt>
      <trkpt lat="45.8322" lon="6.26295">
        <ele>1408.9</ele>
        <time>2013-05-26T10:00:48.600Z</time>
      </trkpt>
      <trkpt lat="45.83225" lon="6.26294">
        <ele>1413.2</ele>
        <time>2013-05-26T10:00:53.600Z</time>
      </trkpt>
      <trkpt lat="45.83227" lon="6.26294">
        <ele>1411.7</ele>
        <time>2013-05-26T10:00:54.600Z</time>
      </trkpt>
      <trkpt lat="45.83228" lon="6.26293">
        <ele>1406.9</ele>
        <time>2013-05-26T10:00:55.600Z</time>
      </trkpt>
      <trkpt lat="45.83229" lon="6.26293">
        <ele>1407.5</ele>
        <time>2013-05-26T10:00:56.600Z</time>
      </trkpt>
      <trkpt lat="45.83233" lon="6.26292">
        <ele>1411.3</ele>
        <time>2013-05-26T10:00:58.600Z</time>
      </trkpt>
      <trkpt lat="45.83234" lon="6.26291">
        <ele>1413.5</ele>
        <time>2013-05-26T10:00:59.600Z</time>
      </trkpt>
      <trkpt lat="45.8324" lon="6.26294">
        <ele>1408.6</ele>
        <time>2013-05-26T10:01:04.600Z</time>
      </trkpt>
      <trkpt lat="45.83243" lon="6.26295">
        <ele>1408.1</ele>
        <time>2013-05-26T10:01:06.600Z</time>
      </trkpt>
      <trkpt lat="45.83244" lon="6.26296">
        <ele>1406.8</ele>
        <time>2013-05-26T10:01:07.600Z</time>
      </trkpt>
      <trkpt lat="45.83245" lon="6.26297">
        <ele>1408.7</ele>
        <time>2013-05-26T10:01:08.600Z</time>
      </trkpt>
      <trkpt lat="45.83249" lon="6.26298">
        <ele>1409.8</ele>
        <time>2013-05-26T10:01:10.600Z</time>
      </trkpt>
      <trkpt lat="45.8325" lon="6.26298">
        <ele>1409.9</ele>
        <time>2013-05-26T10:01:11.600Z</time>
      </trkpt>
      <trkpt lat="45.83255" lon="6.263">
        <ele>1404.6</ele>
        <time>2013-05-26T10:01:16.600Z</time>
      </trkpt>
      <trkpt lat="45.83259" lon="6.26303">
        <ele>1396.4</ele>
        <time>2013-05-26T10:01:20.600Z</time>
      </trkpt>
      <trkpt lat="45.83259" lon="6.26306">
        <ele>1394.2</ele>
        <time>2013-05-26T10:01:21.600Z</time>
      </trkpt>
      <trkpt lat="45.83263" lon="6.26312">
        <ele>1386.1</ele>
        <time>2013-05-26T10:01:24.600Z</time>
      </trkpt>
      <trkpt lat="45.83268" lon="6.26316">
        <ele>1382.9</ele>
        <time>2013-05-26T10:01:26.600Z</time>
      </trkpt>
      <trkpt lat="45.8327" lon="6.26319">
        <ele>1383.3</ele>
        <time>2013-05-26T10:01:27.500Z</time>
      </trkpt>
      <trkpt lat="45.83271" lon="6.26321">
        <ele>1383</ele>
        <time>2013-05-26T10:01:28.600Z</time>
      </trkpt>
      <trkpt lat="45.83272" lon="6.26324">
        <ele>1376.8</ele>
        <time>2013-05-26T10:01:29.600Z</time>
      </trkpt>
      <trkpt lat="45.83274" lon="6.26327">
        <ele>1373.5</ele>
        <time>2013-05-26T10:01:30.600Z</time>
      </trkpt>
      <trkpt lat="45.83275" lon="6.2633">
        <ele>1372.7</ele>
        <time>2013-05-26T10:01:31.600Z</time>
      </trkpt>
      <trkpt lat="45.83276" lon="6.26337">
        <ele>1374.7</ele>
        <time>2013-05-26T10:01:33.600Z</time>
      </trkpt>
      <trkpt lat="45.83277" lon="6.26341">
        <ele>1377.5</ele>
        <time>2013-05-26T10:01:34.600Z</time>
      </trkpt>
      <trkpt lat="45.83278" lon="6.26344">
        <ele>1375.6</ele>
        <time>2013-05-26T10:01:35.600Z</time>
      </trkpt>
      <trkpt lat="45.8328" lon="6.26348">
        <ele>1371.3</ele>
        <time>2013-05-26T10:01:36.600Z</time>
      </trkpt>
      <trkpt lat="45.83283" lon="6.26354">
        <ele>1366.1</ele>
        <time>2013-05-26T10:01:38.600Z</time>
      </trkpt>
      <trkpt lat="45.83284" lon="6.26361">
        <ele>1356.8</ele>
        <time>2013-05-26T10:01:41.600Z</time>
      </trkpt>
      <trkpt lat="45.83285" lon="6.26365">
        <ele>1355.5</ele>
        <time>2013-05-26T10:01:42.600Z</time>
      </trkpt>
      <trkpt lat="45.83285" lon="6.26368">
        <ele>1354.8</ele>
        <time>2013-05-26T10:01:43.600Z</time>
      </trkpt>
      <trkpt lat="45.83286" lon="6.2637">
        <ele>1353.9</ele>
        <time>2013-05-26T10:01:44.600Z</time>
      </trkpt>
      <trkpt lat="45.83287" lon="6.26373">
        <ele>1357.3</ele>
        <time>2013-05-26T10:01:45.600Z</time>
      </trkpt>
      <trkpt lat="45.83288" lon="6.26376">
        <ele>1354.8</ele>
        <time>2013-05-26T10:01:46.600Z</time>
      </trkpt>
      <trkpt lat="45.83289" lon="6.2638">
        <ele>1353.8</ele>
        <time>2013-05-26T10:01:47.600Z</time>
      </trkpt>
      <trkpt lat="45.83291" lon="6.26382">
        <ele>1349.1</ele>
        <time>2013-05-26T10:01:48.600Z</time>
      </trkpt>
      <trkpt lat="45.83293" lon="6.26383">
        <ele>1348.8</ele>
        <time>2013-05-26T10:01:49.600Z</time>
      </trkpt>
      <trkpt lat="45.83297" lon="6.26388">
        <ele>1344.5</ele>
        <time>2013-05-26T10:01:51.600Z</time>
      </trkpt>
      <trkpt lat="45.83311" lon="6.26416">
        <ele>1353</ele>
        <time>2013-05-26T10:01:58.600Z</time>
      </trkpt>
      <trkpt lat="45.83321" lon="6.26449">
        <ele>1362.8</ele>
        <time>2013-05-26T10:02:04.600Z</time>
      </trkpt>
      <trkpt lat="45.83328" lon="6.26462">
        <ele>1387</ele>
        <time>2013-05-26T10:02:08.600Z</time>
      </trkpt>
      <trkpt lat="45.83332" lon="6.26471">
        <ele>1399.3</ele>
        <time>2013-05-26T10:02:11.600Z</time>
      </trkpt>
      <trkpt lat="45.8334" lon="6.26496">
        <ele>1405.2</ele>
        <time>2013-05-26T10:02:17.600Z</time>
      </trkpt>
      <trkpt lat="45.83345" lon="6.26505">
        <ele>1402.7</ele>
        <time>2013-05-26T10:02:20.500Z</time>
      </trkpt>
      <trkpt lat="45.83347" lon="6.26507">
        <ele>1400.4</ele>
        <time>2013-05-26T10:02:21.600Z</time>
      </trkpt>
      <trkpt lat="45.83349" lon="6.26511">
        <ele>1396.1</ele>
        <time>2013-05-26T10:02:23.500Z</time>
      </trkpt>
      <trkpt lat="45.83351" lon="6.26514">
        <ele>1393.5</ele>
        <time>2013-05-26T10:02:24.500Z</time>
      </trkpt>
      <trkpt lat="45.83352" lon="6.26516">
        <ele>1390.3</ele>
        <time>2013-05-26T10:02:25.500Z</time>
      </trkpt>
      <trkpt lat="45.83353" lon="6.26518">
        <ele>1388.7</ele>
        <time>2013-05-26T10:02:26.600Z</time>
      </trkpt>
      <trkpt lat="45.83356" lon="6.26526">
        <ele>1384.4</ele>
        <time>2013-05-26T10:02:31.500Z</time>
      </trkpt>
      <trkpt lat="45.83359" lon="6.26539">
        <ele>1382.8</ele>
        <time>2013-05-26T10:02:37.600Z</time>
      </trkpt>
      <trkpt lat="45.83362" lon="6.26544">
        <ele>1387.1</ele>
        <time>2013-05-26T10:02:40.500Z</time>
      </trkpt>
      <trkpt lat="45.83364" lon="6.26551">
        <ele>1389.3</ele>
        <time>2013-05-26T10:02:44.500Z</time>
      </trkpt>
      <trkpt lat="45.83365" lon="6.26552">
        <ele>1384</ele>
        <time>2013-05-26T10:02:48.600Z</time>
      </trkpt>
      <trkpt lat="45.83364" lon="6.26554">
        <ele>1391.3</ele>
        <time>2013-05-26T10:02:50.600Z</time>
      </trkpt>
      <trkpt lat="45.83363" lon="6.26547">
        <ele>1382.6</ele>
        <time>2013-05-26T10:02:54.600Z</time>
      </trkpt>
      <trkpt lat="45.83366" lon="6.26545">
        <ele>1374.3</ele>
        <time>2013-05-26T10:02:57.600Z</time>
      </trkpt>
      <trkpt lat="45.83367" lon="6.26545">
        <ele>1372.1</ele>
        <time>2013-05-26T10:02:58.600Z</time>
      </trkpt>
      <trkpt lat="45.83373" lon="6.26548">
        <ele>1366.5</ele>
        <time>2013-05-26T10:03:03.600Z</time>
      </trkpt>
      <trkpt lat="45.83375" lon="6.26547">
        <ele>1364.7</ele>
        <time>2013-05-26T10:03:04.600Z</time>
      </trkpt>
      <trkpt lat="45.83384" lon="6.26539">
        <ele>1363.9</ele>
        <time>2013-05-26T10:03:12.600Z</time>
      </trkpt>
      <trkpt lat="45.83403" lon="6.26543">
        <ele>1363.6</ele>
        <time>2013-05-26T10:03:17.500Z</time>
      </trkpt>
      <trkpt lat="45.83416" lon="6.26542">
        <ele>1361.6</ele>
        <time>2013-05-26T10:03:22.500Z</time>
      </trkpt>
      <trkpt lat="45.83418" lon="6.26541">
        <ele>1361</ele>
        <time>2013-05-26T10:03:23.500Z</time>
      </trkpt>
      <trkpt lat="45.8342" lon="6.2654">
        <ele>1364.5</ele>
        <time>2013-05-26T10:03:27.500Z</time>
      </trkpt>
      <trkpt lat="45.8342" lon="6.2654">
        <ele>1356.2</ele>
        <time>2013-05-26T10:03:32.600Z</time>
      </trkpt>
      <trkpt lat="45.8342" lon="6.2654">
        <ele>1357.9</ele>
        <time>2013-05-26T10:03:36.600Z</time>
      </trkpt>
      <trkpt lat="45.83424" lon="6.26534">
        <ele>1352.3</ele>
        <time>2013-05-26T10:03:40.600Z</time>
      </trkpt>
      <trkpt lat="45.83425" lon="6.26534">
        <ele>1352</ele>
        <time>2013-05-26T10:03:41.500Z</time>
      </trkpt>
      <trkpt lat="45.83427" lon="6.26534">
        <ele>1348.4</ele>
        <time>2013-05-26T10:03:42.500Z</time>
      </trkpt>
      <trkpt lat="45.83436" lon="6.26536">
        <ele>1346.7</ele>
        <time>2013-05-26T10:03:46.500Z</time>
      </trkpt>
      <trkpt lat="45.83438" lon="6.26536">
        <ele>1346.1</ele>
        <time>2013-05-26T10:03:47.500Z</time>
      </trkpt>
      <trkpt lat="45.8344" lon="6.26537">
        <ele>1342.2</ele>
        <time>2013-05-26T10:03:48.600Z</time>
      </trkpt>
      <trkpt lat="45.83442" lon="6.26538">
        <ele>1341.4</ele>
        <time>2013-05-26T10:03:49.600Z</time>
      </trkpt>
      <trkpt lat="45.83445" lon="6.26542">
        <ele>1339</ele>
        <time>2013-05-26T10:03:51.600Z</time>
      </trkpt>
      <trkpt lat="45.83446" lon="6.26544">
        <ele>1342.5</ele>
        <time>2013-05-26T10:03:52.600Z</time>
      </trkpt>
      <trkpt lat="45.83448" lon="6.26546">
        <ele>1339.1</ele>
        <time>2013-05-26T10:03:53.600Z</time>
      </trkpt>
      <trkpt lat="45.8345" lon="6.26549">
        <ele>1333.5</ele>
        <time>2013-05-26T10:03:57.600Z</time>
      </trkpt>
      <trkpt lat="45.8345" lon="6.26551">
        <ele>1332.6</ele>
        <time>2013-05-26T10:03:58.600Z</time>
      </trkpt>
      <trkpt lat="45.83447" lon="6.26559">
        <ele>1324.7</ele>
        <time>2013-05-26T10:04:04.600Z</time>
      </trkpt>
      <trkpt lat="45.83445" lon="6.26562">
        <ele>1317.3</ele>
        <time>2013-05-26T10:04:08.600Z</time>
      </trkpt>
      <trkpt lat="45.83445" lon="6.26565">
        <ele>1315</ele>
        <time>2013-05-26T10:04:11.500Z</time>
      </trkpt>
      <trkpt lat="45.83445" lon="6.26565">
        <ele>1325.9</ele>
        <time>2013-05-26T10:04:15.500Z</time>
      </trkpt>
      <trkpt lat="45.83444" lon="6.26572">
        <ele>1329.7</ele>
        <time>2013-05-26T10:04:19.500Z</time>
      </trkpt>
      <trkpt lat="45.83444" lon="6.26573">
        <ele>1332.5</ele>
        <time>2013-05-26T10:04:23.600Z</time>
      </trkpt>
      <trkpt lat="45.83445" lon="6.26573">
        <ele>1345.1</ele>
        <time>2013-05-26T10:04:24.700Z</time>
      </trkpt>
      <trkpt lat="45.83446" lon="6.26573">
        <ele>1342.8</ele>
        <time>2013-05-26T10:04:25.500Z</time>
      </trkpt>
      <trkpt lat="45.83447" lon="6.26572">
        <ele>1343.7</ele>
        <time>2013-05-26T10:04:26.600Z</time>
      </trkpt>
      <trkpt lat="45.83448" lon="6.26571">
        <ele>1342.5</ele>
        <time>2013-05-26T10:04:27.600Z</time>
      </trkpt>
      <trkpt lat="45.8346" lon="6.26569">
        <ele>1340</ele>
        <time>2013-05-26T10:04:32.600Z</time>
      </trkpt>
      <trkpt lat="45.83462" lon="6.26567">
        <ele>1344.6</ele>
        <time>2013-05-26T10:04:33.600Z</time>
      </trkpt>
      <trkpt lat="45.83466" lon="6.26565">
        <ele>1343.1</ele>
        <time>2013-05-26T10:04:35.600Z</time>
      </trkpt>
      <trkpt lat="45.83468" lon="6.26564">
        <ele>1343.1</ele>
        <time>2013-05-26T10:04:36.600Z</time>
      </trkpt>
      <trkpt lat="45.83483" lon="6.26557">
        <ele>1347.7</ele>
        <time>2013-05-26T10:04:41.600Z</time>
      </trkpt>
      <trkpt lat="45.83492" lon="6.26574">
        <ele>1332.4</ele>
        <time>2013-05-26T10:04:46.600Z</time>
      </trkpt>
      <trkpt lat="45.83494" lon="6.2658">
        <ele>1327.6</ele>
        <time>2013-05-26T10:04:48.600Z</time>
      </trkpt>
      <trkpt lat="45.83495" lon="6.26583">
        <ele>1329.5</ele>
        <time>2013-05-26T10:04:49.600Z</time>
      </trkpt>
      <trkpt lat="45.83493" lon="6.26587">
        <ele>1330.4</ele>
        <time>2013-05-26T10:04:54.500Z</time>
      </trkpt>
      <trkpt lat="45.83495" lon="6.26584">
        <ele>1327.1</ele>
        <time>2013-05-26T10:04:56.500Z</time>
      </trkpt>
      <trkpt lat="45.83496" lon="6.26584">
        <ele>1325.8</ele>
        <time>2013-05-26T10:04:57.500Z</time>
      </trkpt>
      <trkpt lat="45.83497" lon="6.26582">
        <ele>1325.5</ele>
        <time>2013-05-26T10:04:58.500Z</time>
      </trkpt>
      <trkpt lat="45.83499" lon="6.2658">
        <ele>1324.3</ele>
        <time>2013-05-26T10:04:59.500Z</time>
      </trkpt>
      <trkpt lat="45.83506" lon="6.26569">
        <ele>1325.5</ele>
        <time>2013-05-26T10:05:03.500Z</time>
      </trkpt>
      <trkpt lat="45.83506" lon="6.26567">
        <ele>1323.8</ele>
        <time>2013-05-26T10:05:04.500Z</time>
      </trkpt>
      <trkpt lat="45.8351" lon="6.26561">
        <ele>1327.4</ele>
        <time>2013-05-26T10:05:08.500Z</time>
      </trkpt>
      <trkpt lat="45.83511" lon="6.2656">
        <ele>1327.3</ele>
        <time>2013-05-26T10:05:09.500Z</time>
      </trkpt>
      <trkpt lat="45.83513" lon="6.26558">
        <ele>1327.5</ele>
        <time>2013-05-26T10:05:10.500Z</time>
      </trkpt>
      <trkpt lat="45.83514" lon="6.26556">
        <ele>1327.7</ele>
        <time>2013-05-26T10:05:11.700Z</time>
      </trkpt>
      <trkpt lat="45.83515" lon="6.26554">
        <ele>1328.2</ele>
        <time>2013-05-26T10:05:12.500Z</time>
      </trkpt>
      <trkpt lat="45.83515" lon="6.2655">
        <ele>1335.9</ele>
        <time>2013-05-26T10:05:16.700Z</time>
      </trkpt>
      <trkpt lat="45.83515" lon="6.26548">
        <ele>1336.4</ele>
        <time>2013-05-26T10:05:17.600Z</time>
      </trkpt>
      <trkpt lat="45.83515" lon="6.26545">
        <ele>1340.5</ele>
        <time>2013-05-26T10:05:18.600Z</time>
      </trkpt>
      <trkpt lat="45.83514" lon="6.26543">
        <ele>1338.5</ele>
        <time>2013-05-26T10:05:19.600Z</time>
      </trkpt>
      <trkpt lat="45.83515" lon="6.26539">
        <ele>1339</ele>
        <time>2013-05-26T10:05:21.600Z</time>
      </trkpt>
      <trkpt lat="45.83515" lon="6.26536">
        <ele>1337.9</ele>
        <time>2013-05-26T10:05:22.600Z</time>
      </trkpt>
      <trkpt lat="45.83515" lon="6.26533">
        <ele>1336.7</ele>
        <time>2013-05-26T10:05:23.500Z</time>
      </trkpt>
      <trkpt lat="45.83515" lon="6.2653">
        <ele>1336.8</ele>
        <time>2013-05-26T10:05:24.500Z</time>
      </trkpt>
      <trkpt lat="45.83515" lon="6.26528">
        <ele>1335.8</ele>
        <time>2013-05-26T10:05:25.600Z</time>
      </trkpt>
      <trkpt lat="45.83518" lon="6.26523">
        <ele>1332.5</ele>
        <time>2013-05-26T10:05:29.600Z</time>
      </trkpt>
      <trkpt lat="45.83524" lon="6.26525">
        <ele>1334.1</ele>
        <time>2013-05-26T10:05:33.600Z</time>
      </trkpt>
      <trkpt lat="45.83526" lon="6.26527">
        <ele>1332.1</ele>
        <time>2013-05-26T10:05:34.600Z</time>
      </trkpt>
      <trkpt lat="45.83531" lon="6.26536">
        <ele>1338.5</ele>
        <time>2013-05-26T10:05:39.600Z</time>
      </trkpt>
      <trkpt lat="45.83532" lon="6.2654">
        <ele>1335.3</ele>
        <time>2013-05-26T10:05:41.600Z</time>
      </trkpt>
      <trkpt lat="45.83531" lon="6.26543">
        <ele>1338.5</ele>
        <time>2013-05-26T10:05:42.600Z</time>
      </trkpt>
      <trkpt lat="45.83531" lon="6.26546">
        <ele>1335.3</ele>
        <time>2013-05-26T10:05:43.600Z</time>
      </trkpt>
      <trkpt lat="45.83532" lon="6.26549">
        <ele>1338.1</ele>
        <time>2013-05-26T10:05:44.600Z</time>
      </trkpt>
      <trkpt lat="45.83532" lon="6.26552">
        <ele>1337.3</ele>
        <time>2013-05-26T10:05:45.600Z</time>
      </trkpt>
      <trkpt lat="45.83532" lon="6.26555">
        <ele>1336.3</ele>
        <time>2013-05-26T10:05:46.600Z</time>
      </trkpt>
      <trkpt lat="45.83533" lon="6.26558">
        <ele>1337.1</ele>
        <time>2013-05-26T10:05:47.600Z</time>
      </trkpt>
      <trkpt lat="45.83533" lon="6.26561">
        <ele>1333.5</ele>
        <time>2013-05-26T10:05:48.600Z</time>
      </trkpt>
      <trkpt lat="45.83534" lon="6.26567">
        <ele>1328.4</ele>
        <time>2013-05-26T10:05:50.600Z</time>
      </trkpt>
      <trkpt lat="45.83533" lon="6.2657">
        <ele>1326.8</ele>
        <time>2013-05-26T10:05:51.500Z</time>
      </trkpt>
      <trkpt lat="45.83536" lon="6.26576">
        <ele>1322.6</ele>
        <time>2013-05-26T10:05:57.600Z</time>
      </trkpt>
      <trkpt lat="45.83536" lon="6.26576">
        <ele>1320.1</ele>
        <time>2013-05-26T10:06:02.600Z</time>
      </trkpt>
      <trkpt lat="45.83539" lon="6.2658">
        <ele>1316.8</ele>
        <time>2013-05-26T10:06:06.600Z</time>
      </trkpt>
      <trkpt lat="45.83549" lon="6.26585">
        <ele>1321.2</ele>
        <time>2013-05-26T10:06:12.600Z</time>
      </trkpt>
      <trkpt lat="45.8355" lon="6.26583">
        <ele>1318.8</ele>
        <time>2013-05-26T10:06:13.600Z</time>
      </trkpt>
      <trkpt lat="45.83551" lon="6.26581">
        <ele>1318.8</ele>
        <time>2013-05-26T10:06:14.600Z</time>
      </trkpt>
      <trkpt lat="45.83552" lon="6.2658">
        <ele>1315.7</ele>
        <time>2013-05-26T10:06:15.600Z</time>
      </trkpt>
      <trkpt lat="45.83552" lon="6.26577">
        <ele>1317.8</ele>
        <time>2013-05-26T10:06:16.600Z</time>
      </trkpt>
      <trkpt lat="45.83552" lon="6.26576">
        <ele>1318.7</ele>
        <time>2013-05-26T10:06:17.600Z</time>
      </trkpt>
      <trkpt lat="45.83554" lon="6.26569">
        <ele>1313.2</ele>
        <time>2013-05-26T10:06:22.600Z</time>
      </trkpt>
      <trkpt lat="45.83557" lon="6.26565">
        <ele>1312.5</ele>
        <time>2013-05-26T10:06:27.600Z</time>
      </trkpt>
      <trkpt lat="45.8356" lon="6.26561">
        <ele>1316.9</ele>
        <time>2013-05-26T10:06:30.700Z</time>
      </trkpt>
      <trkpt lat="45.83561" lon="6.26558">
        <ele>1314.4</ele>
        <time>2013-05-26T10:06:32.500Z</time>
      </trkpt>
      <trkpt lat="45.83563" lon="6.26555">
        <ele>1313.7</ele>
        <time>2013-05-26T10:06:34.500Z</time>
      </trkpt>
      <trkpt lat="45.83565" lon="6.26553">
        <ele>1315.5</ele>
        <time>2013-05-26T10:06:35.500Z</time>
      </trkpt>
      <trkpt lat="45.83566" lon="6.26551">
        <ele>1314.7</ele>
        <time>2013-05-26T10:06:36.500Z</time>
      </trkpt>
      <trkpt lat="45.8357" lon="6.26547">
        <ele>1315.3</ele>
        <time>2013-05-26T10:06:40.500Z</time>
      </trkpt>
      <trkpt lat="45.83574" lon="6.26543">
        <ele>1319.5</ele>
        <time>2013-05-26T10:06:44.600Z</time>
      </trkpt>
      <trkpt lat="45.83576" lon="6.26539">
        <ele>1320.6</ele>
        <time>2013-05-26T10:06:48.600Z</time>
      </trkpt>
      <trkpt lat="45.83579" lon="6.26534">
        <ele>1315.6</ele>
        <time>2013-05-26T10:06:53.600Z</time>
      </trkpt>
      <trkpt lat="45.83583" lon="6.2653">
        <ele>1313.1</ele>
        <time>2013-05-26T10:06:58.600Z</time>
      </trkpt>
      <trkpt lat="45.83587" lon="6.26526">
        <ele>1319.3</ele>
        <time>2013-05-26T10:07:04.600Z</time>
      </trkpt>
      <trkpt lat="45.83591" lon="6.26521">
        <ele>1315</ele>
        <time>2013-05-26T10:07:07.600Z</time>
      </trkpt>
      <trkpt lat="45.83594" lon="6.26506">
        <ele>1324.9</ele>
        <time>2013-05-26T10:07:12.600Z</time>
      </trkpt>
      <trkpt lat="45.83594" lon="6.26504">
        <ele>1324.7</ele>
        <time>2013-05-26T10:07:13.500Z</time>
      </trkpt>
      <trkpt lat="45.83595" lon="6.26503">
        <ele>1326.3</ele>
        <time>2013-05-26T10:07:14.600Z</time>
      </trkpt>
      <trkpt lat="45.83597" lon="6.26501">
        <ele>1323.4</ele>
        <time>2013-05-26T10:07:16.600Z</time>
      </trkpt>
      <trkpt lat="45.83601" lon="6.26499">
        <ele>1322.2</ele>
        <time>2013-05-26T10:07:20.600Z</time>
      </trkpt>
      <trkpt lat="45.83606" lon="6.26498">
        <ele>1323.5</ele>
        <time>2013-05-26T10:07:25.600Z</time>
      </trkpt>
      <trkpt lat="45.83611" lon="6.26499">
        <ele>1317.9</ele>
        <time>2013-05-26T10:07:29.600Z</time>
      </trkpt>
      <trkpt lat="45.83613" lon="6.265">
        <ele>1316.8</ele>
        <time>2013-05-26T10:07:30.600Z</time>
      </trkpt>
      <trkpt lat="45.83615" lon="6.265">
        <ele>1319.5</ele>
        <time>2013-05-26T10:07:31.600Z</time>
      </trkpt>
      <trkpt lat="45.83617" lon="6.26501">
        <ele>1318.2</ele>
        <time>2013-05-26T10:07:32.600Z</time>
      </trkpt>
      <trkpt lat="45.83618" lon="6.26502">
        <ele>1319.3</ele>
        <time>2013-05-26T10:07:33.600Z</time>
      </trkpt>
      <trkpt lat="45.8362" lon="6.26503">
        <ele>1320.8</ele>
        <time>2013-05-26T10:07:34.600Z</time>
      </trkpt>
      <trkpt lat="45.83621" lon="6.26504">
        <ele>1323.4</ele>
        <time>2013-05-26T10:07:35.600Z</time>
      </trkpt>
      <trkpt lat="45.83623" lon="6.26505">
        <ele>1326.8</ele>
        <time>2013-05-26T10:07:36.600Z</time>
      </trkpt>
      <trkpt lat="45.83624" lon="6.26507">
        <ele>1329.9</ele>
        <time>2013-05-26T10:07:37.600Z</time>
      </trkpt>
      <trkpt lat="45.83626" lon="6.26508">
        <ele>1329.4</ele>
        <time>2013-05-26T10:07:38.600Z</time>
      </trkpt>
      <trkpt lat="45.83629" lon="6.26512">
        <ele>1330.4</ele>
        <time>2013-05-26T10:07:41.600Z</time>
      </trkpt>
      <trkpt lat="45.83631" lon="6.26514">
        <ele>1330.6</ele>
        <time>2013-05-26T10:07:42.600Z</time>
      </trkpt>
      <trkpt lat="45.83633" lon="6.26516">
        <ele>1328.2</ele>
        <time>2013-05-26T10:07:43.600Z</time>
      </trkpt>
      <trkpt lat="45.83636" lon="6.26518">
        <ele>1329.6</ele>
        <time>2013-05-26T10:07:44.600Z</time>
      </trkpt>
      <trkpt lat="45.83639" lon="6.2652">
        <ele>1327.7</ele>
        <time>2013-05-26T10:07:45.600Z</time>
      </trkpt>
      <trkpt lat="45.83642" lon="6.26521">
        <ele>1325.3</ele>
        <time>2013-05-26T10:07:46.600Z</time>
      </trkpt>
      <trkpt lat="45.83644" lon="6.26523">
        <ele>1324.1</ele>
        <time>2013-05-26T10:07:47.600Z</time>
      </trkpt>
      <trkpt lat="45.83646" lon="6.26525">
        <ele>1326.4</ele>
        <time>2013-05-26T10:07:48.600Z</time>
      </trkpt>
      <trkpt lat="45.83647" lon="6.26526">
        <ele>1327</ele>
        <time>2013-05-26T10:07:49.600Z</time>
      </trkpt>
      <trkpt lat="45.8365" lon="6.26527">
        <ele>1326.9</ele>
        <time>2013-05-26T10:07:53.600Z</time>
      </trkpt>
      <trkpt lat="45.83651" lon="6.26528">
        <ele>1327.8</ele>
        <time>2013-05-26T10:07:54.600Z</time>
      </trkpt>
      <trkpt lat="45.83652" lon="6.26528">
        <ele>1328.5</ele>
        <time>2013-05-26T10:07:55.600Z</time>
      </trkpt>
      <trkpt lat="45.83655" lon="6.2653">
        <ele>1332.4</ele>
        <time>2013-05-26T10:07:58.600Z</time>
      </trkpt>
      <trkpt lat="45.83656" lon="6.26529">
        <ele>1339.8</ele>
        <time>2013-05-26T10:08:03.600Z</time>
      </trkpt>
      <trkpt lat="45.83657" lon="6.2653">
        <ele>1337</ele>
        <time>2013-05-26T10:08:07.600Z</time>
      </trkpt>
      <trkpt lat="45.83658" lon="6.2653">
        <ele>1334.9</ele>
        <time>2013-05-26T10:08:12.600Z</time>
      </trkpt>
      <trkpt lat="45.83659" lon="6.26529">
        <ele>1329.5</ele>
        <time>2013-05-26T10:08:14.600Z</time>
      </trkpt>
      <trkpt lat="45.83659" lon="6.26527">
        <ele>1330.5</ele>
        <time>2013-05-26T10:08:18.600Z</time>
      </trkpt>
      <trkpt lat="45.83659" lon="6.26525">
        <ele>1328.3</ele>
        <time>2013-05-26T10:08:19.600Z</time>
      </trkpt>
      <trkpt lat="45.8366" lon="6.26515">
        <ele>1329.9</ele>
        <time>2013-05-26T10:08:23.600Z</time>
      </trkpt>
      <trkpt lat="45.83659" lon="6.26513">
        <ele>1332.8</ele>
        <time>2013-05-26T10:08:24.800Z</time>
      </trkpt>
      <trkpt lat="45.83659" lon="6.26511">
        <ele>1332</ele>
        <time>2013-05-26T10:08:25.800Z</time>
      </trkpt>
      <trkpt lat="45.83658" lon="6.26508">
        <ele>1330.2</ele>
        <time>2013-05-26T10:08:26.600Z</time>
      </trkpt>
      <trkpt lat="45.83657" lon="6.26506">
        <ele>1329.9</ele>
        <time>2013-05-26T10:08:27.600Z</time>
      </trkpt>
      <trkpt lat="45.83656" lon="6.265">
        <ele>1323.1</ele>
        <time>2013-05-26T10:08:31.600Z</time>
      </trkpt>
      <trkpt lat="45.83659" lon="6.26499">
        <ele>1326.1</ele>
        <time>2013-05-26T10:08:36.600Z</time>
      </trkpt>
      <trkpt lat="45.83661" lon="6.26495">
        <ele>1324.1</ele>
        <time>2013-05-26T10:08:41.600Z</time>
      </trkpt>
      <trkpt lat="45.83659" lon="6.26491">
        <ele>1322.6</ele>
        <time>2013-05-26T10:08:45.600Z</time>
      </trkpt>
      <trkpt lat="45.83656" lon="6.26478">
        <ele>1323</ele>
        <time>2013-05-26T10:08:50.600Z</time>
      </trkpt>
      <trkpt lat="45.83657" lon="6.26475">
        <ele>1320.1</ele>
        <time>2013-05-26T10:08:51.600Z</time>
      </trkpt>
      <trkpt lat="45.83657" lon="6.26471">
        <ele>1319.8</ele>
        <time>2013-05-26T10:08:53.600Z</time>
      </trkpt>
      <trkpt lat="45.8366" lon="6.2647">
        <ele>1313.8</ele>
        <time>2013-05-26T10:08:58.600Z</time>
      </trkpt>
      <trkpt lat="45.8366" lon="6.2647">
        <ele>1308.6</ele>
        <time>2013-05-26T10:08:59.600Z</time>
      </trkpt>
      <trkpt lat="45.83661" lon="6.26468">
        <ele>1308.8</ele>
        <time>2013-05-26T10:09:03.600Z</time>
      </trkpt>
      <trkpt lat="45.83661" lon="6.26468">
        <ele>1312.1</ele>
        <time>2013-05-26T10:09:07.600Z</time>
      </trkpt>
      <trkpt lat="45.8366" lon="6.26464">
        <ele>1306.9</ele>
        <time>2013-05-26T10:09:12.600Z</time>
      </trkpt>
      <trkpt lat="45.8366" lon="6.26464">
        <ele>1293.1</ele>
        <time>2013-05-26T10:09:16.600Z</time>
      </trkpt>
      <trkpt lat="45.8366" lon="6.26464">
        <ele>1292.3</ele>
        <time>2013-05-26T10:09:21.600Z</time>
      </trkpt>
      <trkpt lat="45.83659" lon="6.26457">
        <ele>1287.8</ele>
        <time>2013-05-26T10:09:25.600Z</time>
      </trkpt>
      <trkpt lat="45.83657" lon="6.26443">
        <ele>1296.9</ele>
        <time>2013-05-26T10:09:30.600Z</time>
      </trkpt>
      <trkpt lat="45.83657" lon="6.26436">
        <ele>1298</ele>
        <time>2013-05-26T10:09:35.600Z</time>
      </trkpt>
      <trkpt lat="45.83657" lon="6.26433">
        <ele>1299.4</ele>
        <time>2013-05-26T10:09:36.600Z</time>
      </trkpt>
      <trkpt lat="45.8366" lon="6.26416">
        <ele>1294.8</ele>
        <time>2013-05-26T10:09:41.600Z</time>
      </trkpt>
      <trkpt lat="45.83661" lon="6.26414">
        <ele>1291.2</ele>
        <time>2013-05-26T10:09:42.600Z</time>
      </trkpt>
      <trkpt lat="45.83661" lon="6.26412">
        <ele>1297.6</ele>
        <time>2013-05-26T10:09:43.600Z</time>
      </trkpt>
      <trkpt lat="45.83666" lon="6.2641">
        <ele>1291.3</ele>
        <time>2013-05-26T10:09:45.600Z</time>
      </trkpt>
      <trkpt lat="45.83669" lon="6.2641">
        <ele>1289.5</ele>
        <time>2013-05-26T10:09:46.600Z</time>
      </trkpt>
      <trkpt lat="45.83671" lon="6.26409">
        <ele>1288.7</ele>
        <time>2013-05-26T10:09:47.600Z</time>
      </trkpt>
      <trkpt lat="45.83675" lon="6.26407">
        <ele>1287.5</ele>
        <time>2013-05-26T10:09:49.600Z</time>
      </trkpt>
      <trkpt lat="45.83676" lon="6.26411">
        <ele>1293.9</ele>
        <time>2013-05-26T10:09:53.600Z</time>
      </trkpt>
      <trkpt lat="45.83679" lon="6.26411">
        <ele>1287.8</ele>
        <time>2013-05-26T10:09:56.600Z</time>
      </trkpt>
      <trkpt lat="45.83682" lon="6.26401">
        <ele>1279.6</ele>
        <time>2013-05-26T10:10:01.600Z</time>
      </trkpt>
      <trkpt lat="45.83684" lon="6.26398">
        <ele>1283.9</ele>
        <time>2013-05-26T10:10:02.600Z</time>
      </trkpt>
      <trkpt lat="45.83686" lon="6.26395">
        <ele>1281.6</ele>
        <time>2013-05-26T10:10:03.600Z</time>
      </trkpt>
      <trkpt lat="45.83687" lon="6.26393">
        <ele>1277.5</ele>
        <time>2013-05-26T10:10:04.600Z</time>
      </trkpt>
      <trkpt lat="45.83691" lon="6.26389">
        <ele>1280.6</ele>
        <time>2013-05-26T10:10:06.600Z</time>
      </trkpt>
      <trkpt lat="45.83695" lon="6.26386">
        <ele>1275.3</ele>
        <time>2013-05-26T10:10:08.600Z</time>
      </trkpt>
      <trkpt lat="45.83699" lon="6.2638">
        <ele>1274.3</ele>
        <time>2013-05-26T10:10:13.600Z</time>
      </trkpt>
      <trkpt lat="45.83704" lon="6.26376">
        <ele>1278.7</ele>
        <time>2013-05-26T10:10:18.600Z</time>
      </trkpt>
      <trkpt lat="45.83706" lon="6.26375">
        <ele>1277.8</ele>
        <time>2013-05-26T10:10:19.600Z</time>
      </trkpt>
      <trkpt lat="45.83708" lon="6.26374">
        <ele>1281.5</ele>
        <time>2013-05-26T10:10:20.600Z</time>
      </trkpt>
      <trkpt lat="45.8371" lon="6.26374">
        <ele>1281.1</ele>
        <time>2013-05-26T10:10:21.600Z</time>
      </trkpt>
      <trkpt lat="45.83716" lon="6.26371">
        <ele>1277.5</ele>
        <time>2013-05-26T10:10:23.600Z</time>
      </trkpt>
      <trkpt lat="45.83718" lon="6.2637">
        <ele>1293.1</ele>
        <time>2013-05-26T10:10:24.600Z</time>
      </trkpt>
      <trkpt lat="45.8372" lon="6.26368">
        <ele>1293.8</ele>
        <time>2013-05-26T10:10:25.600Z</time>
      </trkpt>
      <trkpt lat="45.83724" lon="6.2636">
        <ele>1305.2</ele>
        <time>2013-05-26T10:10:30.600Z</time>
      </trkpt>
      <trkpt lat="45.83726" lon="6.26358">
        <ele>1314.2</ele>
        <time>2013-05-26T10:10:35.600Z</time>
      </trkpt>
      <trkpt lat="45.83731" lon="6.26358">
        <ele>1317.1</ele>
        <time>2013-05-26T10:10:39.600Z</time>
      </trkpt>
      <trkpt lat="45.83731" lon="6.26356">
        <ele>1313.2</ele>
        <time>2013-05-26T10:10:44.600Z</time>
      </trkpt>
      <trkpt lat="45.83731" lon="6.26363">
        <ele>1316.3</ele>
        <time>2013-05-26T10:10:49.600Z</time>
      </trkpt>
      <trkpt lat="45.83736" lon="6.26355">
        <ele>1305.8</ele>
        <time>2013-05-26T10:10:53.600Z</time>
      </trkpt>
      <trkpt lat="45.83743" lon="6.26341">
        <ele>1303.8</ele>
        <time>2013-05-26T10:10:58.600Z</time>
      </trkpt>
      <trkpt lat="45.83748" lon="6.26324">
        <ele>1295.2</ele>
        <time>2013-05-26T10:11:03.600Z</time>
      </trkpt>
      <trkpt lat="45.83749" lon="6.26321">
        <ele>1293.2</ele>
        <time>2013-05-26T10:11:04.600Z</time>
      </trkpt>
      <trkpt lat="45.8375" lon="6.26318">
        <ele>1283.7</ele>
        <time>2013-05-26T10:11:05.600Z</time>
      </trkpt>
      <trkpt lat="45.83751" lon="6.26315">
        <ele>1282.7</ele>
        <time>2013-05-26T10:11:06.600Z</time>
      </trkpt>
      <trkpt lat="45.8375" lon="6.26308">
        <ele>1283</ele>
        <time>2013-05-26T10:11:08.600Z</time>
      </trkpt>
      <trkpt lat="45.8375" lon="6.26304">
        <ele>1280.3</ele>
        <time>2013-05-26T10:11:09.600Z</time>
      </trkpt>
      <trkpt lat="45.83752" lon="6.26302">
        <ele>1278.3</ele>
        <time>2013-05-26T10:11:10.600Z</time>
      </trkpt>
      <trkpt lat="45.83755" lon="6.26292">
        <ele>1272.3</ele>
        <time>2013-05-26T10:11:15.600Z</time>
      </trkpt>
      <trkpt lat="45.83757" lon="6.26284">
        <ele>1271.2</ele>
        <time>2013-05-26T10:11:19.600Z</time>
      </trkpt>
      <trkpt lat="45.83758" lon="6.26276">
        <ele>1269.2</ele>
        <time>2013-05-26T10:11:23.600Z</time>
      </trkpt>
      <trkpt lat="45.83758" lon="6.2627">
        <ele>1270.6</ele>
        <time>2013-05-26T10:11:27.600Z</time>
      </trkpt>
      <trkpt lat="45.83759" lon="6.26261">
        <ele>1272.2</ele>
        <time>2013-05-26T10:11:32.600Z</time>
      </trkpt>
      <trkpt lat="45.8376" lon="6.26254">
        <ele>1275.1</ele>
        <time>2013-05-26T10:11:36.600Z</time>
      </trkpt>
      <trkpt lat="45.8376" lon="6.26237">
        <ele>1283</ele>
        <time>2013-05-26T10:11:44.600Z</time>
      </trkpt>
      <trkpt lat="45.8376" lon="6.26229">
        <ele>1279.6</ele>
        <time>2013-05-26T10:11:48.600Z</time>
      </trkpt>
      <trkpt lat="45.83758" lon="6.26219">
        <ele>1286.2</ele>
        <time>2013-05-26T10:11:53.600Z</time>
      </trkpt>
      <trkpt lat="45.83756" lon="6.2621">
        <ele>1305.9</ele>
        <time>2013-05-26T10:11:58.600Z</time>
      </trkpt>
      <trkpt lat="45.83754" lon="6.26202">
        <ele>1310.2</ele>
        <time>2013-05-26T10:12:02.600Z</time>
      </trkpt>
      <trkpt lat="45.83753" lon="6.26197">
        <ele>1311.2</ele>
        <time>2013-05-26T10:12:04.600Z</time>
      </trkpt>
      <trkpt lat="45.8375" lon="6.26183">
        <ele>1291.6</ele>
        <time>2013-05-26T10:12:09.600Z</time>
      </trkpt>
      <trkpt lat="45.83756" lon="6.26158">
        <ele>1268.8</ele>
        <time>2013-05-26T10:12:15.600Z</time>
      </trkpt>
      <trkpt lat="45.8376" lon="6.26145">
        <ele>1254.5</ele>
        <time>2013-05-26T10:12:20.600Z</time>
      </trkpt>
      <trkpt lat="45.83762" lon="6.2614">
        <ele>1252.2</ele>
        <time>2013-05-26T10:12:24.600Z</time>
      </trkpt>
      <trkpt lat="45.83762" lon="6.2614">
        <ele>1246.6</ele>
        <time>2013-05-26T10:12:28.600Z</time>
      </trkpt>
      <trkpt lat="45.83765" lon="6.26134">
        <ele>1236.4</ele>
        <time>2013-05-26T10:12:32.600Z</time>
      </trkpt>
      <trkpt lat="45.83766" lon="6.26118">
        <ele>1215</ele>
        <time>2013-05-26T10:12:37.600Z</time>
      </trkpt>
      <trkpt lat="45.83763" lon="6.26108">
        <ele>1196.5</ele>
        <time>2013-05-26T10:12:44.600Z</time>
      </trkpt>
      <trkpt lat="45.83762" lon="6.26085">
        <ele>1198.1</ele>
        <time>2013-05-26T10:12:49.600Z</time>
      </trkpt>
      <trkpt lat="45.83762" lon="6.26082">
        <ele>1197.2</ele>
        <time>2013-05-26T10:12:50.600Z</time>
      </trkpt>
      <trkpt lat="45.83761" lon="6.26069">
        <ele>1190.4</ele>
        <time>2013-05-26T10:12:55.600Z</time>
      </trkpt>
      <trkpt lat="45.83754" lon="6.26062">
        <ele>1179.9</ele>
        <time>2013-05-26T10:12:59.600Z</time>
      </trkpt>
      <trkpt lat="45.83751" lon="6.2606">
        <ele>1177.2</ele>
        <time>2013-05-26T10:13:00.600Z</time>
      </trkpt>
      <trkpt lat="45.83739" lon="6.26058">
        <ele>1178.9</ele>
        <time>2013-05-26T10:13:04.600Z</time>
      </trkpt>
      <trkpt lat="45.83734" lon="6.26058">
        <ele>1173.1</ele>
        <time>2013-05-26T10:13:08.600Z</time>
      </trkpt>
      <trkpt lat="45.83728" lon="6.26055">
        <ele>1170.6</ele>
        <time>2013-05-26T10:13:13.600Z</time>
      </trkpt>
      <trkpt lat="45.83726" lon="6.26053">
        <ele>1174.3</ele>
        <time>2013-05-26T10:13:16.600Z</time>
      </trkpt>
      <trkpt lat="45.83722" lon="6.26051">
        <ele>1175.9</ele>
        <time>2013-05-26T10:13:20.600Z</time>
      </trkpt>
      <trkpt lat="45.83718" lon="6.26048">
        <ele>1181.5</ele>
        <time>2013-05-26T10:13:24.600Z</time>
      </trkpt>
      <trkpt lat="45.83712" lon="6.26042">
        <ele>1175.5</ele>
        <time>2013-05-26T10:13:29.600Z</time>
      </trkpt>
      <trkpt lat="45.83709" lon="6.26041">
        <ele>1180.7</ele>
        <time>2013-05-26T10:13:34.600Z</time>
      </trkpt>
      <trkpt lat="45.83708" lon="6.26041">
        <ele>1172.9</ele>
        <time>2013-05-26T10:13:39.600Z</time>
      </trkpt>
      <trkpt lat="45.83708" lon="6.26041">
        <ele>1159.5</ele>
        <time>2013-05-26T10:13:43.600Z</time>
      </trkpt>
      <trkpt lat="45.83708" lon="6.26033">
        <ele>1162.5</ele>
        <time>2013-05-26T10:13:48.600Z</time>
      </trkpt>
      <trkpt lat="45.83707" lon="6.26026">
        <ele>1147.6</ele>
        <time>2013-05-26T10:13:52.600Z</time>
      </trkpt>
      <trkpt lat="45.83705" lon="6.26018">
        <ele>1144.6</ele>
        <time>2013-05-26T10:13:56.600Z</time>
      </trkpt>
      <trkpt lat="45.83706" lon="6.26006">
        <ele>1151.3</ele>
        <time>2013-05-26T10:14:02.600Z</time>
      </trkpt>
      <trkpt lat="45.83711" lon="6.25986">
        <ele>1156.3</ele>
        <time>2013-05-26T10:14:07.600Z</time>
      </trkpt>
      <trkpt lat="45.8371" lon="6.25957">
        <ele>1225.4</ele>
        <time>2013-05-26T10:14:11.600Z</time>
      </trkpt>
      <trkpt lat="45.83709" lon="6.25918">
        <ele>1253.9</ele>
        <time>2013-05-26T10:14:16.600Z</time>
      </trkpt>
      <trkpt lat="45.8371" lon="6.25892">
        <ele>1270.8</ele>
        <time>2013-05-26T10:14:21.600Z</time>
      </trkpt>
      <trkpt lat="45.83712" lon="6.25866">
        <ele>1284.1</ele>
        <time>2013-05-26T10:14:26.600Z</time>
      </trkpt>
      <trkpt lat="45.83713" lon="6.25857">
        <ele>1278.1</ele>
        <time>2013-05-26T10:14:28.600Z</time>
      </trkpt>
      <trkpt lat="45.83714" lon="6.25853">
        <ele>1275</ele>
        <time>2013-05-26T10:14:29.600Z</time>
      </trkpt>
      <trkpt lat="45.83715" lon="6.25849">
        <ele>1269</ele>
        <time>2013-05-26T10:14:30.600Z</time>
      </trkpt>
      <trkpt lat="45.83714" lon="6.25845">
        <ele>1259</ele>
        <time>2013-05-26T10:14:31.600Z</time>
      </trkpt>
      <trkpt lat="45.83714" lon="6.25842">
        <ele>1246.2</ele>
        <time>2013-05-26T10:14:32.600Z</time>
      </trkpt>
      <trkpt lat="45.83713" lon="6.25839">
        <ele>1241.3</ele>
        <time>2013-05-26T10:14:33.600Z</time>
      </trkpt>
      <trkpt lat="45.83713" lon="6.25836">
        <ele>1237.7</ele>
        <time>2013-05-26T10:14:34.600Z</time>
      </trkpt>
      <trkpt lat="45.83716" lon="6.25824">
        <ele>1225.7</ele>
        <time>2013-05-26T10:14:39.600Z</time>
      </trkpt>
      <trkpt lat="45.83718" lon="6.25819">
        <ele>1223.2</ele>
        <time>2013-05-26T10:14:41.600Z</time>
      </trkpt>
      <trkpt lat="45.83721" lon="6.25811">
        <ele>1209.5</ele>
        <time>2013-05-26T10:14:45.600Z</time>
      </trkpt>
      <trkpt lat="45.83722" lon="6.2581">
        <ele>1202.3</ele>
        <time>2013-05-26T10:14:46.600Z</time>
      </trkpt>
      <trkpt lat="45.83723" lon="6.25808">
        <ele>1201.7</ele>
        <time>2013-05-26T10:14:47.600Z</time>
      </trkpt>
      <trkpt lat="45.83733" lon="6.25798">
        <ele>1186.2</ele>
        <time>2013-05-26T10:14:54.600Z</time>
      </trkpt>
      <trkpt lat="45.83735" lon="6.25795">
        <ele>1184.3</ele>
        <time>2013-05-26T10:14:56.600Z</time>
      </trkpt>
      <trkpt lat="45.83739" lon="6.25788">
        <ele>1167.3</ele>
        <time>2013-05-26T10:15:00.600Z</time>
      </trkpt>
      <trkpt lat="45.8374" lon="6.25786">
        <ele>1164.7</ele>
        <time>2013-05-26T10:15:01.600Z</time>
      </trkpt>
      <trkpt lat="45.83742" lon="6.25782">
        <ele>1157.9</ele>
        <time>2013-05-26T10:15:03.600Z</time>
      </trkpt>
      <trkpt lat="45.83743" lon="6.2578">
        <ele>1155.9</ele>
        <time>2013-05-26T10:15:04.600Z</time>
      </trkpt>
      <trkpt lat="45.83747" lon="6.2577">
        <ele>1147.4</ele>
        <time>2013-05-26T10:15:09.600Z</time>
      </trkpt>
      <trkpt lat="45.83747" lon="6.25763">
        <ele>1138.8</ele>
        <time>2013-05-26T10:15:13.600Z</time>
      </trkpt>
      <trkpt lat="45.83745" lon="6.25756">
        <ele>1148.8</ele>
        <time>2013-05-26T10:15:16.600Z</time>
      </trkpt>
      <trkpt lat="45.83745" lon="6.25753">
        <ele>1146.2</ele>
        <time>2013-05-26T10:15:17.600Z</time>
      </trkpt>
      <trkpt lat="45.83745" lon="6.2575">
        <ele>1145.5</ele>
        <time>2013-05-26T10:15:18.600Z</time>
      </trkpt>
      <trkpt lat="45.83746" lon="6.25746">
        <ele>1145.2</ele>
        <time>2013-05-26T10:15:19.600Z</time>
      </trkpt>
      <trkpt lat="45.83745" lon="6.25743">
        <ele>1144.3</ele>
        <time>2013-05-26T10:15:20.600Z</time>
      </trkpt>
      <trkpt lat="45.83746" lon="6.25737">
        <ele>1140.5</ele>
        <time>2013-05-26T10:15:22.600Z</time>
      </trkpt>
      <trkpt lat="45.83746" lon="6.25734">
        <ele>1144.8</ele>
        <time>2013-05-26T10:15:23.600Z</time>
      </trkpt>
      <trkpt lat="45.83745" lon="6.2573">
        <ele>1143</ele>
        <time>2013-05-26T10:15:24.600Z</time>
      </trkpt>
      <trkpt lat="45.83744" lon="6.25727">
        <ele>1141</ele>
        <time>2013-05-26T10:15:25.600Z</time>
      </trkpt>
      <trkpt lat="45.83744" lon="6.25724">
        <ele>1138.5</ele>
        <time>2013-05-26T10:15:26.600Z</time>
      </trkpt>
      <trkpt lat="45.83745" lon="6.25718">
        <ele>1139.3</ele>
        <time>2013-05-26T10:15:28.600Z</time>
      </trkpt>
      <trkpt lat="45.83745" lon="6.25708">
        <ele>1135.3</ele>
        <time>2013-05-26T10:15:32.600Z</time>
      </trkpt>
      <trkpt lat="45.83744" lon="6.25688">
        <ele>1137.8</ele>
        <time>2013-05-26T10:15:41.600Z</time>
      </trkpt>
      <trkpt lat="45.83742" lon="6.25665">
        <ele>1119.5</ele>
        <time>2013-05-26T10:15:46.600Z</time>
      </trkpt>
      <trkpt lat="45.83743" lon="6.25661">
        <ele>1117.4</ele>
        <time>2013-05-26T10:15:47.600Z</time>
      </trkpt>
      <trkpt lat="45.83743" lon="6.25658">
        <ele>1115.5</ele>
        <time>2013-05-26T10:15:48.600Z</time>
      </trkpt>
      <trkpt lat="45.83743" lon="6.25655">
        <ele>1110.5</ele>
        <time>2013-05-26T10:15:49.600Z</time>
      </trkpt>
      <trkpt lat="45.83744" lon="6.25651">
        <ele>1113.4</ele>
        <time>2013-05-26T10:15:50.600Z</time>
      </trkpt>
      <trkpt lat="45.83745" lon="6.25647">
        <ele>1109.4</ele>
        <time>2013-05-26T10:15:51.600Z</time>
      </trkpt>
      <trkpt lat="45.83747" lon="6.2564">
        <ele>1113.3</ele>
        <time>2013-05-26T10:15:53.600Z</time>
      </trkpt>
      <trkpt lat="45.83748" lon="6.25636">
        <ele>1110.5</ele>
        <time>2013-05-26T10:15:54.600Z</time>
      </trkpt>
      <trkpt lat="45.83748" lon="6.25632">
        <ele>1108.2</ele>
        <time>2013-05-26T10:15:55.600Z</time>
      </trkpt>
      <trkpt lat="45.83748" lon="6.25625">
        <ele>1104.2</ele>
        <time>2013-05-26T10:15:57.600Z</time>
      </trkpt>
      <trkpt lat="45.83749" lon="6.25622">
        <ele>1102</ele>
        <time>2013-05-26T10:15:58.600Z</time>
      </trkpt>
      <trkpt lat="45.8375" lon="6.25617">
        <ele>1100.3</ele>
        <time>2013-05-26T10:15:59.600Z</time>
      </trkpt>
      <trkpt lat="45.83751" lon="6.25609">
        <ele>1096.1</ele>
        <time>2013-05-26T10:16:01.600Z</time>
      </trkpt>
      <trkpt lat="45.83751" lon="6.25606">
        <ele>1097.3</ele>
        <time>2013-05-26T10:16:02.600Z</time>
      </trkpt>
      <trkpt lat="45.83753" lon="6.25599">
        <ele>1095.6</ele>
        <time>2013-05-26T10:16:04.600Z</time>
      </trkpt>
      <trkpt lat="45.83754" lon="6.25595">
        <ele>1094.8</ele>
        <time>2013-05-26T10:16:05.600Z</time>
      </trkpt>
      <trkpt lat="45.83754" lon="6.25591">
        <ele>1097.6</ele>
        <time>2013-05-26T10:16:06.600Z</time>
      </trkpt>
      <trkpt lat="45.83755" lon="6.25587">
        <ele>1100.1</ele>
        <time>2013-05-26T10:16:07.600Z</time>
      </trkpt>
      <trkpt lat="45.83756" lon="6.25582">
        <ele>1097.7</ele>
        <time>2013-05-26T10:16:08.600Z</time>
      </trkpt>
      <trkpt lat="45.83757" lon="6.25578">
        <ele>1099.4</ele>
        <time>2013-05-26T10:16:09.600Z</time>
      </trkpt>
      <trkpt lat="45.83758" lon="6.25574">
        <ele>1096.5</ele>
        <time>2013-05-26T10:16:10.600Z</time>
      </trkpt>
      <trkpt lat="45.83759" lon="6.25562">
        <ele>1094.1</ele>
        <time>2013-05-26T10:16:15.600Z</time>
      </trkpt>
      <trkpt lat="45.83752" lon="6.25558">
        <ele>1086.7</ele>
        <time>2013-05-26T10:16:20.600Z</time>
      </trkpt>
      <trkpt lat="45.83747" lon="6.25559">
        <ele>1085.1</ele>
        <time>2013-05-26T10:16:26.600Z</time>
      </trkpt>
      <trkpt lat="45.83734" lon="6.25568">
        <ele>1081.9</ele>
        <time>2013-05-26T10:16:31.600Z</time>
      </trkpt>
      <trkpt lat="45.83721" lon="6.25579">
        <ele>1076.8</ele>
        <time>2013-05-26T10:16:36.500Z</time>
      </trkpt>
      <trkpt lat="45.83717" lon="6.25582">
        <ele>1075</ele>
        <time>2013-05-26T10:16:38.600Z</time>
      </trkpt>
      <trkpt lat="45.83712" lon="6.25584">
        <ele>1071.8</ele>
        <time>2013-05-26T10:16:40.600Z</time>
      </trkpt>
      <trkpt lat="45.837" lon="6.25589">
        <ele>1065</ele>
        <time>2013-05-26T10:16:45.600Z</time>
      </trkpt>
      <trkpt lat="45.83696" lon="6.25592">
        <ele>1061</ele>
        <time>2013-05-26T10:16:47.600Z</time>
      </trkpt>
      <trkpt lat="45.83695" lon="6.25594">
        <ele>1061</ele>
        <time>2013-05-26T10:16:48.600Z</time>
      </trkpt>
      <trkpt lat="45.83694" lon="6.25596">
        <ele>1062</ele>
        <time>2013-05-26T10:16:49.600Z</time>
      </trkpt>
      <trkpt lat="45.8369" lon="6.25601">
        <ele>1054.4</ele>
        <time>2013-05-26T10:16:51.600Z</time>
      </trkpt>
      <trkpt lat="45.83689" lon="6.25603">
        <ele>1059.2</ele>
        <time>2013-05-26T10:16:52.600Z</time>
      </trkpt>
      <trkpt lat="45.83686" lon="6.25604">
        <ele>1068.9</ele>
        <time>2013-05-26T10:16:57.600Z</time>
      </trkpt>
      <trkpt lat="45.83683" lon="6.25598">
        <ele>1065.6</ele>
        <time>2013-05-26T10:17:01.600Z</time>
      </trkpt>
      <trkpt lat="45.83681" lon="6.25591">
        <ele>1058</ele>
        <time>2013-05-26T10:17:06.600Z</time>
      </trkpt>
      <trkpt lat="45.83681" lon="6.25576">
        <ele>1054.7</ele>
        <time>2013-05-26T10:17:11.600Z</time>
      </trkpt>
      <trkpt lat="45.8368" lon="6.25569">
        <ele>1047.5</ele>
        <time>2013-05-26T10:17:14.600Z</time>
      </trkpt>
      <trkpt lat="45.8368" lon="6.2555">
        <ele>1042.2</ele>
        <time>2013-05-26T10:17:22.600Z</time>
      </trkpt>
      <trkpt lat="45.83679" lon="6.25547">
        <ele>1043.9</ele>
        <time>2013-05-26T10:17:24.600Z</time>
      </trkpt>
      <trkpt lat="45.83675" lon="6.25536">
        <ele>1035</ele>
        <time>2013-05-26T10:17:31.600Z</time>
      </trkpt>
      <trkpt lat="45.83683" lon="6.25521">
        <ele>1021.3</ele>
        <time>2013-05-26T10:17:39.600Z</time>
      </trkpt>
      <trkpt lat="45.83687" lon="6.25514">
        <ele>1011</ele>
        <time>2013-05-26T10:17:44.600Z</time>
      </trkpt>
      <trkpt lat="45.83689" lon="6.25503">
        <ele>1008.6</ele>
        <time>2013-05-26T10:17:48.600Z</time>
      </trkpt>
      <trkpt lat="45.83692" lon="6.25494">
        <ele>1009.9</ele>
        <time>2013-05-26T10:17:53.600Z</time>
      </trkpt>
      <trkpt lat="45.83692" lon="6.25485">
        <ele>1001.8</ele>
        <time>2013-05-26T10:17:57.600Z</time>
      </trkpt>
      <trkpt lat="45.83694" lon="6.25479">
        <ele>1005.8</ele>
        <time>2013-05-26T10:18:01.600Z</time>
      </trkpt>
      <trkpt lat="45.83699" lon="6.25464">
        <ele>1011</ele>
        <time>2013-05-26T10:18:07.600Z</time>
      </trkpt>
      <trkpt lat="45.83703" lon="6.25458">
        <ele>1012.9</ele>
        <time>2013-05-26T10:18:12.600Z</time>
      </trkpt>
      <trkpt lat="45.83708" lon="6.25446">
        <ele>1008.3</ele>
        <time>2013-05-26T10:18:17.600Z</time>
      </trkpt>
      <trkpt lat="45.83713" lon="6.25435">
        <ele>997</ele>
        <time>2013-05-26T10:18:21.600Z</time>
      </trkpt>
      <trkpt lat="45.83717" lon="6.25421">
        <ele>1002.4</ele>
        <time>2013-05-26T10:18:26.600Z</time>
      </trkpt>
      <trkpt lat="45.83718" lon="6.25417">
        <ele>999.3</ele>
        <time>2013-05-26T10:18:28.600Z</time>
      </trkpt>
      <trkpt lat="45.83722" lon="6.25403">
        <ele>992</ele>
        <time>2013-05-26T10:18:32.600Z</time>
      </trkpt>
      <trkpt lat="45.83723" lon="6.25396">
        <ele>984.3</ele>
        <time>2013-05-26T10:18:35.600Z</time>
      </trkpt>
      <trkpt lat="45.83723" lon="6.25393">
        <ele>989.8</ele>
        <time>2013-05-26T10:18:36.600Z</time>
      </trkpt>
      <trkpt lat="45.83723" lon="6.2539">
        <ele>987.7</ele>
        <time>2013-05-26T10:18:37.600Z</time>
      </trkpt>
      <trkpt lat="45.83723" lon="6.25387">
        <ele>987.5</ele>
        <time>2013-05-26T10:18:38.600Z</time>
      </trkpt>
      <trkpt lat="45.83724" lon="6.25385">
        <ele>986.3</ele>
        <time>2013-05-26T10:18:39.600Z</time>
      </trkpt>
      <trkpt lat="45.83723" lon="6.25382">
        <ele>985.8</ele>
        <time>2013-05-26T10:18:40.600Z</time>
      </trkpt>
      <trkpt lat="45.83723" lon="6.2538">
        <ele>989.7</ele>
        <time>2013-05-26T10:18:41.600Z</time>
      </trkpt>
      <trkpt lat="45.83723" lon="6.25368">
        <ele>984.4</ele>
        <time>2013-05-26T10:18:46.600Z</time>
      </trkpt>
      <trkpt lat="45.83723" lon="6.25361">
        <ele>980.6</ele>
        <time>2013-05-26T10:18:51.600Z</time>
      </trkpt>
      <trkpt lat="45.83721" lon="6.25357">
        <ele>967</ele>
        <time>2013-05-26T10:18:54.600Z</time>
      </trkpt>
      <trkpt lat="45.83716" lon="6.25353">
        <ele>954.8</ele>
        <time>2013-05-26T10:18:59.600Z</time>
      </trkpt>
      <trkpt lat="45.837" lon="6.25348">
        <ele>941.8</ele>
        <time>2013-05-26T10:19:06.600Z</time>
      </trkpt>
      <trkpt lat="45.83698" lon="6.25348">
        <ele>943.5</ele>
        <time>2013-05-26T10:19:07.600Z</time>
      </trkpt>
      <trkpt lat="45.83696" lon="6.25347">
        <ele>940.9</ele>
        <time>2013-05-26T10:19:08.600Z</time>
      </trkpt>
      <trkpt lat="45.83694" lon="6.25347">
        <ele>936.4</ele>
        <time>2013-05-26T10:19:09.600Z</time>
      </trkpt>
      <trkpt lat="45.83693" lon="6.25347">
        <ele>930.2</ele>
        <time>2013-05-26T10:19:10.600Z</time>
      </trkpt>
      <trkpt lat="45.83691" lon="6.25347">
        <ele>935.6</ele>
        <time>2013-05-26T10:19:11.600Z</time>
      </trkpt>
      <trkpt lat="45.8368" lon="6.25338">
        <ele>925.6</ele>
        <time>2013-05-26T10:19:16.600Z</time>
      </trkpt>
      <trkpt lat="45.83677" lon="6.25335">
        <ele>936.2</ele>
        <time>2013-05-26T10:19:18.600Z</time>
      </trkpt>
      <trkpt lat="45.83664" lon="6.25314">
        <ele>927.6</ele>
        <time>2013-05-26T10:19:23.600Z</time>
      </trkpt>
      <trkpt lat="45.83662" lon="6.25311">
        <ele>926.4</ele>
        <time>2013-05-26T10:19:24.600Z</time>
      </trkpt>
      <trkpt lat="45.83659" lon="6.25306">
        <ele>916</ele>
        <time>2013-05-26T10:19:29.600Z</time>
      </trkpt>
      <trkpt lat="45.8365" lon="6.25296">
        <ele>910.8</ele>
        <time>2013-05-26T10:19:33.600Z</time>
      </trkpt>
      <trkpt lat="45.83643" lon="6.25275">
        <ele>913.5</ele>
        <time>2013-05-26T10:19:38.600Z</time>
      </trkpt>
      <trkpt lat="45.83637" lon="6.25256">
        <ele>908.9</ele>
        <time>2013-05-26T10:19:42.600Z</time>
      </trkpt>
      <trkpt lat="45.83639" lon="6.25231">
        <ele>942.8</ele>
        <time>2013-05-26T10:19:47.600Z</time>
      </trkpt>
      <trkpt lat="45.83637" lon="6.2521">
        <ele>949</ele>
        <time>2013-05-26T10:19:53.600Z</time>
      </trkpt>
      <trkpt lat="45.83631" lon="6.25172">
        <ele>955.4</ele>
        <time>2013-05-26T10:19:58.600Z</time>
      </trkpt>
      <trkpt lat="45.83627" lon="6.25152">
        <ele>955.8</ele>
        <time>2013-05-26T10:20:02.600Z</time>
      </trkpt>
      <trkpt lat="45.83624" lon="6.25132">
        <ele>956.5</ele>
        <time>2013-05-26T10:20:07.600Z</time>
      </trkpt>
      <trkpt lat="45.83623" lon="6.25128">
        <ele>955.4</ele>
        <time>2013-05-26T10:20:08.600Z</time>
      </trkpt>
      <trkpt lat="45.83623" lon="6.25124">
        <ele>953.9</ele>
        <time>2013-05-26T10:20:09.600Z</time>
      </trkpt>
      <trkpt lat="45.83623" lon="6.2512">
        <ele>953.4</ele>
        <time>2013-05-26T10:20:10.600Z</time>
      </trkpt>
      <trkpt lat="45.83623" lon="6.25116">
        <ele>952.7</ele>
        <time>2013-05-26T10:20:11.600Z</time>
      </trkpt>
      <trkpt lat="45.83625" lon="6.25107">
        <ele>949.1</ele>
        <time>2013-05-26T10:20:13.600Z</time>
      </trkpt>
      <trkpt lat="45.83626" lon="6.25103">
        <ele>951.9</ele>
        <time>2013-05-26T10:20:14.600Z</time>
      </trkpt>
      <trkpt lat="45.83627" lon="6.25099">
        <ele>951.2</ele>
        <time>2013-05-26T10:20:15.600Z</time>
      </trkpt>
      <trkpt lat="45.83629" lon="6.25095">
        <ele>952.3</ele>
        <time>2013-05-26T10:20:16.600Z</time>
      </trkpt>
      <trkpt lat="45.83632" lon="6.25088">
        <ele>950.4</ele>
        <time>2013-05-26T10:20:18.600Z</time>
      </trkpt>
      <trkpt lat="45.83634" lon="6.25076">
        <ele>941.4</ele>
        <time>2013-05-26T10:20:22.600Z</time>
      </trkpt>
      <trkpt lat="45.83635" lon="6.25073">
        <ele>939.6</ele>
        <time>2013-05-26T10:20:23.600Z</time>
      </trkpt>
      <trkpt lat="45.83636" lon="6.25069">
        <ele>940.1</ele>
        <time>2013-05-26T10:20:24.500Z</time>
      </trkpt>
      <trkpt lat="45.83637" lon="6.25065">
        <ele>936.1</ele>
        <time>2013-05-26T10:20:25.600Z</time>
      </trkpt>
      <trkpt lat="45.83638" lon="6.25062">
        <ele>932.7</ele>
        <time>2013-05-26T10:20:26.600Z</time>
      </trkpt>
      <trkpt lat="45.83646" lon="6.25049">
        <ele>934.3</ele>
        <time>2013-05-26T10:20:30.600Z</time>
      </trkpt>
      <trkpt lat="45.83651" lon="6.25039">
        <ele>930</ele>
        <time>2013-05-26T10:20:34.600Z</time>
      </trkpt>
      <trkpt lat="45.83652" lon="6.25037">
        <ele>926.8</ele>
        <time>2013-05-26T10:20:35.600Z</time>
      </trkpt>
      <trkpt lat="45.83654" lon="6.25034">
        <ele>925.5</ele>
        <time>2013-05-26T10:20:36.600Z</time>
      </trkpt>
      <trkpt lat="45.83661" lon="6.25027">
        <ele>929.6</ele>
        <time>2013-05-26T10:20:40.600Z</time>
      </trkpt>
      <trkpt lat="45.83663" lon="6.25022">
        <ele>932.3</ele>
        <time>2013-05-26T10:20:41.600Z</time>
      </trkpt>
      <trkpt lat="45.83663" lon="6.25019">
        <ele>934.3</ele>
        <time>2013-05-26T10:20:42.600Z</time>
      </trkpt>
      <trkpt lat="45.83664" lon="6.25017">
        <ele>933.6</ele>
        <time>2013-05-26T10:20:43.600Z</time>
      </trkpt>
      <trkpt lat="45.83659" lon="6.24997">
        <ele>921.1</ele>
        <time>2013-05-26T10:20:51.600Z</time>
      </trkpt>
      <trkpt lat="45.83658" lon="6.24989">
        <ele>929</ele>
        <time>2013-05-26T10:20:54.600Z</time>
      </trkpt>
      <trkpt lat="45.83655" lon="6.24982">
        <ele>924.4</ele>
        <time>2013-05-26T10:20:58.600Z</time>
      </trkpt>
      <trkpt lat="45.83653" lon="6.2498">
        <ele>918.5</ele>
        <time>2013-05-26T10:20:59.600Z</time>
      </trkpt>
      <trkpt lat="45.83649" lon="6.2498">
        <ele>914.9</ele>
        <time>2013-05-26T10:21:01.600Z</time>
      </trkpt>
      <trkpt lat="45.83647" lon="6.24979">
        <ele>911</ele>
        <time>2013-05-26T10:21:02.600Z</time>
      </trkpt>
      <trkpt lat="45.83646" lon="6.24978">
        <ele>914.1</ele>
        <time>2013-05-26T10:21:03.600Z</time>
      </trkpt>
      <trkpt lat="45.83644" lon="6.24977">
        <ele>910.8</ele>
        <time>2013-05-26T10:21:04.600Z</time>
      </trkpt>
      <trkpt lat="45.83642" lon="6.24976">
        <ele>910.7</ele>
        <time>2013-05-26T10:21:05.600Z</time>
      </trkpt>
      <trkpt lat="45.8364" lon="6.24975">
        <ele>907.6</ele>
        <time>2013-05-26T10:21:06.600Z</time>
      </trkpt>
      <trkpt lat="45.83637" lon="6.24966">
        <ele>899.9</ele>
        <time>2013-05-26T10:21:09.600Z</time>
      </trkpt>
      <trkpt lat="45.83637" lon="6.24957">
        <ele>893.4</ele>
        <time>2013-05-26T10:21:11.600Z</time>
      </trkpt>
      <trkpt lat="45.83637" lon="6.24952">
        <ele>893.6</ele>
        <time>2013-05-26T10:21:12.600Z</time>
      </trkpt>
      <trkpt lat="45.83636" lon="6.24948">
        <ele>883.8</ele>
        <time>2013-05-26T10:21:13.600Z</time>
      </trkpt>
      <trkpt lat="45.83636" lon="6.24944">
        <ele>883.1</ele>
        <time>2013-05-26T10:21:14.600Z</time>
      </trkpt>
      <trkpt lat="45.83639" lon="6.24923">
        <ele>878.9</ele>
        <time>2013-05-26T10:21:19.600Z</time>
      </trkpt>
      <trkpt lat="45.83637" lon="6.24914">
        <ele>880.1</ele>
        <time>2013-05-26T10:21:21.600Z</time>
      </trkpt>
      <trkpt lat="45.83637" lon="6.2491">
        <ele>877.9</ele>
        <time>2013-05-26T10:21:22.600Z</time>
      </trkpt>
      <trkpt lat="45.83637" lon="6.24906">
        <ele>879.6</ele>
        <time>2013-05-26T10:21:23.600Z</time>
      </trkpt>
      <trkpt lat="45.83636" lon="6.24901">
        <ele>874.2</ele>
        <time>2013-05-26T10:21:24.600Z</time>
      </trkpt>
      <trkpt lat="45.83636" lon="6.24897">
        <ele>877.1</ele>
        <time>2013-05-26T10:21:25.600Z</time>
      </trkpt>
      <trkpt lat="45.83637" lon="6.24893">
        <ele>879.4</ele>
        <time>2013-05-26T10:21:26.600Z</time>
      </trkpt>
      <trkpt lat="45.83638" lon="6.24889">
        <ele>877.9</ele>
        <time>2013-05-26T10:21:27.600Z</time>
      </trkpt>
      <trkpt lat="45.83639" lon="6.24884">
        <ele>881.6</ele>
        <time>2013-05-26T10:21:28.600Z</time>
      </trkpt>
      <trkpt lat="45.83641" lon="6.24879">
        <ele>880.6</ele>
        <time>2013-05-26T10:21:29.600Z</time>
      </trkpt>
      <trkpt lat="45.83642" lon="6.24874">
        <ele>883.1</ele>
        <time>2013-05-26T10:21:30.600Z</time>
      </trkpt>
      <trkpt lat="45.83645" lon="6.24864">
        <ele>890</ele>
        <time>2013-05-26T10:21:32.600Z</time>
      </trkpt>
      <trkpt lat="45.83646" lon="6.24859">
        <ele>889</ele>
        <time>2013-05-26T10:21:33.600Z</time>
      </trkpt>
      <trkpt lat="45.83656" lon="6.24835">
        <ele>895</ele>
        <time>2013-05-26T10:21:38.600Z</time>
      </trkpt>
      <trkpt lat="45.83658" lon="6.2483">
        <ele>897.6</ele>
        <time>2013-05-26T10:21:39.600Z</time>
      </trkpt>
      <trkpt lat="45.83658" lon="6.24826">
        <ele>899.4</ele>
        <time>2013-05-26T10:21:40.600Z</time>
      </trkpt>
      <trkpt lat="45.83659" lon="6.24822">
        <ele>902</ele>
        <time>2013-05-26T10:21:41.600Z</time>
      </trkpt>
      <trkpt lat="45.83659" lon="6.24818">
        <ele>901.8</ele>
        <time>2013-05-26T10:21:42.600Z</time>
      </trkpt>
      <trkpt lat="45.83659" lon="6.24814">
        <ele>900.4</ele>
        <time>2013-05-26T10:21:43.600Z</time>
      </trkpt>
      <trkpt lat="45.83658" lon="6.2481">
        <ele>898.9</ele>
        <time>2013-05-26T10:21:44.600Z</time>
      </trkpt>
      <trkpt lat="45.83658" lon="6.24806">
        <ele>893.7</ele>
        <time>2013-05-26T10:21:45.600Z</time>
      </trkpt>
      <trkpt lat="45.83659" lon="6.24796">
        <ele>896.5</ele>
        <time>2013-05-26T10:21:47.600Z</time>
      </trkpt>
      <trkpt lat="45.83662" lon="6.2477">
        <ele>902.8</ele>
        <time>2013-05-26T10:21:52.600Z</time>
      </trkpt>
      <trkpt lat="45.83662" lon="6.24766">
        <ele>907.5</ele>
        <time>2013-05-26T10:21:53.600Z</time>
      </trkpt>
      <trkpt lat="45.83664" lon="6.24763">
        <ele>902.3</ele>
        <time>2013-05-26T10:21:54.600Z</time>
      </trkpt>
      <trkpt lat="45.83665" lon="6.24759">
        <ele>901</ele>
        <time>2013-05-26T10:21:55.600Z</time>
      </trkpt>
      <trkpt lat="45.83666" lon="6.24755">
        <ele>903.5</ele>
        <time>2013-05-26T10:21:56.600Z</time>
      </trkpt>
      <trkpt lat="45.83668" lon="6.24752">
        <ele>903.5</ele>
        <time>2013-05-26T10:21:57.600Z</time>
      </trkpt>
      <trkpt lat="45.8367" lon="6.24749">
        <ele>905.4</ele>
        <time>2013-05-26T10:21:58.600Z</time>
      </trkpt>
      <trkpt lat="45.83672" lon="6.24746">
        <ele>902</ele>
        <time>2013-05-26T10:21:59.600Z</time>
      </trkpt>
      <trkpt lat="45.83672" lon="6.24743">
        <ele>905.3</ele>
        <time>2013-05-26T10:22:00.600Z</time>
      </trkpt>
      <trkpt lat="45.83674" lon="6.24741">
        <ele>905.6</ele>
        <time>2013-05-26T10:22:01.600Z</time>
      </trkpt>
      <trkpt lat="45.83676" lon="6.24738">
        <ele>907.7</ele>
        <time>2013-05-26T10:22:02.600Z</time>
      </trkpt>
      <trkpt lat="45.83678" lon="6.24736">
        <ele>906.1</ele>
        <time>2013-05-26T10:22:03.600Z</time>
      </trkpt>
      <trkpt lat="45.83679" lon="6.24733">
        <ele>909.5</ele>
        <time>2013-05-26T10:22:04.600Z</time>
      </trkpt>
      <trkpt lat="45.8368" lon="6.2473">
        <ele>909</ele>
        <time>2013-05-26T10:22:05.600Z</time>
      </trkpt>
      <trkpt lat="45.8368" lon="6.24727">
        <ele>910.1</ele>
        <time>2013-05-26T10:22:06.600Z</time>
      </trkpt>
      <trkpt lat="45.8368" lon="6.24724">
        <ele>906.2</ele>
        <time>2013-05-26T10:22:07.600Z</time>
      </trkpt>
      <trkpt lat="45.83681" lon="6.24721">
        <ele>905.7</ele>
        <time>2013-05-26T10:22:08.600Z</time>
      </trkpt>
      <trkpt lat="45.83681" lon="6.24718">
        <ele>908.5</ele>
        <time>2013-05-26T10:22:09.600Z</time>
      </trkpt>
      <trkpt lat="45.83682" lon="6.24715">
        <ele>908.8</ele>
        <time>2013-05-26T10:22:10.600Z</time>
      </trkpt>
      <trkpt lat="45.83683" lon="6.24712">
        <ele>909.3</ele>
        <time>2013-05-26T10:22:11.600Z</time>
      </trkpt>
      <trkpt lat="45.83684" lon="6.24709">
        <ele>909.9</ele>
        <time>2013-05-26T10:22:12.600Z</time>
      </trkpt>
      <trkpt lat="45.83685" lon="6.24706">
        <ele>907.5</ele>
        <time>2013-05-26T10:22:13.600Z</time>
      </trkpt>
      <trkpt lat="45.83688" lon="6.24701">
        <ele>907.3</ele>
        <time>2013-05-26T10:22:15.600Z</time>
      </trkpt>
      <trkpt lat="45.8369" lon="6.24689">
        <ele>908.6</ele>
        <time>2013-05-26T10:22:20.600Z</time>
      </trkpt>
      <trkpt lat="45.8369" lon="6.24685">
        <ele>906.7</ele>
        <time>2013-05-26T10:22:21.600Z</time>
      </trkpt>
      <trkpt lat="45.83691" lon="6.24682">
        <ele>910.4</ele>
        <time>2013-05-26T10:22:22.600Z</time>
      </trkpt>
      <trkpt lat="45.83693" lon="6.2468">
        <ele>911</ele>
        <time>2013-05-26T10:22:23.600Z</time>
      </trkpt>
      <trkpt lat="45.83696" lon="6.24678">
        <ele>910.1</ele>
        <time>2013-05-26T10:22:24.600Z</time>
      </trkpt>
      <trkpt lat="45.83699" lon="6.24671">
        <ele>911.2</ele>
        <time>2013-05-26T10:22:26.600Z</time>
      </trkpt>
      <trkpt lat="45.83701" lon="6.24668">
        <ele>915.4</ele>
        <time>2013-05-26T10:22:27.600Z</time>
      </trkpt>
      <trkpt lat="45.83702" lon="6.24665">
        <ele>916.2</ele>
        <time>2013-05-26T10:22:28.600Z</time>
      </trkpt>
      <trkpt lat="45.83709" lon="6.24653">
        <ele>914.5</ele>
        <time>2013-05-26T10:22:33.600Z</time>
      </trkpt>
      <trkpt lat="45.83711" lon="6.24651">
        <ele>911.4</ele>
        <time>2013-05-26T10:22:34.600Z</time>
      </trkpt>
      <trkpt lat="45.83719" lon="6.24647">
        <ele>909.1</ele>
        <time>2013-05-26T10:22:36.600Z</time>
      </trkpt>
      <trkpt lat="45.83723" lon="6.24645">
        <ele>910.8</ele>
        <time>2013-05-26T10:22:37.600Z</time>
      </trkpt>
      <trkpt lat="45.83724" lon="6.24642">
        <ele>914.4</ele>
        <time>2013-05-26T10:22:38.600Z</time>
      </trkpt>
      <trkpt lat="45.83726" lon="6.24639">
        <ele>915.4</ele>
        <time>2013-05-26T10:22:39.600Z</time>
      </trkpt>
      <trkpt lat="45.83728" lon="6.24637">
        <ele>918.4</ele>
        <time>2013-05-26T10:22:40.600Z</time>
      </trkpt>
      <trkpt lat="45.8373" lon="6.24634">
        <ele>918.7</ele>
        <time>2013-05-26T10:22:41.600Z</time>
      </trkpt>
      <trkpt lat="45.83732" lon="6.24631">
        <ele>916.2</ele>
        <time>2013-05-26T10:22:42.600Z</time>
      </trkpt>
      <trkpt lat="45.83734" lon="6.24628">
        <ele>917.6</ele>
        <time>2013-05-26T10:22:43.600Z</time>
      </trkpt>
      <trkpt lat="45.83736" lon="6.24626">
        <ele>916.8</ele>
        <time>2013-05-26T10:22:44.600Z</time>
      </trkpt>
      <trkpt lat="45.8374" lon="6.24622">
        <ele>915.9</ele>
        <time>2013-05-26T10:22:46.600Z</time>
      </trkpt>
      <trkpt lat="45.83742" lon="6.2462">
        <ele>914.5</ele>
        <time>2013-05-26T10:22:47.600Z</time>
      </trkpt>
      <trkpt lat="45.83748" lon="6.24611">
        <ele>914.3</ele>
        <time>2013-05-26T10:22:51.600Z</time>
      </trkpt>
      <trkpt lat="45.83749" lon="6.24608">
        <ele>914.2</ele>
        <time>2013-05-26T10:22:52.600Z</time>
      </trkpt>
      <trkpt lat="45.83751" lon="6.24605">
        <ele>913.7</ele>
        <time>2013-05-26T10:22:53.600Z</time>
      </trkpt>
      <trkpt lat="45.83752" lon="6.24602">
        <ele>914</ele>
        <time>2013-05-26T10:22:54.600Z</time>
      </trkpt>
      <trkpt lat="45.83754" lon="6.24597">
        <ele>915.1</ele>
        <time>2013-05-26T10:22:56.600Z</time>
      </trkpt>
      <trkpt lat="45.83755" lon="6.24593">
        <ele>913.5</ele>
        <time>2013-05-26T10:22:57.600Z</time>
      </trkpt>
      <trkpt lat="45.83756" lon="6.2459">
        <ele>917.5</ele>
        <time>2013-05-26T10:22:58.600Z</time>
      </trkpt>
      <trkpt lat="45.83757" lon="6.24586">
        <ele>916.7</ele>
        <time>2013-05-26T10:22:59.600Z</time>
      </trkpt>
      <trkpt lat="45.83758" lon="6.24583">
        <ele>919.2</ele>
        <time>2013-05-26T10:23:00.600Z</time>
      </trkpt>
      <trkpt lat="45.83759" lon="6.2458">
        <ele>920.1</ele>
        <time>2013-05-26T10:23:01.600Z</time>
      </trkpt>
      <trkpt lat="45.83759" lon="6.24576">
        <ele>923</ele>
        <time>2013-05-26T10:23:02.600Z</time>
      </trkpt>
      <trkpt lat="45.83758" lon="6.24573">
        <ele>917.8</ele>
        <time>2013-05-26T10:23:03.600Z</time>
      </trkpt>
      <trkpt lat="45.83758" lon="6.24569">
        <ele>920.6</ele>
        <time>2013-05-26T10:23:04.600Z</time>
      </trkpt>
      <trkpt lat="45.83761" lon="6.24559">
        <ele>920.7</ele>
        <time>2013-05-26T10:23:07.600Z</time>
      </trkpt>
      <trkpt lat="45.83762" lon="6.24556">
        <ele>921.1</ele>
        <time>2013-05-26T10:23:08.600Z</time>
      </trkpt>
      <trkpt lat="45.83763" lon="6.24553">
        <ele>919.2</ele>
        <time>2013-05-26T10:23:09.600Z</time>
      </trkpt>
      <trkpt lat="45.83764" lon="6.24549">
        <ele>917.5</ele>
        <time>2013-05-26T10:23:10.600Z</time>
      </trkpt>
      <trkpt lat="45.83764" lon="6.24546">
        <ele>920.2</ele>
        <time>2013-05-26T10:23:11.600Z</time>
      </trkpt>
      <trkpt lat="45.83765" lon="6.24531">
        <ele>919.9</ele>
        <time>2013-05-26T10:23:16.600Z</time>
      </trkpt>
      <trkpt lat="45.83766" lon="6.24524">
        <ele>920.9</ele>
        <time>2013-05-26T10:23:18.600Z</time>
      </trkpt>
      <trkpt lat="45.83769" lon="6.24513">
        <ele>921.2</ele>
        <time>2013-05-26T10:23:22.600Z</time>
      </trkpt>
      <trkpt lat="45.83769" lon="6.2451">
        <ele>919</ele>
        <time>2013-05-26T10:23:23.600Z</time>
      </trkpt>
      <trkpt lat="45.83769" lon="6.24507">
        <ele>920.1</ele>
        <time>2013-05-26T10:23:24.600Z</time>
      </trkpt>
      <trkpt lat="45.8377" lon="6.24499">
        <ele>912.9</ele>
        <time>2013-05-26T10:23:26.600Z</time>
      </trkpt>
      <trkpt lat="45.8377" lon="6.24495">
        <ele>910.2</ele>
        <time>2013-05-26T10:23:27.600Z</time>
      </trkpt>
      <trkpt lat="45.8377" lon="6.24492">
        <ele>912.5</ele>
        <time>2013-05-26T10:23:28.600Z</time>
      </trkpt>
      <trkpt lat="45.83772" lon="6.24482">
        <ele>909</ele>
        <time>2013-05-26T10:23:31.600Z</time>
      </trkpt>
      <trkpt lat="45.83773" lon="6.24479">
        <ele>908.8</ele>
        <time>2013-05-26T10:23:32.600Z</time>
      </trkpt>
      <trkpt lat="45.83775" lon="6.24476">
        <ele>910.5</ele>
        <time>2013-05-26T10:23:33.600Z</time>
      </trkpt>
      <trkpt lat="45.83779" lon="6.24465">
        <ele>914.4</ele>
        <time>2013-05-26T10:23:38.600Z</time>
      </trkpt>
      <trkpt lat="45.83784" lon="6.2446">
        <ele>916.4</ele>
        <time>2013-05-26T10:23:43.600Z</time>
      </trkpt>
      <trkpt lat="45.83787" lon="6.2446">
        <ele>921.4</ele>
        <time>2013-05-26T10:23:44.600Z</time>
      </trkpt>
      <trkpt lat="45.83794" lon="6.24454">
        <ele>913.3</ele>
        <time>2013-05-26T10:23:49.600Z</time>
      </trkpt>
      <trkpt lat="45.83798" lon="6.24447">
        <ele>906.7</ele>
        <time>2013-05-26T10:23:54.600Z</time>
      </trkpt>
      <trkpt lat="45.838" lon="6.2444">
        <ele>894.8</ele>
        <time>2013-05-26T10:23:57.600Z</time>
      </trkpt>
      <trkpt lat="45.83804" lon="6.24433">
        <ele>895.5</ele>
        <time>2013-05-26T10:24:00.600Z</time>
      </trkpt>
      <trkpt lat="45.83806" lon="6.2443">
        <ele>895</ele>
        <time>2013-05-26T10:24:01.600Z</time>
      </trkpt>
      <trkpt lat="45.83807" lon="6.24427">
        <ele>898.7</ele>
        <time>2013-05-26T10:24:02.600Z</time>
      </trkpt>
      <trkpt lat="45.83809" lon="6.24425">
        <ele>901</ele>
        <time>2013-05-26T10:24:03.600Z</time>
      </trkpt>
      <trkpt lat="45.83812" lon="6.24424">
        <ele>903.4</ele>
        <time>2013-05-26T10:24:04.600Z</time>
      </trkpt>
      <trkpt lat="45.83815" lon="6.24422">
        <ele>905.8</ele>
        <time>2013-05-26T10:24:05.600Z</time>
      </trkpt>
      <trkpt lat="45.8382" lon="6.24415">
        <ele>907.6</ele>
        <time>2013-05-26T10:24:08.600Z</time>
      </trkpt>
      <trkpt lat="45.83823" lon="6.24414">
        <ele>908.8</ele>
        <time>2013-05-26T10:24:09.600Z</time>
      </trkpt>
      <trkpt lat="45.8383" lon="6.24412">
        <ele>909</ele>
        <time>2013-05-26T10:24:11.600Z</time>
      </trkpt>
      <trkpt lat="45.83835" lon="6.24408">
        <ele>905.2</ele>
        <time>2013-05-26T10:24:13.600Z</time>
      </trkpt>
      <trkpt lat="45.83839" lon="6.24403">
        <ele>908</ele>
        <time>2013-05-26T10:24:15.600Z</time>
      </trkpt>
      <trkpt lat="45.83841" lon="6.24401">
        <ele>907.6</ele>
        <time>2013-05-26T10:24:16.600Z</time>
      </trkpt>
      <trkpt lat="45.83844" lon="6.24395">
        <ele>906.2</ele>
        <time>2013-05-26T10:24:18.600Z</time>
      </trkpt>
      <trkpt lat="45.83844" lon="6.24392">
        <ele>905.2</ele>
        <time>2013-05-26T10:24:19.600Z</time>
      </trkpt>
      <trkpt lat="45.83844" lon="6.24388">
        <ele>905.6</ele>
        <time>2013-05-26T10:24:20.600Z</time>
      </trkpt>
      <trkpt lat="45.83844" lon="6.24384">
        <ele>907.1</ele>
        <time>2013-05-26T10:24:21.600Z</time>
      </trkpt>
      <trkpt lat="45.83839" lon="6.24373">
        <ele>903.7</ele>
        <time>2013-05-26T10:24:26.600Z</time>
      </trkpt>
      <trkpt lat="45.83843" lon="6.24374">
        <ele>907.8</ele>
        <time>2013-05-26T10:24:30.600Z</time>
      </trkpt>
      <trkpt lat="45.83847" lon="6.24375">
        <ele>905.8</ele>
        <time>2013-05-26T10:24:32.600Z</time>
      </trkpt>
      <trkpt lat="45.8385" lon="6.24376">
        <ele>908.2</ele>
        <time>2013-05-26T10:24:33.600Z</time>
      </trkpt>
      <trkpt lat="45.83845" lon="6.2437">
        <ele>908.3</ele>
        <time>2013-05-26T10:24:38.600Z</time>
      </trkpt>
      <trkpt lat="45.83844" lon="6.24368">
        <ele>909.3</ele>
        <time>2013-05-26T10:24:39.600Z</time>
      </trkpt>
      <trkpt lat="45.83839" lon="6.24365">
        <ele>907.9</ele>
        <time>2013-05-26T10:24:41.600Z</time>
      </trkpt>
      <trkpt lat="45.83837" lon="6.24363">
        <ele>908.5</ele>
        <time>2013-05-26T10:24:42.600Z</time>
      </trkpt>
      <trkpt lat="45.83835" lon="6.24362">
        <ele>906.8</ele>
        <time>2013-05-26T10:24:43.600Z</time>
      </trkpt>
      <trkpt lat="45.83832" lon="6.2436">
        <ele>908.9</ele>
        <time>2013-05-26T10:24:44.600Z</time>
      </trkpt>
      <trkpt lat="45.8383" lon="6.24359">
        <ele>905.6</ele>
        <time>2013-05-26T10:24:45.600Z</time>
      </trkpt>
      <trkpt lat="45.83828" lon="6.24356">
        <ele>904.8</ele>
        <time>2013-05-26T10:24:46.600Z</time>
      </trkpt>
      <trkpt lat="45.83827" lon="6.24351">
        <ele>900.2</ele>
        <time>2013-05-26T10:24:47.600Z</time>
      </trkpt>
      <trkpt lat="45.83825" lon="6.24349">
        <ele>902.6</ele>
        <time>2013-05-26T10:24:48.600Z</time>
      </trkpt>
      <trkpt lat="45.83824" lon="6.24343">
        <ele>901.9</ele>
        <time>2013-05-26T10:24:49.600Z</time>
      </trkpt>
      <trkpt lat="45.83823" lon="6.24339">
        <ele>901.6</ele>
        <time>2013-05-26T10:24:50.600Z</time>
      </trkpt>
      <trkpt lat="45.83825" lon="6.24304">
        <ele>907.9</ele>
        <time>2013-05-26T10:24:55.600Z</time>
      </trkpt>
      <trkpt lat="45.83833" lon="6.24281">
        <ele>906.8</ele>
        <time>2013-05-26T10:24:59.600Z</time>
      </trkpt>
      <trkpt lat="45.83835" lon="6.24277">
        <ele>905.4</ele>
        <time>2013-05-26T10:25:00.600Z</time>
      </trkpt>
      <trkpt lat="45.83836" lon="6.24273">
        <ele>906.6</ele>
        <time>2013-05-26T10:25:01.600Z</time>
      </trkpt>
      <trkpt lat="45.83837" lon="6.24268">
        <ele>905.1</ele>
        <time>2013-05-26T10:25:02.600Z</time>
      </trkpt>
      <trkpt lat="45.8384" lon="6.24259">
        <ele>906.7</ele>
        <time>2013-05-26T10:25:04.600Z</time>
      </trkpt>
      <trkpt lat="45.83841" lon="6.24255">
        <ele>908.5</ele>
        <time>2013-05-26T10:25:05.600Z</time>
      </trkpt>
      <trkpt lat="45.83841" lon="6.24251">
        <ele>910.5</ele>
        <time>2013-05-26T10:25:06.600Z</time>
      </trkpt>
      <trkpt lat="45.83843" lon="6.24234">
        <ele>905.6</ele>
        <time>2013-05-26T10:25:11.600Z</time>
      </trkpt>
      <trkpt lat="45.83843" lon="6.24231">
        <ele>908.6</ele>
        <time>2013-05-26T10:25:12.600Z</time>
      </trkpt>
      <trkpt lat="45.83843" lon="6.24228">
        <ele>907</ele>
        <time>2013-05-26T10:25:13.600Z</time>
      </trkpt>
      <trkpt lat="45.83842" lon="6.24215">
        <ele>900.2</ele>
        <time>2013-05-26T10:25:17.600Z</time>
      </trkpt>
      <trkpt lat="45.83841" lon="6.24211">
        <ele>901.4</ele>
        <time>2013-05-26T10:25:18.600Z</time>
      </trkpt>
      <trkpt lat="45.83839" lon="6.24207">
        <ele>906.6</ele>
        <time>2013-05-26T10:25:19.600Z</time>
      </trkpt>
      <trkpt lat="45.83838" lon="6.24203">
        <ele>903.3</ele>
        <time>2013-05-26T10:25:20.600Z</time>
      </trkpt>
      <trkpt lat="45.83837" lon="6.24199">
        <ele>908.9</ele>
        <time>2013-05-26T10:25:21.600Z</time>
      </trkpt>
      <trkpt lat="45.83836" lon="6.24196">
        <ele>909.9</ele>
        <time>2013-05-26T10:25:22.600Z</time>
      </trkpt>
      <trkpt lat="45.83837" lon="6.24192">
        <ele>907.5</ele>
        <time>2013-05-26T10:25:23.600Z</time>
      </trkpt>
      <trkpt lat="45.83837" lon="6.24189">
        <ele>905.4</ele>
        <time>2013-05-26T10:25:24.600Z</time>
      </trkpt>
      <trkpt lat="45.83836" lon="6.2417">
        <ele>902.5</ele>
        <time>2013-05-26T10:25:30.600Z</time>
      </trkpt>
      <trkpt lat="45.83836" lon="6.24167">
        <ele>904.2</ele>
        <time>2013-05-26T10:25:31.600Z</time>
      </trkpt>
      <trkpt lat="45.83837" lon="6.24163">
        <ele>902.6</ele>
        <time>2013-05-26T10:25:32.600Z</time>
      </trkpt>
      <trkpt lat="45.83837" lon="6.24158">
        <ele>895.5</ele>
        <time>2013-05-26T10:25:33.600Z</time>
      </trkpt>
      <trkpt lat="45.83838" lon="6.24154">
        <ele>892.2</ele>
        <time>2013-05-26T10:25:34.600Z</time>
      </trkpt>
      <trkpt lat="45.83839" lon="6.2415">
        <ele>891.6</ele>
        <time>2013-05-26T10:25:35.600Z</time>
      </trkpt>
      <trkpt lat="45.83841" lon="6.24145">
        <ele>891</ele>
        <time>2013-05-26T10:25:36.600Z</time>
      </trkpt>
      <trkpt lat="45.83841" lon="6.2414">
        <ele>887.6</ele>
        <time>2013-05-26T10:25:37.600Z</time>
      </trkpt>
      <trkpt lat="45.83842" lon="6.24136">
        <ele>884.9</ele>
        <time>2013-05-26T10:25:38.600Z</time>
      </trkpt>
      <trkpt lat="45.83842" lon="6.24132">
        <ele>882</ele>
        <time>2013-05-26T10:25:39.600Z</time>
      </trkpt>
      <trkpt lat="45.83844" lon="6.24127">
        <ele>882.2</ele>
        <time>2013-05-26T10:25:40.600Z</time>
      </trkpt>
      <trkpt lat="45.83845" lon="6.24123">
        <ele>888.1</ele>
        <time>2013-05-26T10:25:41.600Z</time>
      </trkpt>
      <trkpt lat="45.83846" lon="6.2412">
        <ele>887.2</ele>
        <time>2013-05-26T10:25:42.600Z</time>
      </trkpt>
      <trkpt lat="45.83847" lon="6.24116">
        <ele>895.4</ele>
        <time>2013-05-26T10:25:43.600Z</time>
      </trkpt>
      <trkpt lat="45.83848" lon="6.24112">
        <ele>897.7</ele>
        <time>2013-05-26T10:25:44.600Z</time>
      </trkpt>
      <trkpt lat="45.83851" lon="6.24106">
        <ele>896</ele>
        <time>2013-05-26T10:25:46.600Z</time>
      </trkpt>
      <trkpt lat="45.83852" lon="6.24102">
        <ele>893.5</ele>
        <time>2013-05-26T10:25:47.600Z</time>
      </trkpt>
      <trkpt lat="45.83854" lon="6.24098">
        <ele>895</ele>
        <time>2013-05-26T10:25:48.600Z</time>
      </trkpt>
      <trkpt lat="45.83856" lon="6.24091">
        <ele>893</ele>
        <time>2013-05-26T10:25:50.600Z</time>
      </trkpt>
      <trkpt lat="45.83857" lon="6.24087">
        <ele>891.1</ele>
        <time>2013-05-26T10:25:51.600Z</time>
      </trkpt>
      <trkpt lat="45.83858" lon="6.24084">
        <ele>891.5</ele>
        <time>2013-05-26T10:25:52.600Z</time>
      </trkpt>
      <trkpt lat="45.8386" lon="6.24081">
        <ele>888.2</ele>
        <time>2013-05-26T10:25:53.600Z</time>
      </trkpt>
      <trkpt lat="45.83862" lon="6.24078">
        <ele>892.9</ele>
        <time>2013-05-26T10:25:54.600Z</time>
      </trkpt>
      <trkpt lat="45.83864" lon="6.2407">
        <ele>891.7</ele>
        <time>2013-05-26T10:25:56.600Z</time>
      </trkpt>
      <trkpt lat="45.83865" lon="6.24066">
        <ele>890.2</ele>
        <time>2013-05-26T10:25:57.600Z</time>
      </trkpt>
      <trkpt lat="45.83866" lon="6.24063">
        <ele>890.5</ele>
        <time>2013-05-26T10:25:58.600Z</time>
      </trkpt>
      <trkpt lat="45.83868" lon="6.24056">
        <ele>889.7</ele>
        <time>2013-05-26T10:26:00.600Z</time>
      </trkpt>
      <trkpt lat="45.83869" lon="6.24053">
        <ele>885.7</ele>
        <time>2013-05-26T10:26:01.600Z</time>
      </trkpt>
      <trkpt lat="45.8387" lon="6.24049">
        <ele>887.9</ele>
        <time>2013-05-26T10:26:02.600Z</time>
      </trkpt>
      <trkpt lat="45.83873" lon="6.24041">
        <ele>884.4</ele>
        <time>2013-05-26T10:26:04.600Z</time>
      </trkpt>
      <trkpt lat="45.83874" lon="6.24038">
        <ele>882</ele>
        <time>2013-05-26T10:26:05.600Z</time>
      </trkpt>
      <trkpt lat="45.8388" lon="6.24027">
        <ele>896</ele>
        <time>2013-05-26T10:26:09.600Z</time>
      </trkpt>
      <trkpt lat="45.83885" lon="6.24014">
        <ele>885.9</ele>
        <time>2013-05-26T10:26:14.600Z</time>
      </trkpt>
      <trkpt lat="45.8389" lon="6.24007">
        <ele>893.7</ele>
        <time>2013-05-26T10:26:19.600Z</time>
      </trkpt>
      <trkpt lat="45.83899" lon="6.24006">
        <ele>898.9</ele>
        <time>2013-05-26T10:26:23.600Z</time>
      </trkpt>
      <trkpt lat="45.83902" lon="6.24006">
        <ele>900.8</ele>
        <time>2013-05-26T10:26:24.600Z</time>
      </trkpt>
      <trkpt lat="45.83907" lon="6.24006">
        <ele>902.2</ele>
        <time>2013-05-26T10:26:26.600Z</time>
      </trkpt>
      <trkpt lat="45.83909" lon="6.24005">
        <ele>902.9</ele>
        <time>2013-05-26T10:26:27.600Z</time>
      </trkpt>
      <trkpt lat="45.83917" lon="6.24005">
        <ele>905.7</ele>
        <time>2013-05-26T10:26:31.600Z</time>
      </trkpt>
      <trkpt lat="45.83923" lon="6.24004">
        <ele>908.5</ele>
        <time>2013-05-26T10:26:36.600Z</time>
      </trkpt>
      <trkpt lat="45.83926" lon="6.24003">
        <ele>910.3</ele>
        <time>2013-05-26T10:26:37.600Z</time>
      </trkpt>
      <trkpt lat="45.83935" lon="6.24002">
        <ele>905.4</ele>
        <time>2013-05-26T10:26:41.600Z</time>
      </trkpt>
      <trkpt lat="45.83942" lon="6.24001">
        <ele>910</ele>
        <time>2013-05-26T10:26:46.600Z</time>
      </trkpt>
      <trkpt lat="45.83958" lon="6.24">
        <ele>910</ele>
        <time>2013-05-26T10:26:50.600Z</time>
      </trkpt>
      <trkpt lat="45.83962" lon="6.24001">
        <ele>910.9</ele>
        <time>2013-05-26T10:26:51.600Z</time>
      </trkpt>
      <trkpt lat="45.83965" lon="6.24001">
        <ele>912.2</ele>
        <time>2013-05-26T10:26:52.600Z</time>
      </trkpt>
      <trkpt lat="45.83968" lon="6.24002">
        <ele>908.5</ele>
        <time>2013-05-26T10:26:53.600Z</time>
      </trkpt>
      <trkpt lat="45.83976" lon="6.24005">
        <ele>908.4</ele>
        <time>2013-05-26T10:26:57.600Z</time>
      </trkpt>
      <trkpt lat="45.8398" lon="6.24005">
        <ele>910.7</ele>
        <time>2013-05-26T10:26:58.600Z</time>
      </trkpt>
      <trkpt lat="45.83983" lon="6.24005">
        <ele>911</ele>
        <time>2013-05-26T10:26:59.600Z</time>
      </trkpt>
      <trkpt lat="45.83989" lon="6.24006">
        <ele>912.1</ele>
        <time>2013-05-26T10:27:01.600Z</time>
      </trkpt>
      <trkpt lat="45.83994" lon="6.24007">
        <ele>912.5</ele>
        <time>2013-05-26T10:27:03.600Z</time>
      </trkpt>
      <trkpt lat="45.84003" lon="6.24014">
        <ele>907.8</ele>
        <time>2013-05-26T10:27:07.600Z</time>
      </trkpt>
      <trkpt lat="45.84006" lon="6.24016">
        <ele>906.6</ele>
        <time>2013-05-26T10:27:08.600Z</time>
      </trkpt>
      <trkpt lat="45.84009" lon="6.24019">
        <ele>904.6</ele>
        <time>2013-05-26T10:27:09.600Z</time>
      </trkpt>
      <trkpt lat="45.84011" lon="6.24022">
        <ele>904</ele>
        <time>2013-05-26T10:27:10.600Z</time>
      </trkpt>
      <trkpt lat="45.84014" lon="6.24024">
        <ele>903.1</ele>
        <time>2013-05-26T10:27:11.600Z</time>
      </trkpt>
      <trkpt lat="45.84016" lon="6.24027">
        <ele>901.8</ele>
        <time>2013-05-26T10:27:12.600Z</time>
      </trkpt>
      <trkpt lat="45.8402" lon="6.24028">
        <ele>903.2</ele>
        <time>2013-05-26T10:27:13.600Z</time>
      </trkpt>
      <trkpt lat="45.84022" lon="6.2403">
        <ele>901.9</ele>
        <time>2013-05-26T10:27:14.600Z</time>
      </trkpt>
      <trkpt lat="45.84029" lon="6.24033">
        <ele>905.3</ele>
        <time>2013-05-26T10:27:17.600Z</time>
      </trkpt>
      <trkpt lat="45.84033" lon="6.24035">
        <ele>904.7</ele>
        <time>2013-05-26T10:27:18.600Z</time>
      </trkpt>
      <trkpt lat="45.84036" lon="6.24036">
        <ele>902.5</ele>
        <time>2013-05-26T10:27:19.600Z</time>
      </trkpt>
      <trkpt lat="45.84052" lon="6.24039">
        <ele>903</ele>
        <time>2013-05-26T10:27:25.600Z</time>
      </trkpt>
      <trkpt lat="45.84055" lon="6.24038">
        <ele>903.4</ele>
        <time>2013-05-26T10:27:26.600Z</time>
      </trkpt>
      <trkpt lat="45.84057" lon="6.24037">
        <ele>901.1</ele>
        <time>2013-05-26T10:27:27.600Z</time>
      </trkpt>
      <trkpt lat="45.84062" lon="6.24035">
        <ele>904.4</ele>
        <time>2013-05-26T10:27:29.600Z</time>
      </trkpt>
      <trkpt lat="45.84064" lon="6.24034">
        <ele>899.5</ele>
        <time>2013-05-26T10:27:30.600Z</time>
      </trkpt>
      <trkpt lat="45.84067" lon="6.24031">
        <ele>897.5</ele>
        <time>2013-05-26T10:27:31.600Z</time>
      </trkpt>
      <trkpt lat="45.8407" lon="6.24029">
        <ele>899.4</ele>
        <time>2013-05-26T10:27:32.600Z</time>
      </trkpt>
      <trkpt lat="45.84073" lon="6.24028">
        <ele>900.6</ele>
        <time>2013-05-26T10:27:33.600Z</time>
      </trkpt>
      <trkpt lat="45.84075" lon="6.24025">
        <ele>899.7</ele>
        <time>2013-05-26T10:27:34.600Z</time>
      </trkpt>
      <trkpt lat="45.84081" lon="6.24021">
        <ele>902.4</ele>
        <time>2013-05-26T10:27:36.600Z</time>
      </trkpt>
      <trkpt lat="45.84097" lon="6.24015">
        <ele>901.9</ele>
        <time>2013-05-26T10:27:40.600Z</time>
      </trkpt>
      <trkpt lat="45.84104" lon="6.24012">
        <ele>908.8</ele>
        <time>2013-05-26T10:27:42.600Z</time>
      </trkpt>
      <trkpt lat="45.84111" lon="6.24012">
        <ele>904.6</ele>
        <time>2013-05-26T10:27:44.600Z</time>
      </trkpt>
      <trkpt lat="45.84115" lon="6.24012">
        <ele>906.5</ele>
        <time>2013-05-26T10:27:45.600Z</time>
      </trkpt>
      <trkpt lat="45.84119" lon="6.24012">
        <ele>908</ele>
        <time>2013-05-26T10:27:46.600Z</time>
      </trkpt>
      <trkpt lat="45.84123" lon="6.24013">
        <ele>907.9</ele>
        <time>2013-05-26T10:27:47.600Z</time>
      </trkpt>
      <trkpt lat="45.84126" lon="6.24014">
        <ele>910.5</ele>
        <time>2013-05-26T10:27:48.600Z</time>
      </trkpt>
      <trkpt lat="45.8413" lon="6.24015">
        <ele>909</ele>
        <time>2013-05-26T10:27:49.600Z</time>
      </trkpt>
      <trkpt lat="45.84139" lon="6.24022">
        <ele>912.2</ele>
        <time>2013-05-26T10:27:53.600Z</time>
      </trkpt>
      <trkpt lat="45.84142" lon="6.24024">
        <ele>908.9</ele>
        <time>2013-05-26T10:27:54.600Z</time>
      </trkpt>
      <trkpt lat="45.84146" lon="6.24027">
        <ele>911.2</ele>
        <time>2013-05-26T10:27:55.600Z</time>
      </trkpt>
      <trkpt lat="45.84154" lon="6.24032">
        <ele>915.2</ele>
        <time>2013-05-26T10:27:57.600Z</time>
      </trkpt>
      <trkpt lat="45.84158" lon="6.24034">
        <ele>914.4</ele>
        <time>2013-05-26T10:27:58.600Z</time>
      </trkpt>
      <trkpt lat="45.84163" lon="6.24035">
        <ele>914.9</ele>
        <time>2013-05-26T10:27:59.600Z</time>
      </trkpt>
      <trkpt lat="45.84183" lon="6.2404">
        <ele>916.7</ele>
        <time>2013-05-26T10:28:04.600Z</time>
      </trkpt>
      <trkpt lat="45.84186" lon="6.24037">
        <ele>915.6</ele>
        <time>2013-05-26T10:28:05.600Z</time>
      </trkpt>
      <trkpt lat="45.84188" lon="6.24034">
        <ele>911</ele>
        <time>2013-05-26T10:28:06.600Z</time>
      </trkpt>
      <trkpt lat="45.84191" lon="6.24031">
        <ele>911</ele>
        <time>2013-05-26T10:28:07.600Z</time>
      </trkpt>
      <trkpt lat="45.84193" lon="6.24027">
        <ele>905.6</ele>
        <time>2013-05-26T10:28:08.600Z</time>
      </trkpt>
      <trkpt lat="45.84194" lon="6.24023">
        <ele>904.3</ele>
        <time>2013-05-26T10:28:09.600Z</time>
      </trkpt>
      <trkpt lat="45.84196" lon="6.24019">
        <ele>904.2</ele>
        <time>2013-05-26T10:28:10.600Z</time>
      </trkpt>
      <trkpt lat="45.84197" lon="6.24016">
        <ele>907.7</ele>
        <time>2013-05-26T10:28:11.600Z</time>
      </trkpt>
      <trkpt lat="45.84193" lon="6.24003">
        <ele>904.9</ele>
        <time>2013-05-26T10:28:16.600Z</time>
      </trkpt>
      <trkpt lat="45.8419" lon="6.23997">
        <ele>906.4</ele>
        <time>2013-05-26T10:28:18.600Z</time>
      </trkpt>
      <trkpt lat="45.84188" lon="6.23995">
        <ele>902.4</ele>
        <time>2013-05-26T10:28:19.600Z</time>
      </trkpt>
      <trkpt lat="45.84186" lon="6.23992">
        <ele>902.1</ele>
        <time>2013-05-26T10:28:20.600Z</time>
      </trkpt>
      <trkpt lat="45.84184" lon="6.23988">
        <ele>903.3</ele>
        <time>2013-05-26T10:28:21.600Z</time>
      </trkpt>
      <trkpt lat="45.84182" lon="6.23984">
        <ele>902.6</ele>
        <time>2013-05-26T10:28:22.600Z</time>
      </trkpt>
      <trkpt lat="45.8418" lon="6.23981">
        <ele>903.7</ele>
        <time>2013-05-26T10:28:23.600Z</time>
      </trkpt>
      <trkpt lat="45.84179" lon="6.23977">
        <ele>904.2</ele>
        <time>2013-05-26T10:28:24.600Z</time>
      </trkpt>
      <trkpt lat="45.84178" lon="6.23973">
        <ele>908.6</ele>
        <time>2013-05-26T10:28:25.600Z</time>
      </trkpt>
      <trkpt lat="45.84176" lon="6.23965">
        <ele>907.5</ele>
        <time>2013-05-26T10:28:27.600Z</time>
      </trkpt>
      <trkpt lat="45.84176" lon="6.23961">
        <ele>907.2</ele>
        <time>2013-05-26T10:28:28.600Z</time>
      </trkpt>
      <trkpt lat="45.84175" lon="6.23957">
        <ele>911</ele>
        <time>2013-05-26T10:28:29.600Z</time>
      </trkpt>
      <trkpt lat="45.84175" lon="6.23954">
        <ele>911.2</ele>
        <time>2013-05-26T10:28:30.600Z</time>
      </trkpt>
      <trkpt lat="45.84174" lon="6.2395">
        <ele>911.4</ele>
        <time>2013-05-26T10:28:31.600Z</time>
      </trkpt>
      <trkpt lat="45.84173" lon="6.23947">
        <ele>912.4</ele>
        <time>2013-05-26T10:28:32.600Z</time>
      </trkpt>
      <trkpt lat="45.84172" lon="6.2394">
        <ele>904.8</ele>
        <time>2013-05-26T10:28:34.600Z</time>
      </trkpt>
      <trkpt lat="45.84171" lon="6.23937">
        <ele>905.7</ele>
        <time>2013-05-26T10:28:35.600Z</time>
      </trkpt>
      <trkpt lat="45.84171" lon="6.23933">
        <ele>905.3</ele>
        <time>2013-05-26T10:28:36.600Z</time>
      </trkpt>
      <trkpt lat="45.84171" lon="6.23926">
        <ele>904.9</ele>
        <time>2013-05-26T10:28:38.600Z</time>
      </trkpt>
      <trkpt lat="45.84171" lon="6.23923">
        <ele>906.2</ele>
        <time>2013-05-26T10:28:39.600Z</time>
      </trkpt>
      <trkpt lat="45.84171" lon="6.2391">
        <ele>902.5</ele>
        <time>2013-05-26T10:28:43.600Z</time>
      </trkpt>
      <trkpt lat="45.84172" lon="6.23906">
        <ele>904.4</ele>
        <time>2013-05-26T10:28:44.600Z</time>
      </trkpt>
      <trkpt lat="45.84172" lon="6.23902">
        <ele>907.4</ele>
        <time>2013-05-26T10:28:45.600Z</time>
      </trkpt>
      <trkpt lat="45.84173" lon="6.23897">
        <ele>905.9</ele>
        <time>2013-05-26T10:28:46.600Z</time>
      </trkpt>
      <trkpt lat="45.84174" lon="6.23889">
        <ele>903</ele>
        <time>2013-05-26T10:28:48.600Z</time>
      </trkpt>
      <trkpt lat="45.84175" lon="6.23884">
        <ele>900.1</ele>
        <time>2013-05-26T10:28:49.600Z</time>
      </trkpt>
      <trkpt lat="45.84175" lon="6.23879">
        <ele>901.8</ele>
        <time>2013-05-26T10:28:50.600Z</time>
      </trkpt>
      <trkpt lat="45.84173" lon="6.23874">
        <ele>898.6</ele>
        <time>2013-05-26T10:28:51.600Z</time>
      </trkpt>
      <trkpt lat="45.84175" lon="6.23871">
        <ele>898.4</ele>
        <time>2013-05-26T10:28:52.600Z</time>
      </trkpt>
      <trkpt lat="45.84179" lon="6.23856">
        <ele>894.7</ele>
        <time>2013-05-26T10:28:57.600Z</time>
      </trkpt>
      <trkpt lat="45.84179" lon="6.23853">
        <ele>895.7</ele>
        <time>2013-05-26T10:28:58.600Z</time>
      </trkpt>
      <trkpt lat="45.8418" lon="6.2385">
        <ele>893</ele>
        <time>2013-05-26T10:28:59.600Z</time>
      </trkpt>
      <trkpt lat="45.84181" lon="6.23846">
        <ele>895.2</ele>
        <time>2013-05-26T10:29:00.600Z</time>
      </trkpt>
      <trkpt lat="45.84182" lon="6.23843">
        <ele>896.2</ele>
        <time>2013-05-26T10:29:01.600Z</time>
      </trkpt>
      <trkpt lat="45.84182" lon="6.23839">
        <ele>893.4</ele>
        <time>2013-05-26T10:29:02.600Z</time>
      </trkpt>
      <trkpt lat="45.84183" lon="6.23836">
        <ele>891.4</ele>
        <time>2013-05-26T10:29:03.600Z</time>
      </trkpt>
      <trkpt lat="45.84185" lon="6.23829">
        <ele>888.2</ele>
        <time>2013-05-26T10:29:05.600Z</time>
      </trkpt>
      <trkpt lat="45.84185" lon="6.23822">
        <ele>888.7</ele>
        <time>2013-05-26T10:29:07.600Z</time>
      </trkpt>
      <trkpt lat="45.84185" lon="6.23818">
        <ele>884</ele>
        <time>2013-05-26T10:29:08.600Z</time>
      </trkpt>
      <trkpt lat="45.84185" lon="6.23815">
        <ele>883</ele>
        <time>2013-05-26T10:29:09.600Z</time>
      </trkpt>
      <trkpt lat="45.84186" lon="6.23799">
        <ele>883.1</ele>
        <time>2013-05-26T10:29:14.600Z</time>
      </trkpt>
      <trkpt lat="45.84189" lon="6.23794">
        <ele>880</ele>
        <time>2013-05-26T10:29:16.600Z</time>
      </trkpt>
      <trkpt lat="45.84191" lon="6.23787">
        <ele>877.2</ele>
        <time>2013-05-26T10:29:18.600Z</time>
      </trkpt>
      <trkpt lat="45.84191" lon="6.23784">
        <ele>878.5</ele>
        <time>2013-05-26T10:29:19.600Z</time>
      </trkpt>
      <trkpt lat="45.84194" lon="6.23775">
        <ele>879.7</ele>
        <time>2013-05-26T10:29:22.600Z</time>
      </trkpt>
      <trkpt lat="45.84195" lon="6.23772">
        <ele>876.5</ele>
        <time>2013-05-26T10:29:23.600Z</time>
      </trkpt>
      <trkpt lat="45.84196" lon="6.23768">
        <ele>877.6</ele>
        <time>2013-05-26T10:29:24.600Z</time>
      </trkpt>
      <trkpt lat="45.84195" lon="6.23764">
        <ele>876</ele>
        <time>2013-05-26T10:29:25.600Z</time>
      </trkpt>
      <trkpt lat="45.84194" lon="6.2376">
        <ele>874.5</ele>
        <time>2013-05-26T10:29:26.600Z</time>
      </trkpt>
      <trkpt lat="45.84194" lon="6.23753">
        <ele>875</ele>
        <time>2013-05-26T10:29:28.600Z</time>
      </trkpt>
      <trkpt lat="45.84194" lon="6.23749">
        <ele>878.2</ele>
        <time>2013-05-26T10:29:29.600Z</time>
      </trkpt>
      <trkpt lat="45.84192" lon="6.23745">
        <ele>872.4</ele>
        <time>2013-05-26T10:29:30.600Z</time>
      </trkpt>
      <trkpt lat="45.84192" lon="6.23736">
        <ele>870.6</ele>
        <time>2013-05-26T10:29:32.600Z</time>
      </trkpt>
      <trkpt lat="45.84193" lon="6.23732">
        <ele>869.9</ele>
        <time>2013-05-26T10:29:33.600Z</time>
      </trkpt>
      <trkpt lat="45.84194" lon="6.23728">
        <ele>870</ele>
        <time>2013-05-26T10:29:34.600Z</time>
      </trkpt>
      <trkpt lat="45.84195" lon="6.23725">
        <ele>880.8</ele>
        <time>2013-05-26T10:29:35.600Z</time>
      </trkpt>
      <trkpt lat="45.84198" lon="6.23721">
        <ele>893.5</ele>
        <time>2013-05-26T10:29:36.600Z</time>
      </trkpt>
      <trkpt lat="45.84201" lon="6.23717">
        <ele>892.7</ele>
        <time>2013-05-26T10:29:37.600Z</time>
      </trkpt>
      <trkpt lat="45.84203" lon="6.23714">
        <ele>897.1</ele>
        <time>2013-05-26T10:29:38.600Z</time>
      </trkpt>
      <trkpt lat="45.84209" lon="6.23706">
        <ele>894.7</ele>
        <time>2013-05-26T10:29:40.600Z</time>
      </trkpt>
      <trkpt lat="45.84212" lon="6.23702">
        <ele>894.9</ele>
        <time>2013-05-26T10:29:41.600Z</time>
      </trkpt>
      <trkpt lat="45.84215" lon="6.23699">
        <ele>895.6</ele>
        <time>2013-05-26T10:29:42.600Z</time>
      </trkpt>
      <trkpt lat="45.84218" lon="6.23695">
        <ele>895.1</ele>
        <time>2013-05-26T10:29:43.600Z</time>
      </trkpt>
      <trkpt lat="45.8422" lon="6.23691">
        <ele>894.3</ele>
        <time>2013-05-26T10:29:44.600Z</time>
      </trkpt>
      <trkpt lat="45.84223" lon="6.23687">
        <ele>892.8</ele>
        <time>2013-05-26T10:29:45.600Z</time>
      </trkpt>
      <trkpt lat="45.84224" lon="6.23683">
        <ele>893.4</ele>
        <time>2013-05-26T10:29:46.600Z</time>
      </trkpt>
      <trkpt lat="45.84226" lon="6.2368">
        <ele>893.2</ele>
        <time>2013-05-26T10:29:47.600Z</time>
      </trkpt>
      <trkpt lat="45.84227" lon="6.23675">
        <ele>889.6</ele>
        <time>2013-05-26T10:29:48.600Z</time>
      </trkpt>
      <trkpt lat="45.8423" lon="6.23666">
        <ele>890.9</ele>
        <time>2013-05-26T10:29:50.600Z</time>
      </trkpt>
      <trkpt lat="45.84231" lon="6.23663">
        <ele>893.1</ele>
        <time>2013-05-26T10:29:51.600Z</time>
      </trkpt>
      <trkpt lat="45.84232" lon="6.23659">
        <ele>896.6</ele>
        <time>2013-05-26T10:29:52.600Z</time>
      </trkpt>
      <trkpt lat="45.84235" lon="6.23651">
        <ele>890.4</ele>
        <time>2013-05-26T10:29:54.600Z</time>
      </trkpt>
      <trkpt lat="45.84236" lon="6.23647">
        <ele>890.9</ele>
        <time>2013-05-26T10:29:55.600Z</time>
      </trkpt>
      <trkpt lat="45.84237" lon="6.23643">
        <ele>890.5</ele>
        <time>2013-05-26T10:29:56.600Z</time>
      </trkpt>
      <trkpt lat="45.84238" lon="6.2364">
        <ele>889.2</ele>
        <time>2013-05-26T10:29:57.600Z</time>
      </trkpt>
      <trkpt lat="45.84239" lon="6.23637">
        <ele>887.5</ele>
        <time>2013-05-26T10:29:58.600Z</time>
      </trkpt>
      <trkpt lat="45.8424" lon="6.23634">
        <ele>886.5</ele>
        <time>2013-05-26T10:29:59.600Z</time>
      </trkpt>
      <trkpt lat="45.8424" lon="6.23628">
        <ele>881.8</ele>
        <time>2013-05-26T10:30:01.600Z</time>
      </trkpt>
      <trkpt lat="45.84241" lon="6.2362">
        <ele>886.7</ele>
        <time>2013-05-26T10:30:03.600Z</time>
      </trkpt>
      <trkpt lat="45.84242" lon="6.23617">
        <ele>888.7</ele>
        <time>2013-05-26T10:30:04.600Z</time>
      </trkpt>
      <trkpt lat="45.84242" lon="6.23613">
        <ele>885.5</ele>
        <time>2013-05-26T10:30:05.600Z</time>
      </trkpt>
      <trkpt lat="45.84243" lon="6.2361">
        <ele>884.2</ele>
        <time>2013-05-26T10:30:06.600Z</time>
      </trkpt>
      <trkpt lat="45.84243" lon="6.23606">
        <ele>884.5</ele>
        <time>2013-05-26T10:30:07.600Z</time>
      </trkpt>
      <trkpt lat="45.84244" lon="6.23603">
        <ele>885.8</ele>
        <time>2013-05-26T10:30:08.600Z</time>
      </trkpt>
      <trkpt lat="45.84248" lon="6.23595">
        <ele>886.3</ele>
        <time>2013-05-26T10:30:10.600Z</time>
      </trkpt>
      <trkpt lat="45.84249" lon="6.23591">
        <ele>885.9</ele>
        <time>2013-05-26T10:30:11.600Z</time>
      </trkpt>
      <trkpt lat="45.84251" lon="6.23587">
        <ele>884.5</ele>
        <time>2013-05-26T10:30:12.600Z</time>
      </trkpt>
      <trkpt lat="45.84251" lon="6.23583">
        <ele>887</ele>
        <time>2013-05-26T10:30:13.600Z</time>
      </trkpt>
      <trkpt lat="45.84251" lon="6.23579">
        <ele>887.9</ele>
        <time>2013-05-26T10:30:14.600Z</time>
      </trkpt>
      <trkpt lat="45.84252" lon="6.23575">
        <ele>887.3</ele>
        <time>2013-05-26T10:30:15.600Z</time>
      </trkpt>
      <trkpt lat="45.84254" lon="6.23572">
        <ele>885.4</ele>
        <time>2013-05-26T10:30:16.600Z</time>
      </trkpt>
      <trkpt lat="45.84255" lon="6.23568">
        <ele>883.9</ele>
        <time>2013-05-26T10:30:17.600Z</time>
      </trkpt>
      <trkpt lat="45.84257" lon="6.23564">
        <ele>884.6</ele>
        <time>2013-05-26T10:30:18.600Z</time>
      </trkpt>
      <trkpt lat="45.84258" lon="6.23561">
        <ele>884</ele>
        <time>2013-05-26T10:30:19.600Z</time>
      </trkpt>
      <trkpt lat="45.8426" lon="6.23557">
        <ele>882</ele>
        <time>2013-05-26T10:30:20.600Z</time>
      </trkpt>
      <trkpt lat="45.84261" lon="6.23554">
        <ele>883.2</ele>
        <time>2013-05-26T10:30:21.600Z</time>
      </trkpt>
      <trkpt lat="45.84268" lon="6.23544">
        <ele>884.1</ele>
        <time>2013-05-26T10:30:25.600Z</time>
      </trkpt>
      <trkpt lat="45.84272" lon="6.23539">
        <ele>883.8</ele>
        <time>2013-05-26T10:30:27.600Z</time>
      </trkpt>
      <trkpt lat="45.84274" lon="6.23537">
        <ele>881.6</ele>
        <time>2013-05-26T10:30:28.600Z</time>
      </trkpt>
      <trkpt lat="45.84276" lon="6.23535">
        <ele>882</ele>
        <time>2013-05-26T10:30:29.600Z</time>
      </trkpt>
      <trkpt lat="45.84279" lon="6.23533">
        <ele>885.6</ele>
        <time>2013-05-26T10:30:30.600Z</time>
      </trkpt>
      <trkpt lat="45.84282" lon="6.23531">
        <ele>883.2</ele>
        <time>2013-05-26T10:30:31.600Z</time>
      </trkpt>
      <trkpt lat="45.84286" lon="6.2353">
        <ele>883.4</ele>
        <time>2013-05-26T10:30:32.600Z</time>
      </trkpt>
      <trkpt lat="45.84291" lon="6.23527">
        <ele>885.1</ele>
        <time>2013-05-26T10:30:34.600Z</time>
      </trkpt>
      <trkpt lat="45.84293" lon="6.23526">
        <ele>888.9</ele>
        <time>2013-05-26T10:30:35.600Z</time>
      </trkpt>
      <trkpt lat="45.84296" lon="6.23525">
        <ele>888.9</ele>
        <time>2013-05-26T10:30:36.600Z</time>
      </trkpt>
      <trkpt lat="45.84299" lon="6.23524">
        <ele>888.6</ele>
        <time>2013-05-26T10:30:37.600Z</time>
      </trkpt>
      <trkpt lat="45.84306" lon="6.23521">
        <ele>885</ele>
        <time>2013-05-26T10:30:40.600Z</time>
      </trkpt>
      <trkpt lat="45.84308" lon="6.2352">
        <ele>887.2</ele>
        <time>2013-05-26T10:30:41.600Z</time>
      </trkpt>
      <trkpt lat="45.84311" lon="6.23519">
        <ele>884</ele>
        <time>2013-05-26T10:30:42.600Z</time>
      </trkpt>
      <trkpt lat="45.84322" lon="6.23515">
        <ele>886</ele>
        <time>2013-05-26T10:30:47.600Z</time>
      </trkpt>
      <trkpt lat="45.84325" lon="6.23514">
        <ele>887.2</ele>
        <time>2013-05-26T10:30:48.600Z</time>
      </trkpt>
      <trkpt lat="45.84327" lon="6.23513">
        <ele>883.9</ele>
        <time>2013-05-26T10:30:49.600Z</time>
      </trkpt>
      <trkpt lat="45.8433" lon="6.23512">
        <ele>884.1</ele>
        <time>2013-05-26T10:30:50.600Z</time>
      </trkpt>
      <trkpt lat="45.84332" lon="6.23511">
        <ele>883.7</ele>
        <time>2013-05-26T10:30:51.600Z</time>
      </trkpt>
      <trkpt lat="45.84339" lon="6.23507">
        <ele>888.5</ele>
        <time>2013-05-26T10:30:54.600Z</time>
      </trkpt>
      <trkpt lat="45.84341" lon="6.23507">
        <ele>891.1</ele>
        <time>2013-05-26T10:30:55.600Z</time>
      </trkpt>
      <trkpt lat="45.84344" lon="6.23506">
        <ele>891.8</ele>
        <time>2013-05-26T10:30:56.600Z</time>
      </trkpt>
      <trkpt lat="45.8435" lon="6.23504">
        <ele>892.4</ele>
        <time>2013-05-26T10:30:59.600Z</time>
      </trkpt>
      <trkpt lat="45.84353" lon="6.23503">
        <ele>890.3</ele>
        <time>2013-05-26T10:31:00.600Z</time>
      </trkpt>
      <trkpt lat="45.84364" lon="6.23499">
        <ele>886.4</ele>
        <time>2013-05-26T10:31:05.600Z</time>
      </trkpt>
      <trkpt lat="45.84369" lon="6.23496">
        <ele>883.5</ele>
        <time>2013-05-26T10:31:07.600Z</time>
      </trkpt>
      <trkpt lat="45.84372" lon="6.23495">
        <ele>884.7</ele>
        <time>2013-05-26T10:31:08.600Z</time>
      </trkpt>
      <trkpt lat="45.84375" lon="6.23494">
        <ele>886.5</ele>
        <time>2013-05-26T10:31:09.600Z</time>
      </trkpt>
      <trkpt lat="45.8438" lon="6.23491">
        <ele>882.7</ele>
        <time>2013-05-26T10:31:11.600Z</time>
      </trkpt>
      <trkpt lat="45.84382" lon="6.2349">
        <ele>887</ele>
        <time>2013-05-26T10:31:12.600Z</time>
      </trkpt>
      <trkpt lat="45.84384" lon="6.23489">
        <ele>887.9</ele>
        <time>2013-05-26T10:31:13.600Z</time>
      </trkpt>
      <trkpt lat="45.84388" lon="6.23488">
        <ele>887.4</ele>
        <time>2013-05-26T10:31:14.600Z</time>
      </trkpt>
      <trkpt lat="45.84391" lon="6.23488">
        <ele>887.8</ele>
        <time>2013-05-26T10:31:15.600Z</time>
      </trkpt>
      <trkpt lat="45.84399" lon="6.23485">
        <ele>884.2</ele>
        <time>2013-05-26T10:31:19.600Z</time>
      </trkpt>
      <trkpt lat="45.84405" lon="6.23482">
        <ele>881.3</ele>
        <time>2013-05-26T10:31:23.600Z</time>
      </trkpt>
      <trkpt lat="45.84412" lon="6.23482">
        <ele>876.4</ele>
        <time>2013-05-26T10:31:25.600Z</time>
      </trkpt>
      <trkpt lat="45.84414" lon="6.23481">
        <ele>877</ele>
        <time>2013-05-26T10:31:26.600Z</time>
      </trkpt>
      <trkpt lat="45.84423" lon="6.23474">
        <ele>875.5</ele>
        <time>2013-05-26T10:31:31.600Z</time>
      </trkpt>
      <trkpt lat="45.84431" lon="6.2347">
        <ele>878.7</ele>
        <time>2013-05-26T10:31:35.600Z</time>
      </trkpt>
      <trkpt lat="45.84436" lon="6.23467">
        <ele>881.7</ele>
        <time>2013-05-26T10:31:37.600Z</time>
      </trkpt>
      <trkpt lat="45.8444" lon="6.23466">
        <ele>881.4</ele>
        <time>2013-05-26T10:31:38.600Z</time>
      </trkpt>
      <trkpt lat="45.84443" lon="6.23465">
        <ele>883.8</ele>
        <time>2013-05-26T10:31:39.600Z</time>
      </trkpt>
      <trkpt lat="45.84459" lon="6.23462">
        <ele>888.1</ele>
        <time>2013-05-26T10:31:43.600Z</time>
      </trkpt>
      <trkpt lat="45.84462" lon="6.23461">
        <ele>887.8</ele>
        <time>2013-05-26T10:31:44.600Z</time>
      </trkpt>
      <trkpt lat="45.84465" lon="6.2346">
        <ele>887.9</ele>
        <time>2013-05-26T10:31:45.600Z</time>
      </trkpt>
      <trkpt lat="45.8447" lon="6.23458">
        <ele>889.5</ele>
        <time>2013-05-26T10:31:47.600Z</time>
      </trkpt>
      <trkpt lat="45.84473" lon="6.23457">
        <ele>886.5</ele>
        <time>2013-05-26T10:31:48.600Z</time>
      </trkpt>
      <trkpt lat="45.84477" lon="6.23456">
        <ele>887</ele>
        <time>2013-05-26T10:31:49.600Z</time>
      </trkpt>
      <trkpt lat="45.84491" lon="6.23455">
        <ele>886.1</ele>
        <time>2013-05-26T10:31:54.600Z</time>
      </trkpt>
      <trkpt lat="45.84496" lon="6.23454">
        <ele>889</ele>
        <time>2013-05-26T10:31:56.600Z</time>
      </trkpt>
      <trkpt lat="45.84504" lon="6.23454">
        <ele>890.3</ele>
        <time>2013-05-26T10:32:00.600Z</time>
      </trkpt>
      <trkpt lat="45.84532" lon="6.23477">
        <ele>879.1</ele>
        <time>2013-05-26T10:32:05.600Z</time>
      </trkpt>
      <trkpt lat="45.8455" lon="6.23491">
        <ele>878.5</ele>
        <time>2013-05-26T10:32:09.600Z</time>
      </trkpt>
      <trkpt lat="45.84553" lon="6.23494">
        <ele>877.3</ele>
        <time>2013-05-26T10:32:10.600Z</time>
      </trkpt>
      <trkpt lat="45.84556" lon="6.23497">
        <ele>877.6</ele>
        <time>2013-05-26T10:32:11.600Z</time>
      </trkpt>
      <trkpt lat="45.84559" lon="6.235">
        <ele>877</ele>
        <time>2013-05-26T10:32:12.600Z</time>
      </trkpt>
      <trkpt lat="45.84562" lon="6.23503">
        <ele>879.1</ele>
        <time>2013-05-26T10:32:13.600Z</time>
      </trkpt>
      <trkpt lat="45.84565" lon="6.23505">
        <ele>879.1</ele>
        <time>2013-05-26T10:32:14.600Z</time>
      </trkpt>
      <trkpt lat="45.84567" lon="6.23508">
        <ele>880.2</ele>
        <time>2013-05-26T10:32:15.600Z</time>
      </trkpt>
      <trkpt lat="45.8457" lon="6.23511">
        <ele>879.9</ele>
        <time>2013-05-26T10:32:16.600Z</time>
      </trkpt>
      <trkpt lat="45.84575" lon="6.23518">
        <ele>879.1</ele>
        <time>2013-05-26T10:32:18.600Z</time>
      </trkpt>
      <trkpt lat="45.84579" lon="6.23525">
        <ele>880.1</ele>
        <time>2013-05-26T10:32:20.600Z</time>
      </trkpt>
      <trkpt lat="45.84582" lon="6.23529">
        <ele>876.8</ele>
        <time>2013-05-26T10:32:21.600Z</time>
      </trkpt>
      <trkpt lat="45.84584" lon="6.23532">
        <ele>880.4</ele>
        <time>2013-05-26T10:32:22.600Z</time>
      </trkpt>
      <trkpt lat="45.84586" lon="6.23536">
        <ele>881.2</ele>
        <time>2013-05-26T10:32:23.600Z</time>
      </trkpt>
      <trkpt lat="45.84588" lon="6.23539">
        <ele>880.9</ele>
        <time>2013-05-26T10:32:24.600Z</time>
      </trkpt>
      <trkpt lat="45.8459" lon="6.23541">
        <ele>877.6</ele>
        <time>2013-05-26T10:32:25.600Z</time>
      </trkpt>
      <trkpt lat="45.84598" lon="6.23551">
        <ele>873.1</ele>
        <time>2013-05-26T10:32:29.600Z</time>
      </trkpt>
      <trkpt lat="45.84604" lon="6.23561">
        <ele>876.1</ele>
        <time>2013-05-26T10:32:33.600Z</time>
      </trkpt>
      <trkpt lat="45.84606" lon="6.23564">
        <ele>872.6</ele>
        <time>2013-05-26T10:32:34.600Z</time>
      </trkpt>
      <trkpt lat="45.84607" lon="6.23568">
        <ele>870</ele>
        <time>2013-05-26T10:32:35.600Z</time>
      </trkpt>
      <trkpt lat="45.8461" lon="6.23571">
        <ele>867.3</ele>
        <time>2013-05-26T10:32:36.600Z</time>
      </trkpt>
      <trkpt lat="45.84611" lon="6.23574">
        <ele>868.7</ele>
        <time>2013-05-26T10:32:37.600Z</time>
      </trkpt>
      <trkpt lat="45.84613" lon="6.23578">
        <ele>872.3</ele>
        <time>2013-05-26T10:32:38.600Z</time>
      </trkpt>
      <trkpt lat="45.84615" lon="6.23581">
        <ele>874.8</ele>
        <time>2013-05-26T10:32:39.600Z</time>
      </trkpt>
      <trkpt lat="45.84617" lon="6.23585">
        <ele>875.7</ele>
        <time>2013-05-26T10:32:40.600Z</time>
      </trkpt>
      <trkpt lat="45.84619" lon="6.23587">
        <ele>872.7</ele>
        <time>2013-05-26T10:32:41.600Z</time>
      </trkpt>
      <trkpt lat="45.84621" lon="6.2359">
        <ele>874.2</ele>
        <time>2013-05-26T10:32:42.600Z</time>
      </trkpt>
      <trkpt lat="45.84623" lon="6.23592">
        <ele>873.1</ele>
        <time>2013-05-26T10:32:43.600Z</time>
      </trkpt>
      <trkpt lat="45.84625" lon="6.23594">
        <ele>873.6</ele>
        <time>2013-05-26T10:32:44.600Z</time>
      </trkpt>
      <trkpt lat="45.84627" lon="6.23597">
        <ele>873.6</ele>
        <time>2013-05-26T10:32:45.600Z</time>
      </trkpt>
      <trkpt lat="45.84628" lon="6.236">
        <ele>873.4</ele>
        <time>2013-05-26T10:32:46.600Z</time>
      </trkpt>
      <trkpt lat="45.8463" lon="6.23602">
        <ele>872.3</ele>
        <time>2013-05-26T10:32:47.600Z</time>
      </trkpt>
      <trkpt lat="45.84632" lon="6.23604">
        <ele>874.9</ele>
        <time>2013-05-26T10:32:48.600Z</time>
      </trkpt>
      <trkpt lat="45.84636" lon="6.23609">
        <ele>877.9</ele>
        <time>2013-05-26T10:32:50.600Z</time>
      </trkpt>
      <trkpt lat="45.84644" lon="6.23611">
        <ele>875.7</ele>
        <time>2013-05-26T10:32:55.600Z</time>
      </trkpt>
      <trkpt lat="45.84655" lon="6.23604">
        <ele>872.6</ele>
        <time>2013-05-26T10:32:59.600Z</time>
      </trkpt>
      <trkpt lat="45.84655" lon="6.23597">
        <ele>879.6</ele>
        <time>2013-05-26T10:33:01.600Z</time>
      </trkpt>
      <trkpt lat="45.84656" lon="6.23593">
        <ele>877.3</ele>
        <time>2013-05-26T10:33:02.600Z</time>
      </trkpt>
      <trkpt lat="45.84655" lon="6.23588">
        <ele>875.3</ele>
        <time>2013-05-26T10:33:03.600Z</time>
      </trkpt>
      <trkpt lat="45.84655" lon="6.23583">
        <ele>871.7</ele>
        <time>2013-05-26T10:33:04.600Z</time>
      </trkpt>
      <trkpt lat="45.84656" lon="6.23577">
        <ele>873.1</ele>
        <time>2013-05-26T10:33:05.600Z</time>
      </trkpt>
      <trkpt lat="45.84657" lon="6.23574">
        <ele>865.7</ele>
        <time>2013-05-26T10:33:06.600Z</time>
      </trkpt>
      <trkpt lat="45.84658" lon="6.2357">
        <ele>865.9</ele>
        <time>2013-05-26T10:33:07.600Z</time>
      </trkpt>
      <trkpt lat="45.84659" lon="6.23565">
        <ele>863.6</ele>
        <time>2013-05-26T10:33:08.600Z</time>
      </trkpt>
      <trkpt lat="45.84659" lon="6.23561">
        <ele>868.4</ele>
        <time>2013-05-26T10:33:09.600Z</time>
      </trkpt>
      <trkpt lat="45.8466" lon="6.23556">
        <ele>868</ele>
        <time>2013-05-26T10:33:10.600Z</time>
      </trkpt>
      <trkpt lat="45.84662" lon="6.23548">
        <ele>864.9</ele>
        <time>2013-05-26T10:33:12.600Z</time>
      </trkpt>
      <trkpt lat="45.84663" lon="6.23543">
        <ele>865.6</ele>
        <time>2013-05-26T10:33:13.600Z</time>
      </trkpt>
      <trkpt lat="45.84664" lon="6.23539">
        <ele>867.4</ele>
        <time>2013-05-26T10:33:14.600Z</time>
      </trkpt>
      <trkpt lat="45.84665" lon="6.23535">
        <ele>864.8</ele>
        <time>2013-05-26T10:33:15.600Z</time>
      </trkpt>
      <trkpt lat="45.84666" lon="6.23531">
        <ele>866.3</ele>
        <time>2013-05-26T10:33:16.600Z</time>
      </trkpt>
      <trkpt lat="45.84668" lon="6.23524">
        <ele>869.4</ele>
        <time>2013-05-26T10:33:18.600Z</time>
      </trkpt>
      <trkpt lat="45.84669" lon="6.2352">
        <ele>869.1</ele>
        <time>2013-05-26T10:33:19.600Z</time>
      </trkpt>
      <trkpt lat="45.8467" lon="6.23517">
        <ele>871.1</ele>
        <time>2013-05-26T10:33:20.600Z</time>
      </trkpt>
      <trkpt lat="45.84673" lon="6.23511">
        <ele>871.5</ele>
        <time>2013-05-26T10:33:22.600Z</time>
      </trkpt>
      <trkpt lat="45.84675" lon="6.235">
        <ele>864.2</ele>
        <time>2013-05-26T10:33:25.600Z</time>
      </trkpt>
      <trkpt lat="45.84675" lon="6.23496">
        <ele>863.3</ele>
        <time>2013-05-26T10:33:26.600Z</time>
      </trkpt>
      <trkpt lat="45.84676" lon="6.23492">
        <ele>859.3</ele>
        <time>2013-05-26T10:33:27.600Z</time>
      </trkpt>
      <trkpt lat="45.84677" lon="6.23488">
        <ele>857.7</ele>
        <time>2013-05-26T10:33:28.600Z</time>
      </trkpt>
      <trkpt lat="45.84678" lon="6.23483">
        <ele>857</ele>
        <time>2013-05-26T10:33:29.600Z</time>
      </trkpt>
      <trkpt lat="45.84678" lon="6.23475">
        <ele>852.4</ele>
        <time>2013-05-26T10:33:31.600Z</time>
      </trkpt>
      <trkpt lat="45.84677" lon="6.23465">
        <ele>854.5</ele>
        <time>2013-05-26T10:33:34.600Z</time>
      </trkpt>
      <trkpt lat="45.84677" lon="6.23456">
        <ele>851</ele>
        <time>2013-05-26T10:33:36.600Z</time>
      </trkpt>
      <trkpt lat="45.84677" lon="6.23452">
        <ele>848</ele>
        <time>2013-05-26T10:33:37.600Z</time>
      </trkpt>
      <trkpt lat="45.84676" lon="6.23449">
        <ele>849.1</ele>
        <time>2013-05-26T10:33:38.600Z</time>
      </trkpt>
      <trkpt lat="45.84676" lon="6.23446">
        <ele>846.3</ele>
        <time>2013-05-26T10:33:39.600Z</time>
      </trkpt>
      <trkpt lat="45.84676" lon="6.23442">
        <ele>846.1</ele>
        <time>2013-05-26T10:33:40.600Z</time>
      </trkpt>
      <trkpt lat="45.84676" lon="6.23433">
        <ele>843.5</ele>
        <time>2013-05-26T10:33:42.600Z</time>
      </trkpt>
      <trkpt lat="45.84676" lon="6.23428">
        <ele>843.1</ele>
        <time>2013-05-26T10:33:43.600Z</time>
      </trkpt>
      <trkpt lat="45.84676" lon="6.23421">
        <ele>847.1</ele>
        <time>2013-05-26T10:33:45.600Z</time>
      </trkpt>
      <trkpt lat="45.84675" lon="6.23417">
        <ele>846.9</ele>
        <time>2013-05-26T10:33:46.600Z</time>
      </trkpt>
      <trkpt lat="45.84675" lon="6.2341">
        <ele>846.6</ele>
        <time>2013-05-26T10:33:48.600Z</time>
      </trkpt>
      <trkpt lat="45.84675" lon="6.23402">
        <ele>845.8</ele>
        <time>2013-05-26T10:33:50.600Z</time>
      </trkpt>
      <trkpt lat="45.84676" lon="6.23395">
        <ele>843.6</ele>
        <time>2013-05-26T10:33:52.600Z</time>
      </trkpt>
      <trkpt lat="45.84676" lon="6.23391">
        <ele>842.6</ele>
        <time>2013-05-26T10:33:53.600Z</time>
      </trkpt>
      <trkpt lat="45.84676" lon="6.23383">
        <ele>840.9</ele>
        <time>2013-05-26T10:33:55.600Z</time>
      </trkpt>
      <trkpt lat="45.84675" lon="6.23379">
        <ele>843.1</ele>
        <time>2013-05-26T10:33:56.600Z</time>
      </trkpt>
      <trkpt lat="45.84674" lon="6.23375">
        <ele>841.1</ele>
        <time>2013-05-26T10:33:57.600Z</time>
      </trkpt>
      <trkpt lat="45.84674" lon="6.23371">
        <ele>840.4</ele>
        <time>2013-05-26T10:33:58.600Z</time>
      </trkpt>
      <trkpt lat="45.84673" lon="6.23367">
        <ele>843</ele>
        <time>2013-05-26T10:33:59.600Z</time>
      </trkpt>
      <trkpt lat="45.84673" lon="6.23363">
        <ele>838.5</ele>
        <time>2013-05-26T10:34:00.600Z</time>
      </trkpt>
      <trkpt lat="45.84673" lon="6.23359">
        <ele>839</ele>
        <time>2013-05-26T10:34:01.600Z</time>
      </trkpt>
      <trkpt lat="45.84672" lon="6.23355">
        <ele>843</ele>
        <time>2013-05-26T10:34:02.600Z</time>
      </trkpt>
      <trkpt lat="45.84672" lon="6.23351">
        <ele>847.1</ele>
        <time>2013-05-26T10:34:03.600Z</time>
      </trkpt>
      <trkpt lat="45.84671" lon="6.23342">
        <ele>841.1</ele>
        <time>2013-05-26T10:34:05.600Z</time>
      </trkpt>
      <trkpt lat="45.8467" lon="6.23334">
        <ele>843.5</ele>
        <time>2013-05-26T10:34:07.600Z</time>
      </trkpt>
      <trkpt lat="45.8467" lon="6.2333">
        <ele>847.9</ele>
        <time>2013-05-26T10:34:08.600Z</time>
      </trkpt>
      <trkpt lat="45.84669" lon="6.23326">
        <ele>847.8</ele>
        <time>2013-05-26T10:34:09.600Z</time>
      </trkpt>
      <trkpt lat="45.84669" lon="6.23322">
        <ele>850.9</ele>
        <time>2013-05-26T10:34:10.600Z</time>
      </trkpt>
      <trkpt lat="45.84668" lon="6.23314">
        <ele>857.9</ele>
        <time>2013-05-26T10:34:12.600Z</time>
      </trkpt>
      <trkpt lat="45.84668" lon="6.2331">
        <ele>858.1</ele>
        <time>2013-05-26T10:34:13.600Z</time>
      </trkpt>
      <trkpt lat="45.84667" lon="6.23306">
        <ele>855.1</ele>
        <time>2013-05-26T10:34:14.600Z</time>
      </trkpt>
      <trkpt lat="45.84667" lon="6.23302">
        <ele>857</ele>
        <time>2013-05-26T10:34:15.600Z</time>
      </trkpt>
      <trkpt lat="45.84666" lon="6.23296">
        <ele>851.4</ele>
        <time>2013-05-26T10:34:17.600Z</time>
      </trkpt>
      <trkpt lat="45.84665" lon="6.23292">
        <ele>850.7</ele>
        <time>2013-05-26T10:34:18.600Z</time>
      </trkpt>
      <trkpt lat="45.84664" lon="6.23289">
        <ele>850.8</ele>
        <time>2013-05-26T10:34:19.600Z</time>
      </trkpt>
      <trkpt lat="45.84663" lon="6.23279">
        <ele>853.2</ele>
        <time>2013-05-26T10:34:22.600Z</time>
      </trkpt>
      <trkpt lat="45.84662" lon="6.23275">
        <ele>853.4</ele>
        <time>2013-05-26T10:34:23.600Z</time>
      </trkpt>
      <trkpt lat="45.84661" lon="6.23271">
        <ele>849.3</ele>
        <time>2013-05-26T10:34:24.600Z</time>
      </trkpt>
      <trkpt lat="45.84656" lon="6.23257">
        <ele>841.9</ele>
        <time>2013-05-26T10:34:29.600Z</time>
      </trkpt>
      <trkpt lat="45.84655" lon="6.23254">
        <ele>838.2</ele>
        <time>2013-05-26T10:34:30.600Z</time>
      </trkpt>
      <trkpt lat="45.84654" lon="6.2325">
        <ele>840</ele>
        <time>2013-05-26T10:34:31.600Z</time>
      </trkpt>
      <trkpt lat="45.84653" lon="6.23246">
        <ele>846.5</ele>
        <time>2013-05-26T10:34:32.600Z</time>
      </trkpt>
      <trkpt lat="45.84651" lon="6.23243">
        <ele>843.8</ele>
        <time>2013-05-26T10:34:33.600Z</time>
      </trkpt>
      <trkpt lat="45.8465" lon="6.2324">
        <ele>845.9</ele>
        <time>2013-05-26T10:34:34.600Z</time>
      </trkpt>
      <trkpt lat="45.8465" lon="6.23237">
        <ele>848.1</ele>
        <time>2013-05-26T10:34:35.600Z</time>
      </trkpt>
      <trkpt lat="45.84649" lon="6.23231">
        <ele>843.5</ele>
        <time>2013-05-26T10:34:37.600Z</time>
      </trkpt>
      <trkpt lat="45.84648" lon="6.23228">
        <ele>843.5</ele>
        <time>2013-05-26T10:34:38.600Z</time>
      </trkpt>
      <trkpt lat="45.84647" lon="6.23224">
        <ele>843.3</ele>
        <time>2013-05-26T10:34:39.600Z</time>
      </trkpt>
      <trkpt lat="45.84646" lon="6.23221">
        <ele>844.7</ele>
        <time>2013-05-26T10:34:40.600Z</time>
      </trkpt>
      <trkpt lat="45.84645" lon="6.23217">
        <ele>841.1</ele>
        <time>2013-05-26T10:34:41.600Z</time>
      </trkpt>
      <trkpt lat="45.84644" lon="6.23214">
        <ele>845.5</ele>
        <time>2013-05-26T10:34:42.600Z</time>
      </trkpt>
      <trkpt lat="45.84643" lon="6.23209">
        <ele>844.5</ele>
        <time>2013-05-26T10:34:43.600Z</time>
      </trkpt>
      <trkpt lat="45.8464" lon="6.23202">
        <ele>846.2</ele>
        <time>2013-05-26T10:34:45.600Z</time>
      </trkpt>
      <trkpt lat="45.84639" lon="6.23199">
        <ele>842.8</ele>
        <time>2013-05-26T10:34:46.600Z</time>
      </trkpt>
      <trkpt lat="45.84638" lon="6.23196">
        <ele>845.9</ele>
        <time>2013-05-26T10:34:47.600Z</time>
      </trkpt>
      <trkpt lat="45.84637" lon="6.23193">
        <ele>843.3</ele>
        <time>2013-05-26T10:34:48.600Z</time>
      </trkpt>
      <trkpt lat="45.84636" lon="6.23189">
        <ele>841.8</ele>
        <time>2013-05-26T10:34:49.600Z</time>
      </trkpt>
      <trkpt lat="45.84635" lon="6.23186">
        <ele>843</ele>
        <time>2013-05-26T10:34:50.600Z</time>
      </trkpt>
      <trkpt lat="45.84633" lon="6.23179">
        <ele>842.6</ele>
        <time>2013-05-26T10:34:52.600Z</time>
      </trkpt>
      <trkpt lat="45.84632" lon="6.23176">
        <ele>845.5</ele>
        <time>2013-05-26T10:34:53.600Z</time>
      </trkpt>
      <trkpt lat="45.84631" lon="6.23169">
        <ele>845.1</ele>
        <time>2013-05-26T10:34:55.600Z</time>
      </trkpt>
      <trkpt lat="45.84631" lon="6.23166">
        <ele>843.6</ele>
        <time>2013-05-26T10:34:56.600Z</time>
      </trkpt>
      <trkpt lat="45.84631" lon="6.23159">
        <ele>842</ele>
        <time>2013-05-26T10:34:58.600Z</time>
      </trkpt>
      <trkpt lat="45.84631" lon="6.23152">
        <ele>847.1</ele>
        <time>2013-05-26T10:35:00.600Z</time>
      </trkpt>
      <trkpt lat="45.84632" lon="6.23142">
        <ele>849.4</ele>
        <time>2013-05-26T10:35:03.600Z</time>
      </trkpt>
      <trkpt lat="45.84632" lon="6.23138">
        <ele>851.6</ele>
        <time>2013-05-26T10:35:04.600Z</time>
      </trkpt>
      <trkpt lat="45.84632" lon="6.23133">
        <ele>853.1</ele>
        <time>2013-05-26T10:35:05.600Z</time>
      </trkpt>
      <trkpt lat="45.84633" lon="6.23129">
        <ele>854.3</ele>
        <time>2013-05-26T10:35:06.600Z</time>
      </trkpt>
      <trkpt lat="45.84634" lon="6.23124">
        <ele>853.6</ele>
        <time>2013-05-26T10:35:07.600Z</time>
      </trkpt>
      <trkpt lat="45.84635" lon="6.23116">
        <ele>849.8</ele>
        <time>2013-05-26T10:35:12.600Z</time>
      </trkpt>
      <trkpt lat="45.84635" lon="6.23113">
        <ele>850</ele>
        <time>2013-05-26T10:35:14.600Z</time>
      </trkpt>
      <trkpt lat="45.84636" lon="6.23107">
        <ele>856.7</ele>
        <time>2013-05-26T10:35:18.700Z</time>
      </trkpt>
      <trkpt lat="45.84634" lon="6.23106">
        <ele>873.1</ele>
        <time>2013-05-26T10:35:21.600Z</time>
      </trkpt>
      <trkpt lat="45.84633" lon="6.23107">
        <ele>875.4</ele>
        <time>2013-05-26T10:35:25.600Z</time>
      </trkpt>
      <trkpt lat="45.8463" lon="6.23109">
        <ele>876.9</ele>
        <time>2013-05-26T10:35:28.600Z</time>
      </trkpt>
      <trkpt lat="45.84627" lon="6.23119">
        <ele>865.7</ele>
        <time>2013-05-26T10:35:33.600Z</time>
      </trkpt>
      <trkpt lat="45.84628" lon="6.23118">
        <ele>871.7</ele>
        <time>2013-05-26T10:35:37.600Z</time>
      </trkpt>
      <trkpt lat="45.84629" lon="6.23116">
        <ele>878.7</ele>
        <time>2013-05-26T10:35:42.600Z</time>
      </trkpt>
      <trkpt lat="45.8463" lon="6.23116">
        <ele>877.4</ele>
        <time>2013-05-26T10:35:47.600Z</time>
      </trkpt>
      <trkpt lat="45.8463" lon="6.23115">
        <ele>888.3</ele>
        <time>2013-05-26T10:35:52.600Z</time>
      </trkpt>
      <trkpt lat="45.84629" lon="6.23116">
        <ele>877.4</ele>
        <time>2013-05-26T10:35:57.600Z</time>
      </trkpt>
      <trkpt lat="45.84629" lon="6.23117">
        <ele>873.1</ele>
        <time>2013-05-26T10:35:58.600Z</time>
      </trkpt>
      <trkpt lat="45.84628" lon="6.23118">
        <ele>876</ele>
        <time>2013-05-26T10:35:59.600Z</time>
      </trkpt>
      <trkpt lat="45.84628" lon="6.23119">
        <ele>872.9</ele>
        <time>2013-05-26T10:36:04.600Z</time>
      </trkpt>
      <trkpt lat="45.84628" lon="6.23119">
        <ele>873.6</ele>
        <time>2013-05-26T10:36:09.600Z</time>
      </trkpt>
      <trkpt lat="45.84627" lon="6.23121">
        <ele>869.1</ele>
        <time>2013-05-26T10:36:11.600Z</time>
      </trkpt>
      <trkpt lat="45.84627" lon="6.23122">
        <ele>871.2</ele>
        <time>2013-05-26T10:36:16.600Z</time>
      </trkpt>
      <trkpt lat="45.84627" lon="6.23123">
        <ele>873.7</ele>
        <time>2013-05-26T10:36:20.600Z</time>
      </trkpt>
      <trkpt lat="45.84627" lon="6.23123">
        <ele>870.6</ele>
        <time>2013-05-26T10:36:24.600Z</time>
      </trkpt>
      <trkpt lat="45.84627" lon="6.23125">
        <ele>875.4</ele>
        <time>2013-05-26T10:36:29.600Z</time>
      </trkpt>
      <trkpt lat="45.84627" lon="6.23125">
        <ele>867.9</ele>
        <time>2013-05-26T10:36:34.600Z</time>
      </trkpt>
      <trkpt lat="45.84627" lon="6.23125">
        <ele>865</ele>
        <time>2013-05-26T10:36:39.600Z</time>
      </trkpt>
      <trkpt lat="45.84627" lon="6.23125">
        <ele>857.9</ele>
        <time>2013-05-26T10:36:44.600Z</time>
      </trkpt>
      <trkpt lat="45.84631" lon="6.23123">
        <ele>852.6</ele>
        <time>2013-05-26T10:36:48.600Z</time>
      </trkpt>
      <trkpt lat="45.84632" lon="6.23115">
        <ele>849.1</ele>
        <time>2013-05-26T10:36:52.600Z</time>
      </trkpt>
      <trkpt lat="45.8463" lon="6.23101">
        <ele>841.9</ele>
        <time>2013-05-26T10:36:56.600Z</time>
      </trkpt>
      <trkpt lat="45.84629" lon="6.23081">
        <ele>834.6</ele>
        <time>2013-05-26T10:37:01.600Z</time>
      </trkpt>
      <trkpt lat="45.84629" lon="6.23077">
        <ele>832.4</ele>
        <time>2013-05-26T10:37:02.600Z</time>
      </trkpt>
      <trkpt lat="45.84629" lon="6.23074">
        <ele>832.4</ele>
        <time>2013-05-26T10:37:03.600Z</time>
      </trkpt>
      <trkpt lat="45.84629" lon="6.2307">
        <ele>830.6</ele>
        <time>2013-05-26T10:37:04.600Z</time>
      </trkpt>
      <trkpt lat="45.84629" lon="6.23067">
        <ele>831.9</ele>
        <time>2013-05-26T10:37:05.600Z</time>
      </trkpt>
      <trkpt lat="45.84629" lon="6.23063">
        <ele>830.2</ele>
        <time>2013-05-26T10:37:06.600Z</time>
      </trkpt>
      <trkpt lat="45.84629" lon="6.23059">
        <ele>827.6</ele>
        <time>2013-05-26T10:37:07.600Z</time>
      </trkpt>
      <trkpt lat="45.8463" lon="6.23055">
        <ele>827.3</ele>
        <time>2013-05-26T10:37:08.600Z</time>
      </trkpt>
      <trkpt lat="45.8463" lon="6.23051">
        <ele>824.9</ele>
        <time>2013-05-26T10:37:09.600Z</time>
      </trkpt>
      <trkpt lat="45.84629" lon="6.23022">
        <ele>829.2</ele>
        <time>2013-05-26T10:37:14.600Z</time>
      </trkpt>
      <trkpt lat="45.84629" lon="6.23018">
        <ele>827.8</ele>
        <time>2013-05-26T10:37:15.600Z</time>
      </trkpt>
      <trkpt lat="45.84629" lon="6.23013">
        <ele>830.9</ele>
        <time>2013-05-26T10:37:16.600Z</time>
      </trkpt>
      <trkpt lat="45.84629" lon="6.23007">
        <ele>829.3</ele>
        <time>2013-05-26T10:37:17.600Z</time>
      </trkpt>
      <trkpt lat="45.84629" lon="6.23003">
        <ele>831.8</ele>
        <time>2013-05-26T10:37:18.600Z</time>
      </trkpt>
      <trkpt lat="45.8463" lon="6.23">
        <ele>830.4</ele>
        <time>2013-05-26T10:37:19.600Z</time>
      </trkpt>
      <trkpt lat="45.8463" lon="6.22994">
        <ele>829.1</ele>
        <time>2013-05-26T10:37:21.600Z</time>
      </trkpt>
      <trkpt lat="45.8463" lon="6.2299">
        <ele>826</ele>
        <time>2013-05-26T10:37:22.600Z</time>
      </trkpt>
      <trkpt lat="45.8463" lon="6.22986">
        <ele>823.2</ele>
        <time>2013-05-26T10:37:23.600Z</time>
      </trkpt>
      <trkpt lat="45.84629" lon="6.22983">
        <ele>822.8</ele>
        <time>2013-05-26T10:37:24.600Z</time>
      </trkpt>
      <trkpt lat="45.84627" lon="6.22974">
        <ele>816.1</ele>
        <time>2013-05-26T10:37:28.600Z</time>
      </trkpt>
      <trkpt lat="45.84625" lon="6.22976">
        <ele>816.6</ele>
        <time>2013-05-26T10:37:29.600Z</time>
      </trkpt>
      <trkpt lat="45.84634" lon="6.22967">
        <ele>835.9</ele>
        <time>2013-05-26T10:37:35.600Z</time>
      </trkpt>
      <trkpt lat="45.84634" lon="6.22967">
        <ele>838.6</ele>
        <time>2013-05-26T10:37:36.600Z</time>
      </trkpt>
      <trkpt lat="45.84636" lon="6.22966">
        <ele>836.6</ele>
        <time>2013-05-26T10:37:37.600Z</time>
      </trkpt>
      <trkpt lat="45.84634" lon="6.22963">
        <ele>840.1</ele>
        <time>2013-05-26T10:37:42.600Z</time>
      </trkpt>
      <trkpt lat="45.84633" lon="6.22961">
        <ele>841.5</ele>
        <time>2013-05-26T10:37:43.600Z</time>
      </trkpt>
      <trkpt lat="45.84633" lon="6.22959">
        <ele>846.3</ele>
        <time>2013-05-26T10:37:44.600Z</time>
      </trkpt>
      <trkpt lat="45.84632" lon="6.22956">
        <ele>843</ele>
        <time>2013-05-26T10:37:45.600Z</time>
      </trkpt>
      <trkpt lat="45.84627" lon="6.22936">
        <ele>839.8</ele>
        <time>2013-05-26T10:37:50.600Z</time>
      </trkpt>
      <trkpt lat="45.84626" lon="6.22932">
        <ele>838.5</ele>
        <time>2013-05-26T10:37:51.600Z</time>
      </trkpt>
      <trkpt lat="45.84625" lon="6.22922">
        <ele>838</ele>
        <time>2013-05-26T10:37:53.600Z</time>
      </trkpt>
      <trkpt lat="45.84625" lon="6.22918">
        <ele>834.6</ele>
        <time>2013-05-26T10:37:54.600Z</time>
      </trkpt>
      <trkpt lat="45.84624" lon="6.22913">
        <ele>836.9</ele>
        <time>2013-05-26T10:37:55.600Z</time>
      </trkpt>
      <trkpt lat="45.84624" lon="6.22909">
        <ele>834.3</ele>
        <time>2013-05-26T10:37:56.600Z</time>
      </trkpt>
      <trkpt lat="45.84623" lon="6.229">
        <ele>828.4</ele>
        <time>2013-05-26T10:37:58.600Z</time>
      </trkpt>
      <trkpt lat="45.84623" lon="6.22893">
        <ele>822.1</ele>
        <time>2013-05-26T10:38:00.600Z</time>
      </trkpt>
      <trkpt lat="45.84622" lon="6.2289">
        <ele>819.7</ele>
        <time>2013-05-26T10:38:01.600Z</time>
      </trkpt>
      <trkpt lat="45.84623" lon="6.22882">
        <ele>818.7</ele>
        <time>2013-05-26T10:38:03.600Z</time>
      </trkpt>
      <trkpt lat="45.84623" lon="6.22878">
        <ele>814.8</ele>
        <time>2013-05-26T10:38:04.600Z</time>
      </trkpt>
      <trkpt lat="45.84624" lon="6.22873">
        <ele>811.4</ele>
        <time>2013-05-26T10:38:05.600Z</time>
      </trkpt>
      <trkpt lat="45.84623" lon="6.22867">
        <ele>813.4</ele>
        <time>2013-05-26T10:38:06.600Z</time>
      </trkpt>
      <trkpt lat="45.84622" lon="6.22861">
        <ele>812.9</ele>
        <time>2013-05-26T10:38:07.600Z</time>
      </trkpt>
      <trkpt lat="45.84621" lon="6.22856">
        <ele>813.1</ele>
        <time>2013-05-26T10:38:08.600Z</time>
      </trkpt>
      <trkpt lat="45.8462" lon="6.2285">
        <ele>811.7</ele>
        <time>2013-05-26T10:38:09.600Z</time>
      </trkpt>
      <trkpt lat="45.84618" lon="6.22844">
        <ele>813.5</ele>
        <time>2013-05-26T10:38:10.600Z</time>
      </trkpt>
      <trkpt lat="45.84617" lon="6.22837">
        <ele>812.3</ele>
        <time>2013-05-26T10:38:11.600Z</time>
      </trkpt>
      <trkpt lat="45.84613" lon="6.22827">
        <ele>809.6</ele>
        <time>2013-05-26T10:38:13.600Z</time>
      </trkpt>
      <trkpt lat="45.8461" lon="6.22824">
        <ele>808.4</ele>
        <time>2013-05-26T10:38:14.600Z</time>
      </trkpt>
      <trkpt lat="45.84606" lon="6.22818">
        <ele>806.4</ele>
        <time>2013-05-26T10:38:19.600Z</time>
      </trkpt>
      <trkpt lat="45.84604" lon="6.2281">
        <ele>809.3</ele>
        <time>2013-05-26T10:38:24.600Z</time>
      </trkpt>
      <trkpt lat="45.84601" lon="6.22805">
        <ele>809.1</ele>
        <time>2013-05-26T10:38:28.600Z</time>
      </trkpt>
      <trkpt lat="45.84593" lon="6.22806">
        <ele>811</ele>
        <time>2013-05-26T10:38:33.600Z</time>
      </trkpt>
      <trkpt lat="45.84588" lon="6.22806">
        <ele>809.5</ele>
        <time>2013-05-26T10:38:35.600Z</time>
      </trkpt>
      <trkpt lat="45.84584" lon="6.22807">
        <ele>809.1</ele>
        <time>2013-05-26T10:38:37.600Z</time>
      </trkpt>
      <trkpt lat="45.84579" lon="6.22808">
        <ele>804.9</ele>
        <time>2013-05-26T10:38:40.600Z</time>
      </trkpt>
      <trkpt lat="45.84575" lon="6.22808">
        <ele>806.4</ele>
        <time>2013-05-26T10:38:42.600Z</time>
      </trkpt>
      <trkpt lat="45.84572" lon="6.22808">
        <ele>806</ele>
        <time>2013-05-26T10:38:43.600Z</time>
      </trkpt>
      <trkpt lat="45.84569" lon="6.22808">
        <ele>804.2</ele>
        <time>2013-05-26T10:38:44.600Z</time>
      </trkpt>
      <trkpt lat="45.84566" lon="6.22809">
        <ele>801.9</ele>
        <time>2013-05-26T10:38:45.600Z</time>
      </trkpt>
      <trkpt lat="45.84563" lon="6.22809">
        <ele>800.6</ele>
        <time>2013-05-26T10:38:46.600Z</time>
      </trkpt>
      <trkpt lat="45.84557" lon="6.2281">
        <ele>802.5</ele>
        <time>2013-05-26T10:38:48.600Z</time>
      </trkpt>
      <trkpt lat="45.84555" lon="6.22811">
        <ele>803.3</ele>
        <time>2013-05-26T10:38:49.600Z</time>
      </trkpt>
      <trkpt lat="45.84552" lon="6.22812">
        <ele>800.6</ele>
        <time>2013-05-26T10:38:50.600Z</time>
      </trkpt>
      <trkpt lat="45.84549" lon="6.22813">
        <ele>804.7</ele>
        <time>2013-05-26T10:38:51.600Z</time>
      </trkpt>
      <trkpt lat="45.84544" lon="6.22817">
        <ele>800.5</ele>
        <time>2013-05-26T10:38:53.600Z</time>
      </trkpt>
      <trkpt lat="45.84542" lon="6.22818">
        <ele>802.3</ele>
        <time>2013-05-26T10:38:54.600Z</time>
      </trkpt>
      <trkpt lat="45.84539" lon="6.2282">
        <ele>804.1</ele>
        <time>2013-05-26T10:38:55.600Z</time>
      </trkpt>
      <trkpt lat="45.84537" lon="6.22821">
        <ele>802.7</ele>
        <time>2013-05-26T10:38:56.600Z</time>
      </trkpt>
      <trkpt lat="45.84533" lon="6.22824">
        <ele>801.9</ele>
        <time>2013-05-26T10:38:58.600Z</time>
      </trkpt>
      <trkpt lat="45.8453" lon="6.22826">
        <ele>798.7</ele>
        <time>2013-05-26T10:38:59.600Z</time>
      </trkpt>
      <trkpt lat="45.84528" lon="6.22828">
        <ele>798</ele>
        <time>2013-05-26T10:39:00.600Z</time>
      </trkpt>
      <trkpt lat="45.84526" lon="6.22831">
        <ele>796.7</ele>
        <time>2013-05-26T10:39:01.600Z</time>
      </trkpt>
      <trkpt lat="45.84523" lon="6.22833">
        <ele>796.9</ele>
        <time>2013-05-26T10:39:02.600Z</time>
      </trkpt>
      <trkpt lat="45.8452" lon="6.22835">
        <ele>796.6</ele>
        <time>2013-05-26T10:39:03.600Z</time>
      </trkpt>
      <trkpt lat="45.84517" lon="6.22836">
        <ele>795.6</ele>
        <time>2013-05-26T10:39:04.600Z</time>
      </trkpt>
      <trkpt lat="45.84515" lon="6.22838">
        <ele>802.1</ele>
        <time>2013-05-26T10:39:05.600Z</time>
      </trkpt>
      <trkpt lat="45.8451" lon="6.22841">
        <ele>801.9</ele>
        <time>2013-05-26T10:39:07.600Z</time>
      </trkpt>
      <trkpt lat="45.84508" lon="6.22843">
        <ele>799.5</ele>
        <time>2013-05-26T10:39:08.600Z</time>
      </trkpt>
      <trkpt lat="45.84505" lon="6.22845">
        <ele>800.8</ele>
        <time>2013-05-26T10:39:09.600Z</time>
      </trkpt>
      <trkpt lat="45.84502" lon="6.22847">
        <ele>803.2</ele>
        <time>2013-05-26T10:39:10.600Z</time>
      </trkpt>
      <trkpt lat="45.84499" lon="6.22849">
        <ele>801.1</ele>
        <time>2013-05-26T10:39:11.600Z</time>
      </trkpt>
      <trkpt lat="45.84496" lon="6.22852">
        <ele>801.4</ele>
        <time>2013-05-26T10:39:12.600Z</time>
      </trkpt>
      <trkpt lat="45.84493" lon="6.22855">
        <ele>799.9</ele>
        <time>2013-05-26T10:39:13.600Z</time>
      </trkpt>
      <trkpt lat="45.84491" lon="6.22857">
        <ele>796</ele>
        <time>2013-05-26T10:39:14.600Z</time>
      </trkpt>
      <trkpt lat="45.84487" lon="6.22861">
        <ele>797.3</ele>
        <time>2013-05-26T10:39:16.600Z</time>
      </trkpt>
      <trkpt lat="45.84484" lon="6.22864">
        <ele>797.1</ele>
        <time>2013-05-26T10:39:17.600Z</time>
      </trkpt>
      <trkpt lat="45.8448" lon="6.22867">
        <ele>799.9</ele>
        <time>2013-05-26T10:39:19.600Z</time>
      </trkpt>
      <trkpt lat="45.84478" lon="6.22869">
        <ele>803.1</ele>
        <time>2013-05-26T10:39:20.600Z</time>
      </trkpt>
      <trkpt lat="45.84476" lon="6.22871">
        <ele>799.3</ele>
        <time>2013-05-26T10:39:21.600Z</time>
      </trkpt>
      <trkpt lat="45.84474" lon="6.22873">
        <ele>799.6</ele>
        <time>2013-05-26T10:39:22.600Z</time>
      </trkpt>
      <trkpt lat="45.84469" lon="6.22878">
        <ele>800.5</ele>
        <time>2013-05-26T10:39:24.600Z</time>
      </trkpt>
      <trkpt lat="45.84467" lon="6.22881">
        <ele>796.9</ele>
        <time>2013-05-26T10:39:25.600Z</time>
      </trkpt>
      <trkpt lat="45.84465" lon="6.22884">
        <ele>799.3</ele>
        <time>2013-05-26T10:39:26.600Z</time>
      </trkpt>
      <trkpt lat="45.84463" lon="6.22886">
        <ele>797.5</ele>
        <time>2013-05-26T10:39:27.600Z</time>
      </trkpt>
      <trkpt lat="45.84461" lon="6.22889">
        <ele>795</ele>
        <time>2013-05-26T10:39:28.600Z</time>
      </trkpt>
      <trkpt lat="45.8446" lon="6.22892">
        <ele>793.3</ele>
        <time>2013-05-26T10:39:29.600Z</time>
      </trkpt>
      <trkpt lat="45.84456" lon="6.22897">
        <ele>792.7</ele>
        <time>2013-05-26T10:39:31.600Z</time>
      </trkpt>
      <trkpt lat="45.8445" lon="6.22908">
        <ele>797.3</ele>
        <time>2013-05-26T10:39:35.600Z</time>
      </trkpt>
      <trkpt lat="45.84447" lon="6.22914">
        <ele>796.4</ele>
        <time>2013-05-26T10:39:37.600Z</time>
      </trkpt>
      <trkpt lat="45.84446" lon="6.22916">
        <ele>796.7</ele>
        <time>2013-05-26T10:39:38.600Z</time>
      </trkpt>
      <trkpt lat="45.84444" lon="6.22919">
        <ele>792.9</ele>
        <time>2013-05-26T10:39:39.600Z</time>
      </trkpt>
      <trkpt lat="45.84439" lon="6.22926">
        <ele>785.9</ele>
        <time>2013-05-26T10:39:43.600Z</time>
      </trkpt>
      <trkpt lat="45.84438" lon="6.22929">
        <ele>792.7</ele>
        <time>2013-05-26T10:39:47.600Z</time>
      </trkpt>
      <trkpt lat="45.84438" lon="6.22929">
        <ele>792</ele>
        <time>2013-05-26T10:39:51.600Z</time>
      </trkpt>
      <trkpt lat="45.84438" lon="6.22929">
        <ele>785.1</ele>
        <time>2013-05-26T10:39:55.600Z</time>
      </trkpt>
      <trkpt lat="45.8444" lon="6.22925">
        <ele>791.8</ele>
        <time>2013-05-26T10:39:59.600Z</time>
      </trkpt>
      <trkpt lat="45.84442" lon="6.22922">
        <ele>792.5</ele>
        <time>2013-05-26T10:40:01.600Z</time>
      </trkpt>
      <trkpt lat="45.84442" lon="6.22921">
        <ele>791.4</ele>
        <time>2013-05-26T10:40:02.600Z</time>
      </trkpt>
      <trkpt lat="45.84443" lon="6.2292">
        <ele>792</ele>
        <time>2013-05-26T10:40:03.600Z</time>
      </trkpt>
      <trkpt lat="45.84445" lon="6.22918">
        <ele>791</ele>
        <time>2013-05-26T10:40:05.600Z</time>
      </trkpt>
      <trkpt lat="45.84446" lon="6.22916">
        <ele>788.5</ele>
        <time>2013-05-26T10:40:06.600Z</time>
      </trkpt>
      <trkpt lat="45.84447" lon="6.22915">
        <ele>789.6</ele>
        <time>2013-05-26T10:40:07.600Z</time>
      </trkpt>
      <trkpt lat="45.84449" lon="6.22912">
        <ele>792.8</ele>
        <time>2013-05-26T10:40:09.600Z</time>
      </trkpt>
      <trkpt lat="45.8445" lon="6.22911">
        <ele>793</ele>
        <time>2013-05-26T10:40:10.600Z</time>
      </trkpt>
      <trkpt lat="45.84453" lon="6.22906">
        <ele>793.5</ele>
        <time>2013-05-26T10:40:13.600Z</time>
      </trkpt>
      <trkpt lat="45.84456" lon="6.22903">
        <ele>795.4</ele>
        <time>2013-05-26T10:40:15.600Z</time>
      </trkpt>
      <trkpt lat="45.84457" lon="6.22902">
        <ele>794.1</ele>
        <time>2013-05-26T10:40:16.600Z</time>
      </trkpt>
      <trkpt lat="45.84463" lon="6.22896">
        <ele>786.9</ele>
        <time>2013-05-26T10:40:21.600Z</time>
      </trkpt>
      <trkpt lat="45.84468" lon="6.22888">
        <ele>790.6</ele>
        <time>2013-05-26T10:40:26.600Z</time>
      </trkpt>
      <trkpt lat="45.84469" lon="6.22886">
        <ele>794.7</ele>
        <time>2013-05-26T10:40:27.600Z</time>
      </trkpt>
      <trkpt lat="45.84473" lon="6.22879">
        <ele>792.3</ele>
        <time>2013-05-26T10:40:31.600Z</time>
      </trkpt>
      <trkpt lat="45.84478" lon="6.22873">
        <ele>791.6</ele>
        <time>2013-05-26T10:40:36.600Z</time>
      </trkpt>
      <trkpt lat="45.84482" lon="6.22868">
        <ele>788.7</ele>
        <time>2013-05-26T10:40:40.600Z</time>
      </trkpt>
      <trkpt lat="45.84485" lon="6.22865">
        <ele>787.4</ele>
        <time>2013-05-26T10:40:41.600Z</time>
      </trkpt>
      <trkpt lat="45.84486" lon="6.22864">
        <ele>786.9</ele>
        <time>2013-05-26T10:40:42.600Z</time>
      </trkpt>
      <trkpt lat="45.84488" lon="6.22862">
        <ele>785.6</ele>
        <time>2013-05-26T10:40:43.600Z</time>
      </trkpt>
      <trkpt lat="45.8449" lon="6.2286">
        <ele>788.8</ele>
        <time>2013-05-26T10:40:44.600Z</time>
      </trkpt>
      <trkpt lat="45.84491" lon="6.22858">
        <ele>790.3</ele>
        <time>2013-05-26T10:40:45.600Z</time>
      </trkpt>
      <trkpt lat="45.84493" lon="6.22855">
        <ele>794.6</ele>
        <time>2013-05-26T10:40:46.600Z</time>
      </trkpt>
      <trkpt lat="45.84494" lon="6.22853">
        <ele>793.9</ele>
        <time>2013-05-26T10:40:47.600Z</time>
      </trkpt>
      <trkpt lat="45.84496" lon="6.2285">
        <ele>794.2</ele>
        <time>2013-05-26T10:40:48.600Z</time>
      </trkpt>
      <trkpt lat="45.845" lon="6.22843">
        <ele>793.6</ele>
        <time>2013-05-26T10:40:52.600Z</time>
      </trkpt>
      <trkpt lat="45.84501" lon="6.22841">
        <ele>792.4</ele>
        <time>2013-05-26T10:40:53.600Z</time>
      </trkpt>
      <trkpt lat="45.84503" lon="6.22839">
        <ele>790.4</ele>
        <time>2013-05-26T10:40:54.600Z</time>
      </trkpt>
      <trkpt lat="45.84504" lon="6.22837">
        <ele>788.3</ele>
        <time>2013-05-26T10:40:55.600Z</time>
      </trkpt>
      <trkpt lat="45.84512" lon="6.2283">
        <ele>790</ele>
        <time>2013-05-26T10:41:00.600Z</time>
      </trkpt>
      <trkpt lat="45.84513" lon="6.22828">
        <ele>788.7</ele>
        <time>2013-05-26T10:41:01.600Z</time>
      </trkpt>
      <trkpt lat="45.84517" lon="6.22826">
        <ele>794.5</ele>
        <time>2013-05-26T10:41:03.600Z</time>
      </trkpt>
      <trkpt lat="45.84519" lon="6.22824">
        <ele>792.1</ele>
        <time>2013-05-26T10:41:04.600Z</time>
      </trkpt>
      <trkpt lat="45.84524" lon="6.22818">
        <ele>787.9</ele>
        <time>2013-05-26T10:41:08.600Z</time>
      </trkpt>
      <trkpt lat="45.84528" lon="6.22816">
        <ele>790.3</ele>
        <time>2013-05-26T10:41:10.600Z</time>
      </trkpt>
      <trkpt lat="45.84533" lon="6.22814">
        <ele>788</ele>
        <time>2013-05-26T10:41:15.600Z</time>
      </trkpt>
      <trkpt lat="45.84541" lon="6.22814">
        <ele>794.3</ele>
        <time>2013-05-26T10:41:19.600Z</time>
      </trkpt>
      <trkpt lat="45.84543" lon="6.22813">
        <ele>792.2</ele>
        <time>2013-05-26T10:41:20.600Z</time>
      </trkpt>
      <trkpt lat="45.84544" lon="6.22813">
        <ele>792.3</ele>
        <time>2013-05-26T10:41:21.600Z</time>
      </trkpt>
      <trkpt lat="45.8455" lon="6.22813">
        <ele>788.6</ele>
        <time>2013-05-26T10:41:25.700Z</time>
      </trkpt>
      <trkpt lat="45.84557" lon="6.22811">
        <ele>791.4</ele>
        <time>2013-05-26T10:41:30.600Z</time>
      </trkpt>
      <trkpt lat="45.84559" lon="6.2281">
        <ele>795.9</ele>
        <time>2013-05-26T10:41:31.600Z</time>
      </trkpt>
      <trkpt lat="45.84562" lon="6.2281">
        <ele>795.8</ele>
        <time>2013-05-26T10:41:32.600Z</time>
      </trkpt>
      <trkpt lat="45.84564" lon="6.2281">
        <ele>795.3</ele>
        <time>2013-05-26T10:41:33.600Z</time>
      </trkpt>
      <trkpt lat="45.84566" lon="6.22809">
        <ele>797.8</ele>
        <time>2013-05-26T10:41:34.600Z</time>
      </trkpt>
      <trkpt lat="45.84568" lon="6.22809">
        <ele>799.8</ele>
        <time>2013-05-26T10:41:35.600Z</time>
      </trkpt>
      <trkpt lat="45.8457" lon="6.22808">
        <ele>799.3</ele>
        <time>2013-05-26T10:41:36.600Z</time>
      </trkpt>
      <trkpt lat="45.84572" lon="6.22808">
        <ele>794.4</ele>
        <time>2013-05-26T10:41:37.600Z</time>
      </trkpt>
      <trkpt lat="45.84574" lon="6.22808">
        <ele>798.8</ele>
        <time>2013-05-26T10:41:38.600Z</time>
      </trkpt>
      <trkpt lat="45.84577" lon="6.22808">
        <ele>797.4</ele>
        <time>2013-05-26T10:41:40.600Z</time>
      </trkpt>
      <trkpt lat="45.84579" lon="6.22808">
        <ele>797.4</ele>
        <time>2013-05-26T10:41:41.600Z</time>
      </trkpt>
      <trkpt lat="45.84587" lon="6.22807">
        <ele>798.6</ele>
        <time>2013-05-26T10:41:46.600Z</time>
      </trkpt>
      <trkpt lat="45.84589" lon="6.22808">
        <ele>798.4</ele>
        <time>2013-05-26T10:41:47.600Z</time>
      </trkpt>
      <trkpt lat="45.84598" lon="6.22812">
        <ele>796.6</ele>
        <time>2013-05-26T10:41:53.600Z</time>
      </trkpt>
      <trkpt lat="45.84609" lon="6.22817">
        <ele>801.7</ele>
        <time>2013-05-26T10:41:58.600Z</time>
      </trkpt>
      <trkpt lat="45.84611" lon="6.22818">
        <ele>802.4</ele>
        <time>2013-05-26T10:41:59.600Z</time>
      </trkpt>
      <trkpt lat="45.84614" lon="6.22818">
        <ele>802.2</ele>
        <time>2013-05-26T10:42:00.600Z</time>
      </trkpt>
      <trkpt lat="45.84616" lon="6.22818">
        <ele>802.5</ele>
        <time>2013-05-26T10:42:01.600Z</time>
      </trkpt>
      <trkpt lat="45.84624" lon="6.22819">
        <ele>806.9</ele>
        <time>2013-05-26T10:42:06.600Z</time>
      </trkpt>
      <trkpt lat="45.84629" lon="6.22816">
        <ele>808</ele>
        <time>2013-05-26T10:42:11.600Z</time>
      </trkpt>
      <trkpt lat="45.84634" lon="6.2281">
        <ele>807.6</ele>
        <time>2013-05-26T10:42:16.600Z</time>
      </trkpt>
      <trkpt lat="45.84633" lon="6.22802">
        <ele>802.6</ele>
        <time>2013-05-26T10:42:19.600Z</time>
      </trkpt>
      <trkpt lat="45.84633" lon="6.22799">
        <ele>801.5</ele>
        <time>2013-05-26T10:42:20.600Z</time>
      </trkpt>
      <trkpt lat="45.84632" lon="6.22795">
        <ele>802.5</ele>
        <time>2013-05-26T10:42:21.600Z</time>
      </trkpt>
      <trkpt lat="45.84632" lon="6.22791">
        <ele>802.8</ele>
        <time>2013-05-26T10:42:22.600Z</time>
      </trkpt>
      <trkpt lat="45.84631" lon="6.22787">
        <ele>801.9</ele>
        <time>2013-05-26T10:42:23.600Z</time>
      </trkpt>
      <trkpt lat="45.84631" lon="6.22783">
        <ele>802</ele>
        <time>2013-05-26T10:42:24.600Z</time>
      </trkpt>
      <trkpt lat="45.8463" lon="6.22775">
        <ele>801.7</ele>
        <time>2013-05-26T10:42:26.600Z</time>
      </trkpt>
      <trkpt lat="45.8463" lon="6.22771">
        <ele>802.5</ele>
        <time>2013-05-26T10:42:27.600Z</time>
      </trkpt>
      <trkpt lat="45.8463" lon="6.22767">
        <ele>800.5</ele>
        <time>2013-05-26T10:42:28.600Z</time>
      </trkpt>
      <trkpt lat="45.8463" lon="6.22759">
        <ele>794.8</ele>
        <time>2013-05-26T10:42:30.600Z</time>
      </trkpt>
      <trkpt lat="45.84629" lon="6.22755">
        <ele>796.2</ele>
        <time>2013-05-26T10:42:31.600Z</time>
      </trkpt>
      <trkpt lat="45.84628" lon="6.22751">
        <ele>798.2</ele>
        <time>2013-05-26T10:42:32.600Z</time>
      </trkpt>
      <trkpt lat="45.84628" lon="6.22748">
        <ele>796.2</ele>
        <time>2013-05-26T10:42:33.600Z</time>
      </trkpt>
      <trkpt lat="45.84628" lon="6.22744">
        <ele>795.8</ele>
        <time>2013-05-26T10:42:34.600Z</time>
      </trkpt>
      <trkpt lat="45.84628" lon="6.22741">
        <ele>798</ele>
        <time>2013-05-26T10:42:35.600Z</time>
      </trkpt>
      <trkpt lat="45.84628" lon="6.22737">
        <ele>796.3</ele>
        <time>2013-05-26T10:42:36.600Z</time>
      </trkpt>
      <trkpt lat="45.84629" lon="6.22733">
        <ele>797.5</ele>
        <time>2013-05-26T10:42:37.600Z</time>
      </trkpt>
      <trkpt lat="45.8463" lon="6.22729">
        <ele>797</ele>
        <time>2013-05-26T10:42:38.600Z</time>
      </trkpt>
      <trkpt lat="45.84631" lon="6.22726">
        <ele>798.5</ele>
        <time>2013-05-26T10:42:39.600Z</time>
      </trkpt>
      <trkpt lat="45.84632" lon="6.22723">
        <ele>799.7</ele>
        <time>2013-05-26T10:42:40.600Z</time>
      </trkpt>
      <trkpt lat="45.84633" lon="6.22719">
        <ele>798.3</ele>
        <time>2013-05-26T10:42:41.600Z</time>
      </trkpt>
      <trkpt lat="45.84634" lon="6.22713">
        <ele>800.1</ele>
        <time>2013-05-26T10:42:43.600Z</time>
      </trkpt>
      <trkpt lat="45.84635" lon="6.2271">
        <ele>796.7</ele>
        <time>2013-05-26T10:42:44.600Z</time>
      </trkpt>
      <trkpt lat="45.84635" lon="6.22706">
        <ele>800.9</ele>
        <time>2013-05-26T10:42:45.600Z</time>
      </trkpt>
      <trkpt lat="45.84635" lon="6.22702">
        <ele>800.8</ele>
        <time>2013-05-26T10:42:46.600Z</time>
      </trkpt>
      <trkpt lat="45.84635" lon="6.22698">
        <ele>798.2</ele>
        <time>2013-05-26T10:42:47.600Z</time>
      </trkpt>
      <trkpt lat="45.84635" lon="6.22694">
        <ele>792.5</ele>
        <time>2013-05-26T10:42:48.600Z</time>
      </trkpt>
      <trkpt lat="45.84635" lon="6.22689">
        <ele>791.9</ele>
        <time>2013-05-26T10:42:49.600Z</time>
      </trkpt>
      <trkpt lat="45.84634" lon="6.22685">
        <ele>789.1</ele>
        <time>2013-05-26T10:42:50.600Z</time>
      </trkpt>
      <trkpt lat="45.84634" lon="6.22679">
        <ele>789</ele>
        <time>2013-05-26T10:42:51.600Z</time>
      </trkpt>
      <trkpt lat="45.84634" lon="6.22675">
        <ele>787.5</ele>
        <time>2013-05-26T10:42:52.600Z</time>
      </trkpt>
      <trkpt lat="45.84633" lon="6.2267">
        <ele>788.8</ele>
        <time>2013-05-26T10:42:53.600Z</time>
      </trkpt>
      <trkpt lat="45.84633" lon="6.22662">
        <ele>789.9</ele>
        <time>2013-05-26T10:42:55.600Z</time>
      </trkpt>
      <trkpt lat="45.84632" lon="6.22658">
        <ele>789.9</ele>
        <time>2013-05-26T10:42:56.600Z</time>
      </trkpt>
      <trkpt lat="45.84632" lon="6.22653">
        <ele>792.4</ele>
        <time>2013-05-26T10:42:57.600Z</time>
      </trkpt>
      <trkpt lat="45.84631" lon="6.22645">
        <ele>800.7</ele>
        <time>2013-05-26T10:42:59.600Z</time>
      </trkpt>
      <trkpt lat="45.84631" lon="6.22641">
        <ele>802</ele>
        <time>2013-05-26T10:43:00.600Z</time>
      </trkpt>
      <trkpt lat="45.8463" lon="6.22632">
        <ele>802.4</ele>
        <time>2013-05-26T10:43:02.600Z</time>
      </trkpt>
      <trkpt lat="45.8463" lon="6.22627">
        <ele>801.8</ele>
        <time>2013-05-26T10:43:03.600Z</time>
      </trkpt>
      <trkpt lat="45.8463" lon="6.22622">
        <ele>799.4</ele>
        <time>2013-05-26T10:43:04.600Z</time>
      </trkpt>
      <trkpt lat="45.8463" lon="6.22618">
        <ele>798.1</ele>
        <time>2013-05-26T10:43:05.600Z</time>
      </trkpt>
      <trkpt lat="45.84632" lon="6.22604">
        <ele>794.9</ele>
        <time>2013-05-26T10:43:10.600Z</time>
      </trkpt>
      <trkpt lat="45.84632" lon="6.22596">
        <ele>801.1</ele>
        <time>2013-05-26T10:43:16.600Z</time>
      </trkpt>
      <trkpt lat="45.84633" lon="6.22594">
        <ele>797.1</ele>
        <time>2013-05-26T10:43:22.600Z</time>
      </trkpt>
      <trkpt lat="45.84633" lon="6.22594">
        <ele>805.3</ele>
        <time>2013-05-26T10:43:26.600Z</time>
      </trkpt>
      <trkpt lat="45.84631" lon="6.22594">
        <ele>808</ele>
        <time>2013-05-26T10:43:28.600Z</time>
      </trkpt>
      <trkpt lat="45.84634" lon="6.22591">
        <ele>806.3</ele>
        <time>2013-05-26T10:43:33.600Z</time>
      </trkpt>
      <trkpt lat="45.84639" lon="6.22589">
        <ele>807.7</ele>
        <time>2013-05-26T10:43:37.600Z</time>
      </trkpt>
      <trkpt lat="45.84642" lon="6.22585">
        <ele>808</ele>
        <time>2013-05-26T10:43:40.600Z</time>
      </trkpt>
      <trkpt lat="45.84643" lon="6.22582">
        <ele>809.5</ele>
        <time>2013-05-26T10:43:42.600Z</time>
      </trkpt>
      <trkpt lat="45.84643" lon="6.2258">
        <ele>813.9</ele>
        <time>2013-05-26T10:43:43.600Z</time>
      </trkpt>
      <trkpt lat="45.84644" lon="6.22578">
        <ele>812.2</ele>
        <time>2013-05-26T10:43:44.600Z</time>
      </trkpt>
      <trkpt lat="45.84647" lon="6.22575">
        <ele>807.3</ele>
        <time>2013-05-26T10:43:49.600Z</time>
      </trkpt>
      <trkpt lat="45.84647" lon="6.22575">
        <ele>807</ele>
        <time>2013-05-26T10:43:53.600Z</time>
      </trkpt>
      <trkpt lat="45.84647" lon="6.22575">
        <ele>811.2</ele>
        <time>2013-05-26T10:43:58.600Z</time>
      </trkpt>
      <trkpt lat="45.84649" lon="6.22576">
        <ele>813.3</ele>
        <time>2013-05-26T10:44:03.600Z</time>
      </trkpt>
      <trkpt lat="45.8465" lon="6.22578">
        <ele>815.9</ele>
        <time>2013-05-26T10:44:05.600Z</time>
      </trkpt>
      <trkpt lat="45.84648" lon="6.22582">
        <ele>816.3</ele>
        <time>2013-05-26T10:44:07.600Z</time>
      </trkpt>
      <trkpt lat="45.84646" lon="6.22583">
        <ele>813.4</ele>
        <time>2013-05-26T10:44:08.600Z</time>
      </trkpt>
      <trkpt lat="45.84645" lon="6.22583">
        <ele>811.9</ele>
        <time>2013-05-26T10:44:09.600Z</time>
      </trkpt>
      <trkpt lat="45.84643" lon="6.22584">
        <ele>811.8</ele>
        <time>2013-05-26T10:44:10.600Z</time>
      </trkpt>
      <trkpt lat="45.84638" lon="6.22586">
        <ele>811.1</ele>
        <time>2013-05-26T10:44:14.600Z</time>
      </trkpt>
      <trkpt lat="45.84629" lon="6.22588">
        <ele>806.1</ele>
        <time>2013-05-26T10:44:19.600Z</time>
      </trkpt>
      <trkpt lat="45.8462" lon="6.22588">
        <ele>802.9</ele>
        <time>2013-05-26T10:44:23.600Z</time>
      </trkpt>
      <trkpt lat="45.84618" lon="6.22589">
        <ele>801.1</ele>
        <time>2013-05-26T10:44:24.600Z</time>
      </trkpt>
      <trkpt lat="45.84612" lon="6.22588">
        <ele>804.3</ele>
        <time>2013-05-26T10:44:29.600Z</time>
      </trkpt>
      <trkpt lat="45.84611" lon="6.22589">
        <ele>807.1</ele>
        <time>2013-05-26T10:44:31.600Z</time>
      </trkpt>
      <trkpt lat="45.8461" lon="6.22591">
        <ele>804.2</ele>
        <time>2013-05-26T10:44:33.600Z</time>
      </trkpt>
      <trkpt lat="45.8461" lon="6.22592">
        <ele>804.4</ele>
        <time>2013-05-26T10:44:34.600Z</time>
      </trkpt>
      <trkpt lat="45.8461" lon="6.22592">
        <ele>799.8</ele>
        <time>2013-05-26T10:44:39.600Z</time>
      </trkpt>
      <trkpt lat="45.84612" lon="6.22595">
        <ele>797.1</ele>
        <time>2013-05-26T10:44:42.600Z</time>
      </trkpt>
      <trkpt lat="45.84611" lon="6.22597">
        <ele>796.5</ele>
        <time>2013-05-26T10:44:44.600Z</time>
      </trkpt>
      <trkpt lat="45.8461" lon="6.22598">
        <ele>796.8</ele>
        <time>2013-05-26T10:44:49.600Z</time>
      </trkpt>
      <trkpt lat="45.8461" lon="6.22598">
        <ele>793.7</ele>
        <time>2013-05-26T10:44:53.600Z</time>
      </trkpt>
      <trkpt lat="45.8461" lon="6.22598">
        <ele>795.6</ele>
        <time>2013-05-26T10:44:58.600Z</time>
      </trkpt>
      <trkpt lat="45.8461" lon="6.22598">
        <ele>797.9</ele>
        <time>2013-05-26T10:45:02.600Z</time>
      </trkpt>
      <trkpt lat="45.8461" lon="6.22598">
        <ele>797.8</ele>
        <time>2013-05-26T10:45:06.600Z</time>
      </trkpt>
      <trkpt lat="45.8461" lon="6.22598">
        <ele>798</ele>
        <time>2013-05-26T10:45:11.600Z</time>
      </trkpt>
      <trkpt lat="45.84608" lon="6.22592">
        <ele>801.7</ele>
        <time>2013-05-26T10:45:15.600Z</time>
      </trkpt>
      <trkpt lat="45.84608" lon="6.22592">
        <ele>795.7</ele>
        <time>2013-05-26T10:45:20.600Z</time>
      </trkpt>
      <trkpt lat="45.84608" lon="6.22592">
        <ele>798.2</ele>
        <time>2013-05-26T10:45:24.600Z</time>
      </trkpt>
      <trkpt lat="45.84609" lon="6.22591">
        <ele>803.7</ele>
        <time>2013-05-26T10:45:30.600Z</time>
      </trkpt>
      <trkpt lat="45.84617" lon="6.2259">
        <ele>803.8</ele>
        <time>2013-05-26T10:45:34.600Z</time>
      </trkpt>
      <trkpt lat="45.84632" lon="6.22587">
        <ele>804.2</ele>
        <time>2013-05-26T10:45:40.600Z</time>
      </trkpt>
      <trkpt lat="45.84639" lon="6.22586">
        <ele>803.4</ele>
        <time>2013-05-26T10:45:43.600Z</time>
      </trkpt>
      <trkpt lat="45.84644" lon="6.22583">
        <ele>804.9</ele>
        <time>2013-05-26T10:45:46.600Z</time>
      </trkpt>
      <trkpt lat="45.84646" lon="6.22581">
        <ele>807</ele>
        <time>2013-05-26T10:45:47.600Z</time>
      </trkpt>
      <trkpt lat="45.84648" lon="6.22579">
        <ele>808.2</ele>
        <time>2013-05-26T10:45:48.600Z</time>
      </trkpt>
      <trkpt lat="45.84649" lon="6.22575">
        <ele>805.2</ele>
        <time>2013-05-26T10:45:49.600Z</time>
      </trkpt>
      <trkpt lat="45.8465" lon="6.22572">
        <ele>807.4</ele>
        <time>2013-05-26T10:45:50.600Z</time>
      </trkpt>
      <trkpt lat="45.8465" lon="6.22568">
        <ele>803.7</ele>
        <time>2013-05-26T10:45:51.600Z</time>
      </trkpt>
      <trkpt lat="45.84651" lon="6.22564">
        <ele>803.9</ele>
        <time>2013-05-26T10:45:52.600Z</time>
      </trkpt>
      <trkpt lat="45.84652" lon="6.22561">
        <ele>802.8</ele>
        <time>2013-05-26T10:45:53.600Z</time>
      </trkpt>
      <trkpt lat="45.84654" lon="6.22558">
        <ele>803.3</ele>
        <time>2013-05-26T10:45:54.600Z</time>
      </trkpt>
      <trkpt lat="45.84655" lon="6.22555">
        <ele>803.7</ele>
        <time>2013-05-26T10:45:55.600Z</time>
      </trkpt>
      <trkpt lat="45.84655" lon="6.22552">
        <ele>802.3</ele>
        <time>2013-05-26T10:45:56.600Z</time>
      </trkpt>
      <trkpt lat="45.84656" lon="6.22549">
        <ele>805.9</ele>
        <time>2013-05-26T10:45:57.600Z</time>
      </trkpt>
      <trkpt lat="45.84658" lon="6.22544">
        <ele>804.2</ele>
        <time>2013-05-26T10:45:59.600Z</time>
      </trkpt>
      <trkpt lat="45.84659" lon="6.22541">
        <ele>803.3</ele>
        <time>2013-05-26T10:46:00.600Z</time>
      </trkpt>
      <trkpt lat="45.84661" lon="6.22538">
        <ele>803.1</ele>
        <time>2013-05-26T10:46:01.600Z</time>
      </trkpt>
      <trkpt lat="45.84662" lon="6.22534">
        <ele>804.4</ele>
        <time>2013-05-26T10:46:02.600Z</time>
      </trkpt>
      <trkpt lat="45.84665" lon="6.22529">
        <ele>801.2</ele>
        <time>2013-05-26T10:46:04.600Z</time>
      </trkpt>
      <trkpt lat="45.84667" lon="6.22527">
        <ele>800.6</ele>
        <time>2013-05-26T10:46:05.600Z</time>
      </trkpt>
      <trkpt lat="45.84668" lon="6.22525">
        <ele>802.7</ele>
        <time>2013-05-26T10:46:06.600Z</time>
      </trkpt>
      <trkpt lat="45.84676" lon="6.22518">
        <ele>811.6</ele>
        <time>2013-05-26T10:46:11.600Z</time>
      </trkpt>
      <trkpt lat="45.84677" lon="6.22517">
        <ele>809.8</ele>
        <time>2013-05-26T10:46:12.600Z</time>
      </trkpt>
      <trkpt lat="45.84679" lon="6.22516">
        <ele>812</ele>
        <time>2013-05-26T10:46:13.600Z</time>
      </trkpt>
      <trkpt lat="45.84681" lon="6.22515">
        <ele>818.7</ele>
        <time>2013-05-26T10:46:14.600Z</time>
      </trkpt>
      <trkpt lat="45.84687" lon="6.22513">
        <ele>822</ele>
        <time>2013-05-26T10:46:19.600Z</time>
      </trkpt>
      <trkpt lat="45.84692" lon="6.22513">
        <ele>822.8</ele>
        <time>2013-05-26T10:46:23.600Z</time>
      </trkpt>
      <trkpt lat="45.84697" lon="6.22511">
        <ele>824.5</ele>
        <time>2013-05-26T10:46:28.600Z</time>
      </trkpt>
      <trkpt lat="45.847" lon="6.2251">
        <ele>827.5</ele>
        <time>2013-05-26T10:46:30.600Z</time>
      </trkpt>
      <trkpt lat="45.84704" lon="6.22505">
        <ele>826.2</ele>
        <time>2013-05-26T10:46:32.600Z</time>
      </trkpt>
      <trkpt lat="45.84706" lon="6.22503">
        <ele>825.3</ele>
        <time>2013-05-26T10:46:33.600Z</time>
      </trkpt>
      <trkpt lat="45.84707" lon="6.22502">
        <ele>831.1</ele>
        <time>2013-05-26T10:46:34.600Z</time>
      </trkpt>
      <trkpt lat="45.84708" lon="6.225">
        <ele>829.4</ele>
        <time>2013-05-26T10:46:35.600Z</time>
      </trkpt>
      <trkpt lat="45.84709" lon="6.22497">
        <ele>830.9</ele>
        <time>2013-05-26T10:46:36.600Z</time>
      </trkpt>
      <trkpt lat="45.8471" lon="6.22488">
        <ele>829.5</ele>
        <time>2013-05-26T10:46:41.600Z</time>
      </trkpt>
      <trkpt lat="45.8471" lon="6.2248">
        <ele>827.6</ele>
        <time>2013-05-26T10:46:46.600Z</time>
      </trkpt>
      <trkpt lat="45.8471" lon="6.22478">
        <ele>830.2</ele>
        <time>2013-05-26T10:46:47.600Z</time>
      </trkpt>
      <trkpt lat="45.84709" lon="6.2247">
        <ele>829.9</ele>
        <time>2013-05-26T10:46:52.600Z</time>
      </trkpt>
      <trkpt lat="45.84708" lon="6.22463">
        <ele>829.8</ele>
        <time>2013-05-26T10:46:56.600Z</time>
      </trkpt>
      <trkpt lat="45.84708" lon="6.22459">
        <ele>829.4</ele>
        <time>2013-05-26T10:46:58.600Z</time>
      </trkpt>
      <trkpt lat="45.84709" lon="6.22454">
        <ele>834.6</ele>
        <time>2013-05-26T10:47:02.600Z</time>
      </trkpt>
      <trkpt lat="45.84711" lon="6.22447">
        <ele>832.4</ele>
        <time>2013-05-26T10:47:07.600Z</time>
      </trkpt>
      <trkpt lat="45.84712" lon="6.22445">
        <ele>831</ele>
        <time>2013-05-26T10:47:08.600Z</time>
      </trkpt>
      <trkpt lat="45.84717" lon="6.22441">
        <ele>830.4</ele>
        <time>2013-05-26T10:47:12.600Z</time>
      </trkpt>
      <trkpt lat="45.84718" lon="6.2244">
        <ele>831.8</ele>
        <time>2013-05-26T10:47:13.600Z</time>
      </trkpt>
      <trkpt lat="45.84722" lon="6.22438">
        <ele>830.5</ele>
        <time>2013-05-26T10:47:16.600Z</time>
      </trkpt>
      <trkpt lat="45.84725" lon="6.22434">
        <ele>828.1</ele>
        <time>2013-05-26T10:47:20.600Z</time>
      </trkpt>
      <trkpt lat="45.84726" lon="6.22434">
        <ele>826.3</ele>
        <time>2013-05-26T10:47:21.600Z</time>
      </trkpt>
      <trkpt lat="45.8473" lon="6.22432">
        <ele>828.4</ele>
        <time>2013-05-26T10:47:26.600Z</time>
      </trkpt>
      <trkpt lat="45.84732" lon="6.22429">
        <ele>825.6</ele>
        <time>2013-05-26T10:47:30.600Z</time>
      </trkpt>
      <trkpt lat="45.84733" lon="6.22427">
        <ele>825.4</ele>
        <time>2013-05-26T10:47:32.600Z</time>
      </trkpt>
      <trkpt lat="45.84742" lon="6.22412">
        <ele>833.5</ele>
        <time>2013-05-26T10:47:37.600Z</time>
      </trkpt>
      <trkpt lat="45.84749" lon="6.22405">
        <ele>828.2</ele>
        <time>2013-05-26T10:47:41.600Z</time>
      </trkpt>
      <trkpt lat="45.84757" lon="6.22396">
        <ele>828.2</ele>
        <time>2013-05-26T10:47:46.600Z</time>
      </trkpt>
      <trkpt lat="45.84759" lon="6.22394">
        <ele>828.5</ele>
        <time>2013-05-26T10:47:47.600Z</time>
      </trkpt>
      <trkpt lat="45.84764" lon="6.22389">
        <ele>828.4</ele>
        <time>2013-05-26T10:47:51.600Z</time>
      </trkpt>
      <trkpt lat="45.84768" lon="6.22384">
        <ele>826.2</ele>
        <time>2013-05-26T10:47:56.600Z</time>
      </trkpt>
      <trkpt lat="45.84771" lon="6.22379">
        <ele>828.7</ele>
        <time>2013-05-26T10:48:01.600Z</time>
      </trkpt>
      <trkpt lat="45.84778" lon="6.22368">
        <ele>835</ele>
        <time>2013-05-26T10:48:06.600Z</time>
      </trkpt>
      <trkpt lat="45.84786" lon="6.22354">
        <ele>832.2</ele>
        <time>2013-05-26T10:48:11.600Z</time>
      </trkpt>
      <trkpt lat="45.84788" lon="6.22351">
        <ele>832.9</ele>
        <time>2013-05-26T10:48:12.600Z</time>
      </trkpt>
      <trkpt lat="45.84789" lon="6.2235">
        <ele>832.6</ele>
        <time>2013-05-26T10:48:13.600Z</time>
      </trkpt>
      <trkpt lat="45.84792" lon="6.22347">
        <ele>838.3</ele>
        <time>2013-05-26T10:48:15.600Z</time>
      </trkpt>
      <trkpt lat="45.84794" lon="6.22345">
        <ele>836.6</ele>
        <time>2013-05-26T10:48:16.600Z</time>
      </trkpt>
      <trkpt lat="45.84795" lon="6.22343">
        <ele>836.2</ele>
        <time>2013-05-26T10:48:17.600Z</time>
      </trkpt>
      <trkpt lat="45.84796" lon="6.22341">
        <ele>831.4</ele>
        <time>2013-05-26T10:48:18.600Z</time>
      </trkpt>
      <trkpt lat="45.84798" lon="6.22338">
        <ele>832.6</ele>
        <time>2013-05-26T10:48:19.600Z</time>
      </trkpt>
      <trkpt lat="45.84801" lon="6.22336">
        <ele>835</ele>
        <time>2013-05-26T10:48:20.600Z</time>
      </trkpt>
      <trkpt lat="45.84805" lon="6.22331">
        <ele>833.8</ele>
        <time>2013-05-26T10:48:22.600Z</time>
      </trkpt>
      <trkpt lat="45.84806" lon="6.22329">
        <ele>836.3</ele>
        <time>2013-05-26T10:48:23.600Z</time>
      </trkpt>
      <trkpt lat="45.84808" lon="6.22327">
        <ele>834.7</ele>
        <time>2013-05-26T10:48:24.600Z</time>
      </trkpt>
      <trkpt lat="45.8481" lon="6.22325">
        <ele>831.1</ele>
        <time>2013-05-26T10:48:25.600Z</time>
      </trkpt>
      <trkpt lat="45.84812" lon="6.22323">
        <ele>829.8</ele>
        <time>2013-05-26T10:48:26.600Z</time>
      </trkpt>
      <trkpt lat="45.84818" lon="6.22317">
        <ele>826.8</ele>
        <time>2013-05-26T10:48:30.600Z</time>
      </trkpt>
      <trkpt lat="45.84821" lon="6.22315">
        <ele>827.8</ele>
        <time>2013-05-26T10:48:31.600Z</time>
      </trkpt>
      <trkpt lat="45.84822" lon="6.22313">
        <ele>828.5</ele>
        <time>2013-05-26T10:48:32.600Z</time>
      </trkpt>
      <trkpt lat="45.84827" lon="6.22311">
        <ele>824.5</ele>
        <time>2013-05-26T10:48:34.600Z</time>
      </trkpt>
      <trkpt lat="45.84832" lon="6.22308">
        <ele>825.1</ele>
        <time>2013-05-26T10:48:36.600Z</time>
      </trkpt>
      <trkpt lat="45.84834" lon="6.22305">
        <ele>820.1</ele>
        <time>2013-05-26T10:48:37.600Z</time>
      </trkpt>
      <trkpt lat="45.84835" lon="6.22303">
        <ele>821</ele>
        <time>2013-05-26T10:48:38.600Z</time>
      </trkpt>
      <trkpt lat="45.84838" lon="6.22302">
        <ele>822.2</ele>
        <time>2013-05-26T10:48:39.600Z</time>
      </trkpt>
      <trkpt lat="45.84846" lon="6.22297">
        <ele>825.7</ele>
        <time>2013-05-26T10:48:45.600Z</time>
      </trkpt>
      <trkpt lat="45.84854" lon="6.22298">
        <ele>821</ele>
        <time>2013-05-26T10:48:53.600Z</time>
      </trkpt>
      <trkpt lat="45.84855" lon="6.22298">
        <ele>819.9</ele>
        <time>2013-05-26T10:48:58.600Z</time>
      </trkpt>
      <trkpt lat="45.84855" lon="6.22298">
        <ele>817.8</ele>
        <time>2013-05-26T10:49:02.600Z</time>
      </trkpt>
      <trkpt lat="45.84857" lon="6.22293">
        <ele>822.5</ele>
        <time>2013-05-26T10:49:06.600Z</time>
      </trkpt>
      <trkpt lat="45.84857" lon="6.22293">
        <ele>826.8</ele>
        <time>2013-05-26T10:49:10.600Z</time>
      </trkpt>
      <trkpt lat="45.84862" lon="6.2229">
        <ele>833.4</ele>
        <time>2013-05-26T10:49:14.600Z</time>
      </trkpt>
      <trkpt lat="45.84867" lon="6.22288">
        <ele>826.4</ele>
        <time>2013-05-26T10:49:19.600Z</time>
      </trkpt>
      <trkpt lat="45.84876" lon="6.22287">
        <ele>823.1</ele>
        <time>2013-05-26T10:49:24.600Z</time>
      </trkpt>
      <trkpt lat="45.84881" lon="6.22285">
        <ele>821</ele>
        <time>2013-05-26T10:49:28.600Z</time>
      </trkpt>
      <trkpt lat="45.84901" lon="6.22287">
        <ele>827.5</ele>
        <time>2013-05-26T10:49:33.600Z</time>
      </trkpt>
      <trkpt lat="45.84918" lon="6.22293">
        <ele>830</ele>
        <time>2013-05-26T10:49:37.600Z</time>
      </trkpt>
      <trkpt lat="45.8494" lon="6.22298">
        <ele>835.3</ele>
        <time>2013-05-26T10:49:41.600Z</time>
      </trkpt>
      <trkpt lat="45.84956" lon="6.22304">
        <ele>842.9</ele>
        <time>2013-05-26T10:49:46.600Z</time>
      </trkpt>
      <trkpt lat="45.84959" lon="6.22304">
        <ele>838.8</ele>
        <time>2013-05-26T10:49:47.600Z</time>
      </trkpt>
      <trkpt lat="45.8496" lon="6.22303">
        <ele>840.2</ele>
        <time>2013-05-26T10:49:48.600Z</time>
      </trkpt>
      <trkpt lat="45.84962" lon="6.22302">
        <ele>836.9</ele>
        <time>2013-05-26T10:49:49.600Z</time>
      </trkpt>
      <trkpt lat="45.84964" lon="6.223">
        <ele>837.3</ele>
        <time>2013-05-26T10:49:50.600Z</time>
      </trkpt>
      <trkpt lat="45.84964" lon="6.22298">
        <ele>839.2</ele>
        <time>2013-05-26T10:49:51.600Z</time>
      </trkpt>
      <trkpt lat="45.84969" lon="6.22285">
        <ele>836.7</ele>
        <time>2013-05-26T10:49:55.600Z</time>
      </trkpt>
      <trkpt lat="45.8497" lon="6.22282">
        <ele>838.1</ele>
        <time>2013-05-26T10:49:56.600Z</time>
      </trkpt>
      <trkpt lat="45.84973" lon="6.22277">
        <ele>840.8</ele>
        <time>2013-05-26T10:49:58.600Z</time>
      </trkpt>
      <trkpt lat="45.84975" lon="6.22275">
        <ele>842.1</ele>
        <time>2013-05-26T10:49:59.600Z</time>
      </trkpt>
      <trkpt lat="45.84976" lon="6.22273">
        <ele>839.8</ele>
        <time>2013-05-26T10:50:00.600Z</time>
      </trkpt>
      <trkpt lat="45.84982" lon="6.22267">
        <ele>831.1</ele>
        <time>2013-05-26T10:50:04.600Z</time>
      </trkpt>
      <trkpt lat="45.84984" lon="6.22265">
        <ele>830.6</ele>
        <time>2013-05-26T10:50:09.600Z</time>
      </trkpt>
      <trkpt lat="45.84986" lon="6.22263">
        <ele>825.7</ele>
        <time>2013-05-26T10:50:12.600Z</time>
      </trkpt>
      <trkpt lat="45.84989" lon="6.2226">
        <ele>828.1</ele>
        <time>2013-05-26T10:50:15.600Z</time>
      </trkpt>
      <trkpt lat="45.84989" lon="6.2226">
        <ele>829</ele>
        <time>2013-05-26T10:50:20.600Z</time>
      </trkpt>
      <trkpt lat="45.84993" lon="6.22256">
        <ele>831.7</ele>
        <time>2013-05-26T10:50:24.600Z</time>
      </trkpt>
      <trkpt lat="45.84997" lon="6.22252">
        <ele>833.2</ele>
        <time>2013-05-26T10:50:28.600Z</time>
      </trkpt>
      <trkpt lat="45.85002" lon="6.22251">
        <ele>828.8</ele>
        <time>2013-05-26T10:50:32.600Z</time>
      </trkpt>
      <trkpt lat="45.85008" lon="6.22248">
        <ele>830.2</ele>
        <time>2013-05-26T10:50:37.600Z</time>
      </trkpt>
      <trkpt lat="45.85008" lon="6.22248">
        <ele>837.1</ele>
        <time>2013-05-26T10:50:42.600Z</time>
      </trkpt>
      <trkpt lat="45.85015" lon="6.2225">
        <ele>837.2</ele>
        <time>2013-05-26T10:50:46.600Z</time>
      </trkpt>
      <trkpt lat="45.85023" lon="6.22252">
        <ele>832.5</ele>
        <time>2013-05-26T10:50:51.600Z</time>
      </trkpt>
      <trkpt lat="45.85023" lon="6.22251">
        <ele>839.5</ele>
        <time>2013-05-26T10:50:56.600Z</time>
      </trkpt>
      <trkpt lat="45.85023" lon="6.22251">
        <ele>843</ele>
        <time>2013-05-26T10:51:00.600Z</time>
      </trkpt>
      <trkpt lat="45.85032" lon="6.22247">
        <ele>842.1</ele>
        <time>2013-05-26T10:51:05.600Z</time>
      </trkpt>
      <trkpt lat="45.85034" lon="6.22247">
        <ele>842.7</ele>
        <time>2013-05-26T10:51:07.600Z</time>
      </trkpt>
      <trkpt lat="45.8504" lon="6.22244">
        <ele>836</ele>
        <time>2013-05-26T10:51:12.600Z</time>
      </trkpt>
      <trkpt lat="45.85041" lon="6.22243">
        <ele>840.9</ele>
        <time>2013-05-26T10:51:17.600Z</time>
      </trkpt>
      <trkpt lat="45.85045" lon="6.22238">
        <ele>847.5</ele>
        <time>2013-05-26T10:51:21.600Z</time>
      </trkpt>
      <trkpt lat="45.85045" lon="6.22237">
        <ele>847.6</ele>
        <time>2013-05-26T10:51:25.600Z</time>
      </trkpt>
      <trkpt lat="45.85052" lon="6.22238">
        <ele>844.7</ele>
        <time>2013-05-26T10:51:30.600Z</time>
      </trkpt>
      <trkpt lat="45.85053" lon="6.22236">
        <ele>853.2</ele>
        <time>2013-05-26T10:51:32.600Z</time>
      </trkpt>
      <trkpt lat="45.85058" lon="6.22232">
        <ele>859.8</ele>
        <time>2013-05-26T10:51:37.600Z</time>
      </trkpt>
      <trkpt lat="45.85069" lon="6.22241">
        <ele>852.7</ele>
        <time>2013-05-26T10:51:45.600Z</time>
      </trkpt>
      <trkpt lat="45.8507" lon="6.22241">
        <ele>854.4</ele>
        <time>2013-05-26T10:51:46.600Z</time>
      </trkpt>
      <trkpt lat="45.85072" lon="6.2224">
        <ele>852.4</ele>
        <time>2013-05-26T10:51:47.600Z</time>
      </trkpt>
      <trkpt lat="45.85077" lon="6.22239">
        <ele>847.5</ele>
        <time>2013-05-26T10:51:53.600Z</time>
      </trkpt>
      <trkpt lat="45.85084" lon="6.22241">
        <ele>852.8</ele>
        <time>2013-05-26T10:51:57.600Z</time>
      </trkpt>
      <trkpt lat="45.85085" lon="6.22241">
        <ele>853.2</ele>
        <time>2013-05-26T10:51:58.600Z</time>
      </trkpt>
      <trkpt lat="45.85089" lon="6.22243">
        <ele>855.1</ele>
        <time>2013-05-26T10:52:02.600Z</time>
      </trkpt>
      <trkpt lat="45.85096" lon="6.22242">
        <ele>858</ele>
        <time>2013-05-26T10:52:06.600Z</time>
      </trkpt>
      <trkpt lat="45.85102" lon="6.22241">
        <ele>858.8</ele>
        <time>2013-05-26T10:52:10.600Z</time>
      </trkpt>
      <trkpt lat="45.85115" lon="6.22233">
        <ele>860.2</ele>
        <time>2013-05-26T10:52:15.600Z</time>
      </trkpt>
      <trkpt lat="45.85121" lon="6.22229">
        <ele>852.3</ele>
        <time>2013-05-26T10:52:17.600Z</time>
      </trkpt>
      <trkpt lat="45.85124" lon="6.22229">
        <ele>850.7</ele>
        <time>2013-05-26T10:52:18.600Z</time>
      </trkpt>
      <trkpt lat="45.85126" lon="6.22228">
        <ele>852.4</ele>
        <time>2013-05-26T10:52:19.600Z</time>
      </trkpt>
      <trkpt lat="45.85128" lon="6.22227">
        <ele>852.8</ele>
        <time>2013-05-26T10:52:20.600Z</time>
      </trkpt>
      <trkpt lat="45.85131" lon="6.22226">
        <ele>854.2</ele>
        <time>2013-05-26T10:52:21.700Z</time>
      </trkpt>
      <trkpt lat="45.85135" lon="6.22224">
        <ele>851.8</ele>
        <time>2013-05-26T10:52:23.600Z</time>
      </trkpt>
      <trkpt lat="45.85137" lon="6.22222">
        <ele>848.1</ele>
        <time>2013-05-26T10:52:24.600Z</time>
      </trkpt>
      <trkpt lat="45.85143" lon="6.22218">
        <ele>845.8</ele>
        <time>2013-05-26T10:52:28.600Z</time>
      </trkpt>
      <trkpt lat="45.85145" lon="6.22217">
        <ele>842.7</ele>
        <time>2013-05-26T10:52:29.600Z</time>
      </trkpt>
      <trkpt lat="45.85148" lon="6.22215">
        <ele>846.3</ele>
        <time>2013-05-26T10:52:30.600Z</time>
      </trkpt>
      <trkpt lat="45.85154" lon="6.22211">
        <ele>848.5</ele>
        <time>2013-05-26T10:52:32.600Z</time>
      </trkpt>
      <trkpt lat="45.85156" lon="6.22209">
        <ele>848.4</ele>
        <time>2013-05-26T10:52:33.600Z</time>
      </trkpt>
      <trkpt lat="45.85159" lon="6.22207">
        <ele>850.3</ele>
        <time>2013-05-26T10:52:34.600Z</time>
      </trkpt>
      <trkpt lat="45.85162" lon="6.22207">
        <ele>851.1</ele>
        <time>2013-05-26T10:52:35.600Z</time>
      </trkpt>
      <trkpt lat="45.85165" lon="6.22207">
        <ele>850.5</ele>
        <time>2013-05-26T10:52:36.600Z</time>
      </trkpt>
      <trkpt lat="45.85167" lon="6.22206">
        <ele>848.1</ele>
        <time>2013-05-26T10:52:37.600Z</time>
      </trkpt>
      <trkpt lat="45.8517" lon="6.22205">
        <ele>853.8</ele>
        <time>2013-05-26T10:52:38.600Z</time>
      </trkpt>
      <trkpt lat="45.85172" lon="6.22204">
        <ele>853.1</ele>
        <time>2013-05-26T10:52:39.600Z</time>
      </trkpt>
      <trkpt lat="45.85183" lon="6.22202">
        <ele>848</ele>
        <time>2013-05-26T10:52:44.600Z</time>
      </trkpt>
      <trkpt lat="45.85187" lon="6.22204">
        <ele>845.2</ele>
        <time>2013-05-26T10:52:46.600Z</time>
      </trkpt>
      <trkpt lat="45.8519" lon="6.22204">
        <ele>845.5</ele>
        <time>2013-05-26T10:52:47.600Z</time>
      </trkpt>
      <trkpt lat="45.85202" lon="6.22207">
        <ele>838.6</ele>
        <time>2013-05-26T10:52:52.600Z</time>
      </trkpt>
      <trkpt lat="45.85204" lon="6.22207">
        <ele>840.1</ele>
        <time>2013-05-26T10:52:53.600Z</time>
      </trkpt>
      <trkpt lat="45.85207" lon="6.22207">
        <ele>842</ele>
        <time>2013-05-26T10:52:54.600Z</time>
      </trkpt>
      <trkpt lat="45.8521" lon="6.22208">
        <ele>843.8</ele>
        <time>2013-05-26T10:52:55.600Z</time>
      </trkpt>
      <trkpt lat="45.85213" lon="6.22208">
        <ele>842.5</ele>
        <time>2013-05-26T10:52:56.600Z</time>
      </trkpt>
      <trkpt lat="45.85215" lon="6.22208">
        <ele>840</ele>
        <time>2013-05-26T10:52:57.600Z</time>
      </trkpt>
      <trkpt lat="45.85218" lon="6.22208">
        <ele>837.1</ele>
        <time>2013-05-26T10:52:58.600Z</time>
      </trkpt>
      <trkpt lat="45.8522" lon="6.22207">
        <ele>835.8</ele>
        <time>2013-05-26T10:52:59.600Z</time>
      </trkpt>
      <trkpt lat="45.85223" lon="6.22206">
        <ele>835.2</ele>
        <time>2013-05-26T10:53:00.600Z</time>
      </trkpt>
      <trkpt lat="45.85226" lon="6.22206">
        <ele>836</ele>
        <time>2013-05-26T10:53:01.600Z</time>
      </trkpt>
      <trkpt lat="45.85229" lon="6.22205">
        <ele>837.2</ele>
        <time>2013-05-26T10:53:02.600Z</time>
      </trkpt>
      <trkpt lat="45.85232" lon="6.22205">
        <ele>841.1</ele>
        <time>2013-05-26T10:53:03.600Z</time>
      </trkpt>
      <trkpt lat="45.85234" lon="6.22204">
        <ele>844.5</ele>
        <time>2013-05-26T10:53:04.600Z</time>
      </trkpt>
      <trkpt lat="45.85237" lon="6.22202">
        <ele>842.3</ele>
        <time>2013-05-26T10:53:05.600Z</time>
      </trkpt>
      <trkpt lat="45.8524" lon="6.22202">
        <ele>839.9</ele>
        <time>2013-05-26T10:53:06.600Z</time>
      </trkpt>
      <trkpt lat="45.85242" lon="6.22201">
        <ele>839.4</ele>
        <time>2013-05-26T10:53:07.600Z</time>
      </trkpt>
      <trkpt lat="45.85245" lon="6.222">
        <ele>839</ele>
        <time>2013-05-26T10:53:08.600Z</time>
      </trkpt>
      <trkpt lat="45.85247" lon="6.22199">
        <ele>841.1</ele>
        <time>2013-05-26T10:53:09.600Z</time>
      </trkpt>
      <trkpt lat="45.85249" lon="6.22199">
        <ele>841.3</ele>
        <time>2013-05-26T10:53:10.600Z</time>
      </trkpt>
      <trkpt lat="45.85252" lon="6.22198">
        <ele>844.5</ele>
        <time>2013-05-26T10:53:11.600Z</time>
      </trkpt>
      <trkpt lat="45.85257" lon="6.22197">
        <ele>844.8</ele>
        <time>2013-05-26T10:53:13.600Z</time>
      </trkpt>
      <trkpt lat="45.8526" lon="6.22197">
        <ele>842.3</ele>
        <time>2013-05-26T10:53:14.600Z</time>
      </trkpt>
      <trkpt lat="45.85262" lon="6.22196">
        <ele>843.9</ele>
        <time>2013-05-26T10:53:15.600Z</time>
      </trkpt>
      <trkpt lat="45.85265" lon="6.22195">
        <ele>841.1</ele>
        <time>2013-05-26T10:53:16.600Z</time>
      </trkpt>
      <trkpt lat="45.8527" lon="6.22192">
        <ele>841.6</ele>
        <time>2013-05-26T10:53:18.600Z</time>
      </trkpt>
      <trkpt lat="45.85273" lon="6.22191">
        <ele>839.6</ele>
        <time>2013-05-26T10:53:19.600Z</time>
      </trkpt>
      <trkpt lat="45.85277" lon="6.22188">
        <ele>838.6</ele>
        <time>2013-05-26T10:53:21.600Z</time>
      </trkpt>
      <trkpt lat="45.8528" lon="6.22187">
        <ele>839.2</ele>
        <time>2013-05-26T10:53:22.600Z</time>
      </trkpt>
      <trkpt lat="45.85282" lon="6.22185">
        <ele>835.6</ele>
        <time>2013-05-26T10:53:23.600Z</time>
      </trkpt>
      <trkpt lat="45.85283" lon="6.22183">
        <ele>839.3</ele>
        <time>2013-05-26T10:53:24.600Z</time>
      </trkpt>
      <trkpt lat="45.85285" lon="6.22181">
        <ele>837.8</ele>
        <time>2013-05-26T10:53:25.600Z</time>
      </trkpt>
      <trkpt lat="45.8529" lon="6.22176">
        <ele>840.5</ele>
        <time>2013-05-26T10:53:27.600Z</time>
      </trkpt>
      <trkpt lat="45.85293" lon="6.22174">
        <ele>842.6</ele>
        <time>2013-05-26T10:53:28.600Z</time>
      </trkpt>
      <trkpt lat="45.85295" lon="6.22172">
        <ele>846.6</ele>
        <time>2013-05-26T10:53:29.600Z</time>
      </trkpt>
      <trkpt lat="45.85297" lon="6.22171">
        <ele>847.1</ele>
        <time>2013-05-26T10:53:30.600Z</time>
      </trkpt>
      <trkpt lat="45.853" lon="6.22169">
        <ele>850.7</ele>
        <time>2013-05-26T10:53:31.600Z</time>
      </trkpt>
      <trkpt lat="45.85304" lon="6.22166">
        <ele>843.9</ele>
        <time>2013-05-26T10:53:33.600Z</time>
      </trkpt>
      <trkpt lat="45.85306" lon="6.22164">
        <ele>849.7</ele>
        <time>2013-05-26T10:53:34.600Z</time>
      </trkpt>
      <trkpt lat="45.85315" lon="6.22157">
        <ele>842.6</ele>
        <time>2013-05-26T10:53:40.600Z</time>
      </trkpt>
      <trkpt lat="45.85323" lon="6.22146">
        <ele>837.4</ele>
        <time>2013-05-26T10:53:46.600Z</time>
      </trkpt>
      <trkpt lat="45.85328" lon="6.22142">
        <ele>838.4</ele>
        <time>2013-05-26T10:53:49.600Z</time>
      </trkpt>
      <trkpt lat="45.85337" lon="6.22132">
        <ele>841.4</ele>
        <time>2013-05-26T10:53:56.600Z</time>
      </trkpt>
      <trkpt lat="45.85338" lon="6.2213">
        <ele>840.7</ele>
        <time>2013-05-26T10:53:57.600Z</time>
      </trkpt>
      <trkpt lat="45.85343" lon="6.22126">
        <ele>843.7</ele>
        <time>2013-05-26T10:54:00.600Z</time>
      </trkpt>
      <trkpt lat="45.85361" lon="6.22117">
        <ele>844.7</ele>
        <time>2013-05-26T10:54:05.600Z</time>
      </trkpt>
      <trkpt lat="45.85377" lon="6.2211">
        <ele>843.1</ele>
        <time>2013-05-26T10:54:10.600Z</time>
      </trkpt>
      <trkpt lat="45.85381" lon="6.22109">
        <ele>838.9</ele>
        <time>2013-05-26T10:54:11.600Z</time>
      </trkpt>
      <trkpt lat="45.85384" lon="6.22109">
        <ele>840.6</ele>
        <time>2013-05-26T10:54:12.600Z</time>
      </trkpt>
      <trkpt lat="45.85387" lon="6.22108">
        <ele>842.7</ele>
        <time>2013-05-26T10:54:13.600Z</time>
      </trkpt>
      <trkpt lat="45.8539" lon="6.22106">
        <ele>843.2</ele>
        <time>2013-05-26T10:54:14.600Z</time>
      </trkpt>
      <trkpt lat="45.85393" lon="6.22105">
        <ele>844</ele>
        <time>2013-05-26T10:54:15.600Z</time>
      </trkpt>
      <trkpt lat="45.85398" lon="6.22098">
        <ele>838.4</ele>
        <time>2013-05-26T10:54:20.600Z</time>
      </trkpt>
      <trkpt lat="45.85398" lon="6.22101">
        <ele>836.4</ele>
        <time>2013-05-26T10:54:22.600Z</time>
      </trkpt>
      <trkpt lat="45.85397" lon="6.22103">
        <ele>834.2</ele>
        <time>2013-05-26T10:54:24.600Z</time>
      </trkpt>
      <trkpt lat="45.85394" lon="6.22102">
        <ele>832</ele>
        <time>2013-05-26T10:54:26.600Z</time>
      </trkpt>
      <trkpt lat="45.85394" lon="6.22102">
        <ele>829.1</ele>
        <time>2013-05-26T10:54:30.600Z</time>
      </trkpt>
      <trkpt lat="45.85397" lon="6.22096">
        <ele>830.5</ele>
        <time>2013-05-26T10:54:37.600Z</time>
      </trkpt>
      <trkpt lat="45.85399" lon="6.22094">
        <ele>829.7</ele>
        <time>2013-05-26T10:54:38.600Z</time>
      </trkpt>
      <trkpt lat="45.85401" lon="6.22092">
        <ele>828.2</ele>
        <time>2013-05-26T10:54:39.600Z</time>
      </trkpt>
      <trkpt lat="45.85404" lon="6.22087">
        <ele>821.5</ele>
        <time>2013-05-26T10:54:43.600Z</time>
      </trkpt>
      <trkpt lat="45.85417" lon="6.22073">
        <ele>825.6</ele>
        <time>2013-05-26T10:54:48.600Z</time>
      </trkpt>
      <trkpt lat="45.85419" lon="6.2207">
        <ele>826.3</ele>
        <time>2013-05-26T10:54:49.600Z</time>
      </trkpt>
      <trkpt lat="45.85421" lon="6.22067">
        <ele>820.3</ele>
        <time>2013-05-26T10:54:50.600Z</time>
      </trkpt>
      <trkpt lat="45.85424" lon="6.22065">
        <ele>821.9</ele>
        <time>2013-05-26T10:54:51.600Z</time>
      </trkpt>
      <trkpt lat="45.85426" lon="6.22063">
        <ele>822.6</ele>
        <time>2013-05-26T10:54:52.600Z</time>
      </trkpt>
      <trkpt lat="45.85428" lon="6.2206">
        <ele>822.8</ele>
        <time>2013-05-26T10:54:53.600Z</time>
      </trkpt>
      <trkpt lat="45.85431" lon="6.22058">
        <ele>820.3</ele>
        <time>2013-05-26T10:54:54.600Z</time>
      </trkpt>
      <trkpt lat="45.85434" lon="6.22056">
        <ele>816.6</ele>
        <time>2013-05-26T10:54:55.600Z</time>
      </trkpt>
      <trkpt lat="45.85436" lon="6.22052">
        <ele>824</ele>
        <time>2013-05-26T10:54:56.600Z</time>
      </trkpt>
      <trkpt lat="45.85439" lon="6.22048">
        <ele>823.2</ele>
        <time>2013-05-26T10:54:57.600Z</time>
      </trkpt>
      <trkpt lat="45.85441" lon="6.22045">
        <ele>822.4</ele>
        <time>2013-05-26T10:54:58.600Z</time>
      </trkpt>
      <trkpt lat="45.85444" lon="6.22042">
        <ele>820.8</ele>
        <time>2013-05-26T10:54:59.600Z</time>
      </trkpt>
      <trkpt lat="45.85445" lon="6.22039">
        <ele>822.8</ele>
        <time>2013-05-26T10:55:00.600Z</time>
      </trkpt>
      <trkpt lat="45.85447" lon="6.22036">
        <ele>823.4</ele>
        <time>2013-05-26T10:55:01.600Z</time>
      </trkpt>
      <trkpt lat="45.85451" lon="6.22032">
        <ele>818.5</ele>
        <time>2013-05-26T10:55:03.600Z</time>
      </trkpt>
      <trkpt lat="45.85453" lon="6.2203">
        <ele>824.5</ele>
        <time>2013-05-26T10:55:04.600Z</time>
      </trkpt>
      <trkpt lat="45.85457" lon="6.22025">
        <ele>823.9</ele>
        <time>2013-05-26T10:55:06.600Z</time>
      </trkpt>
      <trkpt lat="45.8546" lon="6.22023">
        <ele>821.6</ele>
        <time>2013-05-26T10:55:07.600Z</time>
      </trkpt>
      <trkpt lat="45.85462" lon="6.22021">
        <ele>819</ele>
        <time>2013-05-26T10:55:08.600Z</time>
      </trkpt>
      <trkpt lat="45.85465" lon="6.22019">
        <ele>821.7</ele>
        <time>2013-05-26T10:55:09.600Z</time>
      </trkpt>
      <trkpt lat="45.85468" lon="6.22016">
        <ele>818.3</ele>
        <time>2013-05-26T10:55:10.600Z</time>
      </trkpt>
      <trkpt lat="45.85471" lon="6.22014">
        <ele>819.5</ele>
        <time>2013-05-26T10:55:11.600Z</time>
      </trkpt>
      <trkpt lat="45.85476" lon="6.22009">
        <ele>829.3</ele>
        <time>2013-05-26T10:55:13.600Z</time>
      </trkpt>
      <trkpt lat="45.85478" lon="6.22006">
        <ele>825.5</ele>
        <time>2013-05-26T10:55:14.600Z</time>
      </trkpt>
      <trkpt lat="45.85482" lon="6.22002">
        <ele>823.1</ele>
        <time>2013-05-26T10:55:16.600Z</time>
      </trkpt>
      <trkpt lat="45.85489" lon="6.21994">
        <ele>811.3</ele>
        <time>2013-05-26T10:55:20.600Z</time>
      </trkpt>
      <trkpt lat="45.85491" lon="6.21992">
        <ele>804</ele>
        <time>2013-05-26T10:55:21.600Z</time>
      </trkpt>
      <trkpt lat="45.85492" lon="6.21989">
        <ele>814.5</ele>
        <time>2013-05-26T10:55:22.600Z</time>
      </trkpt>
      <trkpt lat="45.85495" lon="6.21986">
        <ele>818.5</ele>
        <time>2013-05-26T10:55:23.600Z</time>
      </trkpt>
      <trkpt lat="45.85497" lon="6.21983">
        <ele>821.4</ele>
        <time>2013-05-26T10:55:24.600Z</time>
      </trkpt>
      <trkpt lat="45.85498" lon="6.2198">
        <ele>822.8</ele>
        <time>2013-05-26T10:55:25.600Z</time>
      </trkpt>
      <trkpt lat="45.85501" lon="6.21973">
        <ele>819</ele>
        <time>2013-05-26T10:55:29.600Z</time>
      </trkpt>
      <trkpt lat="45.85504" lon="6.21965">
        <ele>812.5</ele>
        <time>2013-05-26T10:55:33.600Z</time>
      </trkpt>
      <trkpt lat="45.85505" lon="6.21962">
        <ele>812.3</ele>
        <time>2013-05-26T10:55:34.600Z</time>
      </trkpt>
      <trkpt lat="45.85506" lon="6.2196">
        <ele>820.7</ele>
        <time>2013-05-26T10:55:35.600Z</time>
      </trkpt>
      <trkpt lat="45.85509" lon="6.21947">
        <ele>821.1</ele>
        <time>2013-05-26T10:55:40.600Z</time>
      </trkpt>
      <trkpt lat="45.85512" lon="6.21938">
        <ele>825.1</ele>
        <time>2013-05-26T10:55:42.600Z</time>
      </trkpt>
      <trkpt lat="45.85526" lon="6.21916">
        <ele>812.2</ele>
        <time>2013-05-26T10:55:47.600Z</time>
      </trkpt>
      <trkpt lat="45.85529" lon="6.21912">
        <ele>807.7</ele>
        <time>2013-05-26T10:55:48.600Z</time>
      </trkpt>
      <trkpt lat="45.85531" lon="6.21907">
        <ele>805.2</ele>
        <time>2013-05-26T10:55:50.600Z</time>
      </trkpt>
      <trkpt lat="45.85532" lon="6.21904">
        <ele>807.1</ele>
        <time>2013-05-26T10:55:51.600Z</time>
      </trkpt>
      <trkpt lat="45.85534" lon="6.21898">
        <ele>797.2</ele>
        <time>2013-05-26T10:55:53.600Z</time>
      </trkpt>
      <trkpt lat="45.85537" lon="6.21896">
        <ele>795.8</ele>
        <time>2013-05-26T10:55:54.600Z</time>
      </trkpt>
      <trkpt lat="45.85539" lon="6.21894">
        <ele>793.5</ele>
        <time>2013-05-26T10:55:55.600Z</time>
      </trkpt>
      <trkpt lat="45.85542" lon="6.21893">
        <ele>795.3</ele>
        <time>2013-05-26T10:55:56.600Z</time>
      </trkpt>
      <trkpt lat="45.85546" lon="6.21887">
        <ele>780.9</ele>
        <time>2013-05-26T10:55:59.600Z</time>
      </trkpt>
      <trkpt lat="45.85548" lon="6.21884">
        <ele>779.9</ele>
        <time>2013-05-26T10:56:00.600Z</time>
      </trkpt>
      <trkpt lat="45.8555" lon="6.21881">
        <ele>782</ele>
        <time>2013-05-26T10:56:01.600Z</time>
      </trkpt>
      <trkpt lat="45.85553" lon="6.21876">
        <ele>784.5</ele>
        <time>2013-05-26T10:56:03.600Z</time>
      </trkpt>
      <trkpt lat="45.85557" lon="6.21871">
        <ele>785.9</ele>
        <time>2013-05-26T10:56:05.600Z</time>
      </trkpt>
      <trkpt lat="45.85559" lon="6.21869">
        <ele>787</ele>
        <time>2013-05-26T10:56:06.600Z</time>
      </trkpt>
      <trkpt lat="45.85562" lon="6.21866">
        <ele>783.7</ele>
        <time>2013-05-26T10:56:08.600Z</time>
      </trkpt>
      <trkpt lat="45.85564" lon="6.21865">
        <ele>782.7</ele>
        <time>2013-05-26T10:56:09.600Z</time>
      </trkpt>
      <trkpt lat="45.85566" lon="6.2186">
        <ele>780.5</ele>
        <time>2013-05-26T10:56:13.600Z</time>
      </trkpt>
      <trkpt lat="45.8557" lon="6.21853">
        <ele>777.6</ele>
        <time>2013-05-26T10:56:18.600Z</time>
      </trkpt>
      <trkpt lat="45.85578" lon="6.21843">
        <ele>777.6</ele>
        <time>2013-05-26T10:56:23.600Z</time>
      </trkpt>
      <trkpt lat="45.85586" lon="6.21839">
        <ele>784.9</ele>
        <time>2013-05-26T10:56:29.600Z</time>
      </trkpt>
      <trkpt lat="45.85587" lon="6.21837">
        <ele>785.1</ele>
        <time>2013-05-26T10:56:30.600Z</time>
      </trkpt>
      <trkpt lat="45.85589" lon="6.21835">
        <ele>782.5</ele>
        <time>2013-05-26T10:56:31.600Z</time>
      </trkpt>
      <trkpt lat="45.85593" lon="6.21831">
        <ele>781.3</ele>
        <time>2013-05-26T10:56:33.600Z</time>
      </trkpt>
      <trkpt lat="45.85598" lon="6.21826">
        <ele>786.2</ele>
        <time>2013-05-26T10:56:35.600Z</time>
      </trkpt>
      <trkpt lat="45.85613" lon="6.21819">
        <ele>797.3</ele>
        <time>2013-05-26T10:56:39.600Z</time>
      </trkpt>
      <trkpt lat="45.85633" lon="6.21809">
        <ele>805.3</ele>
        <time>2013-05-26T10:56:44.600Z</time>
      </trkpt>
      <trkpt lat="45.85649" lon="6.21808">
        <ele>808</ele>
        <time>2013-05-26T10:56:48.600Z</time>
      </trkpt>
      <trkpt lat="45.85652" lon="6.21808">
        <ele>806</ele>
        <time>2013-05-26T10:56:49.600Z</time>
      </trkpt>
      <trkpt lat="45.85655" lon="6.21807">
        <ele>807.6</ele>
        <time>2013-05-26T10:56:50.600Z</time>
      </trkpt>
      <trkpt lat="45.85659" lon="6.21808">
        <ele>804.1</ele>
        <time>2013-05-26T10:56:51.600Z</time>
      </trkpt>
      <trkpt lat="45.85663" lon="6.2181">
        <ele>803.9</ele>
        <time>2013-05-26T10:56:52.600Z</time>
      </trkpt>
      <trkpt lat="45.85668" lon="6.21813">
        <ele>804.8</ele>
        <time>2013-05-26T10:56:54.600Z</time>
      </trkpt>
      <trkpt lat="45.85672" lon="6.21815">
        <ele>804.4</ele>
        <time>2013-05-26T10:56:56.600Z</time>
      </trkpt>
      <trkpt lat="45.85674" lon="6.21817">
        <ele>802.5</ele>
        <time>2013-05-26T10:56:57.600Z</time>
      </trkpt>
      <trkpt lat="45.85677" lon="6.21818">
        <ele>800.7</ele>
        <time>2013-05-26T10:56:58.600Z</time>
      </trkpt>
      <trkpt lat="45.85679" lon="6.2182">
        <ele>802.4</ele>
        <time>2013-05-26T10:56:59.600Z</time>
      </trkpt>
      <trkpt lat="45.85681" lon="6.21822">
        <ele>801.3</ele>
        <time>2013-05-26T10:57:00.600Z</time>
      </trkpt>
      <trkpt lat="45.85683" lon="6.21824">
        <ele>796.2</ele>
        <time>2013-05-26T10:57:01.600Z</time>
      </trkpt>
      <trkpt lat="45.85685" lon="6.21826">
        <ele>796.8</ele>
        <time>2013-05-26T10:57:02.600Z</time>
      </trkpt>
      <trkpt lat="45.85688" lon="6.21827">
        <ele>796.1</ele>
        <time>2013-05-26T10:57:03.600Z</time>
      </trkpt>
      <trkpt lat="45.8569" lon="6.21829">
        <ele>793.3</ele>
        <time>2013-05-26T10:57:04.600Z</time>
      </trkpt>
      <trkpt lat="45.85697" lon="6.21834">
        <ele>789.9</ele>
        <time>2013-05-26T10:57:08.600Z</time>
      </trkpt>
      <trkpt lat="45.85702" lon="6.21838">
        <ele>796.1</ele>
        <time>2013-05-26T10:57:11.600Z</time>
      </trkpt>
      <trkpt lat="45.85705" lon="6.21838">
        <ele>796.8</ele>
        <time>2013-05-26T10:57:12.600Z</time>
      </trkpt>
      <trkpt lat="45.85707" lon="6.21838">
        <ele>793.7</ele>
        <time>2013-05-26T10:57:13.600Z</time>
      </trkpt>
      <trkpt lat="45.85709" lon="6.21838">
        <ele>797.4</ele>
        <time>2013-05-26T10:57:14.600Z</time>
      </trkpt>
      <trkpt lat="45.85713" lon="6.21838">
        <ele>797.8</ele>
        <time>2013-05-26T10:57:16.600Z</time>
      </trkpt>
      <trkpt lat="45.85723" lon="6.21838">
        <ele>799.5</ele>
        <time>2013-05-26T10:57:21.600Z</time>
      </trkpt>
      <trkpt lat="45.85724" lon="6.21838">
        <ele>793.4</ele>
        <time>2013-05-26T10:57:22.600Z</time>
      </trkpt>
      <trkpt lat="45.85727" lon="6.21838">
        <ele>789.5</ele>
        <time>2013-05-26T10:57:23.600Z</time>
      </trkpt>
      <trkpt lat="45.85735" lon="6.21839">
        <ele>789.4</ele>
        <time>2013-05-26T10:57:27.600Z</time>
      </trkpt>
      <trkpt lat="45.85738" lon="6.2184">
        <ele>784.3</ele>
        <time>2013-05-26T10:57:28.600Z</time>
      </trkpt>
      <trkpt lat="45.85745" lon="6.21842">
        <ele>780.2</ele>
        <time>2013-05-26T10:57:33.600Z</time>
      </trkpt>
      <trkpt lat="45.85747" lon="6.21842">
        <ele>779.9</ele>
        <time>2013-05-26T10:57:34.600Z</time>
      </trkpt>
      <trkpt lat="45.85753" lon="6.21843">
        <ele>782</ele>
        <time>2013-05-26T10:57:39.600Z</time>
      </trkpt>
      <trkpt lat="45.85758" lon="6.21844">
        <ele>775.2</ele>
        <time>2013-05-26T10:57:43.600Z</time>
      </trkpt>
      <trkpt lat="45.85768" lon="6.21851">
        <ele>767.2</ele>
        <time>2013-05-26T10:57:51.600Z</time>
      </trkpt>
      <trkpt lat="45.85777" lon="6.21857">
        <ele>761.1</ele>
        <time>2013-05-26T10:57:55.600Z</time>
      </trkpt>
      <trkpt lat="45.85786" lon="6.21867">
        <ele>757.3</ele>
        <time>2013-05-26T10:58:00.600Z</time>
      </trkpt>
      <trkpt lat="45.85788" lon="6.21869">
        <ele>758.8</ele>
        <time>2013-05-26T10:58:01.600Z</time>
      </trkpt>
      <trkpt lat="45.8579" lon="6.21871">
        <ele>757</ele>
        <time>2013-05-26T10:58:02.600Z</time>
      </trkpt>
      <trkpt lat="45.85805" lon="6.2188">
        <ele>779</ele>
        <time>2013-05-26T10:58:06.600Z</time>
      </trkpt>
      <trkpt lat="45.85819" lon="6.21889">
        <ele>797.7</ele>
        <time>2013-05-26T10:58:10.600Z</time>
      </trkpt>
      <trkpt lat="45.85822" lon="6.21891">
        <ele>798.1</ele>
        <time>2013-05-26T10:58:11.600Z</time>
      </trkpt>
      <trkpt lat="45.85839" lon="6.21908">
        <ele>805.4</ele>
        <time>2013-05-26T10:58:16.600Z</time>
      </trkpt>
      <trkpt lat="45.85855" lon="6.21918">
        <ele>804.9</ele>
        <time>2013-05-26T10:58:20.600Z</time>
      </trkpt>
      <trkpt lat="45.85858" lon="6.21921">
        <ele>805.7</ele>
        <time>2013-05-26T10:58:21.600Z</time>
      </trkpt>
      <trkpt lat="45.8586" lon="6.21924">
        <ele>806</ele>
        <time>2013-05-26T10:58:22.600Z</time>
      </trkpt>
      <trkpt lat="45.85862" lon="6.21928">
        <ele>806.4</ele>
        <time>2013-05-26T10:58:23.600Z</time>
      </trkpt>
      <trkpt lat="45.85863" lon="6.21932">
        <ele>807</ele>
        <time>2013-05-26T10:58:24.600Z</time>
      </trkpt>
      <trkpt lat="45.85864" lon="6.21935">
        <ele>807.4</ele>
        <time>2013-05-26T10:58:25.600Z</time>
      </trkpt>
      <trkpt lat="45.85866" lon="6.21938">
        <ele>806.3</ele>
        <time>2013-05-26T10:58:26.600Z</time>
      </trkpt>
      <trkpt lat="45.85867" lon="6.21941">
        <ele>806.3</ele>
        <time>2013-05-26T10:58:27.600Z</time>
      </trkpt>
      <trkpt lat="45.85868" lon="6.21944">
        <ele>807.5</ele>
        <time>2013-05-26T10:58:28.600Z</time>
      </trkpt>
      <trkpt lat="45.85871" lon="6.21947">
        <ele>805.5</ele>
        <time>2013-05-26T10:58:30.600Z</time>
      </trkpt>
      <trkpt lat="45.85874" lon="6.21948">
        <ele>806.4</ele>
        <time>2013-05-26T10:58:31.600Z</time>
      </trkpt>
      <trkpt lat="45.85876" lon="6.2195">
        <ele>810.1</ele>
        <time>2013-05-26T10:58:32.600Z</time>
      </trkpt>
      <trkpt lat="45.85878" lon="6.21951">
        <ele>811.5</ele>
        <time>2013-05-26T10:58:33.600Z</time>
      </trkpt>
      <trkpt lat="45.85884" lon="6.21954">
        <ele>810.4</ele>
        <time>2013-05-26T10:58:37.600Z</time>
      </trkpt>
      <trkpt lat="45.85892" lon="6.2196">
        <ele>818.3</ele>
        <time>2013-05-26T10:58:42.600Z</time>
      </trkpt>
      <trkpt lat="45.85895" lon="6.21964">
        <ele>820.9</ele>
        <time>2013-05-26T10:58:46.600Z</time>
      </trkpt>
      <trkpt lat="45.859" lon="6.21972">
        <ele>817.2</ele>
        <time>2013-05-26T10:58:51.600Z</time>
      </trkpt>
      <trkpt lat="45.85902" lon="6.21974">
        <ele>820</ele>
        <time>2013-05-26T10:58:52.600Z</time>
      </trkpt>
      <trkpt lat="45.85904" lon="6.21977">
        <ele>819.1</ele>
        <time>2013-05-26T10:58:53.600Z</time>
      </trkpt>
      <trkpt lat="45.85905" lon="6.2198">
        <ele>817.1</ele>
        <time>2013-05-26T10:58:54.600Z</time>
      </trkpt>
      <trkpt lat="45.85905" lon="6.21983">
        <ele>817.1</ele>
        <time>2013-05-26T10:58:55.600Z</time>
      </trkpt>
      <trkpt lat="45.85906" lon="6.21986">
        <ele>817.7</ele>
        <time>2013-05-26T10:58:56.600Z</time>
      </trkpt>
      <trkpt lat="45.85912" lon="6.21995">
        <ele>817.2</ele>
        <time>2013-05-26T10:59:01.600Z</time>
      </trkpt>
      <trkpt lat="45.85914" lon="6.21998">
        <ele>813.3</ele>
        <time>2013-05-26T10:59:02.600Z</time>
      </trkpt>
      <trkpt lat="45.85918" lon="6.22005">
        <ele>819.7</ele>
        <time>2013-05-26T10:59:04.600Z</time>
      </trkpt>
      <trkpt lat="45.85926" lon="6.22011">
        <ele>821.9</ele>
        <time>2013-05-26T10:59:09.600Z</time>
      </trkpt>
      <trkpt lat="45.85929" lon="6.22015">
        <ele>819.5</ele>
        <time>2013-05-26T10:59:11.600Z</time>
      </trkpt>
      <trkpt lat="45.8593" lon="6.22027">
        <ele>819</ele>
        <time>2013-05-26T10:59:15.600Z</time>
      </trkpt>
      <trkpt lat="45.85933" lon="6.22031">
        <ele>822.7</ele>
        <time>2013-05-26T10:59:17.600Z</time>
      </trkpt>
      <trkpt lat="45.85932" lon="6.22044">
        <ele>821.1</ele>
        <time>2013-05-26T10:59:22.600Z</time>
      </trkpt>
      <trkpt lat="45.85935" lon="6.22047">
        <ele>822.5</ele>
        <time>2013-05-26T10:59:23.600Z</time>
      </trkpt>
      <trkpt lat="45.85936" lon="6.2205">
        <ele>822.7</ele>
        <time>2013-05-26T10:59:24.600Z</time>
      </trkpt>
      <trkpt lat="45.85937" lon="6.22054">
        <ele>821.6</ele>
        <time>2013-05-26T10:59:25.600Z</time>
      </trkpt>
      <trkpt lat="45.8594" lon="6.22063">
        <ele>820</ele>
        <time>2013-05-26T10:59:27.600Z</time>
      </trkpt>
      <trkpt lat="45.85942" lon="6.22067">
        <ele>818.2</ele>
        <time>2013-05-26T10:59:28.600Z</time>
      </trkpt>
      <trkpt lat="45.85943" lon="6.22071">
        <ele>817</ele>
        <time>2013-05-26T10:59:29.600Z</time>
      </trkpt>
      <trkpt lat="45.85944" lon="6.22074">
        <ele>817.2</ele>
        <time>2013-05-26T10:59:30.600Z</time>
      </trkpt>
      <trkpt lat="45.85945" lon="6.22077">
        <ele>818.7</ele>
        <time>2013-05-26T10:59:31.600Z</time>
      </trkpt>
      <trkpt lat="45.85946" lon="6.22082">
        <ele>816.6</ele>
        <time>2013-05-26T10:59:32.600Z</time>
      </trkpt>
      <trkpt lat="45.85946" lon="6.22087">
        <ele>814.8</ele>
        <time>2013-05-26T10:59:33.600Z</time>
      </trkpt>
      <trkpt lat="45.85947" lon="6.22097">
        <ele>817.6</ele>
        <time>2013-05-26T10:59:35.600Z</time>
      </trkpt>
      <trkpt lat="45.85947" lon="6.22101">
        <ele>818.1</ele>
        <time>2013-05-26T10:59:36.600Z</time>
      </trkpt>
      <trkpt lat="45.85948" lon="6.22105">
        <ele>816.7</ele>
        <time>2013-05-26T10:59:37.600Z</time>
      </trkpt>
      <trkpt lat="45.85949" lon="6.22114">
        <ele>816.6</ele>
        <time>2013-05-26T10:59:39.600Z</time>
      </trkpt>
      <trkpt lat="45.85949" lon="6.22119">
        <ele>817.1</ele>
        <time>2013-05-26T10:59:40.600Z</time>
      </trkpt>
      <trkpt lat="45.8595" lon="6.22123">
        <ele>818</ele>
        <time>2013-05-26T10:59:41.600Z</time>
      </trkpt>
      <trkpt lat="45.8595" lon="6.22127">
        <ele>818.6</ele>
        <time>2013-05-26T10:59:42.600Z</time>
      </trkpt>
      <trkpt lat="45.85951" lon="6.22131">
        <ele>818.7</ele>
        <time>2013-05-26T10:59:43.600Z</time>
      </trkpt>
      <trkpt lat="45.85953" lon="6.22134">
        <ele>817.8</ele>
        <time>2013-05-26T10:59:44.600Z</time>
      </trkpt>
      <trkpt lat="45.85954" lon="6.22138">
        <ele>817.9</ele>
        <time>2013-05-26T10:59:45.600Z</time>
      </trkpt>
      <trkpt lat="45.85955" lon="6.22141">
        <ele>816.4</ele>
        <time>2013-05-26T10:59:46.600Z</time>
      </trkpt>
      <trkpt lat="45.85956" lon="6.22145">
        <ele>816.9</ele>
        <time>2013-05-26T10:59:47.600Z</time>
      </trkpt>
      <trkpt lat="45.85957" lon="6.22148">
        <ele>816.5</ele>
        <time>2013-05-26T10:59:48.600Z</time>
      </trkpt>
      <trkpt lat="45.85959" lon="6.22156">
        <ele>814.9</ele>
        <time>2013-05-26T10:59:50.600Z</time>
      </trkpt>
      <trkpt lat="45.85961" lon="6.22164">
        <ele>812.8</ele>
        <time>2013-05-26T10:59:52.600Z</time>
      </trkpt>
      <trkpt lat="45.85962" lon="6.22168">
        <ele>814.7</ele>
        <time>2013-05-26T10:59:53.600Z</time>
      </trkpt>
      <trkpt lat="45.85963" lon="6.22171">
        <ele>814.7</ele>
        <time>2013-05-26T10:59:54.600Z</time>
      </trkpt>
      <trkpt lat="45.85964" lon="6.22175">
        <ele>812.8</ele>
        <time>2013-05-26T10:59:55.600Z</time>
      </trkpt>
      <trkpt lat="45.85965" lon="6.22179">
        <ele>813.4</ele>
        <time>2013-05-26T10:59:56.600Z</time>
      </trkpt>
      <trkpt lat="45.85966" lon="6.22183">
        <ele>814.6</ele>
        <time>2013-05-26T10:59:57.600Z</time>
      </trkpt>
      <trkpt lat="45.85967" lon="6.22186">
        <ele>814.4</ele>
        <time>2013-05-26T10:59:58.600Z</time>
      </trkpt>
      <trkpt lat="45.85968" lon="6.2219">
        <ele>810.9</ele>
        <time>2013-05-26T10:59:59.600Z</time>
      </trkpt>
      <trkpt lat="45.8597" lon="6.22192">
        <ele>813.6</ele>
        <time>2013-05-26T11:00:00.600Z</time>
      </trkpt>
      <trkpt lat="45.85972" lon="6.22195">
        <ele>813.3</ele>
        <time>2013-05-26T11:00:01.600Z</time>
      </trkpt>
      <trkpt lat="45.85975" lon="6.22198">
        <ele>812.5</ele>
        <time>2013-05-26T11:00:02.600Z</time>
      </trkpt>
      <trkpt lat="45.85977" lon="6.22202">
        <ele>813</ele>
        <time>2013-05-26T11:00:03.600Z</time>
      </trkpt>
      <trkpt lat="45.85978" lon="6.22205">
        <ele>810.5</ele>
        <time>2013-05-26T11:00:04.600Z</time>
      </trkpt>
      <trkpt lat="45.8598" lon="6.22209">
        <ele>811.5</ele>
        <time>2013-05-26T11:00:05.600Z</time>
      </trkpt>
      <trkpt lat="45.85981" lon="6.22212">
        <ele>812.8</ele>
        <time>2013-05-26T11:00:06.600Z</time>
      </trkpt>
      <trkpt lat="45.85981" lon="6.22215">
        <ele>812.1</ele>
        <time>2013-05-26T11:00:07.600Z</time>
      </trkpt>
      <trkpt lat="45.85982" lon="6.22218">
        <ele>810.5</ele>
        <time>2013-05-26T11:00:08.600Z</time>
      </trkpt>
      <trkpt lat="45.85987" lon="6.22228">
        <ele>806.5</ele>
        <time>2013-05-26T11:00:13.600Z</time>
      </trkpt>
      <trkpt lat="45.85985" lon="6.22228">
        <ele>811.1</ele>
        <time>2013-05-26T11:00:17.600Z</time>
      </trkpt>
      <trkpt lat="45.85988" lon="6.22226">
        <ele>801.1</ele>
        <time>2013-05-26T11:00:20.600Z</time>
      </trkpt>
      <trkpt lat="45.85998" lon="6.22214">
        <ele>793.2</ele>
        <time>2013-05-26T11:00:25.600Z</time>
      </trkpt>
      <trkpt lat="45.85999" lon="6.22212">
        <ele>793.2</ele>
        <time>2013-05-26T11:00:26.600Z</time>
      </trkpt>
      <trkpt lat="45.86" lon="6.22205">
        <ele>797.1</ele>
        <time>2013-05-26T11:00:28.600Z</time>
      </trkpt>
      <trkpt lat="45.86002" lon="6.22198">
        <ele>792.5</ele>
        <time>2013-05-26T11:00:30.600Z</time>
      </trkpt>
      <trkpt lat="45.86" lon="6.22179">
        <ele>785.4</ele>
        <time>2013-05-26T11:00:34.600Z</time>
      </trkpt>
      <trkpt lat="45.85998" lon="6.22171">
        <ele>780.3</ele>
        <time>2013-05-26T11:00:36.600Z</time>
      </trkpt>
      <trkpt lat="45.85998" lon="6.22167">
        <ele>777</ele>
        <time>2013-05-26T11:00:37.600Z</time>
      </trkpt>
      <trkpt lat="45.85998" lon="6.22164">
        <ele>775.2</ele>
        <time>2013-05-26T11:00:38.600Z</time>
      </trkpt>
      <trkpt lat="45.85997" lon="6.22153">
        <ele>764</ele>
        <time>2013-05-26T11:00:42.600Z</time>
      </trkpt>
      <trkpt lat="45.85998" lon="6.2215">
        <ele>766.3</ele>
        <time>2013-05-26T11:00:43.600Z</time>
      </trkpt>
      <trkpt lat="45.85998" lon="6.22143">
        <ele>766.3</ele>
        <time>2013-05-26T11:00:45.600Z</time>
      </trkpt>
      <trkpt lat="45.85998" lon="6.22139">
        <ele>765.9</ele>
        <time>2013-05-26T11:00:46.600Z</time>
      </trkpt>
      <trkpt lat="45.85999" lon="6.22136">
        <ele>765.4</ele>
        <time>2013-05-26T11:00:47.600Z</time>
      </trkpt>
      <trkpt lat="45.86002" lon="6.2213">
        <ele>763.4</ele>
        <time>2013-05-26T11:00:49.600Z</time>
      </trkpt>
      <trkpt lat="45.86004" lon="6.22123">
        <ele>759.3</ele>
        <time>2013-05-26T11:00:53.600Z</time>
      </trkpt>
      <trkpt lat="45.86003" lon="6.22119">
        <ele>755.6</ele>
        <time>2013-05-26T11:00:54.600Z</time>
      </trkpt>
      <trkpt lat="45.86003" lon="6.22114">
        <ele>751.9</ele>
        <time>2013-05-26T11:00:55.600Z</time>
      </trkpt>
      <trkpt lat="45.86002" lon="6.2211">
        <ele>749.5</ele>
        <time>2013-05-26T11:00:56.600Z</time>
      </trkpt>
      <trkpt lat="45.86" lon="6.22102">
        <ele>749.6</ele>
        <time>2013-05-26T11:00:58.600Z</time>
      </trkpt>
      <trkpt lat="45.85998" lon="6.2209">
        <ele>750</ele>
        <time>2013-05-26T11:01:03.600Z</time>
      </trkpt>
      <trkpt lat="45.85996" lon="6.2208">
        <ele>741.5</ele>
        <time>2013-05-26T11:01:08.600Z</time>
      </trkpt>
      <trkpt lat="45.85994" lon="6.22079">
        <ele>742.7</ele>
        <time>2013-05-26T11:01:10.600Z</time>
      </trkpt>
      <trkpt lat="45.85992" lon="6.22056">
        <ele>729.6</ele>
        <time>2013-05-26T11:01:16.600Z</time>
      </trkpt>
      <trkpt lat="45.85991" lon="6.22053">
        <ele>725</ele>
        <time>2013-05-26T11:01:17.600Z</time>
      </trkpt>
      <trkpt lat="45.8599" lon="6.22051">
        <ele>722.5</ele>
        <time>2013-05-26T11:01:18.600Z</time>
      </trkpt>
      <trkpt lat="45.8599" lon="6.22044">
        <ele>717.3</ele>
        <time>2013-05-26T11:01:20.600Z</time>
      </trkpt>
      <trkpt lat="45.85986" lon="6.22033">
        <ele>717</ele>
        <time>2013-05-26T11:01:24.600Z</time>
      </trkpt>
      <trkpt lat="45.85984" lon="6.2203">
        <ele>715</ele>
        <time>2013-05-26T11:01:25.600Z</time>
      </trkpt>
      <trkpt lat="45.85983" lon="6.22027">
        <ele>715.4</ele>
        <time>2013-05-26T11:01:26.600Z</time>
      </trkpt>
      <trkpt lat="45.85982" lon="6.2202">
        <ele>709.8</ele>
        <time>2013-05-26T11:01:28.600Z</time>
      </trkpt>
      <trkpt lat="45.85981" lon="6.22016">
        <ele>708.5</ele>
        <time>2013-05-26T11:01:29.600Z</time>
      </trkpt>
      <trkpt lat="45.85981" lon="6.22013">
        <ele>704.3</ele>
        <time>2013-05-26T11:01:30.600Z</time>
      </trkpt>
      <trkpt lat="45.85981" lon="6.22009">
        <ele>705.8</ele>
        <time>2013-05-26T11:01:31.600Z</time>
      </trkpt>
      <trkpt lat="45.85981" lon="6.22005">
        <ele>704.3</ele>
        <time>2013-05-26T11:01:32.600Z</time>
      </trkpt>
      <trkpt lat="45.85983" lon="6.22001">
        <ele>705.3</ele>
        <time>2013-05-26T11:01:33.600Z</time>
      </trkpt>
      <trkpt lat="45.85983" lon="6.21997">
        <ele>704.2</ele>
        <time>2013-05-26T11:01:34.600Z</time>
      </trkpt>
      <trkpt lat="45.85984" lon="6.21993">
        <ele>705.2</ele>
        <time>2013-05-26T11:01:35.600Z</time>
      </trkpt>
      <trkpt lat="45.85986" lon="6.21989">
        <ele>706.4</ele>
        <time>2013-05-26T11:01:36.600Z</time>
      </trkpt>
      <trkpt lat="45.85995" lon="6.21972">
        <ele>703.2</ele>
        <time>2013-05-26T11:01:40.600Z</time>
      </trkpt>
      <trkpt lat="45.85998" lon="6.21942">
        <ele>706.8</ele>
        <time>2013-05-26T11:01:45.600Z</time>
      </trkpt>
      <trkpt lat="45.85998" lon="6.21937">
        <ele>707.6</ele>
        <time>2013-05-26T11:01:46.600Z</time>
      </trkpt>
      <trkpt lat="45.85997" lon="6.21931">
        <ele>706.6</ele>
        <time>2013-05-26T11:01:47.600Z</time>
      </trkpt>
      <trkpt lat="45.85997" lon="6.21926">
        <ele>705.9</ele>
        <time>2013-05-26T11:01:48.600Z</time>
      </trkpt>
      <trkpt lat="45.85997" lon="6.2192">
        <ele>713</ele>
        <time>2013-05-26T11:01:49.600Z</time>
      </trkpt>
      <trkpt lat="45.85997" lon="6.21915">
        <ele>707.6</ele>
        <time>2013-05-26T11:01:50.600Z</time>
      </trkpt>
      <trkpt lat="45.85996" lon="6.2191">
        <ele>712</ele>
        <time>2013-05-26T11:01:51.600Z</time>
      </trkpt>
      <trkpt lat="45.85996" lon="6.21905">
        <ele>712.4</ele>
        <time>2013-05-26T11:01:52.600Z</time>
      </trkpt>
      <trkpt lat="45.85995" lon="6.21901">
        <ele>713.6</ele>
        <time>2013-05-26T11:01:53.600Z</time>
      </trkpt>
      <trkpt lat="45.85994" lon="6.21896">
        <ele>710.7</ele>
        <time>2013-05-26T11:01:54.600Z</time>
      </trkpt>
      <trkpt lat="45.85994" lon="6.21892">
        <ele>709.4</ele>
        <time>2013-05-26T11:01:55.600Z</time>
      </trkpt>
      <trkpt lat="45.85993" lon="6.21888">
        <ele>713.3</ele>
        <time>2013-05-26T11:01:56.600Z</time>
      </trkpt>
      <trkpt lat="45.85992" lon="6.21884">
        <ele>709.9</ele>
        <time>2013-05-26T11:01:57.600Z</time>
      </trkpt>
      <trkpt lat="45.85991" lon="6.21879">
        <ele>706.8</ele>
        <time>2013-05-26T11:01:58.600Z</time>
      </trkpt>
      <trkpt lat="45.85991" lon="6.21874">
        <ele>704.2</ele>
        <time>2013-05-26T11:01:59.600Z</time>
      </trkpt>
      <trkpt lat="45.85991" lon="6.2187">
        <ele>705.8</ele>
        <time>2013-05-26T11:02:00.600Z</time>
      </trkpt>
      <trkpt lat="45.8599" lon="6.2186">
        <ele>704.9</ele>
        <time>2013-05-26T11:02:02.600Z</time>
      </trkpt>
      <trkpt lat="45.8599" lon="6.21856">
        <ele>702</ele>
        <time>2013-05-26T11:02:03.600Z</time>
      </trkpt>
      <trkpt lat="45.85989" lon="6.21852">
        <ele>699.7</ele>
        <time>2013-05-26T11:02:04.600Z</time>
      </trkpt>
      <trkpt lat="45.85989" lon="6.21848">
        <ele>695.3</ele>
        <time>2013-05-26T11:02:05.600Z</time>
      </trkpt>
      <trkpt lat="45.85989" lon="6.21844">
        <ele>702.9</ele>
        <time>2013-05-26T11:02:06.600Z</time>
      </trkpt>
      <trkpt lat="45.85989" lon="6.2184">
        <ele>705</ele>
        <time>2013-05-26T11:02:07.600Z</time>
      </trkpt>
      <trkpt lat="45.85989" lon="6.21836">
        <ele>703.9</ele>
        <time>2013-05-26T11:02:08.600Z</time>
      </trkpt>
      <trkpt lat="45.85989" lon="6.21832">
        <ele>703.7</ele>
        <time>2013-05-26T11:02:09.600Z</time>
      </trkpt>
      <trkpt lat="45.85988" lon="6.21829">
        <ele>701.3</ele>
        <time>2013-05-26T11:02:10.600Z</time>
      </trkpt>
      <trkpt lat="45.85988" lon="6.21825">
        <ele>701.6</ele>
        <time>2013-05-26T11:02:11.600Z</time>
      </trkpt>
      <trkpt lat="45.85987" lon="6.21819">
        <ele>705</ele>
        <time>2013-05-26T11:02:13.600Z</time>
      </trkpt>
      <trkpt lat="45.85987" lon="6.21812">
        <ele>706.8</ele>
        <time>2013-05-26T11:02:15.600Z</time>
      </trkpt>
      <trkpt lat="45.85985" lon="6.21802">
        <ele>701.6</ele>
        <time>2013-05-26T11:02:17.600Z</time>
      </trkpt>
      <trkpt lat="45.85983" lon="6.21797">
        <ele>704.3</ele>
        <time>2013-05-26T11:02:18.600Z</time>
      </trkpt>
      <trkpt lat="45.85982" lon="6.21793">
        <ele>700.3</ele>
        <time>2013-05-26T11:02:19.600Z</time>
      </trkpt>
      <trkpt lat="45.8598" lon="6.2179">
        <ele>700.9</ele>
        <time>2013-05-26T11:02:20.600Z</time>
      </trkpt>
      <trkpt lat="45.85978" lon="6.21786">
        <ele>695.3</ele>
        <time>2013-05-26T11:02:21.600Z</time>
      </trkpt>
      <trkpt lat="45.85977" lon="6.21782">
        <ele>694.7</ele>
        <time>2013-05-26T11:02:22.600Z</time>
      </trkpt>
      <trkpt lat="45.85976" lon="6.21779">
        <ele>689.3</ele>
        <time>2013-05-26T11:02:23.600Z</time>
      </trkpt>
      <trkpt lat="45.85974" lon="6.21771">
        <ele>699.1</ele>
        <time>2013-05-26T11:02:25.600Z</time>
      </trkpt>
      <trkpt lat="45.85973" lon="6.21766">
        <ele>698.6</ele>
        <time>2013-05-26T11:02:26.600Z</time>
      </trkpt>
      <trkpt lat="45.85972" lon="6.21762">
        <ele>695.3</ele>
        <time>2013-05-26T11:02:27.600Z</time>
      </trkpt>
      <trkpt lat="45.85971" lon="6.21758">
        <ele>696</ele>
        <time>2013-05-26T11:02:28.600Z</time>
      </trkpt>
      <trkpt lat="45.85971" lon="6.21753">
        <ele>699.1</ele>
        <time>2013-05-26T11:02:29.600Z</time>
      </trkpt>
      <trkpt lat="45.8597" lon="6.21749">
        <ele>698.5</ele>
        <time>2013-05-26T11:02:30.600Z</time>
      </trkpt>
      <trkpt lat="45.85969" lon="6.21743">
        <ele>700.7</ele>
        <time>2013-05-26T11:02:32.600Z</time>
      </trkpt>
      <trkpt lat="45.85968" lon="6.21734">
        <ele>691.3</ele>
        <time>2013-05-26T11:02:34.600Z</time>
      </trkpt>
      <trkpt lat="45.85967" lon="6.21729">
        <ele>699.4</ele>
        <time>2013-05-26T11:02:35.600Z</time>
      </trkpt>
      <trkpt lat="45.85966" lon="6.21725">
        <ele>697.8</ele>
        <time>2013-05-26T11:02:36.600Z</time>
      </trkpt>
      <trkpt lat="45.85965" lon="6.21722">
        <ele>698.1</ele>
        <time>2013-05-26T11:02:37.600Z</time>
      </trkpt>
      <trkpt lat="45.85965" lon="6.21718">
        <ele>694.8</ele>
        <time>2013-05-26T11:02:38.600Z</time>
      </trkpt>
      <trkpt lat="45.85965" lon="6.21715">
        <ele>689.3</ele>
        <time>2013-05-26T11:02:39.600Z</time>
      </trkpt>
      <trkpt lat="45.85964" lon="6.21711">
        <ele>691.2</ele>
        <time>2013-05-26T11:02:40.600Z</time>
      </trkpt>
      <trkpt lat="45.85964" lon="6.21708">
        <ele>691.1</ele>
        <time>2013-05-26T11:02:41.600Z</time>
      </trkpt>
      <trkpt lat="45.85964" lon="6.21704">
        <ele>693.5</ele>
        <time>2013-05-26T11:02:42.600Z</time>
      </trkpt>
      <trkpt lat="45.85964" lon="6.21702">
        <ele>690.8</ele>
        <time>2013-05-26T11:02:43.600Z</time>
      </trkpt>
      <trkpt lat="45.85964" lon="6.21698">
        <ele>696.6</ele>
        <time>2013-05-26T11:02:44.600Z</time>
      </trkpt>
      <trkpt lat="45.85964" lon="6.21695">
        <ele>695.2</ele>
        <time>2013-05-26T11:02:45.600Z</time>
      </trkpt>
      <trkpt lat="45.85964" lon="6.21691">
        <ele>694.9</ele>
        <time>2013-05-26T11:02:46.600Z</time>
      </trkpt>
      <trkpt lat="45.85965" lon="6.21683">
        <ele>694.7</ele>
        <time>2013-05-26T11:02:48.600Z</time>
      </trkpt>
      <trkpt lat="45.85965" lon="6.2168">
        <ele>691.7</ele>
        <time>2013-05-26T11:02:49.600Z</time>
      </trkpt>
      <trkpt lat="45.85967" lon="6.2166">
        <ele>695.6</ele>
        <time>2013-05-26T11:02:57.600Z</time>
      </trkpt>
      <trkpt lat="45.85971" lon="6.21658">
        <ele>694.3</ele>
        <time>2013-05-26T11:03:02.600Z</time>
      </trkpt>
      <trkpt lat="45.8597" lon="6.21655">
        <ele>698.3</ele>
        <time>2013-05-26T11:03:04.600Z</time>
      </trkpt>
      <trkpt lat="45.85968" lon="6.2165">
        <ele>702.6</ele>
        <time>2013-05-26T11:03:09.600Z</time>
      </trkpt>
      <trkpt lat="45.85964" lon="6.21645">
        <ele>703.8</ele>
        <time>2013-05-26T11:03:14.600Z</time>
      </trkpt>
      <trkpt lat="45.85958" lon="6.21639">
        <ele>726</ele>
        <time>2013-05-26T11:03:19.600Z</time>
      </trkpt>
      <trkpt lat="45.85956" lon="6.21637">
        <ele>723.6</ele>
        <time>2013-05-26T11:03:20.600Z</time>
      </trkpt>
      <trkpt lat="45.85955" lon="6.21635">
        <ele>721.1</ele>
        <time>2013-05-26T11:03:21.600Z</time>
      </trkpt>
      <trkpt lat="45.85952" lon="6.2163">
        <ele>714.2</ele>
        <time>2013-05-26T11:03:23.600Z</time>
      </trkpt>
      <trkpt lat="45.8595" lon="6.21628">
        <ele>713.8</ele>
        <time>2013-05-26T11:03:24.600Z</time>
      </trkpt>
      <trkpt lat="45.85949" lon="6.21626">
        <ele>715.2</ele>
        <time>2013-05-26T11:03:25.600Z</time>
      </trkpt>
      <trkpt lat="45.85947" lon="6.21623">
        <ele>718.6</ele>
        <time>2013-05-26T11:03:26.600Z</time>
      </trkpt>
      <trkpt lat="45.85946" lon="6.2162">
        <ele>717.6</ele>
        <time>2013-05-26T11:03:27.600Z</time>
      </trkpt>
      <trkpt lat="45.85946" lon="6.21616">
        <ele>716.8</ele>
        <time>2013-05-26T11:03:28.600Z</time>
      </trkpt>
      <trkpt lat="45.85946" lon="6.21613">
        <ele>713.5</ele>
        <time>2013-05-26T11:03:29.600Z</time>
      </trkpt>
      <trkpt lat="45.85946" lon="6.21611">
        <ele>707.7</ele>
        <time>2013-05-26T11:03:30.600Z</time>
      </trkpt>
      <trkpt lat="45.85947" lon="6.21605">
        <ele>707</ele>
        <time>2013-05-26T11:03:34.600Z</time>
      </trkpt>
      <trkpt lat="45.85944" lon="6.21596">
        <ele>706.5</ele>
        <time>2013-05-26T11:03:39.600Z</time>
      </trkpt>
      <trkpt lat="45.85941" lon="6.21586">
        <ele>706.6</ele>
        <time>2013-05-26T11:03:44.600Z</time>
      </trkpt>
      <trkpt lat="45.85941" lon="6.21584">
        <ele>705.7</ele>
        <time>2013-05-26T11:03:45.600Z</time>
      </trkpt>
      <trkpt lat="45.85939" lon="6.21575">
        <ele>701.8</ele>
        <time>2013-05-26T11:03:50.600Z</time>
      </trkpt>
      <trkpt lat="45.85936" lon="6.21568">
        <ele>701.4</ele>
        <time>2013-05-26T11:03:54.600Z</time>
      </trkpt>
      <trkpt lat="45.85935" lon="6.21567">
        <ele>700.6</ele>
        <time>2013-05-26T11:03:59.600Z</time>
      </trkpt>
      <trkpt lat="45.85935" lon="6.21567">
        <ele>698.3</ele>
        <time>2013-05-26T11:04:04.600Z</time>
      </trkpt>
      <trkpt lat="45.85931" lon="6.21561">
        <ele>707.4</ele>
        <time>2013-05-26T11:04:08.600Z</time>
      </trkpt>
      <trkpt lat="45.85924" lon="6.21551">
        <ele>698</ele>
        <time>2013-05-26T11:04:12.600Z</time>
      </trkpt>
      <trkpt lat="45.85922" lon="6.21548">
        <ele>697</ele>
        <time>2013-05-26T11:04:13.600Z</time>
      </trkpt>
      <trkpt lat="45.85921" lon="6.21546">
        <ele>700.9</ele>
        <time>2013-05-26T11:04:14.600Z</time>
      </trkpt>
      <trkpt lat="45.8592" lon="6.21543">
        <ele>699.4</ele>
        <time>2013-05-26T11:04:15.600Z</time>
      </trkpt>
      <trkpt lat="45.85918" lon="6.2154">
        <ele>697</ele>
        <time>2013-05-26T11:04:16.600Z</time>
      </trkpt>
      <trkpt lat="45.85917" lon="6.21538">
        <ele>699</ele>
        <time>2013-05-26T11:04:17.600Z</time>
      </trkpt>
      <trkpt lat="45.85915" lon="6.21535">
        <ele>692.7</ele>
        <time>2013-05-26T11:04:18.600Z</time>
      </trkpt>
      <trkpt lat="45.85913" lon="6.21532">
        <ele>695.6</ele>
        <time>2013-05-26T11:04:19.600Z</time>
      </trkpt>
      <trkpt lat="45.85912" lon="6.21529">
        <ele>695.4</ele>
        <time>2013-05-26T11:04:20.600Z</time>
      </trkpt>
      <trkpt lat="45.85911" lon="6.21526">
        <ele>694.1</ele>
        <time>2013-05-26T11:04:21.600Z</time>
      </trkpt>
      <trkpt lat="45.8591" lon="6.21523">
        <ele>692</ele>
        <time>2013-05-26T11:04:22.600Z</time>
      </trkpt>
      <trkpt lat="45.85909" lon="6.2152">
        <ele>685.3</ele>
        <time>2013-05-26T11:04:23.600Z</time>
      </trkpt>
      <trkpt lat="45.85908" lon="6.21516">
        <ele>692.8</ele>
        <time>2013-05-26T11:04:24.600Z</time>
      </trkpt>
      <trkpt lat="45.85907" lon="6.21512">
        <ele>694.9</ele>
        <time>2013-05-26T11:04:25.600Z</time>
      </trkpt>
      <trkpt lat="45.85907" lon="6.21508">
        <ele>688.5</ele>
        <time>2013-05-26T11:04:26.600Z</time>
      </trkpt>
      <trkpt lat="45.85906" lon="6.21504">
        <ele>691.3</ele>
        <time>2013-05-26T11:04:27.600Z</time>
      </trkpt>
      <trkpt lat="45.85905" lon="6.21501">
        <ele>690.6</ele>
        <time>2013-05-26T11:04:28.600Z</time>
      </trkpt>
      <trkpt lat="45.85903" lon="6.21497">
        <ele>690.1</ele>
        <time>2013-05-26T11:04:29.700Z</time>
      </trkpt>
      <trkpt lat="45.859" lon="6.21489">
        <ele>689.3</ele>
        <time>2013-05-26T11:04:31.600Z</time>
      </trkpt>
      <trkpt lat="45.85899" lon="6.21485">
        <ele>690.6</ele>
        <time>2013-05-26T11:04:32.600Z</time>
      </trkpt>
      <trkpt lat="45.85897" lon="6.21482">
        <ele>689.7</ele>
        <time>2013-05-26T11:04:33.600Z</time>
      </trkpt>
      <trkpt lat="45.85896" lon="6.21479">
        <ele>689.6</ele>
        <time>2013-05-26T11:04:34.600Z</time>
      </trkpt>
      <trkpt lat="45.85895" lon="6.21475">
        <ele>689.6</ele>
        <time>2013-05-26T11:04:35.600Z</time>
      </trkpt>
      <trkpt lat="45.85893" lon="6.2147">
        <ele>691.8</ele>
        <time>2013-05-26T11:04:36.600Z</time>
      </trkpt>
      <trkpt lat="45.85892" lon="6.21465">
        <ele>694.7</ele>
        <time>2013-05-26T11:04:37.600Z</time>
      </trkpt>
      <trkpt lat="45.85891" lon="6.21462">
        <ele>693.1</ele>
        <time>2013-05-26T11:04:38.600Z</time>
      </trkpt>
      <trkpt lat="45.85889" lon="6.21458">
        <ele>691.4</ele>
        <time>2013-05-26T11:04:39.600Z</time>
      </trkpt>
      <trkpt lat="45.85888" lon="6.21454">
        <ele>690.2</ele>
        <time>2013-05-26T11:04:40.600Z</time>
      </trkpt>
      <trkpt lat="45.85886" lon="6.2145">
        <ele>686.6</ele>
        <time>2013-05-26T11:04:41.600Z</time>
      </trkpt>
      <trkpt lat="45.85885" lon="6.21446">
        <ele>688.6</ele>
        <time>2013-05-26T11:04:42.600Z</time>
      </trkpt>
      <trkpt lat="45.85884" lon="6.21442">
        <ele>690.4</ele>
        <time>2013-05-26T11:04:43.600Z</time>
      </trkpt>
      <trkpt lat="45.85883" lon="6.21438">
        <ele>691.1</ele>
        <time>2013-05-26T11:04:44.600Z</time>
      </trkpt>
      <trkpt lat="45.85882" lon="6.21434">
        <ele>689.5</ele>
        <time>2013-05-26T11:04:45.600Z</time>
      </trkpt>
      <trkpt lat="45.8588" lon="6.2143">
        <ele>686.8</ele>
        <time>2013-05-26T11:04:46.600Z</time>
      </trkpt>
      <trkpt lat="45.85879" lon="6.21426">
        <ele>688.5</ele>
        <time>2013-05-26T11:04:47.600Z</time>
      </trkpt>
      <trkpt lat="45.85877" lon="6.21423">
        <ele>688.2</ele>
        <time>2013-05-26T11:04:48.600Z</time>
      </trkpt>
      <trkpt lat="45.85874" lon="6.21417">
        <ele>687.4</ele>
        <time>2013-05-26T11:04:50.600Z</time>
      </trkpt>
      <trkpt lat="45.85867" lon="6.2141">
        <ele>686.8</ele>
        <time>2013-05-26T11:04:54.600Z</time>
      </trkpt>
      <trkpt lat="45.85859" lon="6.21406">
        <ele>679.5</ele>
        <time>2013-05-26T11:04:58.600Z</time>
      </trkpt>
      <trkpt lat="45.85857" lon="6.21405">
        <ele>677.1</ele>
        <time>2013-05-26T11:04:59.600Z</time>
      </trkpt>
      <trkpt lat="45.85852" lon="6.21402">
        <ele>675.9</ele>
        <time>2013-05-26T11:05:01.600Z</time>
      </trkpt>
      <trkpt lat="45.85849" lon="6.21401">
        <ele>674.9</ele>
        <time>2013-05-26T11:05:02.600Z</time>
      </trkpt>
      <trkpt lat="45.85845" lon="6.21399">
        <ele>672.6</ele>
        <time>2013-05-26T11:05:03.600Z</time>
      </trkpt>
      <trkpt lat="45.85843" lon="6.21399">
        <ele>670.6</ele>
        <time>2013-05-26T11:05:04.600Z</time>
      </trkpt>
      <trkpt lat="45.8584" lon="6.21398">
        <ele>670.4</ele>
        <time>2013-05-26T11:05:05.600Z</time>
      </trkpt>
      <trkpt lat="45.85838" lon="6.21397">
        <ele>669.9</ele>
        <time>2013-05-26T11:05:06.600Z</time>
      </trkpt>
      <trkpt lat="45.85834" lon="6.21397">
        <ele>666.8</ele>
        <time>2013-05-26T11:05:08.600Z</time>
      </trkpt>
      <trkpt lat="45.85826" lon="6.21398">
        <ele>665</ele>
        <time>2013-05-26T11:05:12.600Z</time>
      </trkpt>
      <trkpt lat="45.85824" lon="6.214">
        <ele>665.9</ele>
        <time>2013-05-26T11:05:13.600Z</time>
      </trkpt>
      <trkpt lat="45.85822" lon="6.21402">
        <ele>664.2</ele>
        <time>2013-05-26T11:05:14.600Z</time>
      </trkpt>
      <trkpt lat="45.8582" lon="6.21404">
        <ele>663.8</ele>
        <time>2013-05-26T11:05:15.600Z</time>
      </trkpt>
      <trkpt lat="45.85811" lon="6.21408">
        <ele>652.2</ele>
        <time>2013-05-26T11:05:20.600Z</time>
      </trkpt>
      <trkpt lat="45.85808" lon="6.21405">
        <ele>641.3</ele>
        <time>2013-05-26T11:05:25.600Z</time>
      </trkpt>
      <trkpt lat="45.85811" lon="6.21381">
        <ele>656.3</ele>
        <time>2013-05-26T11:05:30.600Z</time>
      </trkpt>
      <trkpt lat="45.85812" lon="6.21374">
        <ele>663.4</ele>
        <time>2013-05-26T11:05:32.600Z</time>
      </trkpt>
      <trkpt lat="45.85813" lon="6.2137">
        <ele>660.8</ele>
        <time>2013-05-26T11:05:33.600Z</time>
      </trkpt>
      <trkpt lat="45.85814" lon="6.21366">
        <ele>657.2</ele>
        <time>2013-05-26T11:05:34.600Z</time>
      </trkpt>
      <trkpt lat="45.85815" lon="6.21364">
        <ele>655.9</ele>
        <time>2013-05-26T11:05:35.600Z</time>
      </trkpt>
      <trkpt lat="45.85818" lon="6.21357">
        <ele>659.3</ele>
        <time>2013-05-26T11:05:37.600Z</time>
      </trkpt>
      <trkpt lat="45.8582" lon="6.21353">
        <ele>660.2</ele>
        <time>2013-05-26T11:05:38.600Z</time>
      </trkpt>
      <trkpt lat="45.85822" lon="6.2135">
        <ele>661.1</ele>
        <time>2013-05-26T11:05:39.600Z</time>
      </trkpt>
      <trkpt lat="45.85824" lon="6.21347">
        <ele>658.7</ele>
        <time>2013-05-26T11:05:40.600Z</time>
      </trkpt>
      <trkpt lat="45.85828" lon="6.21341">
        <ele>665.2</ele>
        <time>2013-05-26T11:05:42.600Z</time>
      </trkpt>
      <trkpt lat="45.85829" lon="6.21338">
        <ele>661.2</ele>
        <time>2013-05-26T11:05:43.600Z</time>
      </trkpt>
      <trkpt lat="45.85829" lon="6.21334">
        <ele>660.6</ele>
        <time>2013-05-26T11:05:44.600Z</time>
      </trkpt>
      <trkpt lat="45.85829" lon="6.2133">
        <ele>661.8</ele>
        <time>2013-05-26T11:05:45.600Z</time>
      </trkpt>
      <trkpt lat="45.85828" lon="6.21327">
        <ele>662.1</ele>
        <time>2013-05-26T11:05:46.600Z</time>
      </trkpt>
      <trkpt lat="45.85826" lon="6.21325">
        <ele>660.1</ele>
        <time>2013-05-26T11:05:47.600Z</time>
      </trkpt>
      <trkpt lat="45.85824" lon="6.21322">
        <ele>663.6</ele>
        <time>2013-05-26T11:05:48.600Z</time>
      </trkpt>
      <trkpt lat="45.85822" lon="6.21319">
        <ele>657.3</ele>
        <time>2013-05-26T11:05:49.600Z</time>
      </trkpt>
      <trkpt lat="45.8582" lon="6.21316">
        <ele>661.1</ele>
        <time>2013-05-26T11:05:50.600Z</time>
      </trkpt>
      <trkpt lat="45.85818" lon="6.21314">
        <ele>664.3</ele>
        <time>2013-05-26T11:05:51.600Z</time>
      </trkpt>
      <trkpt lat="45.85815" lon="6.21312">
        <ele>667</ele>
        <time>2013-05-26T11:05:52.600Z</time>
      </trkpt>
      <trkpt lat="45.85812" lon="6.2131">
        <ele>667.5</ele>
        <time>2013-05-26T11:05:53.600Z</time>
      </trkpt>
      <trkpt lat="45.8581" lon="6.21308">
        <ele>664.7</ele>
        <time>2013-05-26T11:05:54.600Z</time>
      </trkpt>
      <trkpt lat="45.85807" lon="6.21305">
        <ele>664.2</ele>
        <time>2013-05-26T11:05:55.600Z</time>
      </trkpt>
      <trkpt lat="45.85805" lon="6.21303">
        <ele>663.1</ele>
        <time>2013-05-26T11:05:56.600Z</time>
      </trkpt>
      <trkpt lat="45.85803" lon="6.213">
        <ele>661.6</ele>
        <time>2013-05-26T11:05:57.600Z</time>
      </trkpt>
      <trkpt lat="45.858" lon="6.21299">
        <ele>661.6</ele>
        <time>2013-05-26T11:05:58.600Z</time>
      </trkpt>
      <trkpt lat="45.85798" lon="6.21298">
        <ele>660.2</ele>
        <time>2013-05-26T11:05:59.600Z</time>
      </trkpt>
      <trkpt lat="45.85796" lon="6.21296">
        <ele>664.5</ele>
        <time>2013-05-26T11:06:00.600Z</time>
      </trkpt>
      <trkpt lat="45.85793" lon="6.21295">
        <ele>667.2</ele>
        <time>2013-05-26T11:06:01.600Z</time>
      </trkpt>
      <trkpt lat="45.85791" lon="6.21292">
        <ele>671.8</ele>
        <time>2013-05-26T11:06:02.600Z</time>
      </trkpt>
      <trkpt lat="45.85786" lon="6.21291">
        <ele>662.8</ele>
        <time>2013-05-26T11:06:04.600Z</time>
      </trkpt>
      <trkpt lat="45.85774" lon="6.21272">
        <ele>658.9</ele>
        <time>2013-05-26T11:06:12.600Z</time>
      </trkpt>
      <trkpt lat="45.85773" lon="6.21266">
        <ele>658</ele>
        <time>2013-05-26T11:06:14.600Z</time>
      </trkpt>
      <trkpt lat="45.85772" lon="6.21263">
        <ele>658.1</ele>
        <time>2013-05-26T11:06:15.600Z</time>
      </trkpt>
      <trkpt lat="45.85771" lon="6.21257">
        <ele>655.5</ele>
        <time>2013-05-26T11:06:17.600Z</time>
      </trkpt>
      <trkpt lat="45.85772" lon="6.21242">
        <ele>649.2</ele>
        <time>2013-05-26T11:06:23.600Z</time>
      </trkpt>
      <trkpt lat="45.85773" lon="6.21242">
        <ele>643</ele>
        <time>2013-05-26T11:06:27.600Z</time>
      </trkpt>
      <trkpt lat="45.85768" lon="6.21223">
        <ele>641.6</ele>
        <time>2013-05-26T11:06:32.600Z</time>
      </trkpt>
      <trkpt lat="45.85759" lon="6.21195">
        <ele>639.6</ele>
        <time>2013-05-26T11:06:37.600Z</time>
      </trkpt>
      <trkpt lat="45.85755" lon="6.21175">
        <ele>633.5</ele>
        <time>2013-05-26T11:06:42.600Z</time>
      </trkpt>
      <trkpt lat="45.85755" lon="6.21172">
        <ele>631.4</ele>
        <time>2013-05-26T11:06:43.600Z</time>
      </trkpt>
      <trkpt lat="45.85755" lon="6.21168">
        <ele>632.4</ele>
        <time>2013-05-26T11:06:44.600Z</time>
      </trkpt>
      <trkpt lat="45.85754" lon="6.21162">
        <ele>630.7</ele>
        <time>2013-05-26T11:06:46.600Z</time>
      </trkpt>
      <trkpt lat="45.85748" lon="6.21145">
        <ele>631</ele>
        <time>2013-05-26T11:06:50.600Z</time>
      </trkpt>
      <trkpt lat="45.85741" lon="6.21117">
        <ele>637.2</ele>
        <time>2013-05-26T11:06:55.600Z</time>
      </trkpt>
      <trkpt lat="45.85741" lon="6.21106">
        <ele>633.7</ele>
        <time>2013-05-26T11:06:57.600Z</time>
      </trkpt>
      <trkpt lat="45.85741" lon="6.211">
        <ele>633.5</ele>
        <time>2013-05-26T11:06:58.600Z</time>
      </trkpt>
      <trkpt lat="45.85741" lon="6.21095">
        <ele>631.9</ele>
        <time>2013-05-26T11:06:59.600Z</time>
      </trkpt>
      <trkpt lat="45.8574" lon="6.21089">
        <ele>634.1</ele>
        <time>2013-05-26T11:07:00.600Z</time>
      </trkpt>
      <trkpt lat="45.8574" lon="6.21086">
        <ele>630.5</ele>
        <time>2013-05-26T11:07:01.600Z</time>
      </trkpt>
      <trkpt lat="45.8574" lon="6.21076">
        <ele>624.6</ele>
        <time>2013-05-26T11:07:06.600Z</time>
      </trkpt>
      <trkpt lat="45.85745" lon="6.21054">
        <ele>616.9</ele>
        <time>2013-05-26T11:07:13.600Z</time>
      </trkpt>
      <trkpt lat="45.85746" lon="6.2105">
        <ele>627.7</ele>
        <time>2013-05-26T11:07:17.600Z</time>
      </trkpt>
      <trkpt lat="45.85745" lon="6.21043">
        <ele>614.5</ele>
        <time>2013-05-26T11:07:21.600Z</time>
      </trkpt>
      <trkpt lat="45.85741" lon="6.21041">
        <ele>606.1</ele>
        <time>2013-05-26T11:07:25.600Z</time>
      </trkpt>
      <trkpt lat="45.85731" lon="6.21024">
        <ele>608.7</ele>
        <time>2013-05-26T11:07:30.600Z</time>
      </trkpt>
      <trkpt lat="45.85729" lon="6.21008">
        <ele>594.5</ele>
        <time>2013-05-26T11:07:36.600Z</time>
      </trkpt>
      <trkpt lat="45.85729" lon="6.20994">
        <ele>610.7</ele>
        <time>2013-05-26T11:07:41.600Z</time>
      </trkpt>
      <trkpt lat="45.85724" lon="6.20979">
        <ele>610.8</ele>
        <time>2013-05-26T11:07:45.600Z</time>
      </trkpt>
      <trkpt lat="45.85722" lon="6.20973">
        <ele>607</ele>
        <time>2013-05-26T11:07:48.600Z</time>
      </trkpt>
      <trkpt lat="45.85718" lon="6.2097">
        <ele>600.7</ele>
        <time>2013-05-26T11:07:51.600Z</time>
      </trkpt>
      <trkpt lat="45.85717" lon="6.20969">
        <ele>581.4</ele>
        <time>2013-05-26T11:07:56.600Z</time>
      </trkpt>
      <trkpt lat="45.85709" lon="6.20967">
        <ele>568.6</ele>
        <time>2013-05-26T11:08:01.600Z</time>
      </trkpt>
      <trkpt lat="45.85699" lon="6.20969">
        <ele>568.2</ele>
        <time>2013-05-26T11:08:05.600Z</time>
      </trkpt>
      <trkpt lat="45.85689" lon="6.20959">
        <ele>580.6</ele>
        <time>2013-05-26T11:08:11.600Z</time>
      </trkpt>
      <trkpt lat="45.85687" lon="6.20947">
        <ele>586.7</ele>
        <time>2013-05-26T11:08:15.600Z</time>
      </trkpt>
      <trkpt lat="45.85687" lon="6.20944">
        <ele>588.3</ele>
        <time>2013-05-26T11:08:16.600Z</time>
      </trkpt>
      <trkpt lat="45.85688" lon="6.2093">
        <ele>597.6</ele>
        <time>2013-05-26T11:08:21.600Z</time>
      </trkpt>
      <trkpt lat="45.85688" lon="6.20927">
        <ele>594.7</ele>
        <time>2013-05-26T11:08:22.600Z</time>
      </trkpt>
      <trkpt lat="45.85698" lon="6.20903">
        <ele>592.8</ele>
        <time>2013-05-26T11:08:28.600Z</time>
      </trkpt>
      <trkpt lat="45.85699" lon="6.209">
        <ele>594.3</ele>
        <time>2013-05-26T11:08:29.600Z</time>
      </trkpt>
      <trkpt lat="45.85706" lon="6.20886">
        <ele>596.8</ele>
        <time>2013-05-26T11:08:33.600Z</time>
      </trkpt>
      <trkpt lat="45.85708" lon="6.20882">
        <ele>596.5</ele>
        <time>2013-05-26T11:08:35.600Z</time>
      </trkpt>
      <trkpt lat="45.8571" lon="6.20878">
        <ele>596.7</ele>
        <time>2013-05-26T11:08:37.600Z</time>
      </trkpt>
      <trkpt lat="45.85712" lon="6.20875">
        <ele>596.8</ele>
        <time>2013-05-26T11:08:38.600Z</time>
      </trkpt>
      <trkpt lat="45.85717" lon="6.20867">
        <ele>593.4</ele>
        <time>2013-05-26T11:08:43.600Z</time>
      </trkpt>
      <trkpt lat="45.85724" lon="6.20861">
        <ele>596.6</ele>
        <time>2013-05-26T11:08:47.600Z</time>
      </trkpt>
      <trkpt lat="45.85726" lon="6.20859">
        <ele>598.1</ele>
        <time>2013-05-26T11:08:48.600Z</time>
      </trkpt>
      <trkpt lat="45.85729" lon="6.20857">
        <ele>597.1</ele>
        <time>2013-05-26T11:08:49.600Z</time>
      </trkpt>
      <trkpt lat="45.85732" lon="6.20855">
        <ele>597</ele>
        <time>2013-05-26T11:08:50.600Z</time>
      </trkpt>
      <trkpt lat="45.85734" lon="6.20854">
        <ele>601</ele>
        <time>2013-05-26T11:08:51.600Z</time>
      </trkpt>
      <trkpt lat="45.85743" lon="6.20847">
        <ele>600</ele>
        <time>2013-05-26T11:08:55.600Z</time>
      </trkpt>
      <trkpt lat="45.85748" lon="6.20841">
        <ele>581.1</ele>
        <time>2013-05-26T11:08:58.600Z</time>
      </trkpt>
      <trkpt lat="45.85755" lon="6.20828">
        <ele>587</ele>
        <time>2013-05-26T11:09:05.600Z</time>
      </trkpt>
      <trkpt lat="45.85765" lon="6.20813">
        <ele>574.7</ele>
        <time>2013-05-26T11:09:09.600Z</time>
      </trkpt>
      <trkpt lat="45.85768" lon="6.20811">
        <ele>555.2</ele>
        <time>2013-05-26T11:09:10.600Z</time>
      </trkpt>
      <trkpt lat="45.85769" lon="6.20809">
        <ele>559.7</ele>
        <time>2013-05-26T11:09:11.600Z</time>
      </trkpt>
      <trkpt lat="45.85771" lon="6.20804">
        <ele>560.9</ele>
        <time>2013-05-26T11:09:13.600Z</time>
      </trkpt>
      <trkpt lat="45.85774" lon="6.20798">
        <ele>562.3</ele>
        <time>2013-05-26T11:09:16.600Z</time>
      </trkpt>
      <trkpt lat="45.85775" lon="6.20796">
        <ele>559.8</ele>
        <time>2013-05-26T11:09:17.600Z</time>
      </trkpt>
      <trkpt lat="45.85776" lon="6.20793">
        <ele>560.7</ele>
        <time>2013-05-26T11:09:18.600Z</time>
      </trkpt>
      <trkpt lat="45.85779" lon="6.20791">
        <ele>557.5</ele>
        <time>2013-05-26T11:09:19.600Z</time>
      </trkpt>
      <trkpt lat="45.85792" lon="6.20778">
        <ele>565.6</ele>
        <time>2013-05-26T11:09:23.600Z</time>
      </trkpt>
      <trkpt lat="45.85803" lon="6.20763">
        <ele>563.5</ele>
        <time>2013-05-26T11:09:27.600Z</time>
      </trkpt>
      <trkpt lat="45.85803" lon="6.2076">
        <ele>560.4</ele>
        <time>2013-05-26T11:09:28.600Z</time>
      </trkpt>
      <trkpt lat="45.85806" lon="6.2075">
        <ele>558.6</ele>
        <time>2013-05-26T11:09:30.600Z</time>
      </trkpt>
      <trkpt lat="45.85807" lon="6.20742">
        <ele>562.1</ele>
        <time>2013-05-26T11:09:32.600Z</time>
      </trkpt>
      <trkpt lat="45.85808" lon="6.20738">
        <ele>565.7</ele>
        <time>2013-05-26T11:09:33.600Z</time>
      </trkpt>
      <trkpt lat="45.85809" lon="6.20734">
        <ele>560.4</ele>
        <time>2013-05-26T11:09:34.600Z</time>
      </trkpt>
      <trkpt lat="45.8581" lon="6.20729">
        <ele>572.4</ele>
        <time>2013-05-26T11:09:35.600Z</time>
      </trkpt>
      <trkpt lat="45.85811" lon="6.20725">
        <ele>570.9</ele>
        <time>2013-05-26T11:09:36.600Z</time>
      </trkpt>
      <trkpt lat="45.85811" lon="6.20721">
        <ele>569</ele>
        <time>2013-05-26T11:09:37.600Z</time>
      </trkpt>
      <trkpt lat="45.85812" lon="6.20718">
        <ele>567.8</ele>
        <time>2013-05-26T11:09:38.600Z</time>
      </trkpt>
      <trkpt lat="45.85812" lon="6.20714">
        <ele>566.4</ele>
        <time>2013-05-26T11:09:39.600Z</time>
      </trkpt>
      <trkpt lat="45.85813" lon="6.20706">
        <ele>560.9</ele>
        <time>2013-05-26T11:09:43.600Z</time>
      </trkpt>
      <trkpt lat="45.85813" lon="6.20682">
        <ele>551.6</ele>
        <time>2013-05-26T11:09:49.600Z</time>
      </trkpt>
      <trkpt lat="45.85813" lon="6.20679">
        <ele>552.1</ele>
        <time>2013-05-26T11:09:50.600Z</time>
      </trkpt>
      <trkpt lat="45.85813" lon="6.20676">
        <ele>551.2</ele>
        <time>2013-05-26T11:09:51.600Z</time>
      </trkpt>
      <trkpt lat="45.85814" lon="6.20671">
        <ele>550</ele>
        <time>2013-05-26T11:09:53.600Z</time>
      </trkpt>
      <trkpt lat="45.85814" lon="6.20666">
        <ele>547.1</ele>
        <time>2013-05-26T11:09:55.600Z</time>
      </trkpt>
      <trkpt lat="45.85813" lon="6.20661">
        <ele>550.9</ele>
        <time>2013-05-26T11:09:57.600Z</time>
      </trkpt>
      <trkpt lat="45.85813" lon="6.20658">
        <ele>549.4</ele>
        <time>2013-05-26T11:09:58.600Z</time>
      </trkpt>
      <trkpt lat="45.8581" lon="6.2065">
        <ele>544.4</ele>
        <time>2013-05-26T11:10:02.600Z</time>
      </trkpt>
      <trkpt lat="45.85808" lon="6.20648">
        <ele>546.3</ele>
        <time>2013-05-26T11:10:03.600Z</time>
      </trkpt>
      <trkpt lat="45.85807" lon="6.20646">
        <ele>543.3</ele>
        <time>2013-05-26T11:10:04.600Z</time>
      </trkpt>
      <trkpt lat="45.85805" lon="6.20643">
        <ele>545</ele>
        <time>2013-05-26T11:10:05.600Z</time>
      </trkpt>
      <trkpt lat="45.85805" lon="6.2064">
        <ele>544.3</ele>
        <time>2013-05-26T11:10:06.600Z</time>
      </trkpt>
      <trkpt lat="45.85804" lon="6.20637">
        <ele>545.4</ele>
        <time>2013-05-26T11:10:07.600Z</time>
      </trkpt>
      <trkpt lat="45.85804" lon="6.20634">
        <ele>545.8</ele>
        <time>2013-05-26T11:10:08.600Z</time>
      </trkpt>
      <trkpt lat="45.85803" lon="6.20631">
        <ele>546.2</ele>
        <time>2013-05-26T11:10:09.600Z</time>
      </trkpt>
      <trkpt lat="45.85803" lon="6.20628">
        <ele>545.9</ele>
        <time>2013-05-26T11:10:10.600Z</time>
      </trkpt>
      <trkpt lat="45.85798" lon="6.20623">
        <ele>545.4</ele>
        <time>2013-05-26T11:10:14.600Z</time>
      </trkpt>
      <trkpt lat="45.85797" lon="6.20621">
        <ele>543.3</ele>
        <time>2013-05-26T11:10:15.600Z</time>
      </trkpt>
      <trkpt lat="45.85793" lon="6.20614">
        <ele>545.3</ele>
        <time>2013-05-26T11:10:18.600Z</time>
      </trkpt>
      <trkpt lat="45.85792" lon="6.2061">
        <ele>548.3</ele>
        <time>2013-05-26T11:10:19.600Z</time>
      </trkpt>
      <trkpt lat="45.85792" lon="6.20606">
        <ele>546.4</ele>
        <time>2013-05-26T11:10:20.600Z</time>
      </trkpt>
      <trkpt lat="45.85791" lon="6.20603">
        <ele>545.4</ele>
        <time>2013-05-26T11:10:21.600Z</time>
      </trkpt>
      <trkpt lat="45.8579" lon="6.206">
        <ele>543.6</ele>
        <time>2013-05-26T11:10:22.600Z</time>
      </trkpt>
      <trkpt lat="45.85789" lon="6.20596">
        <ele>541.2</ele>
        <time>2013-05-26T11:10:23.600Z</time>
      </trkpt>
      <trkpt lat="45.85788" lon="6.20594">
        <ele>542</ele>
        <time>2013-05-26T11:10:24.600Z</time>
      </trkpt>
      <trkpt lat="45.85787" lon="6.20591">
        <ele>541.1</ele>
        <time>2013-05-26T11:10:25.600Z</time>
      </trkpt>
      <trkpt lat="45.85781" lon="6.20581">
        <ele>541</ele>
        <time>2013-05-26T11:10:30.600Z</time>
      </trkpt>
      <trkpt lat="45.85779" lon="6.20576">
        <ele>534.4</ele>
        <time>2013-05-26T11:10:32.600Z</time>
      </trkpt>
      <trkpt lat="45.85778" lon="6.20573">
        <ele>531.3</ele>
        <time>2013-05-26T11:10:33.600Z</time>
      </trkpt>
      <trkpt lat="45.85777" lon="6.2057">
        <ele>536.4</ele>
        <time>2013-05-26T11:10:34.600Z</time>
      </trkpt>
      <trkpt lat="45.85774" lon="6.20563">
        <ele>528.7</ele>
        <time>2013-05-26T11:10:36.600Z</time>
      </trkpt>
      <trkpt lat="45.85773" lon="6.2056">
        <ele>529.5</ele>
        <time>2013-05-26T11:10:37.600Z</time>
      </trkpt>
      <trkpt lat="45.85771" lon="6.20557">
        <ele>533.6</ele>
        <time>2013-05-26T11:10:38.700Z</time>
      </trkpt>
      <trkpt lat="45.85769" lon="6.20554">
        <ele>535.9</ele>
        <time>2013-05-26T11:10:39.600Z</time>
      </trkpt>
      <trkpt lat="45.85768" lon="6.20551">
        <ele>536.1</ele>
        <time>2013-05-26T11:10:40.600Z</time>
      </trkpt>
      <trkpt lat="45.85766" lon="6.20547">
        <ele>533.8</ele>
        <time>2013-05-26T11:10:41.600Z</time>
      </trkpt>
      <trkpt lat="45.85764" lon="6.20543">
        <ele>533.6</ele>
        <time>2013-05-26T11:10:42.600Z</time>
      </trkpt>
      <trkpt lat="45.85762" lon="6.20539">
        <ele>535</ele>
        <time>2013-05-26T11:10:43.600Z</time>
      </trkpt>
      <trkpt lat="45.8576" lon="6.20535">
        <ele>530.3</ele>
        <time>2013-05-26T11:10:44.600Z</time>
      </trkpt>
      <trkpt lat="45.85756" lon="6.20527">
        <ele>530.8</ele>
        <time>2013-05-26T11:10:46.600Z</time>
      </trkpt>
      <trkpt lat="45.85755" lon="6.20524">
        <ele>531</ele>
        <time>2013-05-26T11:10:47.600Z</time>
      </trkpt>
      <trkpt lat="45.85754" lon="6.2052">
        <ele>530</ele>
        <time>2013-05-26T11:10:48.600Z</time>
      </trkpt>
      <trkpt lat="45.85752" lon="6.20511">
        <ele>537</ele>
        <time>2013-05-26T11:10:50.600Z</time>
      </trkpt>
      <trkpt lat="45.85752" lon="6.20507">
        <ele>538.8</ele>
        <time>2013-05-26T11:10:51.600Z</time>
      </trkpt>
      <trkpt lat="45.85751" lon="6.20503">
        <ele>539.5</ele>
        <time>2013-05-26T11:10:52.600Z</time>
      </trkpt>
      <trkpt lat="45.85751" lon="6.20499">
        <ele>538.2</ele>
        <time>2013-05-26T11:10:53.600Z</time>
      </trkpt>
      <trkpt lat="45.85751" lon="6.20494">
        <ele>535.1</ele>
        <time>2013-05-26T11:10:54.600Z</time>
      </trkpt>
      <trkpt lat="45.85749" lon="6.20486">
        <ele>536</ele>
        <time>2013-05-26T11:10:56.600Z</time>
      </trkpt>
      <trkpt lat="45.85748" lon="6.20482">
        <ele>530.1</ele>
        <time>2013-05-26T11:10:57.600Z</time>
      </trkpt>
      <trkpt lat="45.85746" lon="6.20479">
        <ele>533.2</ele>
        <time>2013-05-26T11:10:58.600Z</time>
      </trkpt>
      <trkpt lat="45.85743" lon="6.20472">
        <ele>530.1</ele>
        <time>2013-05-26T11:11:00.600Z</time>
      </trkpt>
      <trkpt lat="45.85744" lon="6.20468">
        <ele>528.2</ele>
        <time>2013-05-26T11:11:01.600Z</time>
      </trkpt>
      <trkpt lat="45.8574" lon="6.20459">
        <ele>531.3</ele>
        <time>2013-05-26T11:11:04.600Z</time>
      </trkpt>
      <trkpt lat="45.85739" lon="6.20456">
        <ele>530.2</ele>
        <time>2013-05-26T11:11:05.600Z</time>
      </trkpt>
      <trkpt lat="45.85738" lon="6.20447">
        <ele>531.5</ele>
        <time>2013-05-26T11:11:07.600Z</time>
      </trkpt>
      <trkpt lat="45.85739" lon="6.20443">
        <ele>528.9</ele>
        <time>2013-05-26T11:11:08.600Z</time>
      </trkpt>
      <trkpt lat="45.85739" lon="6.2044">
        <ele>532.6</ele>
        <time>2013-05-26T11:11:09.600Z</time>
      </trkpt>
      <trkpt lat="45.85739" lon="6.20436">
        <ele>531.6</ele>
        <time>2013-05-26T11:11:10.600Z</time>
      </trkpt>
      <trkpt lat="45.8574" lon="6.20431">
        <ele>533.8</ele>
        <time>2013-05-26T11:11:11.600Z</time>
      </trkpt>
      <trkpt lat="45.8574" lon="6.20427">
        <ele>532.1</ele>
        <time>2013-05-26T11:11:12.600Z</time>
      </trkpt>
      <trkpt lat="45.85741" lon="6.20423">
        <ele>532.3</ele>
        <time>2013-05-26T11:11:13.600Z</time>
      </trkpt>
      <trkpt lat="45.85742" lon="6.20415">
        <ele>532.8</ele>
        <time>2013-05-26T11:11:15.600Z</time>
      </trkpt>
      <trkpt lat="45.85743" lon="6.20411">
        <ele>530.1</ele>
        <time>2013-05-26T11:11:16.600Z</time>
      </trkpt>
      <trkpt lat="45.85744" lon="6.20408">
        <ele>529.5</ele>
        <time>2013-05-26T11:11:17.600Z</time>
      </trkpt>
      <trkpt lat="45.85745" lon="6.20404">
        <ele>530.6</ele>
        <time>2013-05-26T11:11:18.600Z</time>
      </trkpt>
      <trkpt lat="45.85746" lon="6.204">
        <ele>529.1</ele>
        <time>2013-05-26T11:11:19.600Z</time>
      </trkpt>
      <trkpt lat="45.85747" lon="6.20396">
        <ele>533.3</ele>
        <time>2013-05-26T11:11:20.600Z</time>
      </trkpt>
      <trkpt lat="45.85749" lon="6.20392">
        <ele>530.4</ele>
        <time>2013-05-26T11:11:21.600Z</time>
      </trkpt>
      <trkpt lat="45.8575" lon="6.20388">
        <ele>531.8</ele>
        <time>2013-05-26T11:11:22.600Z</time>
      </trkpt>
      <trkpt lat="45.85752" lon="6.20384">
        <ele>530.3</ele>
        <time>2013-05-26T11:11:23.600Z</time>
      </trkpt>
      <trkpt lat="45.85754" lon="6.2038">
        <ele>529.7</ele>
        <time>2013-05-26T11:11:24.600Z</time>
      </trkpt>
      <trkpt lat="45.85755" lon="6.20377">
        <ele>529.8</ele>
        <time>2013-05-26T11:11:25.600Z</time>
      </trkpt>
      <trkpt lat="45.85761" lon="6.20364">
        <ele>521.9</ele>
        <time>2013-05-26T11:11:30.600Z</time>
      </trkpt>
      <trkpt lat="45.85768" lon="6.20355">
        <ele>526.2</ele>
        <time>2013-05-26T11:11:35.600Z</time>
      </trkpt>
      <trkpt lat="45.85772" lon="6.20351">
        <ele>531.1</ele>
        <time>2013-05-26T11:11:40.600Z</time>
      </trkpt>
      <trkpt lat="45.85771" lon="6.20351">
        <ele>532</ele>
        <time>2013-05-26T11:11:45.600Z</time>
      </trkpt>
      <trkpt lat="45.85772" lon="6.2035">
        <ele>525.8</ele>
        <time>2013-05-26T11:11:50.600Z</time>
      </trkpt>
      <trkpt lat="45.85772" lon="6.2035">
        <ele>528</ele>
        <time>2013-05-26T11:11:55.600Z</time>
      </trkpt>
      <trkpt lat="45.85772" lon="6.2035">
        <ele>535.1</ele>
        <time>2013-05-26T11:12:00.600Z</time>
      </trkpt>
      <trkpt lat="45.85772" lon="6.2035">
        <ele>531.6</ele>
        <time>2013-05-26T11:12:05.600Z</time>
      </trkpt>
      <trkpt lat="45.85772" lon="6.2035">
        <ele>544.4</ele>
        <time>2013-05-26T11:12:09.600Z</time>
      </trkpt>
      <trkpt lat="45.85772" lon="6.2035">
        <ele>530.9</ele>
        <time>2013-05-26T11:12:14.700Z</time>
      </trkpt>
      <trkpt lat="45.85772" lon="6.2035">
        <ele>511.8</ele>
        <time>2013-05-26T11:12:19.600Z</time>
      </trkpt>
      <trkpt lat="45.85772" lon="6.2035">
        <ele>509.2</ele>
        <time>2013-05-26T11:12:23.600Z</time>
      </trkpt>
      <trkpt lat="45.85772" lon="6.2035">
        <ele>523.6</ele>
        <time>2013-05-26T11:12:27.600Z</time>
      </trkpt>
      <trkpt lat="45.85773" lon="6.20351">
        <ele>522.6</ele>
        <time>2013-05-26T11:12:28.600Z</time>
      </trkpt>
      <trkpt lat="45.85774" lon="6.2035">
        <ele>519</ele>
        <time>2013-05-26T11:12:33.700Z</time>
      </trkpt>
      <trkpt lat="45.85775" lon="6.20349">
        <ele>521.2</ele>
        <time>2013-05-26T11:12:34.600Z</time>
      </trkpt>
      <trkpt lat="45.85778" lon="6.20346">
        <ele>525.8</ele>
        <time>2013-05-26T11:12:36.600Z</time>
      </trkpt>
      <trkpt lat="45.85779" lon="6.20345">
        <ele>526.5</ele>
        <time>2013-05-26T11:12:37.700Z</time>
      </trkpt>
      <trkpt lat="45.8578" lon="6.20344">
        <ele>530.2</ele>
        <time>2013-05-26T11:12:38.600Z</time>
      </trkpt>
      <trkpt lat="45.85781" lon="6.20342">
        <ele>529.3</ele>
        <time>2013-05-26T11:12:39.600Z</time>
      </trkpt>
      <trkpt lat="45.85782" lon="6.2034">
        <ele>527.4</ele>
        <time>2013-05-26T11:12:40.600Z</time>
      </trkpt>
      <trkpt lat="45.85783" lon="6.20338">
        <ele>525.5</ele>
        <time>2013-05-26T11:12:41.600Z</time>
      </trkpt>
      <trkpt lat="45.85785" lon="6.20334">
        <ele>530.7</ele>
        <time>2013-05-26T11:12:43.600Z</time>
      </trkpt>
      <trkpt lat="45.85786" lon="6.20332">
        <ele>530.4</ele>
        <time>2013-05-26T11:12:44.600Z</time>
      </trkpt>
      <trkpt lat="45.8579" lon="6.20329">
        <ele>525</ele>
        <time>2013-05-26T11:12:48.600Z</time>
      </trkpt>
      <trkpt lat="45.85793" lon="6.20323">
        <ele>527.1</ele>
        <time>2013-05-26T11:12:53.600Z</time>
      </trkpt>
      <trkpt lat="45.85797" lon="6.20316">
        <ele>532.2</ele>
        <time>2013-05-26T11:12:57.600Z</time>
      </trkpt>
      <trkpt lat="45.85801" lon="6.20311">
        <ele>527.2</ele>
        <time>2013-05-26T11:13:01.600Z</time>
      </trkpt>
      <trkpt lat="45.85806" lon="6.20305">
        <ele>528.1</ele>
        <time>2013-05-26T11:13:05.600Z</time>
      </trkpt>
      <trkpt lat="45.85807" lon="6.20302">
        <ele>527.9</ele>
        <time>2013-05-26T11:13:06.600Z</time>
      </trkpt>
      <trkpt lat="45.8581" lon="6.20297">
        <ele>524.9</ele>
        <time>2013-05-26T11:13:08.600Z</time>
      </trkpt>
      <trkpt lat="45.85812" lon="6.20295">
        <ele>524.5</ele>
        <time>2013-05-26T11:13:09.600Z</time>
      </trkpt>
      <trkpt lat="45.85813" lon="6.20292">
        <ele>524.9</ele>
        <time>2013-05-26T11:13:10.600Z</time>
      </trkpt>
      <trkpt lat="45.85815" lon="6.20289">
        <ele>523.5</ele>
        <time>2013-05-26T11:13:11.600Z</time>
      </trkpt>
      <trkpt lat="45.85817" lon="6.20286">
        <ele>522.1</ele>
        <time>2013-05-26T11:13:12.600Z</time>
      </trkpt>
      <trkpt lat="45.85821" lon="6.2028">
        <ele>520</ele>
        <time>2013-05-26T11:13:14.600Z</time>
      </trkpt>
      <trkpt lat="45.85823" lon="6.20277">
        <ele>522.4</ele>
        <time>2013-05-26T11:13:15.600Z</time>
      </trkpt>
      <trkpt lat="45.85825" lon="6.20273">
        <ele>523.6</ele>
        <time>2013-05-26T11:13:16.600Z</time>
      </trkpt>
      <trkpt lat="45.85826" lon="6.2027">
        <ele>519.7</ele>
        <time>2013-05-26T11:13:17.600Z</time>
      </trkpt>
      <trkpt lat="45.85828" lon="6.20268">
        <ele>520.4</ele>
        <time>2013-05-26T11:13:18.600Z</time>
      </trkpt>
      <trkpt lat="45.85832" lon="6.20264">
        <ele>520.7</ele>
        <time>2013-05-26T11:13:20.600Z</time>
      </trkpt>
      <trkpt lat="45.85834" lon="6.20261">
        <ele>521.7</ele>
        <time>2013-05-26T11:13:21.600Z</time>
      </trkpt>
      <trkpt lat="45.85837" lon="6.20259">
        <ele>522.5</ele>
        <time>2013-05-26T11:13:22.600Z</time>
      </trkpt>
      <trkpt lat="45.8584" lon="6.20258">
        <ele>522.9</ele>
        <time>2013-05-26T11:13:23.600Z</time>
      </trkpt>
      <trkpt lat="45.85844" lon="6.20258">
        <ele>522.3</ele>
        <time>2013-05-26T11:13:27.600Z</time>
      </trkpt>
      <trkpt lat="45.85842" lon="6.20257">
        <ele>520.5</ele>
        <time>2013-05-26T11:13:32.600Z</time>
      </trkpt>
      <trkpt lat="45.85841" lon="6.20256">
        <ele>524.1</ele>
        <time>2013-05-26T11:13:37.600Z</time>
      </trkpt>
      <trkpt lat="45.85841" lon="6.20256">
        <ele>523.4</ele>
        <time>2013-05-26T11:13:41.600Z</time>
      </trkpt>
      <trkpt lat="45.85847" lon="6.20259">
        <ele>524.9</ele>
        <time>2013-05-26T11:13:46.600Z</time>
      </trkpt>
      <trkpt lat="45.85849" lon="6.20259">
        <ele>522.1</ele>
        <time>2013-05-26T11:13:47.600Z</time>
      </trkpt>
      <trkpt lat="45.8586" lon="6.20259">
        <ele>517.4</ele>
        <time>2013-05-26T11:13:51.600Z</time>
      </trkpt>
      <trkpt lat="45.85862" lon="6.20259">
        <ele>515.7</ele>
        <time>2013-05-26T11:13:52.600Z</time>
      </trkpt>
      <trkpt lat="45.85865" lon="6.20258">
        <ele>515.8</ele>
        <time>2013-05-26T11:13:53.600Z</time>
      </trkpt>
      <trkpt lat="45.85869" lon="6.20257">
        <ele>513.5</ele>
        <time>2013-05-26T11:13:54.600Z</time>
      </trkpt>
      <trkpt lat="45.85871" lon="6.20256">
        <ele>515.2</ele>
        <time>2013-05-26T11:13:55.600Z</time>
      </trkpt>
      <trkpt lat="45.85874" lon="6.20255">
        <ele>515.6</ele>
        <time>2013-05-26T11:13:56.600Z</time>
      </trkpt>
      <trkpt lat="45.85877" lon="6.20253">
        <ele>516.4</ele>
        <time>2013-05-26T11:13:57.600Z</time>
      </trkpt>
      <trkpt lat="45.8588" lon="6.20251">
        <ele>518.9</ele>
        <time>2013-05-26T11:13:58.600Z</time>
      </trkpt>
      <trkpt lat="45.85882" lon="6.20249">
        <ele>518.2</ele>
        <time>2013-05-26T11:13:59.600Z</time>
      </trkpt>
      <trkpt lat="45.85885" lon="6.20247">
        <ele>516.4</ele>
        <time>2013-05-26T11:14:00.600Z</time>
      </trkpt>
      <trkpt lat="45.85887" lon="6.20245">
        <ele>517.7</ele>
        <time>2013-05-26T11:14:01.600Z</time>
      </trkpt>
      <trkpt lat="45.85889" lon="6.20243">
        <ele>517.8</ele>
        <time>2013-05-26T11:14:02.600Z</time>
      </trkpt>
      <trkpt lat="45.85892" lon="6.20242">
        <ele>516.2</ele>
        <time>2013-05-26T11:14:03.600Z</time>
      </trkpt>
      <trkpt lat="45.85894" lon="6.2024">
        <ele>517.2</ele>
        <time>2013-05-26T11:14:04.600Z</time>
      </trkpt>
      <trkpt lat="45.859" lon="6.20237">
        <ele>520</ele>
        <time>2013-05-26T11:14:06.600Z</time>
      </trkpt>
      <trkpt lat="45.85903" lon="6.20236">
        <ele>518</ele>
        <time>2013-05-26T11:14:07.600Z</time>
      </trkpt>
      <trkpt lat="45.85906" lon="6.20235">
        <ele>517</ele>
        <time>2013-05-26T11:14:08.600Z</time>
      </trkpt>
      <trkpt lat="45.85909" lon="6.20233">
        <ele>514.2</ele>
        <time>2013-05-26T11:14:09.600Z</time>
      </trkpt>
      <trkpt lat="45.85912" lon="6.20232">
        <ele>514.1</ele>
        <time>2013-05-26T11:14:10.600Z</time>
      </trkpt>
      <trkpt lat="45.85914" lon="6.20231">
        <ele>512.1</ele>
        <time>2013-05-26T11:14:11.600Z</time>
      </trkpt>
      <trkpt lat="45.85918" lon="6.2023">
        <ele>514.3</ele>
        <time>2013-05-26T11:14:12.600Z</time>
      </trkpt>
      <trkpt lat="45.85923" lon="6.20227">
        <ele>513.1</ele>
        <time>2013-05-26T11:14:14.600Z</time>
      </trkpt>
      <trkpt lat="45.85925" lon="6.20225">
        <ele>514.6</ele>
        <time>2013-05-26T11:14:15.600Z</time>
      </trkpt>
      <trkpt lat="45.85929" lon="6.20223">
        <ele>514.2</ele>
        <time>2013-05-26T11:14:16.600Z</time>
      </trkpt>
      <trkpt lat="45.85936" lon="6.2022">
        <ele>510.8</ele>
        <time>2013-05-26T11:14:18.600Z</time>
      </trkpt>
      <trkpt lat="45.85939" lon="6.20218">
        <ele>509</ele>
        <time>2013-05-26T11:14:19.600Z</time>
      </trkpt>
      <trkpt lat="45.85942" lon="6.20216">
        <ele>509.5</ele>
        <time>2013-05-26T11:14:20.600Z</time>
      </trkpt>
      <trkpt lat="45.85945" lon="6.20215">
        <ele>509.6</ele>
        <time>2013-05-26T11:14:21.600Z</time>
      </trkpt>
      <trkpt lat="45.85948" lon="6.20214">
        <ele>511.8</ele>
        <time>2013-05-26T11:14:22.600Z</time>
      </trkpt>
      <trkpt lat="45.85951" lon="6.20213">
        <ele>510.3</ele>
        <time>2013-05-26T11:14:23.600Z</time>
      </trkpt>
      <trkpt lat="45.85954" lon="6.20212">
        <ele>509.3</ele>
        <time>2013-05-26T11:14:24.600Z</time>
      </trkpt>
      <trkpt lat="45.85957" lon="6.20211">
        <ele>511.5</ele>
        <time>2013-05-26T11:14:25.600Z</time>
      </trkpt>
      <trkpt lat="45.8596" lon="6.20209">
        <ele>514.4</ele>
        <time>2013-05-26T11:14:26.600Z</time>
      </trkpt>
      <trkpt lat="45.85963" lon="6.20208">
        <ele>511.5</ele>
        <time>2013-05-26T11:14:27.600Z</time>
      </trkpt>
      <trkpt lat="45.85966" lon="6.20207">
        <ele>509.8</ele>
        <time>2013-05-26T11:14:28.600Z</time>
      </trkpt>
      <trkpt lat="45.85976" lon="6.20203">
        <ele>509.2</ele>
        <time>2013-05-26T11:14:32.600Z</time>
      </trkpt>
      <trkpt lat="45.8598" lon="6.20202">
        <ele>508.2</ele>
        <time>2013-05-26T11:14:33.600Z</time>
      </trkpt>
      <trkpt lat="45.85983" lon="6.20201">
        <ele>507.3</ele>
        <time>2013-05-26T11:14:34.600Z</time>
      </trkpt>
      <trkpt lat="45.85986" lon="6.20201">
        <ele>507.4</ele>
        <time>2013-05-26T11:14:35.600Z</time>
      </trkpt>
      <trkpt lat="45.85989" lon="6.20201">
        <ele>507.2</ele>
        <time>2013-05-26T11:14:36.600Z</time>
      </trkpt>
      <trkpt lat="45.85992" lon="6.202">
        <ele>506.8</ele>
        <time>2013-05-26T11:14:37.600Z</time>
      </trkpt>
      <trkpt lat="45.85994" lon="6.20199">
        <ele>510.1</ele>
        <time>2013-05-26T11:14:38.600Z</time>
      </trkpt>
      <trkpt lat="45.85998" lon="6.20199">
        <ele>508.8</ele>
        <time>2013-05-26T11:14:39.600Z</time>
      </trkpt>
      <trkpt lat="45.86006" lon="6.20195">
        <ele>503.7</ele>
        <time>2013-05-26T11:14:43.600Z</time>
      </trkpt>
      <trkpt lat="45.86014" lon="6.20193">
        <ele>503</ele>
        <time>2013-05-26T11:14:46.600Z</time>
      </trkpt>
      <trkpt lat="45.86017" lon="6.20193">
        <ele>503.4</ele>
        <time>2013-05-26T11:14:47.600Z</time>
      </trkpt>
      <trkpt lat="45.8602" lon="6.20192">
        <ele>505.7</ele>
        <time>2013-05-26T11:14:48.600Z</time>
      </trkpt>
      <trkpt lat="45.86028" lon="6.20189">
        <ele>504.3</ele>
        <time>2013-05-26T11:14:53.600Z</time>
      </trkpt>
      <trkpt lat="45.86033" lon="6.20187">
        <ele>497.6</ele>
        <time>2013-05-26T11:14:57.600Z</time>
      </trkpt>
      <trkpt lat="45.86037" lon="6.20184">
        <ele>499.2</ele>
        <time>2013-05-26T11:14:59.600Z</time>
      </trkpt>
      <trkpt lat="45.86039" lon="6.20182">
        <ele>500.4</ele>
        <time>2013-05-26T11:15:00.600Z</time>
      </trkpt>
      <trkpt lat="45.86041" lon="6.20181">
        <ele>500.4</ele>
        <time>2013-05-26T11:15:01.600Z</time>
      </trkpt>
      <trkpt lat="45.86039" lon="6.20175">
        <ele>497.4</ele>
        <time>2013-05-26T11:15:05.600Z</time>
      </trkpt>
      <trkpt lat="45.86039" lon="6.20175">
        <ele>495.7</ele>
        <time>2013-05-26T11:15:09.600Z</time>
      </trkpt>
      <trkpt lat="45.86049" lon="6.20169">
        <ele>494.7</ele>
        <time>2013-05-26T11:15:14.600Z</time>
      </trkpt>
      <trkpt lat="45.86066" lon="6.20163">
        <ele>498.4</ele>
        <time>2013-05-26T11:15:19.600Z</time>
      </trkpt>
      <trkpt lat="45.86068" lon="6.20162">
        <ele>500.8</ele>
        <time>2013-05-26T11:15:20.600Z</time>
      </trkpt>
      <trkpt lat="45.8607" lon="6.2016">
        <ele>500.2</ele>
        <time>2013-05-26T11:15:21.600Z</time>
      </trkpt>
      <trkpt lat="45.86073" lon="6.20159">
        <ele>500.3</ele>
        <time>2013-05-26T11:15:22.600Z</time>
      </trkpt>
      <trkpt lat="45.86076" lon="6.20158">
        <ele>500.9</ele>
        <time>2013-05-26T11:15:23.600Z</time>
      </trkpt>
      <trkpt lat="45.86079" lon="6.20156">
        <ele>503.6</ele>
        <time>2013-05-26T11:15:24.600Z</time>
      </trkpt>
      <trkpt lat="45.86083" lon="6.20155">
        <ele>500.7</ele>
        <time>2013-05-26T11:15:25.600Z</time>
      </trkpt>
      <trkpt lat="45.86086" lon="6.20154">
        <ele>500.3</ele>
        <time>2013-05-26T11:15:26.600Z</time>
      </trkpt>
      <trkpt lat="45.86088" lon="6.20153">
        <ele>501</ele>
        <time>2013-05-26T11:15:27.600Z</time>
      </trkpt>
      <trkpt lat="45.86091" lon="6.20151">
        <ele>502.4</ele>
        <time>2013-05-26T11:15:28.600Z</time>
      </trkpt>
      <trkpt lat="45.86094" lon="6.2015">
        <ele>501</ele>
        <time>2013-05-26T11:15:29.600Z</time>
      </trkpt>
      <trkpt lat="45.86097" lon="6.20149">
        <ele>499.7</ele>
        <time>2013-05-26T11:15:30.600Z</time>
      </trkpt>
      <trkpt lat="45.861" lon="6.20147">
        <ele>501.4</ele>
        <time>2013-05-26T11:15:31.600Z</time>
      </trkpt>
      <trkpt lat="45.86103" lon="6.20146">
        <ele>498.8</ele>
        <time>2013-05-26T11:15:32.600Z</time>
      </trkpt>
      <trkpt lat="45.8611" lon="6.20141">
        <ele>499.8</ele>
        <time>2013-05-26T11:15:34.600Z</time>
      </trkpt>
      <trkpt lat="45.86117" lon="6.20138">
        <ele>496.7</ele>
        <time>2013-05-26T11:15:36.600Z</time>
      </trkpt>
      <trkpt lat="45.8612" lon="6.20136">
        <ele>498.8</ele>
        <time>2013-05-26T11:15:37.600Z</time>
      </trkpt>
      <trkpt lat="45.86123" lon="6.20134">
        <ele>499</ele>
        <time>2013-05-26T11:15:38.600Z</time>
      </trkpt>
      <trkpt lat="45.86126" lon="6.20133">
        <ele>495.8</ele>
        <time>2013-05-26T11:15:39.700Z</time>
      </trkpt>
      <trkpt lat="45.86133" lon="6.2013">
        <ele>497.6</ele>
        <time>2013-05-26T11:15:41.600Z</time>
      </trkpt>
      <trkpt lat="45.86136" lon="6.20129">
        <ele>496.8</ele>
        <time>2013-05-26T11:15:42.600Z</time>
      </trkpt>
      <trkpt lat="45.86139" lon="6.20128">
        <ele>498</ele>
        <time>2013-05-26T11:15:43.600Z</time>
      </trkpt>
      <trkpt lat="45.86144" lon="6.20125">
        <ele>493.8</ele>
        <time>2013-05-26T11:15:45.600Z</time>
      </trkpt>
      <trkpt lat="45.86147" lon="6.20123">
        <ele>492.9</ele>
        <time>2013-05-26T11:15:46.600Z</time>
      </trkpt>
      <trkpt lat="45.8615" lon="6.20121">
        <ele>492.6</ele>
        <time>2013-05-26T11:15:47.600Z</time>
      </trkpt>
      <trkpt lat="45.86155" lon="6.20118">
        <ele>497.5</ele>
        <time>2013-05-26T11:15:49.600Z</time>
      </trkpt>
      <trkpt lat="45.86157" lon="6.20117">
        <ele>498.1</ele>
        <time>2013-05-26T11:15:50.600Z</time>
      </trkpt>
      <trkpt lat="45.8616" lon="6.20116">
        <ele>498.6</ele>
        <time>2013-05-26T11:15:51.600Z</time>
      </trkpt>
      <trkpt lat="45.86163" lon="6.20115">
        <ele>497.4</ele>
        <time>2013-05-26T11:15:52.600Z</time>
      </trkpt>
      <trkpt lat="45.86166" lon="6.20113">
        <ele>494.8</ele>
        <time>2013-05-26T11:15:53.600Z</time>
      </trkpt>
      <trkpt lat="45.86169" lon="6.20111">
        <ele>494.2</ele>
        <time>2013-05-26T11:15:54.600Z</time>
      </trkpt>
      <trkpt lat="45.86175" lon="6.20102">
        <ele>489.4</ele>
        <time>2013-05-26T11:15:59.600Z</time>
      </trkpt>
      <trkpt lat="45.86172" lon="6.20092">
        <ele>491.3</ele>
        <time>2013-05-26T11:16:02.600Z</time>
      </trkpt>
      <trkpt lat="45.8617" lon="6.20088">
        <ele>491.9</ele>
        <time>2013-05-26T11:16:03.600Z</time>
      </trkpt>
      <trkpt lat="45.86169" lon="6.20085">
        <ele>491.1</ele>
        <time>2013-05-26T11:16:04.600Z</time>
      </trkpt>
      <trkpt lat="45.86168" lon="6.20081">
        <ele>491.3</ele>
        <time>2013-05-26T11:16:05.600Z</time>
      </trkpt>
      <trkpt lat="45.86166" lon="6.20074">
        <ele>491.2</ele>
        <time>2013-05-26T11:16:07.600Z</time>
      </trkpt>
      <trkpt lat="45.86164" lon="6.2007">
        <ele>488.3</ele>
        <time>2013-05-26T11:16:08.600Z</time>
      </trkpt>
      <trkpt lat="45.86161" lon="6.20066">
        <ele>490.7</ele>
        <time>2013-05-26T11:16:09.700Z</time>
      </trkpt>
      <trkpt lat="45.86157" lon="6.20058">
        <ele>488.8</ele>
        <time>2013-05-26T11:16:11.600Z</time>
      </trkpt>
      <trkpt lat="45.86155" lon="6.20055">
        <ele>487.3</ele>
        <time>2013-05-26T11:16:12.600Z</time>
      </trkpt>
      <trkpt lat="45.86154" lon="6.20051">
        <ele>488.7</ele>
        <time>2013-05-26T11:16:13.600Z</time>
      </trkpt>
      <trkpt lat="45.86151" lon="6.20042">
        <ele>490.4</ele>
        <time>2013-05-26T11:16:15.700Z</time>
      </trkpt>
      <trkpt lat="45.86143" lon="6.20027">
        <ele>491.5</ele>
        <time>2013-05-26T11:16:20.600Z</time>
      </trkpt>
      <trkpt lat="45.86141" lon="6.20024">
        <ele>496.4</ele>
        <time>2013-05-26T11:16:21.600Z</time>
      </trkpt>
      <trkpt lat="45.86139" lon="6.20021">
        <ele>493.3</ele>
        <time>2013-05-26T11:16:22.600Z</time>
      </trkpt>
      <trkpt lat="45.86136" lon="6.20018">
        <ele>493.5</ele>
        <time>2013-05-26T11:16:23.600Z</time>
      </trkpt>
      <trkpt lat="45.86133" lon="6.20015">
        <ele>492.8</ele>
        <time>2013-05-26T11:16:24.600Z</time>
      </trkpt>
      <trkpt lat="45.86131" lon="6.20012">
        <ele>496.3</ele>
        <time>2013-05-26T11:16:25.600Z</time>
      </trkpt>
      <trkpt lat="45.86128" lon="6.20008">
        <ele>498.1</ele>
        <time>2013-05-26T11:16:26.600Z</time>
      </trkpt>
      <trkpt lat="45.86126" lon="6.20005">
        <ele>496.1</ele>
        <time>2013-05-26T11:16:27.600Z</time>
      </trkpt>
      <trkpt lat="45.86123" lon="6.20002">
        <ele>495.9</ele>
        <time>2013-05-26T11:16:28.600Z</time>
      </trkpt>
      <trkpt lat="45.8612" lon="6.2">
        <ele>498.1</ele>
        <time>2013-05-26T11:16:29.600Z</time>
      </trkpt>
      <trkpt lat="45.86118" lon="6.19997">
        <ele>496.7</ele>
        <time>2013-05-26T11:16:30.600Z</time>
      </trkpt>
      <trkpt lat="45.86115" lon="6.19995">
        <ele>494.6</ele>
        <time>2013-05-26T11:16:31.600Z</time>
      </trkpt>
      <trkpt lat="45.86112" lon="6.19993">
        <ele>496</ele>
        <time>2013-05-26T11:16:32.600Z</time>
      </trkpt>
      <trkpt lat="45.86111" lon="6.1999">
        <ele>497.3</ele>
        <time>2013-05-26T11:16:33.600Z</time>
      </trkpt>
      <trkpt lat="45.86107" lon="6.19984">
        <ele>495.7</ele>
        <time>2013-05-26T11:16:35.600Z</time>
      </trkpt>
      <trkpt lat="45.86101" lon="6.19969">
        <ele>487.7</ele>
        <time>2013-05-26T11:16:40.600Z</time>
      </trkpt>
      <trkpt lat="45.86101" lon="6.19965">
        <ele>485</ele>
        <time>2013-05-26T11:16:41.600Z</time>
      </trkpt>
      <trkpt lat="45.861" lon="6.19962">
        <ele>487.6</ele>
        <time>2013-05-26T11:16:42.600Z</time>
      </trkpt>
      <trkpt lat="45.861" lon="6.19958">
        <ele>484.5</ele>
        <time>2013-05-26T11:16:43.600Z</time>
      </trkpt>
      <trkpt lat="45.86099" lon="6.19953">
        <ele>483.9</ele>
        <time>2013-05-26T11:16:44.600Z</time>
      </trkpt>
      <trkpt lat="45.86099" lon="6.19948">
        <ele>483</ele>
        <time>2013-05-26T11:16:45.600Z</time>
      </trkpt>
      <trkpt lat="45.86098" lon="6.19944">
        <ele>486.1</ele>
        <time>2013-05-26T11:16:46.600Z</time>
      </trkpt>
      <trkpt lat="45.86098" lon="6.19941">
        <ele>482.4</ele>
        <time>2013-05-26T11:16:47.600Z</time>
      </trkpt>
      <trkpt lat="45.86098" lon="6.19937">
        <ele>484.1</ele>
        <time>2013-05-26T11:16:48.600Z</time>
      </trkpt>
      <trkpt lat="45.86098" lon="6.19933">
        <ele>485.7</ele>
        <time>2013-05-26T11:16:49.600Z</time>
      </trkpt>
      <trkpt lat="45.86098" lon="6.19925">
        <ele>494.7</ele>
        <time>2013-05-26T11:16:51.600Z</time>
      </trkpt>
      <trkpt lat="45.86098" lon="6.19921">
        <ele>494.6</ele>
        <time>2013-05-26T11:16:52.600Z</time>
      </trkpt>
      <trkpt lat="45.86097" lon="6.19917">
        <ele>496.9</ele>
        <time>2013-05-26T11:16:53.600Z</time>
      </trkpt>
      <trkpt lat="45.86097" lon="6.19913">
        <ele>498.8</ele>
        <time>2013-05-26T11:16:54.600Z</time>
      </trkpt>
      <trkpt lat="45.86096" lon="6.19903">
        <ele>502.1</ele>
        <time>2013-05-26T11:16:57.600Z</time>
      </trkpt>
      <trkpt lat="45.86096" lon="6.19899">
        <ele>498.4</ele>
        <time>2013-05-26T11:16:58.600Z</time>
      </trkpt>
      <trkpt lat="45.86096" lon="6.19895">
        <ele>500.1</ele>
        <time>2013-05-26T11:16:59.600Z</time>
      </trkpt>
      <trkpt lat="45.86097" lon="6.19892">
        <ele>497.3</ele>
        <time>2013-05-26T11:17:00.600Z</time>
      </trkpt>
      <trkpt lat="45.86099" lon="6.19888">
        <ele>495.8</ele>
        <time>2013-05-26T11:17:01.600Z</time>
      </trkpt>
      <trkpt lat="45.86101" lon="6.19884">
        <ele>498.4</ele>
        <time>2013-05-26T11:17:02.600Z</time>
      </trkpt>
      <trkpt lat="45.86102" lon="6.1988">
        <ele>497.6</ele>
        <time>2013-05-26T11:17:03.600Z</time>
      </trkpt>
      <trkpt lat="45.86104" lon="6.19877">
        <ele>497.2</ele>
        <time>2013-05-26T11:17:04.600Z</time>
      </trkpt>
      <trkpt lat="45.86106" lon="6.19873">
        <ele>499.4</ele>
        <time>2013-05-26T11:17:05.600Z</time>
      </trkpt>
      <trkpt lat="45.86107" lon="6.1987">
        <ele>498.3</ele>
        <time>2013-05-26T11:17:06.600Z</time>
      </trkpt>
      <trkpt lat="45.86107" lon="6.19866">
        <ele>499.4</ele>
        <time>2013-05-26T11:17:07.600Z</time>
      </trkpt>
      <trkpt lat="45.86107" lon="6.19862">
        <ele>496.2</ele>
        <time>2013-05-26T11:17:08.600Z</time>
      </trkpt>
      <trkpt lat="45.86107" lon="6.19858">
        <ele>499.8</ele>
        <time>2013-05-26T11:17:09.600Z</time>
      </trkpt>
      <trkpt lat="45.86106" lon="6.19854">
        <ele>497.4</ele>
        <time>2013-05-26T11:17:10.600Z</time>
      </trkpt>
      <trkpt lat="45.86104" lon="6.19847">
        <ele>498.3</ele>
        <time>2013-05-26T11:17:12.600Z</time>
      </trkpt>
      <trkpt lat="45.86103" lon="6.19843">
        <ele>500.3</ele>
        <time>2013-05-26T11:17:13.600Z</time>
      </trkpt>
      <trkpt lat="45.86102" lon="6.1984">
        <ele>500.2</ele>
        <time>2013-05-26T11:17:14.600Z</time>
      </trkpt>
      <trkpt lat="45.861" lon="6.19836">
        <ele>497</ele>
        <time>2013-05-26T11:17:15.600Z</time>
      </trkpt>
      <trkpt lat="45.86096" lon="6.19828">
        <ele>495.5</ele>
        <time>2013-05-26T11:17:17.600Z</time>
      </trkpt>
      <trkpt lat="45.86094" lon="6.19824">
        <ele>495.1</ele>
        <time>2013-05-26T11:17:18.600Z</time>
      </trkpt>
      <trkpt lat="45.86091" lon="6.19818">
        <ele>499.9</ele>
        <time>2013-05-26T11:17:20.600Z</time>
      </trkpt>
      <trkpt lat="45.86089" lon="6.19814">
        <ele>499.7</ele>
        <time>2013-05-26T11:17:21.600Z</time>
      </trkpt>
      <trkpt lat="45.86087" lon="6.19811">
        <ele>498.4</ele>
        <time>2013-05-26T11:17:22.600Z</time>
      </trkpt>
      <trkpt lat="45.86085" lon="6.19807">
        <ele>498.5</ele>
        <time>2013-05-26T11:17:23.600Z</time>
      </trkpt>
      <trkpt lat="45.86083" lon="6.19792">
        <ele>490.1</ele>
        <time>2013-05-26T11:17:28.600Z</time>
      </trkpt>
      <trkpt lat="45.86087" lon="6.19776">
        <ele>492.1</ele>
        <time>2013-05-26T11:17:33.600Z</time>
      </trkpt>
      <trkpt lat="45.86091" lon="6.19762">
        <ele>491.6</ele>
        <time>2013-05-26T11:17:37.600Z</time>
      </trkpt>
      <trkpt lat="45.86099" lon="6.1975">
        <ele>491.2</ele>
        <time>2013-05-26T11:17:42.600Z</time>
      </trkpt>
      <trkpt lat="45.86101" lon="6.19748">
        <ele>490.7</ele>
        <time>2013-05-26T11:17:43.600Z</time>
      </trkpt>
      <trkpt lat="45.86103" lon="6.19745">
        <ele>491.8</ele>
        <time>2013-05-26T11:17:44.600Z</time>
      </trkpt>
      <trkpt lat="45.86105" lon="6.19743">
        <ele>489.7</ele>
        <time>2013-05-26T11:17:45.600Z</time>
      </trkpt>
      <trkpt lat="45.86107" lon="6.1974">
        <ele>491</ele>
        <time>2013-05-26T11:17:46.600Z</time>
      </trkpt>
      <trkpt lat="45.86109" lon="6.19738">
        <ele>491.9</ele>
        <time>2013-05-26T11:17:47.600Z</time>
      </trkpt>
      <trkpt lat="45.86111" lon="6.19735">
        <ele>488.5</ele>
        <time>2013-05-26T11:17:48.600Z</time>
      </trkpt>
      <trkpt lat="45.8611" lon="6.19721">
        <ele>489</ele>
        <time>2013-05-26T11:17:53.600Z</time>
      </trkpt>
      <trkpt lat="45.86108" lon="6.19712">
        <ele>489.6</ele>
        <time>2013-05-26T11:17:57.600Z</time>
      </trkpt>
      <trkpt lat="45.86106" lon="6.1971">
        <ele>488.2</ele>
        <time>2013-05-26T11:17:58.600Z</time>
      </trkpt>
      <trkpt lat="45.86104" lon="6.19708">
        <ele>491</ele>
        <time>2013-05-26T11:17:59.600Z</time>
      </trkpt>
      <trkpt lat="45.86102" lon="6.19706">
        <ele>491</ele>
        <time>2013-05-26T11:18:00.600Z</time>
      </trkpt>
      <trkpt lat="45.861" lon="6.19705">
        <ele>492.3</ele>
        <time>2013-05-26T11:18:01.600Z</time>
      </trkpt>
      <trkpt lat="45.86097" lon="6.19703">
        <ele>491.8</ele>
        <time>2013-05-26T11:18:02.600Z</time>
      </trkpt>
      <trkpt lat="45.86087" lon="6.197">
        <ele>490</ele>
        <time>2013-05-26T11:18:07.600Z</time>
      </trkpt>
      <trkpt lat="45.86083" lon="6.197">
        <ele>485.7</ele>
        <time>2013-05-26T11:18:09.600Z</time>
      </trkpt>
      <trkpt lat="45.86081" lon="6.197">
        <ele>483.3</ele>
        <time>2013-05-26T11:18:13.700Z</time>
      </trkpt>
      <trkpt lat="45.86077" lon="6.19695">
        <ele>485.4</ele>
        <time>2013-05-26T11:18:17.700Z</time>
      </trkpt>
      <trkpt lat="45.86066" lon="6.19685">
        <ele>485.5</ele>
        <time>2013-05-26T11:18:21.700Z</time>
      </trkpt>
      <trkpt lat="45.86049" lon="6.19668">
        <ele>488.4</ele>
        <time>2013-05-26T11:18:26.600Z</time>
      </trkpt>
      <trkpt lat="45.86037" lon="6.19655">
        <ele>486.9</ele>
        <time>2013-05-26T11:18:30.700Z</time>
      </trkpt>
      <trkpt lat="45.86035" lon="6.19653">
        <ele>485.9</ele>
        <time>2013-05-26T11:18:31.700Z</time>
      </trkpt>
      <trkpt lat="45.86033" lon="6.19651">
        <ele>479.6</ele>
        <time>2013-05-26T11:18:32.700Z</time>
      </trkpt>
      <trkpt lat="45.86031" lon="6.19648">
        <ele>481.6</ele>
        <time>2013-05-26T11:18:33.700Z</time>
      </trkpt>
      <trkpt lat="45.86028" lon="6.19645">
        <ele>481.9</ele>
        <time>2013-05-26T11:18:34.700Z</time>
      </trkpt>
      <trkpt lat="45.86022" lon="6.19639">
        <ele>484.5</ele>
        <time>2013-05-26T11:18:36.700Z</time>
      </trkpt>
      <trkpt lat="45.86017" lon="6.19635">
        <ele>480.5</ele>
        <time>2013-05-26T11:18:38.700Z</time>
      </trkpt>
      <trkpt lat="45.86014" lon="6.19633">
        <ele>479.9</ele>
        <time>2013-05-26T11:18:39.600Z</time>
      </trkpt>
      <trkpt lat="45.8601" lon="6.1963">
        <ele>486.2</ele>
        <time>2013-05-26T11:18:41.700Z</time>
      </trkpt>
      <trkpt lat="45.86007" lon="6.19628">
        <ele>482.2</ele>
        <time>2013-05-26T11:18:42.700Z</time>
      </trkpt>
      <trkpt lat="45.86005" lon="6.19626">
        <ele>480.9</ele>
        <time>2013-05-26T11:18:43.700Z</time>
      </trkpt>
      <trkpt lat="45.86002" lon="6.19623">
        <ele>483.1</ele>
        <time>2013-05-26T11:18:44.700Z</time>
      </trkpt>
      <trkpt lat="45.85999" lon="6.19616">
        <ele>483.1</ele>
        <time>2013-05-26T11:18:46.600Z</time>
      </trkpt>
      <trkpt lat="45.85998" lon="6.19613">
        <ele>479.9</ele>
        <time>2013-05-26T11:18:47.600Z</time>
      </trkpt>
      <trkpt lat="45.85994" lon="6.19609">
        <ele>478.3</ele>
        <time>2013-05-26T11:18:49.600Z</time>
      </trkpt>
      <trkpt lat="45.85992" lon="6.19608">
        <ele>477.2</ele>
        <time>2013-05-26T11:18:50.600Z</time>
      </trkpt>
      <trkpt lat="45.85989" lon="6.19608">
        <ele>477.5</ele>
        <time>2013-05-26T11:18:51.600Z</time>
      </trkpt>
      <trkpt lat="45.85983" lon="6.19608">
        <ele>481.2</ele>
        <time>2013-05-26T11:18:56.600Z</time>
      </trkpt>
      <trkpt lat="45.85982" lon="6.19607">
        <ele>481.7</ele>
        <time>2013-05-26T11:18:57.600Z</time>
      </trkpt>
      <trkpt lat="45.8598" lon="6.19598">
        <ele>484.5</ele>
        <time>2013-05-26T11:19:01.600Z</time>
      </trkpt>
      <trkpt lat="45.8598" lon="6.19596">
        <ele>484.3</ele>
        <time>2013-05-26T11:19:02.600Z</time>
      </trkpt>
      <trkpt lat="45.85982" lon="6.19592">
        <ele>480.2</ele>
        <time>2013-05-26T11:19:04.600Z</time>
      </trkpt>
      <trkpt lat="45.85982" lon="6.1959">
        <ele>483</ele>
        <time>2013-05-26T11:19:05.600Z</time>
      </trkpt>
      <trkpt lat="45.85983" lon="6.19584">
        <ele>477.4</ele>
        <time>2013-05-26T11:19:09.700Z</time>
      </trkpt>
      <trkpt lat="45.85984" lon="6.19583">
        <ele>483.9</ele>
        <time>2013-05-26T11:19:14.600Z</time>
      </trkpt>
      <trkpt lat="45.85983" lon="6.19584">
        <ele>481.5</ele>
        <time>2013-05-26T11:19:19.600Z</time>
      </trkpt>
      <trkpt lat="45.85983" lon="6.19587">
        <ele>482</ele>
        <time>2013-05-26T11:19:21.600Z</time>
      </trkpt>
      <trkpt lat="45.85974" lon="6.19594">
        <ele>482.9</ele>
        <time>2013-05-26T11:19:25.600Z</time>
      </trkpt>
      <trkpt lat="45.85973" lon="6.19596">
        <ele>483.3</ele>
        <time>2013-05-26T11:19:26.600Z</time>
      </trkpt>
      <trkpt lat="45.85971" lon="6.19599">
        <ele>483.5</ele>
        <time>2013-05-26T11:19:27.600Z</time>
      </trkpt>
      <trkpt lat="45.85968" lon="6.19601">
        <ele>485.6</ele>
        <time>2013-05-26T11:19:28.600Z</time>
      </trkpt>
      <trkpt lat="45.85966" lon="6.19602">
        <ele>482.3</ele>
        <time>2013-05-26T11:19:29.600Z</time>
      </trkpt>
      <trkpt lat="45.85964" lon="6.19603">
        <ele>489.2</ele>
        <time>2013-05-26T11:19:30.600Z</time>
      </trkpt>
      <trkpt lat="45.85962" lon="6.19604">
        <ele>488.8</ele>
        <time>2013-05-26T11:19:31.600Z</time>
      </trkpt>
      <trkpt lat="45.85959" lon="6.19606">
        <ele>488</ele>
        <time>2013-05-26T11:19:32.600Z</time>
      </trkpt>
      <trkpt lat="45.85957" lon="6.19607">
        <ele>485.8</ele>
        <time>2013-05-26T11:19:33.600Z</time>
      </trkpt>
      <trkpt lat="45.85954" lon="6.1961">
        <ele>485.7</ele>
        <time>2013-05-26T11:19:34.600Z</time>
      </trkpt>
      <trkpt lat="45.8595" lon="6.19613">
        <ele>483.6</ele>
        <time>2013-05-26T11:19:36.600Z</time>
      </trkpt>
      <trkpt lat="45.85945" lon="6.19618">
        <ele>487.5</ele>
        <time>2013-05-26T11:19:38.600Z</time>
      </trkpt>
      <trkpt lat="45.85943" lon="6.1962">
        <ele>488.9</ele>
        <time>2013-05-26T11:19:39.600Z</time>
      </trkpt>
      <trkpt lat="45.8594" lon="6.19622">
        <ele>491</ele>
        <time>2013-05-26T11:19:40.700Z</time>
      </trkpt>
      <trkpt lat="45.85935" lon="6.19628">
        <ele>491.2</ele>
        <time>2013-05-26T11:19:42.600Z</time>
      </trkpt>
      <trkpt lat="45.85932" lon="6.1963">
        <ele>487.2</ele>
        <time>2013-05-26T11:19:43.600Z</time>
      </trkpt>
      <trkpt lat="45.85929" lon="6.19632">
        <ele>488.1</ele>
        <time>2013-05-26T11:19:44.600Z</time>
      </trkpt>
      <trkpt lat="45.85927" lon="6.19635">
        <ele>484.9</ele>
        <time>2013-05-26T11:19:45.600Z</time>
      </trkpt>
      <trkpt lat="45.85925" lon="6.19638">
        <ele>483.3</ele>
        <time>2013-05-26T11:19:46.600Z</time>
      </trkpt>
      <trkpt lat="45.85919" lon="6.19642">
        <ele>489.4</ele>
        <time>2013-05-26T11:19:48.600Z</time>
      </trkpt>
      <trkpt lat="45.85916" lon="6.19644">
        <ele>491.9</ele>
        <time>2013-05-26T11:19:49.600Z</time>
      </trkpt>
      <trkpt lat="45.85913" lon="6.19647">
        <ele>492.8</ele>
        <time>2013-05-26T11:19:50.600Z</time>
      </trkpt>
      <trkpt lat="45.85911" lon="6.19649">
        <ele>492.8</ele>
        <time>2013-05-26T11:19:51.600Z</time>
      </trkpt>
      <trkpt lat="45.85909" lon="6.1965">
        <ele>494.3</ele>
        <time>2013-05-26T11:19:52.600Z</time>
      </trkpt>
      <trkpt lat="45.85906" lon="6.19652">
        <ele>492.8</ele>
        <time>2013-05-26T11:19:53.600Z</time>
      </trkpt>
      <trkpt lat="45.85904" lon="6.19653">
        <ele>490.3</ele>
        <time>2013-05-26T11:19:54.600Z</time>
      </trkpt>
      <trkpt lat="45.85901" lon="6.19656">
        <ele>489.9</ele>
        <time>2013-05-26T11:19:55.600Z</time>
      </trkpt>
      <trkpt lat="45.85898" lon="6.19658">
        <ele>487.9</ele>
        <time>2013-05-26T11:19:56.600Z</time>
      </trkpt>
      <trkpt lat="45.85889" lon="6.19661">
        <ele>487.8</ele>
        <time>2013-05-26T11:20:00.600Z</time>
      </trkpt>
      <trkpt lat="45.85886" lon="6.19662">
        <ele>487.6</ele>
        <time>2013-05-26T11:20:01.600Z</time>
      </trkpt>
      <trkpt lat="45.85883" lon="6.19663">
        <ele>486.1</ele>
        <time>2013-05-26T11:20:02.600Z</time>
      </trkpt>
      <trkpt lat="45.85881" lon="6.19665">
        <ele>482.6</ele>
        <time>2013-05-26T11:20:03.700Z</time>
      </trkpt>
      <trkpt lat="45.85876" lon="6.19669">
        <ele>484.2</ele>
        <time>2013-05-26T11:20:05.600Z</time>
      </trkpt>
      <trkpt lat="45.85862" lon="6.19676">
        <ele>490.2</ele>
        <time>2013-05-26T11:20:09.600Z</time>
      </trkpt>
      <trkpt lat="45.85857" lon="6.19681">
        <ele>487</ele>
        <time>2013-05-26T11:20:11.600Z</time>
      </trkpt>
      <trkpt lat="45.85854" lon="6.19684">
        <ele>487.3</ele>
        <time>2013-05-26T11:20:12.600Z</time>
      </trkpt>
      <trkpt lat="45.85851" lon="6.19686">
        <ele>487</ele>
        <time>2013-05-26T11:20:13.600Z</time>
      </trkpt>
      <trkpt lat="45.85848" lon="6.19689">
        <ele>485.7</ele>
        <time>2013-05-26T11:20:14.600Z</time>
      </trkpt>
      <trkpt lat="45.85845" lon="6.1969">
        <ele>482.2</ele>
        <time>2013-05-26T11:20:15.600Z</time>
      </trkpt>
      <trkpt lat="45.85842" lon="6.19694">
        <ele>482.4</ele>
        <time>2013-05-26T11:20:16.900Z</time>
      </trkpt>
      <trkpt lat="45.85836" lon="6.19698">
        <ele>481.6</ele>
        <time>2013-05-26T11:20:18.600Z</time>
      </trkpt>
      <trkpt lat="45.85833" lon="6.197">
        <ele>482.8</ele>
        <time>2013-05-26T11:20:19.600Z</time>
      </trkpt>
      <trkpt lat="45.8583" lon="6.19701">
        <ele>482.4</ele>
        <time>2013-05-26T11:20:20.600Z</time>
      </trkpt>
      <trkpt lat="45.85827" lon="6.19703">
        <ele>481.6</ele>
        <time>2013-05-26T11:20:21.600Z</time>
      </trkpt>
      <trkpt lat="45.85818" lon="6.19707">
        <ele>484.5</ele>
        <time>2013-05-26T11:20:25.600Z</time>
      </trkpt>
      <trkpt lat="45.85809" lon="6.19706">
        <ele>483.1</ele>
        <time>2013-05-26T11:20:30.600Z</time>
      </trkpt>
      <trkpt lat="45.85807" lon="6.19703">
        <ele>484.8</ele>
        <time>2013-05-26T11:20:31.600Z</time>
      </trkpt>
      <trkpt lat="45.85806" lon="6.197">
        <ele>488.4</ele>
        <time>2013-05-26T11:20:32.700Z</time>
      </trkpt>
      <trkpt lat="45.85802" lon="6.19691">
        <ele>484.9</ele>
        <time>2013-05-26T11:20:34.600Z</time>
      </trkpt>
      <trkpt lat="45.85795" lon="6.19675">
        <ele>478.3</ele>
        <time>2013-05-26T11:20:37.700Z</time>
      </trkpt>
      <trkpt lat="45.8579" lon="6.19667">
        <ele>480.7</ele>
        <time>2013-05-26T11:20:39.600Z</time>
      </trkpt>
      <trkpt lat="45.85789" lon="6.19663">
        <ele>482.7</ele>
        <time>2013-05-26T11:20:40.600Z</time>
      </trkpt>
      <trkpt lat="45.85787" lon="6.1966">
        <ele>482</ele>
        <time>2013-05-26T11:20:41.600Z</time>
      </trkpt>
      <trkpt lat="45.85785" lon="6.19656">
        <ele>481.2</ele>
        <time>2013-05-26T11:20:42.600Z</time>
      </trkpt>
      <trkpt lat="45.85783" lon="6.19652">
        <ele>482.6</ele>
        <time>2013-05-26T11:20:43.700Z</time>
      </trkpt>
      <trkpt lat="45.85779" lon="6.19646">
        <ele>483.2</ele>
        <time>2013-05-26T11:20:45.600Z</time>
      </trkpt>
      <trkpt lat="45.85777" lon="6.19643">
        <ele>485</ele>
        <time>2013-05-26T11:20:46.600Z</time>
      </trkpt>
      <trkpt lat="45.85773" lon="6.19636">
        <ele>485</ele>
        <time>2013-05-26T11:20:48.600Z</time>
      </trkpt>
      <trkpt lat="45.85771" lon="6.19633">
        <ele>482.4</ele>
        <time>2013-05-26T11:20:49.600Z</time>
      </trkpt>
      <trkpt lat="45.85769" lon="6.1963">
        <ele>482</ele>
        <time>2013-05-26T11:20:50.700Z</time>
      </trkpt>
      <trkpt lat="45.85767" lon="6.19627">
        <ele>483.2</ele>
        <time>2013-05-26T11:20:51.700Z</time>
      </trkpt>
      <trkpt lat="45.85765" lon="6.19624">
        <ele>480.2</ele>
        <time>2013-05-26T11:20:52.700Z</time>
      </trkpt>
      <trkpt lat="45.85763" lon="6.19621">
        <ele>479.4</ele>
        <time>2013-05-26T11:20:53.600Z</time>
      </trkpt>
      <trkpt lat="45.85761" lon="6.19618">
        <ele>478.5</ele>
        <time>2013-05-26T11:20:54.700Z</time>
      </trkpt>
      <trkpt lat="45.85759" lon="6.19611">
        <ele>479.4</ele>
        <time>2013-05-26T11:20:56.600Z</time>
      </trkpt>
      <trkpt lat="45.85759" lon="6.19607">
        <ele>478.6</ele>
        <time>2013-05-26T11:20:57.600Z</time>
      </trkpt>
      <trkpt lat="45.85757" lon="6.19599">
        <ele>478</ele>
        <time>2013-05-26T11:20:59.600Z</time>
      </trkpt>
      <trkpt lat="45.85757" lon="6.19595">
        <ele>480</ele>
        <time>2013-05-26T11:21:00.600Z</time>
      </trkpt>
      <trkpt lat="45.85756" lon="6.19591">
        <ele>480.3</ele>
        <time>2013-05-26T11:21:01.600Z</time>
      </trkpt>
      <trkpt lat="45.85755" lon="6.19587">
        <ele>479.6</ele>
        <time>2013-05-26T11:21:02.600Z</time>
      </trkpt>
      <trkpt lat="45.85754" lon="6.19582">
        <ele>477.2</ele>
        <time>2013-05-26T11:21:03.600Z</time>
      </trkpt>
      <trkpt lat="45.85754" lon="6.19578">
        <ele>480.2</ele>
        <time>2013-05-26T11:21:04.600Z</time>
      </trkpt>
      <trkpt lat="45.85753" lon="6.19571">
        <ele>472.5</ele>
        <time>2013-05-26T11:21:06.600Z</time>
      </trkpt>
      <trkpt lat="45.85748" lon="6.19557">
        <ele>468.1</ele>
        <time>2013-05-26T11:21:11.600Z</time>
      </trkpt>
      <trkpt lat="45.85747" lon="6.19554">
        <ele>468.2</ele>
        <time>2013-05-26T11:21:12.600Z</time>
      </trkpt>
      <trkpt lat="45.85746" lon="6.19551">
        <ele>474.7</ele>
        <time>2013-05-26T11:21:13.600Z</time>
      </trkpt>
      <trkpt lat="45.85744" lon="6.19548">
        <ele>472.6</ele>
        <time>2013-05-26T11:21:14.600Z</time>
      </trkpt>
      <trkpt lat="45.85742" lon="6.19542">
        <ele>469.2</ele>
        <time>2013-05-26T11:21:16.600Z</time>
      </trkpt>
      <trkpt lat="45.85741" lon="6.19538">
        <ele>471</ele>
        <time>2013-05-26T11:21:17.600Z</time>
      </trkpt>
      <trkpt lat="45.85741" lon="6.19535">
        <ele>472.9</ele>
        <time>2013-05-26T11:21:18.600Z</time>
      </trkpt>
      <trkpt lat="45.85741" lon="6.1953">
        <ele>471.3</ele>
        <time>2013-05-26T11:21:19.700Z</time>
      </trkpt>
      <trkpt lat="45.85742" lon="6.19525">
        <ele>468.2</ele>
        <time>2013-05-26T11:21:20.700Z</time>
      </trkpt>
      <trkpt lat="45.85741" lon="6.19521">
        <ele>470.2</ele>
        <time>2013-05-26T11:21:21.600Z</time>
      </trkpt>
      <trkpt lat="45.85741" lon="6.19516">
        <ele>469.8</ele>
        <time>2013-05-26T11:21:22.600Z</time>
      </trkpt>
      <trkpt lat="45.85741" lon="6.19512">
        <ele>470.3</ele>
        <time>2013-05-26T11:21:23.600Z</time>
      </trkpt>
      <trkpt lat="45.8574" lon="6.19503">
        <ele>468.5</ele>
        <time>2013-05-26T11:21:25.600Z</time>
      </trkpt>
      <trkpt lat="45.8574" lon="6.19498">
        <ele>470.3</ele>
        <time>2013-05-26T11:21:26.600Z</time>
      </trkpt>
      <trkpt lat="45.85739" lon="6.19493">
        <ele>472.6</ele>
        <time>2013-05-26T11:21:27.600Z</time>
      </trkpt>
      <trkpt lat="45.85737" lon="6.19484">
        <ele>472.9</ele>
        <time>2013-05-26T11:21:29.600Z</time>
      </trkpt>
      <trkpt lat="45.85736" lon="6.1948">
        <ele>473</ele>
        <time>2013-05-26T11:21:30.600Z</time>
      </trkpt>
      <trkpt lat="45.85735" lon="6.19475">
        <ele>470.3</ele>
        <time>2013-05-26T11:21:31.600Z</time>
      </trkpt>
      <trkpt lat="45.85733" lon="6.19471">
        <ele>474.5</ele>
        <time>2013-05-26T11:21:32.700Z</time>
      </trkpt>
      <trkpt lat="45.85731" lon="6.19463">
        <ele>472.3</ele>
        <time>2013-05-26T11:21:34.600Z</time>
      </trkpt>
      <trkpt lat="45.85729" lon="6.19458">
        <ele>469</ele>
        <time>2013-05-26T11:21:35.600Z</time>
      </trkpt>
      <trkpt lat="45.85728" lon="6.19454">
        <ele>466.3</ele>
        <time>2013-05-26T11:21:36.600Z</time>
      </trkpt>
      <trkpt lat="45.85727" lon="6.1945">
        <ele>466.9</ele>
        <time>2013-05-26T11:21:37.600Z</time>
      </trkpt>
      <trkpt lat="45.85726" lon="6.19447">
        <ele>463.7</ele>
        <time>2013-05-26T11:21:38.600Z</time>
      </trkpt>
      <trkpt lat="45.85725" lon="6.19443">
        <ele>461.1</ele>
        <time>2013-05-26T11:21:39.600Z</time>
      </trkpt>
      <trkpt lat="45.85723" lon="6.19436">
        <ele>460.1</ele>
        <time>2013-05-26T11:21:41.600Z</time>
      </trkpt>
      <trkpt lat="45.85721" lon="6.19434">
        <ele>461.4</ele>
        <time>2013-05-26T11:21:42.600Z</time>
      </trkpt>
      <trkpt lat="45.85719" lon="6.19428">
        <ele>465.8</ele>
        <time>2013-05-26T11:21:44.600Z</time>
      </trkpt>
      <trkpt lat="45.85717" lon="6.19425">
        <ele>467</ele>
        <time>2013-05-26T11:21:45.700Z</time>
      </trkpt>
      <trkpt lat="45.85714" lon="6.1942">
        <ele>465.5</ele>
        <time>2013-05-26T11:21:47.600Z</time>
      </trkpt>
      <trkpt lat="45.85713" lon="6.19416">
        <ele>466.5</ele>
        <time>2013-05-26T11:21:48.600Z</time>
      </trkpt>
      <trkpt lat="45.85712" lon="6.19412">
        <ele>465.5</ele>
        <time>2013-05-26T11:21:49.700Z</time>
      </trkpt>
      <trkpt lat="45.85711" lon="6.19408">
        <ele>463.6</ele>
        <time>2013-05-26T11:21:50.700Z</time>
      </trkpt>
      <trkpt lat="45.85709" lon="6.194">
        <ele>466.7</ele>
        <time>2013-05-26T11:21:52.600Z</time>
      </trkpt>
      <trkpt lat="45.85708" lon="6.19396">
        <ele>466.2</ele>
        <time>2013-05-26T11:21:53.600Z</time>
      </trkpt>
      <trkpt lat="45.85708" lon="6.19391">
        <ele>466.3</ele>
        <time>2013-05-26T11:21:54.600Z</time>
      </trkpt>
      <trkpt lat="45.85706" lon="6.19383">
        <ele>470.4</ele>
        <time>2013-05-26T11:21:56.600Z</time>
      </trkpt>
      <trkpt lat="45.85705" lon="6.19376">
        <ele>470.1</ele>
        <time>2013-05-26T11:21:58.700Z</time>
      </trkpt>
      <trkpt lat="45.85705" lon="6.19362">
        <ele>464</ele>
        <time>2013-05-26T11:22:02.700Z</time>
      </trkpt>
      <trkpt lat="45.85704" lon="6.19358">
        <ele>461.5</ele>
        <time>2013-05-26T11:22:03.600Z</time>
      </trkpt>
      <trkpt lat="45.85704" lon="6.19355">
        <ele>461.9</ele>
        <time>2013-05-26T11:22:04.700Z</time>
      </trkpt>
      <trkpt lat="45.85703" lon="6.19351">
        <ele>460.3</ele>
        <time>2013-05-26T11:22:05.700Z</time>
      </trkpt>
      <trkpt lat="45.85702" lon="6.19343">
        <ele>460.9</ele>
        <time>2013-05-26T11:22:07.700Z</time>
      </trkpt>
      <trkpt lat="45.85698" lon="6.19333">
        <ele>458.5</ele>
        <time>2013-05-26T11:22:09.600Z</time>
      </trkpt>
      <trkpt lat="45.85695" lon="6.19327">
        <ele>454.6</ele>
        <time>2013-05-26T11:22:11.700Z</time>
      </trkpt>
      <trkpt lat="45.85694" lon="6.19324">
        <ele>457.4</ele>
        <time>2013-05-26T11:22:12.700Z</time>
      </trkpt>
      <trkpt lat="45.85692" lon="6.1932">
        <ele>459.9</ele>
        <time>2013-05-26T11:22:13.700Z</time>
      </trkpt>
      <trkpt lat="45.85691" lon="6.19317">
        <ele>458.4</ele>
        <time>2013-05-26T11:22:14.700Z</time>
      </trkpt>
      <trkpt lat="45.85687" lon="6.19309">
        <ele>458.3</ele>
        <time>2013-05-26T11:22:17.600Z</time>
      </trkpt>
      <trkpt lat="45.85685" lon="6.19306">
        <ele>456.6</ele>
        <time>2013-05-26T11:22:18.700Z</time>
      </trkpt>
      <trkpt lat="45.85683" lon="6.19303">
        <ele>455</ele>
        <time>2013-05-26T11:22:19.700Z</time>
      </trkpt>
      <trkpt lat="45.85681" lon="6.19299">
        <ele>453.1</ele>
        <time>2013-05-26T11:22:20.700Z</time>
      </trkpt>
      <trkpt lat="45.85679" lon="6.19296">
        <ele>453.3</ele>
        <time>2013-05-26T11:22:21.700Z</time>
      </trkpt>
      <trkpt lat="45.85677" lon="6.19293">
        <ele>453</ele>
        <time>2013-05-26T11:22:22.600Z</time>
      </trkpt>
      <trkpt lat="45.85675" lon="6.19289">
        <ele>453.8</ele>
        <time>2013-05-26T11:22:23.700Z</time>
      </trkpt>
      <trkpt lat="45.85674" lon="6.19286">
        <ele>456.2</ele>
        <time>2013-05-26T11:22:24.700Z</time>
      </trkpt>
      <trkpt lat="45.85671" lon="6.19279">
        <ele>452.5</ele>
        <time>2013-05-26T11:22:26.700Z</time>
      </trkpt>
      <trkpt lat="45.8567" lon="6.19276">
        <ele>449.5</ele>
        <time>2013-05-26T11:22:27.700Z</time>
      </trkpt>
      <trkpt lat="45.85667" lon="6.19268">
        <ele>440.5</ele>
        <time>2013-05-26T11:22:29.700Z</time>
      </trkpt>
      <trkpt lat="45.85667" lon="6.19264">
        <ele>445.4</ele>
        <time>2013-05-26T11:22:30.800Z</time>
      </trkpt>
      <trkpt lat="45.85666" lon="6.19255">
        <ele>447.5</ele>
        <time>2013-05-26T11:22:32.700Z</time>
      </trkpt>
      <trkpt lat="45.85665" lon="6.19251">
        <ele>448.9</ele>
        <time>2013-05-26T11:22:33.700Z</time>
      </trkpt>
      <trkpt lat="45.85664" lon="6.19246">
        <ele>449</ele>
        <time>2013-05-26T11:22:34.700Z</time>
      </trkpt>
      <trkpt lat="45.85663" lon="6.19241">
        <ele>450.4</ele>
        <time>2013-05-26T11:22:35.700Z</time>
      </trkpt>
      <trkpt lat="45.85662" lon="6.19237">
        <ele>448.3</ele>
        <time>2013-05-26T11:22:36.700Z</time>
      </trkpt>
      <trkpt lat="45.8566" lon="6.19229">
        <ele>448.9</ele>
        <time>2013-05-26T11:22:38.600Z</time>
      </trkpt>
      <trkpt lat="45.85659" lon="6.19225">
        <ele>448.3</ele>
        <time>2013-05-26T11:22:39.700Z</time>
      </trkpt>
      <trkpt lat="45.85656" lon="6.19216">
        <ele>447.9</ele>
        <time>2013-05-26T11:22:41.700Z</time>
      </trkpt>
      <trkpt lat="45.85654" lon="6.19213">
        <ele>447.7</ele>
        <time>2013-05-26T11:22:42.700Z</time>
      </trkpt>
      <trkpt lat="45.85653" lon="6.19209">
        <ele>439.3</ele>
        <time>2013-05-26T11:22:43.700Z</time>
      </trkpt>
      <trkpt lat="45.85652" lon="6.19205">
        <ele>438.5</ele>
        <time>2013-05-26T11:22:44.600Z</time>
      </trkpt>
      <trkpt lat="45.8565" lon="6.19202">
        <ele>437</ele>
        <time>2013-05-26T11:22:45.700Z</time>
      </trkpt>
      <trkpt lat="45.85648" lon="6.19199">
        <ele>436.1</ele>
        <time>2013-05-26T11:22:46.700Z</time>
      </trkpt>
      <trkpt lat="45.85647" lon="6.19196">
        <ele>437.1</ele>
        <time>2013-05-26T11:22:47.700Z</time>
      </trkpt>
      <trkpt lat="45.85644" lon="6.19187">
        <ele>437.3</ele>
        <time>2013-05-26T11:22:50.600Z</time>
      </trkpt>
      <trkpt lat="45.85643" lon="6.19184">
        <ele>438.2</ele>
        <time>2013-05-26T11:22:51.600Z</time>
      </trkpt>
      <trkpt lat="45.85641" lon="6.19181">
        <ele>437.5</ele>
        <time>2013-05-26T11:22:52.700Z</time>
      </trkpt>
      <trkpt lat="45.85639" lon="6.19175">
        <ele>442.8</ele>
        <time>2013-05-26T11:22:54.600Z</time>
      </trkpt>
      <trkpt lat="45.85638" lon="6.19172">
        <ele>440.5</ele>
        <time>2013-05-26T11:22:55.600Z</time>
      </trkpt>
      <trkpt lat="45.85637" lon="6.19168">
        <ele>442.7</ele>
        <time>2013-05-26T11:22:56.600Z</time>
      </trkpt>
      <trkpt lat="45.85636" lon="6.19163">
        <ele>441.8</ele>
        <time>2013-05-26T11:22:57.600Z</time>
      </trkpt>
      <trkpt lat="45.85634" lon="6.19159">
        <ele>442.1</ele>
        <time>2013-05-26T11:22:58.600Z</time>
      </trkpt>
      <trkpt lat="45.85632" lon="6.19152">
        <ele>446.7</ele>
        <time>2013-05-26T11:23:00.600Z</time>
      </trkpt>
      <trkpt lat="45.85629" lon="6.19149">
        <ele>450.3</ele>
        <time>2013-05-26T11:23:01.700Z</time>
      </trkpt>
      <trkpt lat="45.85626" lon="6.19142">
        <ele>453.5</ele>
        <time>2013-05-26T11:23:03.600Z</time>
      </trkpt>
      <trkpt lat="45.85623" lon="6.19135">
        <ele>452.1</ele>
        <time>2013-05-26T11:23:05.600Z</time>
      </trkpt>
      <trkpt lat="45.85623" lon="6.19131">
        <ele>451.2</ele>
        <time>2013-05-26T11:23:06.700Z</time>
      </trkpt>
      <trkpt lat="45.85622" lon="6.19128">
        <ele>451.1</ele>
        <time>2013-05-26T11:23:07.700Z</time>
      </trkpt>
      <trkpt lat="45.8562" lon="6.19121">
        <ele>452.5</ele>
        <time>2013-05-26T11:23:09.600Z</time>
      </trkpt>
      <trkpt lat="45.85617" lon="6.19112">
        <ele>447.3</ele>
        <time>2013-05-26T11:23:12.600Z</time>
      </trkpt>
      <trkpt lat="45.85613" lon="6.19102">
        <ele>447.1</ele>
        <time>2013-05-26T11:23:16.700Z</time>
      </trkpt>
      <trkpt lat="45.8561" lon="6.19095">
        <ele>450.2</ele>
        <time>2013-05-26T11:23:18.700Z</time>
      </trkpt>
      <trkpt lat="45.85608" lon="6.19091">
        <ele>453.6</ele>
        <time>2013-05-26T11:23:19.700Z</time>
      </trkpt>
      <trkpt lat="45.85607" lon="6.19088">
        <ele>452.2</ele>
        <time>2013-05-26T11:23:20.700Z</time>
      </trkpt>
      <trkpt lat="45.85601" lon="6.19079">
        <ele>449.1</ele>
        <time>2013-05-26T11:23:24.700Z</time>
      </trkpt>
      <trkpt lat="45.85599" lon="6.19075">
        <ele>448</ele>
        <time>2013-05-26T11:23:25.600Z</time>
      </trkpt>
      <trkpt lat="45.85597" lon="6.19073">
        <ele>447.9</ele>
        <time>2013-05-26T11:23:26.700Z</time>
      </trkpt>
      <trkpt lat="45.85595" lon="6.1907">
        <ele>447.4</ele>
        <time>2013-05-26T11:23:27.700Z</time>
      </trkpt>
      <trkpt lat="45.85593" lon="6.19067">
        <ele>448.8</ele>
        <time>2013-05-26T11:23:28.700Z</time>
      </trkpt>
      <trkpt lat="45.85591" lon="6.19062">
        <ele>449.3</ele>
        <time>2013-05-26T11:23:29.700Z</time>
      </trkpt>
      <trkpt lat="45.85588" lon="6.19047">
        <ele>440.7</ele>
        <time>2013-05-26T11:23:33.700Z</time>
      </trkpt>
      <trkpt lat="45.85587" lon="6.19043">
        <ele>437</ele>
        <time>2013-05-26T11:23:34.700Z</time>
      </trkpt>
      <trkpt lat="45.85583" lon="6.19036">
        <ele>445</ele>
        <time>2013-05-26T11:23:36.600Z</time>
      </trkpt>
      <trkpt lat="45.85582" lon="6.19033">
        <ele>443.4</ele>
        <time>2013-05-26T11:23:37.700Z</time>
      </trkpt>
      <trkpt lat="45.8558" lon="6.19028">
        <ele>449.7</ele>
        <time>2013-05-26T11:23:38.700Z</time>
      </trkpt>
      <trkpt lat="45.85577" lon="6.19019">
        <ele>448.7</ele>
        <time>2013-05-26T11:23:40.600Z</time>
      </trkpt>
      <trkpt lat="45.85573" lon="6.1901">
        <ele>448.2</ele>
        <time>2013-05-26T11:23:42.600Z</time>
      </trkpt>
      <trkpt lat="45.85572" lon="6.19006">
        <ele>448.8</ele>
        <time>2013-05-26T11:23:43.600Z</time>
      </trkpt>
      <trkpt lat="45.8557" lon="6.19003">
        <ele>446.9</ele>
        <time>2013-05-26T11:23:44.700Z</time>
      </trkpt>
      <trkpt lat="45.85567" lon="6.18996">
        <ele>444.3</ele>
        <time>2013-05-26T11:23:46.700Z</time>
      </trkpt>
      <trkpt lat="45.85564" lon="6.1899">
        <ele>447.3</ele>
        <time>2013-05-26T11:23:48.600Z</time>
      </trkpt>
      <trkpt lat="45.85562" lon="6.18986">
        <ele>445.6</ele>
        <time>2013-05-26T11:23:49.700Z</time>
      </trkpt>
      <trkpt lat="45.85561" lon="6.18982">
        <ele>448.7</ele>
        <time>2013-05-26T11:23:50.700Z</time>
      </trkpt>
      <trkpt lat="45.85557" lon="6.18974">
        <ele>451.9</ele>
        <time>2013-05-26T11:23:52.700Z</time>
      </trkpt>
      <trkpt lat="45.85556" lon="6.1897">
        <ele>449.7</ele>
        <time>2013-05-26T11:23:53.700Z</time>
      </trkpt>
      <trkpt lat="45.85554" lon="6.18965">
        <ele>447.7</ele>
        <time>2013-05-26T11:23:54.700Z</time>
      </trkpt>
      <trkpt lat="45.85553" lon="6.18961">
        <ele>448</ele>
        <time>2013-05-26T11:23:55.700Z</time>
      </trkpt>
      <trkpt lat="45.85551" lon="6.18952">
        <ele>447.1</ele>
        <time>2013-05-26T11:23:57.700Z</time>
      </trkpt>
      <trkpt lat="45.8555" lon="6.18948">
        <ele>443.7</ele>
        <time>2013-05-26T11:23:58.700Z</time>
      </trkpt>
      <trkpt lat="45.85548" lon="6.18945">
        <ele>444.3</ele>
        <time>2013-05-26T11:23:59.700Z</time>
      </trkpt>
      <trkpt lat="45.85546" lon="6.18942">
        <ele>443.2</ele>
        <time>2013-05-26T11:24:00.700Z</time>
      </trkpt>
      <trkpt lat="45.85544" lon="6.18936">
        <ele>440</ele>
        <time>2013-05-26T11:24:02.600Z</time>
      </trkpt>
      <trkpt lat="45.85543" lon="6.18932">
        <ele>441.9</ele>
        <time>2013-05-26T11:24:03.700Z</time>
      </trkpt>
      <trkpt lat="45.85541" lon="6.18927">
        <ele>439.4</ele>
        <time>2013-05-26T11:24:04.700Z</time>
      </trkpt>
      <trkpt lat="45.85541" lon="6.18923">
        <ele>438.2</ele>
        <time>2013-05-26T11:24:05.700Z</time>
      </trkpt>
      <trkpt lat="45.8554" lon="6.18919">
        <ele>440.1</ele>
        <time>2013-05-26T11:24:06.700Z</time>
      </trkpt>
      <trkpt lat="45.85539" lon="6.18912">
        <ele>442.8</ele>
        <time>2013-05-26T11:24:08.700Z</time>
      </trkpt>
      <trkpt lat="45.85539" lon="6.18908">
        <ele>440.2</ele>
        <time>2013-05-26T11:24:09.700Z</time>
      </trkpt>
      <trkpt lat="45.85539" lon="6.18901">
        <ele>439.2</ele>
        <time>2013-05-26T11:24:11.700Z</time>
      </trkpt>
      <trkpt lat="45.85539" lon="6.18897">
        <ele>437.7</ele>
        <time>2013-05-26T11:24:12.700Z</time>
      </trkpt>
      <trkpt lat="45.85539" lon="6.18893">
        <ele>437.7</ele>
        <time>2013-05-26T11:24:13.700Z</time>
      </trkpt>
      <trkpt lat="45.8554" lon="6.18889">
        <ele>439.2</ele>
        <time>2013-05-26T11:24:14.700Z</time>
      </trkpt>
      <trkpt lat="45.8554" lon="6.18881">
        <ele>446.4</ele>
        <time>2013-05-26T11:24:19.700Z</time>
      </trkpt>
      <trkpt lat="45.85543" lon="6.18872">
        <ele>440</ele>
        <time>2013-05-26T11:24:24.600Z</time>
      </trkpt>
      <trkpt lat="45.85547" lon="6.18865">
        <ele>449.9</ele>
        <time>2013-05-26T11:24:29.600Z</time>
      </trkpt>
      <trkpt lat="45.85548" lon="6.18864">
        <ele>449.6</ele>
        <time>2013-05-26T11:24:30.600Z</time>
      </trkpt>
      <trkpt lat="45.85554" lon="6.18861">
        <ele>448</ele>
        <time>2013-05-26T11:24:33.600Z</time>
      </trkpt>
      <trkpt lat="45.85557" lon="6.18862">
        <ele>447</ele>
        <time>2013-05-26T11:24:35.600Z</time>
      </trkpt>
      <trkpt lat="45.85561" lon="6.18862">
        <ele>450.8</ele>
        <time>2013-05-26T11:24:37.600Z</time>
      </trkpt>
      <trkpt lat="45.85563" lon="6.18862">
        <ele>451.6</ele>
        <time>2013-05-26T11:24:38.600Z</time>
      </trkpt>
      <trkpt lat="45.85565" lon="6.18863">
        <ele>451.7</ele>
        <time>2013-05-26T11:24:39.600Z</time>
      </trkpt>
      <trkpt lat="45.85567" lon="6.18863">
        <ele>453.2</ele>
        <time>2013-05-26T11:24:40.600Z</time>
      </trkpt>
      <trkpt lat="45.85569" lon="6.18863">
        <ele>454.3</ele>
        <time>2013-05-26T11:24:41.600Z</time>
      </trkpt>
      <trkpt lat="45.85572" lon="6.18863">
        <ele>452.8</ele>
        <time>2013-05-26T11:24:43.600Z</time>
      </trkpt>
      <trkpt lat="45.85573" lon="6.18863">
        <ele>452.9</ele>
        <time>2013-05-26T11:24:44.600Z</time>
      </trkpt>
      <trkpt lat="45.85578" lon="6.18861">
        <ele>450.7</ele>
        <time>2013-05-26T11:24:49.600Z</time>
      </trkpt>
      <trkpt lat="45.8558" lon="6.18861">
        <ele>451</ele>
        <time>2013-05-26T11:24:50.600Z</time>
      </trkpt>
      <trkpt lat="45.85586" lon="6.18861">
        <ele>450.8</ele>
        <time>2013-05-26T11:24:55.600Z</time>
      </trkpt>
      <trkpt lat="45.85587" lon="6.1886">
        <ele>450.7</ele>
        <time>2013-05-26T11:24:56.600Z</time>
      </trkpt>
      <trkpt lat="45.85589" lon="6.1886">
        <ele>451.5</ele>
        <time>2013-05-26T11:24:57.600Z</time>
      </trkpt>
      <trkpt lat="45.85594" lon="6.18858">
        <ele>448</ele>
        <time>2013-05-26T11:25:02.600Z</time>
      </trkpt>
      <trkpt lat="45.85598" lon="6.18857">
        <ele>442.4</ele>
        <time>2013-05-26T11:25:06.600Z</time>
      </trkpt>
      <trkpt lat="45.85603" lon="6.18854">
        <ele>444.5</ele>
        <time>2013-05-26T11:25:11.600Z</time>
      </trkpt>
      <trkpt lat="45.85609" lon="6.18851">
        <ele>447.4</ele>
        <time>2013-05-26T11:25:16.600Z</time>
      </trkpt>
      <trkpt lat="45.85612" lon="6.1885">
        <ele>446.3</ele>
        <time>2013-05-26T11:25:18.600Z</time>
      </trkpt>
      <trkpt lat="45.85613" lon="6.18849">
        <ele>447.1</ele>
        <time>2013-05-26T11:25:19.600Z</time>
      </trkpt>
      <trkpt lat="45.85617" lon="6.18846">
        <ele>450.9</ele>
        <time>2013-05-26T11:25:24.600Z</time>
      </trkpt>
      <trkpt lat="45.85622" lon="6.18843">
        <ele>449.7</ele>
        <time>2013-05-26T11:25:29.600Z</time>
      </trkpt>
      <trkpt lat="45.85625" lon="6.18841">
        <ele>449.2</ele>
        <time>2013-05-26T11:25:33.600Z</time>
      </trkpt>
    </trkseg>
  </trk>
</gpx>